<?xml version="1.0" encoding="UTF-8" standalone="no" ?>
<gpx xmlns="http://www.topografix.com/GPX/1/1" xmlns:xsi="http://www.w3.org/2001/XMLSchema-instance" xsi:schemaLocation="http://www.topografix.com/GPX/1/1 http://www.topografix.com/GPX/1/1/gpx.xsd" version="1.1" creator="VisuGPX - https://www.visugpx.com">
  <metadata>
    <name>Grenoble - Trail entrainement 2021-09-09</name>
  </metadata>
  <trk>
    <name><![CDATA[Grenoble - Fractionne-000]]></name>
    <trkseg>
      <trkpt lat="45.19643" lon="5.73989">
        <ele>222.60000610352</ele>
        <time>2021-09-09T03:16:44.000Z</time>
      </trkpt>
      <trkpt lat="45.19643" lon="5.7399">
        <ele>222.19999694824</ele>
        <time>2021-09-09T03:16:45.000Z</time>
      </trkpt>
      <trkpt lat="45.19643" lon="5.73993">
        <ele>220.80000305176</ele>
        <time>2021-09-09T03:16:52.000Z</time>
      </trkpt>
      <trkpt lat="45.19643" lon="5.73993">
        <ele>220.39999389648</ele>
        <time>2021-09-09T03:16:53.000Z</time>
      </trkpt>
      <trkpt lat="45.19642" lon="5.73995">
        <ele>219.19999694824</ele>
        <time>2021-09-09T03:16:57.000Z</time>
      </trkpt>
      <trkpt lat="45.19642" lon="5.73993">
        <ele>218.19999694824</ele>
        <time>2021-09-09T03:17:02.000Z</time>
      </trkpt>
      <trkpt lat="45.19642" lon="5.73992">
        <ele>218.19999694824</ele>
        <time>2021-09-09T03:17:03.000Z</time>
      </trkpt>
      <trkpt lat="45.19642" lon="5.73993">
        <ele>218.19999694824</ele>
        <time>2021-09-09T03:17:05.000Z</time>
      </trkpt>
      <trkpt lat="45.19642" lon="5.73988">
        <ele>218.39999389648</ele>
        <time>2021-09-09T03:17:08.000Z</time>
      </trkpt>
      <trkpt lat="45.19646" lon="5.73982">
        <ele>218.39999389648</ele>
        <time>2021-09-09T03:17:13.000Z</time>
      </trkpt>
      <trkpt lat="45.1965" lon="5.73983">
        <ele>218.39999389648</ele>
        <time>2021-09-09T03:17:16.000Z</time>
      </trkpt>
      <trkpt lat="45.19655" lon="5.73978">
        <ele>218.39999389648</ele>
        <time>2021-09-09T03:17:18.000Z</time>
      </trkpt>
      <trkpt lat="45.19667" lon="5.73964">
        <ele>218.19999694824</ele>
        <time>2021-09-09T03:17:25.000Z</time>
      </trkpt>
      <trkpt lat="45.19667" lon="5.73963">
        <ele>218.19999694824</ele>
        <time>2021-09-09T03:17:26.000Z</time>
      </trkpt>
      <trkpt lat="45.19667" lon="5.73962">
        <ele>218.19999694824</ele>
        <time>2021-09-09T03:17:27.000Z</time>
      </trkpt>
      <trkpt lat="45.19669" lon="5.73959">
        <ele>218.19999694824</ele>
        <time>2021-09-09T03:17:29.000Z</time>
      </trkpt>
      <trkpt lat="45.19671" lon="5.73957">
        <ele>218.19999694824</ele>
        <time>2021-09-09T03:17:30.000Z</time>
      </trkpt>
      <trkpt lat="45.19673" lon="5.73956">
        <ele>218.19999694824</ele>
        <time>2021-09-09T03:17:31.000Z</time>
      </trkpt>
      <trkpt lat="45.19684" lon="5.73955">
        <ele>218.19999694824</ele>
        <time>2021-09-09T03:17:35.000Z</time>
      </trkpt>
      <trkpt lat="45.19684" lon="5.73956">
        <ele>218</ele>
        <time>2021-09-09T03:17:36.000Z</time>
      </trkpt>
      <trkpt lat="45.19683" lon="5.73962">
        <ele>218</ele>
        <time>2021-09-09T03:17:39.000Z</time>
      </trkpt>
      <trkpt lat="45.19684" lon="5.73972">
        <ele>218.19999694824</ele>
        <time>2021-09-09T03:17:42.000Z</time>
      </trkpt>
      <trkpt lat="45.19686" lon="5.73979">
        <ele>218.19999694824</ele>
        <time>2021-09-09T03:17:44.000Z</time>
      </trkpt>
      <trkpt lat="45.19687" lon="5.73982">
        <ele>218.19999694824</ele>
        <time>2021-09-09T03:17:45.000Z</time>
      </trkpt>
      <trkpt lat="45.19692" lon="5.73994">
        <ele>218.60000610352</ele>
        <time>2021-09-09T03:17:49.000Z</time>
      </trkpt>
      <trkpt lat="45.19696" lon="5.74007">
        <ele>218.80000305176</ele>
        <time>2021-09-09T03:17:53.000Z</time>
      </trkpt>
      <trkpt lat="45.19696" lon="5.74019">
        <ele>218.80000305176</ele>
        <time>2021-09-09T03:17:56.000Z</time>
      </trkpt>
      <trkpt lat="45.19698" lon="5.74029">
        <ele>219</ele>
        <time>2021-09-09T03:18:00.000Z</time>
      </trkpt>
      <trkpt lat="45.197" lon="5.74039">
        <ele>219</ele>
        <time>2021-09-09T03:18:03.000Z</time>
      </trkpt>
      <trkpt lat="45.19705" lon="5.74052">
        <ele>219</ele>
        <time>2021-09-09T03:18:08.000Z</time>
      </trkpt>
      <trkpt lat="45.19705" lon="5.74059">
        <ele>219</ele>
        <time>2021-09-09T03:18:10.000Z</time>
      </trkpt>
      <trkpt lat="45.19706" lon="5.74064">
        <ele>219.19999694824</ele>
        <time>2021-09-09T03:18:12.000Z</time>
      </trkpt>
      <trkpt lat="45.19706" lon="5.74067">
        <ele>219</ele>
        <time>2021-09-09T03:18:13.000Z</time>
      </trkpt>
      <trkpt lat="45.19709" lon="5.74084">
        <ele>219</ele>
        <time>2021-09-09T03:18:18.000Z</time>
      </trkpt>
      <trkpt lat="45.19709" lon="5.74089">
        <ele>219</ele>
        <time>2021-09-09T03:18:20.000Z</time>
      </trkpt>
      <trkpt lat="45.19708" lon="5.74105">
        <ele>219</ele>
        <time>2021-09-09T03:18:25.000Z</time>
      </trkpt>
      <trkpt lat="45.19708" lon="5.74111">
        <ele>219</ele>
        <time>2021-09-09T03:18:27.000Z</time>
      </trkpt>
      <trkpt lat="45.19711" lon="5.74116">
        <ele>219</ele>
        <time>2021-09-09T03:18:29.000Z</time>
      </trkpt>
      <trkpt lat="45.19713" lon="5.74134">
        <ele>219</ele>
        <time>2021-09-09T03:18:34.000Z</time>
      </trkpt>
      <trkpt lat="45.19721" lon="5.74151">
        <ele>219</ele>
        <time>2021-09-09T03:18:39.000Z</time>
      </trkpt>
      <trkpt lat="45.19724" lon="5.74168">
        <ele>219</ele>
        <time>2021-09-09T03:18:44.000Z</time>
      </trkpt>
      <trkpt lat="45.19726" lon="5.74174">
        <ele>219</ele>
        <time>2021-09-09T03:18:46.000Z</time>
      </trkpt>
      <trkpt lat="45.19729" lon="5.74187">
        <ele>219.39999389648</ele>
        <time>2021-09-09T03:18:50.000Z</time>
      </trkpt>
      <trkpt lat="45.1973" lon="5.74202">
        <ele>219</ele>
        <time>2021-09-09T03:18:55.000Z</time>
      </trkpt>
      <trkpt lat="45.19731" lon="5.74214">
        <ele>219</ele>
        <time>2021-09-09T03:18:58.000Z</time>
      </trkpt>
      <trkpt lat="45.19732" lon="5.74217">
        <ele>219</ele>
        <time>2021-09-09T03:18:59.000Z</time>
      </trkpt>
      <trkpt lat="45.19731" lon="5.74238">
        <ele>219</ele>
        <time>2021-09-09T03:19:04.000Z</time>
      </trkpt>
      <trkpt lat="45.19726" lon="5.74245">
        <ele>219.19999694824</ele>
        <time>2021-09-09T03:19:07.000Z</time>
      </trkpt>
      <trkpt lat="45.19721" lon="5.74247">
        <ele>219.39999389648</ele>
        <time>2021-09-09T03:19:09.000Z</time>
      </trkpt>
      <trkpt lat="45.19714" lon="5.7425">
        <ele>219.39999389648</ele>
        <time>2021-09-09T03:19:12.000Z</time>
      </trkpt>
      <trkpt lat="45.19704" lon="5.74249">
        <ele>219.39999389648</ele>
        <time>2021-09-09T03:19:16.000Z</time>
      </trkpt>
      <trkpt lat="45.1969" lon="5.74249">
        <ele>219.39999389648</ele>
        <time>2021-09-09T03:19:22.000Z</time>
      </trkpt>
      <trkpt lat="45.19685" lon="5.74249">
        <ele>219.60000610352</ele>
        <time>2021-09-09T03:19:24.000Z</time>
      </trkpt>
      <trkpt lat="45.19677" lon="5.7425">
        <ele>219.39999389648</ele>
        <time>2021-09-09T03:19:27.000Z</time>
      </trkpt>
      <trkpt lat="45.19661" lon="5.74249">
        <ele>219.39999389648</ele>
        <time>2021-09-09T03:19:33.000Z</time>
      </trkpt>
      <trkpt lat="45.19648" lon="5.74246">
        <ele>219.19999694824</ele>
        <time>2021-09-09T03:19:38.000Z</time>
      </trkpt>
      <trkpt lat="45.19636" lon="5.74243">
        <ele>219.60000610352</ele>
        <time>2021-09-09T03:19:43.000Z</time>
      </trkpt>
      <trkpt lat="45.19621" lon="5.74239">
        <ele>219.60000610352</ele>
        <time>2021-09-09T03:19:49.000Z</time>
      </trkpt>
      <trkpt lat="45.19607" lon="5.74243">
        <ele>219.60000610352</ele>
        <time>2021-09-09T03:19:55.000Z</time>
      </trkpt>
      <trkpt lat="45.19591" lon="5.7424">
        <ele>219.60000610352</ele>
        <time>2021-09-09T03:20:01.000Z</time>
      </trkpt>
      <trkpt lat="45.19588" lon="5.7424">
        <ele>219.60000610352</ele>
        <time>2021-09-09T03:20:02.000Z</time>
      </trkpt>
      <trkpt lat="45.19568" lon="5.74238">
        <ele>219.80000305176</ele>
        <time>2021-09-09T03:20:10.000Z</time>
      </trkpt>
      <trkpt lat="45.1955" lon="5.74234">
        <ele>220</ele>
        <time>2021-09-09T03:20:17.000Z</time>
      </trkpt>
      <trkpt lat="45.19547" lon="5.74233">
        <ele>220.19999694824</ele>
        <time>2021-09-09T03:20:18.000Z</time>
      </trkpt>
      <trkpt lat="45.19528" lon="5.74227">
        <ele>220.19999694824</ele>
        <time>2021-09-09T03:20:25.000Z</time>
      </trkpt>
      <trkpt lat="45.19521" lon="5.74224">
        <ele>220.19999694824</ele>
        <time>2021-09-09T03:20:28.000Z</time>
      </trkpt>
      <trkpt lat="45.19513" lon="5.7422">
        <ele>220.39999389648</ele>
        <time>2021-09-09T03:20:31.000Z</time>
      </trkpt>
      <trkpt lat="45.19505" lon="5.74216">
        <ele>221</ele>
        <time>2021-09-09T03:20:34.000Z</time>
      </trkpt>
      <trkpt lat="45.19495" lon="5.74211">
        <ele>221.19999694824</ele>
        <time>2021-09-09T03:20:39.000Z</time>
      </trkpt>
      <trkpt lat="45.19493" lon="5.7421">
        <ele>221.60000610352</ele>
        <time>2021-09-09T03:20:40.000Z</time>
      </trkpt>
      <trkpt lat="45.19475" lon="5.74203">
        <ele>221.80000305176</ele>
        <time>2021-09-09T03:20:47.000Z</time>
      </trkpt>
      <trkpt lat="45.19472" lon="5.74203">
        <ele>222</ele>
        <time>2021-09-09T03:20:48.000Z</time>
      </trkpt>
      <trkpt lat="45.19453" lon="5.74195">
        <ele>222</ele>
        <time>2021-09-09T03:20:56.000Z</time>
      </trkpt>
      <trkpt lat="45.19443" lon="5.74191">
        <ele>221.80000305176</ele>
        <time>2021-09-09T03:21:00.000Z</time>
      </trkpt>
      <trkpt lat="45.19437" lon="5.74191">
        <ele>221.80000305176</ele>
        <time>2021-09-09T03:21:02.000Z</time>
      </trkpt>
      <trkpt lat="45.19417" lon="5.74184">
        <ele>221.60000610352</ele>
        <time>2021-09-09T03:21:09.000Z</time>
      </trkpt>
      <trkpt lat="45.19412" lon="5.74183">
        <ele>221.60000610352</ele>
        <time>2021-09-09T03:21:11.000Z</time>
      </trkpt>
      <trkpt lat="45.19396" lon="5.74177">
        <ele>221.60000610352</ele>
        <time>2021-09-09T03:21:17.000Z</time>
      </trkpt>
      <trkpt lat="45.19383" lon="5.74175">
        <ele>221.60000610352</ele>
        <time>2021-09-09T03:21:22.000Z</time>
      </trkpt>
      <trkpt lat="45.19368" lon="5.74171">
        <ele>221.80000305176</ele>
        <time>2021-09-09T03:21:28.000Z</time>
      </trkpt>
      <trkpt lat="45.19354" lon="5.74169">
        <ele>222</ele>
        <time>2021-09-09T03:21:34.000Z</time>
      </trkpt>
      <trkpt lat="45.19343" lon="5.74166">
        <ele>221.60000610352</ele>
        <time>2021-09-09T03:21:38.000Z</time>
      </trkpt>
      <trkpt lat="45.19331" lon="5.74165">
        <ele>221.39999389648</ele>
        <time>2021-09-09T03:21:42.000Z</time>
      </trkpt>
      <trkpt lat="45.19313" lon="5.74162">
        <ele>221.80000305176</ele>
        <time>2021-09-09T03:21:48.000Z</time>
      </trkpt>
      <trkpt lat="45.19295" lon="5.74157">
        <ele>221.80000305176</ele>
        <time>2021-09-09T03:21:55.000Z</time>
      </trkpt>
      <trkpt lat="45.19284" lon="5.74155">
        <ele>221.80000305176</ele>
        <time>2021-09-09T03:21:59.000Z</time>
      </trkpt>
      <trkpt lat="45.19279" lon="5.74153">
        <ele>221.80000305176</ele>
        <time>2021-09-09T03:22:01.000Z</time>
      </trkpt>
      <trkpt lat="45.19259" lon="5.74148">
        <ele>221.60000610352</ele>
        <time>2021-09-09T03:22:08.000Z</time>
      </trkpt>
      <trkpt lat="45.19256" lon="5.74148">
        <ele>221.60000610352</ele>
        <time>2021-09-09T03:22:09.000Z</time>
      </trkpt>
      <trkpt lat="45.19247" lon="5.74147">
        <ele>221.80000305176</ele>
        <time>2021-09-09T03:22:12.000Z</time>
      </trkpt>
      <trkpt lat="45.19236" lon="5.74145">
        <ele>221.80000305176</ele>
        <time>2021-09-09T03:22:16.000Z</time>
      </trkpt>
      <trkpt lat="45.19219" lon="5.74143">
        <ele>221.80000305176</ele>
        <time>2021-09-09T03:22:23.000Z</time>
      </trkpt>
      <trkpt lat="45.19216" lon="5.74143">
        <ele>221.80000305176</ele>
        <time>2021-09-09T03:22:24.000Z</time>
      </trkpt>
      <trkpt lat="45.19203" lon="5.74139">
        <ele>221.60000610352</ele>
        <time>2021-09-09T03:22:28.000Z</time>
      </trkpt>
      <trkpt lat="45.19197" lon="5.74137">
        <ele>221.60000610352</ele>
        <time>2021-09-09T03:22:30.000Z</time>
      </trkpt>
      <trkpt lat="45.1918" lon="5.74142">
        <ele>221</ele>
        <time>2021-09-09T03:22:36.000Z</time>
      </trkpt>
      <trkpt lat="45.19174" lon="5.74143">
        <ele>220.60000610352</ele>
        <time>2021-09-09T03:22:38.000Z</time>
      </trkpt>
      <trkpt lat="45.19164" lon="5.74146">
        <ele>220</ele>
        <time>2021-09-09T03:22:42.000Z</time>
      </trkpt>
      <trkpt lat="45.1915" lon="5.74142">
        <ele>219.80000305176</ele>
        <time>2021-09-09T03:22:48.000Z</time>
      </trkpt>
      <trkpt lat="45.19132" lon="5.74142">
        <ele>221</ele>
        <time>2021-09-09T03:22:55.000Z</time>
      </trkpt>
      <trkpt lat="45.19124" lon="5.74142">
        <ele>221.60000610352</ele>
        <time>2021-09-09T03:22:58.000Z</time>
      </trkpt>
      <trkpt lat="45.19116" lon="5.74144">
        <ele>221.80000305176</ele>
        <time>2021-09-09T03:23:01.000Z</time>
      </trkpt>
      <trkpt lat="45.19105" lon="5.74146">
        <ele>222</ele>
        <time>2021-09-09T03:23:05.000Z</time>
      </trkpt>
      <trkpt lat="45.19103" lon="5.74147">
        <ele>222</ele>
        <time>2021-09-09T03:23:06.000Z</time>
      </trkpt>
      <trkpt lat="45.19087" lon="5.74151">
        <ele>221.80000305176</ele>
        <time>2021-09-09T03:23:12.000Z</time>
      </trkpt>
      <trkpt lat="45.19074" lon="5.74161">
        <ele>221.60000610352</ele>
        <time>2021-09-09T03:23:17.000Z</time>
      </trkpt>
      <trkpt lat="45.19061" lon="5.74169">
        <ele>221.39999389648</ele>
        <time>2021-09-09T03:23:22.000Z</time>
      </trkpt>
      <trkpt lat="45.19058" lon="5.7417">
        <ele>221.39999389648</ele>
        <time>2021-09-09T03:23:23.000Z</time>
      </trkpt>
      <trkpt lat="45.19044" lon="5.74182">
        <ele>221.39999389648</ele>
        <time>2021-09-09T03:23:29.000Z</time>
      </trkpt>
      <trkpt lat="45.1904" lon="5.74184">
        <ele>221.60000610352</ele>
        <time>2021-09-09T03:23:30.000Z</time>
      </trkpt>
      <trkpt lat="45.19032" lon="5.74189">
        <ele>221.39999389648</ele>
        <time>2021-09-09T03:23:33.000Z</time>
      </trkpt>
      <trkpt lat="45.19016" lon="5.74201">
        <ele>221.60000610352</ele>
        <time>2021-09-09T03:23:39.000Z</time>
      </trkpt>
      <trkpt lat="45.19007" lon="5.74206">
        <ele>221.19999694824</ele>
        <time>2021-09-09T03:23:42.000Z</time>
      </trkpt>
      <trkpt lat="45.18989" lon="5.74219">
        <ele>221.39999389648</ele>
        <time>2021-09-09T03:23:49.000Z</time>
      </trkpt>
      <trkpt lat="45.18976" lon="5.74231">
        <ele>221</ele>
        <time>2021-09-09T03:23:55.000Z</time>
      </trkpt>
      <trkpt lat="45.18949" lon="5.74276">
        <ele>221.60000610352</ele>
        <time>2021-09-09T03:24:09.000Z</time>
      </trkpt>
      <trkpt lat="45.18938" lon="5.74298">
        <ele>221.39999389648</ele>
        <time>2021-09-09T03:24:15.000Z</time>
      </trkpt>
      <trkpt lat="45.1893" lon="5.74316">
        <ele>221.80000305176</ele>
        <time>2021-09-09T03:24:20.000Z</time>
      </trkpt>
      <trkpt lat="45.18924" lon="5.74328">
        <ele>221.80000305176</ele>
        <time>2021-09-09T03:24:24.000Z</time>
      </trkpt>
      <trkpt lat="45.18914" lon="5.74351">
        <ele>222</ele>
        <time>2021-09-09T03:24:30.000Z</time>
      </trkpt>
      <trkpt lat="45.18912" lon="5.74359">
        <ele>221.80000305176</ele>
        <time>2021-09-09T03:24:32.000Z</time>
      </trkpt>
      <trkpt lat="45.18907" lon="5.74378">
        <ele>221.60000610352</ele>
        <time>2021-09-09T03:24:37.000Z</time>
      </trkpt>
      <trkpt lat="45.18903" lon="5.74396">
        <ele>221.60000610352</ele>
        <time>2021-09-09T03:24:42.000Z</time>
      </trkpt>
      <trkpt lat="45.18898" lon="5.74415">
        <ele>221.80000305176</ele>
        <time>2021-09-09T03:24:47.000Z</time>
      </trkpt>
      <trkpt lat="45.18897" lon="5.74417">
        <ele>221.80000305176</ele>
        <time>2021-09-09T03:24:48.000Z</time>
      </trkpt>
      <trkpt lat="45.18893" lon="5.74424">
        <ele>221.60000610352</ele>
        <time>2021-09-09T03:24:50.000Z</time>
      </trkpt>
      <trkpt lat="45.1889" lon="5.74432">
        <ele>221.60000610352</ele>
        <time>2021-09-09T03:24:53.000Z</time>
      </trkpt>
      <trkpt lat="45.18885" lon="5.74444">
        <ele>221.60000610352</ele>
        <time>2021-09-09T03:24:58.000Z</time>
      </trkpt>
      <trkpt lat="45.18876" lon="5.7446">
        <ele>221.60000610352</ele>
        <time>2021-09-09T03:25:03.000Z</time>
      </trkpt>
      <trkpt lat="45.18867" lon="5.74483">
        <ele>221.80000305176</ele>
        <time>2021-09-09T03:25:10.000Z</time>
      </trkpt>
      <trkpt lat="45.18866" lon="5.74485">
        <ele>222</ele>
        <time>2021-09-09T03:25:11.000Z</time>
      </trkpt>
      <trkpt lat="45.18863" lon="5.74512">
        <ele>222</ele>
        <time>2021-09-09T03:25:17.000Z</time>
      </trkpt>
      <trkpt lat="45.18858" lon="5.7453">
        <ele>222.60000610352</ele>
        <time>2021-09-09T03:25:21.000Z</time>
      </trkpt>
      <trkpt lat="45.18856" lon="5.74539">
        <ele>222.60000610352</ele>
        <time>2021-09-09T03:25:23.000Z</time>
      </trkpt>
      <trkpt lat="45.18855" lon="5.74549">
        <ele>222.60000610352</ele>
        <time>2021-09-09T03:25:25.000Z</time>
      </trkpt>
      <trkpt lat="45.18854" lon="5.74558">
        <ele>222.80000305176</ele>
        <time>2021-09-09T03:25:28.000Z</time>
      </trkpt>
      <trkpt lat="45.18849" lon="5.74583">
        <ele>222.19999694824</ele>
        <time>2021-09-09T03:25:34.000Z</time>
      </trkpt>
      <trkpt lat="45.18844" lon="5.74598">
        <ele>221.60000610352</ele>
        <time>2021-09-09T03:25:38.000Z</time>
      </trkpt>
      <trkpt lat="45.18842" lon="5.74605">
        <ele>221.19999694824</ele>
        <time>2021-09-09T03:25:40.000Z</time>
      </trkpt>
      <trkpt lat="45.18841" lon="5.74622">
        <ele>221.80000305176</ele>
        <time>2021-09-09T03:25:45.000Z</time>
      </trkpt>
      <trkpt lat="45.1884" lon="5.74627">
        <ele>222</ele>
        <time>2021-09-09T03:25:47.000Z</time>
      </trkpt>
      <trkpt lat="45.18842" lon="5.74624">
        <ele>222.39999389648</ele>
        <time>2021-09-09T03:25:49.000Z</time>
      </trkpt>
      <trkpt lat="45.18842" lon="5.74622">
        <ele>222.60000610352</ele>
        <time>2021-09-09T03:25:50.000Z</time>
      </trkpt>
      <trkpt lat="45.1884" lon="5.74617">
        <ele>223</ele>
        <time>2021-09-09T03:25:53.000Z</time>
      </trkpt>
      <trkpt lat="45.18839" lon="5.74605">
        <ele>223</ele>
        <time>2021-09-09T03:25:58.000Z</time>
      </trkpt>
      <trkpt lat="45.18838" lon="5.74585">
        <ele>222.80000305176</ele>
        <time>2021-09-09T03:26:04.000Z</time>
      </trkpt>
      <trkpt lat="45.18841" lon="5.74569">
        <ele>222.80000305176</ele>
        <time>2021-09-09T03:26:08.000Z</time>
      </trkpt>
      <trkpt lat="45.18844" lon="5.74553">
        <ele>222.80000305176</ele>
        <time>2021-09-09T03:26:12.000Z</time>
      </trkpt>
      <trkpt lat="45.18848" lon="5.74525">
        <ele>222.39999389648</ele>
        <time>2021-09-09T03:26:19.000Z</time>
      </trkpt>
      <trkpt lat="45.18853" lon="5.74499">
        <ele>222.19999694824</ele>
        <time>2021-09-09T03:26:26.000Z</time>
      </trkpt>
      <trkpt lat="45.18854" lon="5.74495">
        <ele>222.19999694824</ele>
        <time>2021-09-09T03:26:27.000Z</time>
      </trkpt>
      <trkpt lat="45.18859" lon="5.74466">
        <ele>222</ele>
        <time>2021-09-09T03:26:33.000Z</time>
      </trkpt>
      <trkpt lat="45.18863" lon="5.74458">
        <ele>221.80000305176</ele>
        <time>2021-09-09T03:26:35.000Z</time>
      </trkpt>
      <trkpt lat="45.18868" lon="5.74441">
        <ele>221.80000305176</ele>
        <time>2021-09-09T03:26:40.000Z</time>
      </trkpt>
      <trkpt lat="45.18873" lon="5.74424">
        <ele>221.80000305176</ele>
        <time>2021-09-09T03:26:46.000Z</time>
      </trkpt>
      <trkpt lat="45.18877" lon="5.74405">
        <ele>222</ele>
        <time>2021-09-09T03:26:51.000Z</time>
      </trkpt>
      <trkpt lat="45.18886" lon="5.7438">
        <ele>222.39999389648</ele>
        <time>2021-09-09T03:26:57.000Z</time>
      </trkpt>
      <trkpt lat="45.18887" lon="5.74375">
        <ele>222.39999389648</ele>
        <time>2021-09-09T03:26:58.000Z</time>
      </trkpt>
      <trkpt lat="45.18899" lon="5.74352">
        <ele>222.19999694824</ele>
        <time>2021-09-09T03:27:04.000Z</time>
      </trkpt>
      <trkpt lat="45.18903" lon="5.74346">
        <ele>222.19999694824</ele>
        <time>2021-09-09T03:27:06.000Z</time>
      </trkpt>
      <trkpt lat="45.18912" lon="5.74324">
        <ele>222</ele>
        <time>2021-09-09T03:27:12.000Z</time>
      </trkpt>
      <trkpt lat="45.18919" lon="5.74309">
        <ele>222</ele>
        <time>2021-09-09T03:27:16.000Z</time>
      </trkpt>
      <trkpt lat="45.18923" lon="5.74297">
        <ele>222</ele>
        <time>2021-09-09T03:27:19.000Z</time>
      </trkpt>
      <trkpt lat="45.18928" lon="5.74286">
        <ele>221.80000305176</ele>
        <time>2021-09-09T03:27:22.000Z</time>
      </trkpt>
      <trkpt lat="45.1893" lon="5.74283">
        <ele>221.80000305176</ele>
        <time>2021-09-09T03:27:23.000Z</time>
      </trkpt>
      <trkpt lat="45.18932" lon="5.7428">
        <ele>221.80000305176</ele>
        <time>2021-09-09T03:27:24.000Z</time>
      </trkpt>
      <trkpt lat="45.18945" lon="5.74257">
        <ele>221.60000610352</ele>
        <time>2021-09-09T03:27:31.000Z</time>
      </trkpt>
      <trkpt lat="45.18962" lon="5.7424">
        <ele>221.19999694824</ele>
        <time>2021-09-09T03:27:37.000Z</time>
      </trkpt>
      <trkpt lat="45.18964" lon="5.74236">
        <ele>221.19999694824</ele>
        <time>2021-09-09T03:27:38.000Z</time>
      </trkpt>
      <trkpt lat="45.18988" lon="5.742">
        <ele>222</ele>
        <time>2021-09-09T03:27:45.000Z</time>
      </trkpt>
      <trkpt lat="45.18993" lon="5.74206">
        <ele>222.19999694824</ele>
        <time>2021-09-09T03:27:47.000Z</time>
      </trkpt>
      <trkpt lat="45.19004" lon="5.74192">
        <ele>221.39999389648</ele>
        <time>2021-09-09T03:27:54.000Z</time>
      </trkpt>
      <trkpt lat="45.19019" lon="5.74184">
        <ele>221.19999694824</ele>
        <time>2021-09-09T03:27:59.000Z</time>
      </trkpt>
      <trkpt lat="45.1903" lon="5.7418">
        <ele>221.19999694824</ele>
        <time>2021-09-09T03:28:03.000Z</time>
      </trkpt>
      <trkpt lat="45.19048" lon="5.7417">
        <ele>222.19999694824</ele>
        <time>2021-09-09T03:28:10.000Z</time>
      </trkpt>
      <trkpt lat="45.19053" lon="5.74167">
        <ele>222.19999694824</ele>
        <time>2021-09-09T03:28:12.000Z</time>
      </trkpt>
      <trkpt lat="45.19071" lon="5.74152">
        <ele>221.60000610352</ele>
        <time>2021-09-09T03:28:19.000Z</time>
      </trkpt>
      <trkpt lat="45.19073" lon="5.7415">
        <ele>221.60000610352</ele>
        <time>2021-09-09T03:28:20.000Z</time>
      </trkpt>
      <trkpt lat="45.19083" lon="5.74143">
        <ele>222</ele>
        <time>2021-09-09T03:28:25.000Z</time>
      </trkpt>
      <trkpt lat="45.1909" lon="5.7414">
        <ele>222</ele>
        <time>2021-09-09T03:28:28.000Z</time>
      </trkpt>
      <trkpt lat="45.19097" lon="5.74137">
        <ele>221.19999694824</ele>
        <time>2021-09-09T03:28:31.000Z</time>
      </trkpt>
      <trkpt lat="45.1911" lon="5.74133">
        <ele>220.80000305176</ele>
        <time>2021-09-09T03:28:36.000Z</time>
      </trkpt>
      <trkpt lat="45.19112" lon="5.74132">
        <ele>220.60000610352</ele>
        <time>2021-09-09T03:28:37.000Z</time>
      </trkpt>
      <trkpt lat="45.19132" lon="5.74129">
        <ele>219.80000305176</ele>
        <time>2021-09-09T03:28:44.000Z</time>
      </trkpt>
      <trkpt lat="45.19137" lon="5.74128">
        <ele>219.60000610352</ele>
        <time>2021-09-09T03:28:46.000Z</time>
      </trkpt>
      <trkpt lat="45.19147" lon="5.74128">
        <ele>219.39999389648</ele>
        <time>2021-09-09T03:28:50.000Z</time>
      </trkpt>
      <trkpt lat="45.1915" lon="5.74128">
        <ele>219</ele>
        <time>2021-09-09T03:28:51.000Z</time>
      </trkpt>
      <trkpt lat="45.19153" lon="5.74128">
        <ele>218.80000305176</ele>
        <time>2021-09-09T03:28:52.000Z</time>
      </trkpt>
      <trkpt lat="45.19156" lon="5.74128">
        <ele>218.60000610352</ele>
        <time>2021-09-09T03:28:53.000Z</time>
      </trkpt>
      <trkpt lat="45.19164" lon="5.74126">
        <ele>219</ele>
        <time>2021-09-09T03:28:55.000Z</time>
      </trkpt>
      <trkpt lat="45.1918" lon="5.74126">
        <ele>219.60000610352</ele>
        <time>2021-09-09T03:29:01.000Z</time>
      </trkpt>
      <trkpt lat="45.19199" lon="5.74125">
        <ele>220.60000610352</ele>
        <time>2021-09-09T03:29:06.000Z</time>
      </trkpt>
      <trkpt lat="45.19208" lon="5.74128">
        <ele>220.80000305176</ele>
        <time>2021-09-09T03:29:10.000Z</time>
      </trkpt>
      <trkpt lat="45.1921" lon="5.74129">
        <ele>220.80000305176</ele>
        <time>2021-09-09T03:29:11.000Z</time>
      </trkpt>
      <trkpt lat="45.19227" lon="5.74135">
        <ele>220.60000610352</ele>
        <time>2021-09-09T03:29:17.000Z</time>
      </trkpt>
      <trkpt lat="45.19248" lon="5.74137">
        <ele>221.60000610352</ele>
        <time>2021-09-09T03:29:23.000Z</time>
      </trkpt>
      <trkpt lat="45.19255" lon="5.74137">
        <ele>221.80000305176</ele>
        <time>2021-09-09T03:29:25.000Z</time>
      </trkpt>
      <trkpt lat="45.19271" lon="5.7414">
        <ele>221.80000305176</ele>
        <time>2021-09-09T03:29:30.000Z</time>
      </trkpt>
      <trkpt lat="45.19281" lon="5.74142">
        <ele>221.80000305176</ele>
        <time>2021-09-09T03:29:33.000Z</time>
      </trkpt>
      <trkpt lat="45.19297" lon="5.74145">
        <ele>222</ele>
        <time>2021-09-09T03:29:38.000Z</time>
      </trkpt>
      <trkpt lat="45.19315" lon="5.7415">
        <ele>222.39999389648</ele>
        <time>2021-09-09T03:29:44.000Z</time>
      </trkpt>
      <trkpt lat="45.19321" lon="5.74151">
        <ele>222.39999389648</ele>
        <time>2021-09-09T03:29:46.000Z</time>
      </trkpt>
      <trkpt lat="45.19327" lon="5.74152">
        <ele>222.39999389648</ele>
        <time>2021-09-09T03:29:48.000Z</time>
      </trkpt>
      <trkpt lat="45.19345" lon="5.74155">
        <ele>222.39999389648</ele>
        <time>2021-09-09T03:29:54.000Z</time>
      </trkpt>
      <trkpt lat="45.19348" lon="5.74155">
        <ele>222.60000610352</ele>
        <time>2021-09-09T03:29:55.000Z</time>
      </trkpt>
      <trkpt lat="45.19368" lon="5.74157">
        <ele>221.39999389648</ele>
        <time>2021-09-09T03:30:01.000Z</time>
      </trkpt>
      <trkpt lat="45.19374" lon="5.74157">
        <ele>221.39999389648</ele>
        <time>2021-09-09T03:30:03.000Z</time>
      </trkpt>
      <trkpt lat="45.19386" lon="5.74158">
        <ele>220.80000305176</ele>
        <time>2021-09-09T03:30:07.000Z</time>
      </trkpt>
      <trkpt lat="45.19392" lon="5.7416">
        <ele>220.80000305176</ele>
        <time>2021-09-09T03:30:09.000Z</time>
      </trkpt>
      <trkpt lat="45.19398" lon="5.74162">
        <ele>220.60000610352</ele>
        <time>2021-09-09T03:30:11.000Z</time>
      </trkpt>
      <trkpt lat="45.194" lon="5.74162">
        <ele>221</ele>
        <time>2021-09-09T03:30:12.000Z</time>
      </trkpt>
      <trkpt lat="45.19412" lon="5.74165">
        <ele>221.60000610352</ele>
        <time>2021-09-09T03:30:16.000Z</time>
      </trkpt>
      <trkpt lat="45.1942" lon="5.74167">
        <ele>221.80000305176</ele>
        <time>2021-09-09T03:30:19.000Z</time>
      </trkpt>
      <trkpt lat="45.19426" lon="5.7417">
        <ele>221.80000305176</ele>
        <time>2021-09-09T03:30:21.000Z</time>
      </trkpt>
      <trkpt lat="45.19438" lon="5.74173">
        <ele>222</ele>
        <time>2021-09-09T03:30:26.000Z</time>
      </trkpt>
      <trkpt lat="45.1945" lon="5.74178">
        <ele>222.19999694824</ele>
        <time>2021-09-09T03:30:30.000Z</time>
      </trkpt>
      <trkpt lat="45.1947" lon="5.74185">
        <ele>220.80000305176</ele>
        <time>2021-09-09T03:30:36.000Z</time>
      </trkpt>
      <trkpt lat="45.19476" lon="5.74187">
        <ele>220.80000305176</ele>
        <time>2021-09-09T03:30:38.000Z</time>
      </trkpt>
      <trkpt lat="45.19493" lon="5.74197">
        <ele>220.60000610352</ele>
        <time>2021-09-09T03:30:45.000Z</time>
      </trkpt>
      <trkpt lat="45.195" lon="5.742">
        <ele>220.60000610352</ele>
        <time>2021-09-09T03:30:47.000Z</time>
      </trkpt>
      <trkpt lat="45.19517" lon="5.74207">
        <ele>220.80000305176</ele>
        <time>2021-09-09T03:30:53.000Z</time>
      </trkpt>
      <trkpt lat="45.19523" lon="5.74209">
        <ele>220.60000610352</ele>
        <time>2021-09-09T03:30:55.000Z</time>
      </trkpt>
      <trkpt lat="45.19543" lon="5.74217">
        <ele>220.39999389648</ele>
        <time>2021-09-09T03:31:02.000Z</time>
      </trkpt>
      <trkpt lat="45.19552" lon="5.7422">
        <ele>220.39999389648</ele>
        <time>2021-09-09T03:31:05.000Z</time>
      </trkpt>
      <trkpt lat="45.1957" lon="5.74225">
        <ele>220.19999694824</ele>
        <time>2021-09-09T03:31:11.000Z</time>
      </trkpt>
      <trkpt lat="45.19573" lon="5.74225">
        <ele>220.19999694824</ele>
        <time>2021-09-09T03:31:12.000Z</time>
      </trkpt>
      <trkpt lat="45.19591" lon="5.74226">
        <ele>220</ele>
        <time>2021-09-09T03:31:18.000Z</time>
      </trkpt>
      <trkpt lat="45.19598" lon="5.74227">
        <ele>220.19999694824</ele>
        <time>2021-09-09T03:31:20.000Z</time>
      </trkpt>
      <trkpt lat="45.19616" lon="5.74231">
        <ele>220.39999389648</ele>
        <time>2021-09-09T03:31:26.000Z</time>
      </trkpt>
      <trkpt lat="45.19624" lon="5.74233">
        <ele>220.19999694824</ele>
        <time>2021-09-09T03:31:29.000Z</time>
      </trkpt>
      <trkpt lat="45.19644" lon="5.74235">
        <ele>220.19999694824</ele>
        <time>2021-09-09T03:31:37.000Z</time>
      </trkpt>
      <trkpt lat="45.19649" lon="5.74235">
        <ele>220</ele>
        <time>2021-09-09T03:31:39.000Z</time>
      </trkpt>
      <trkpt lat="45.19664" lon="5.74238">
        <ele>220</ele>
        <time>2021-09-09T03:31:44.000Z</time>
      </trkpt>
      <trkpt lat="45.19665" lon="5.74239">
        <ele>220.19999694824</ele>
        <time>2021-09-09T03:31:45.000Z</time>
      </trkpt>
      <trkpt lat="45.19666" lon="5.74239">
        <ele>220.19999694824</ele>
        <time>2021-09-09T03:31:46.000Z</time>
      </trkpt>
      <trkpt lat="45.19686" lon="5.7424">
        <ele>220</ele>
        <time>2021-09-09T03:31:53.000Z</time>
      </trkpt>
      <trkpt lat="45.19689" lon="5.7424">
        <ele>220</ele>
        <time>2021-09-09T03:31:54.000Z</time>
      </trkpt>
      <trkpt lat="45.19708" lon="5.74241">
        <ele>220</ele>
        <time>2021-09-09T03:32:00.000Z</time>
      </trkpt>
      <trkpt lat="45.19719" lon="5.74242">
        <ele>220.39999389648</ele>
        <time>2021-09-09T03:32:04.000Z</time>
      </trkpt>
      <trkpt lat="45.19736" lon="5.74238">
        <ele>220.60000610352</ele>
        <time>2021-09-09T03:32:10.000Z</time>
      </trkpt>
      <trkpt lat="45.19755" lon="5.74235">
        <ele>220.60000610352</ele>
        <time>2021-09-09T03:32:17.000Z</time>
      </trkpt>
      <trkpt lat="45.19761" lon="5.74234">
        <ele>220.60000610352</ele>
        <time>2021-09-09T03:32:19.000Z</time>
      </trkpt>
      <trkpt lat="45.19776" lon="5.74233">
        <ele>220.80000305176</ele>
        <time>2021-09-09T03:32:25.000Z</time>
      </trkpt>
      <trkpt lat="45.19784" lon="5.74232">
        <ele>220.80000305176</ele>
        <time>2021-09-09T03:32:28.000Z</time>
      </trkpt>
      <trkpt lat="45.19796" lon="5.74232">
        <ele>220.39999389648</ele>
        <time>2021-09-09T03:32:33.000Z</time>
      </trkpt>
      <trkpt lat="45.19806" lon="5.74228">
        <ele>220.39999389648</ele>
        <time>2021-09-09T03:32:38.000Z</time>
      </trkpt>
      <trkpt lat="45.19824" lon="5.74221">
        <ele>220.60000610352</ele>
        <time>2021-09-09T03:32:45.000Z</time>
      </trkpt>
      <trkpt lat="45.19834" lon="5.74218">
        <ele>220.80000305176</ele>
        <time>2021-09-09T03:32:49.000Z</time>
      </trkpt>
      <trkpt lat="45.19837" lon="5.74218">
        <ele>220.60000610352</ele>
        <time>2021-09-09T03:32:50.000Z</time>
      </trkpt>
      <trkpt lat="45.19853" lon="5.74213">
        <ele>220.80000305176</ele>
        <time>2021-09-09T03:32:55.000Z</time>
      </trkpt>
      <trkpt lat="45.19873" lon="5.74206">
        <ele>220.80000305176</ele>
        <time>2021-09-09T03:33:01.000Z</time>
      </trkpt>
      <trkpt lat="45.19879" lon="5.74204">
        <ele>220.80000305176</ele>
        <time>2021-09-09T03:33:03.000Z</time>
      </trkpt>
      <trkpt lat="45.19896" lon="5.74194">
        <ele>220.80000305176</ele>
        <time>2021-09-09T03:33:09.000Z</time>
      </trkpt>
      <trkpt lat="45.19899" lon="5.74191">
        <ele>220.60000610352</ele>
        <time>2021-09-09T03:33:10.000Z</time>
      </trkpt>
      <trkpt lat="45.19917" lon="5.74182">
        <ele>220.60000610352</ele>
        <time>2021-09-09T03:33:17.000Z</time>
      </trkpt>
      <trkpt lat="45.19922" lon="5.74179">
        <ele>220.60000610352</ele>
        <time>2021-09-09T03:33:19.000Z</time>
      </trkpt>
      <trkpt lat="45.19936" lon="5.74166">
        <ele>220.80000305176</ele>
        <time>2021-09-09T03:33:26.000Z</time>
      </trkpt>
      <trkpt lat="45.19954" lon="5.74153">
        <ele>221.19999694824</ele>
        <time>2021-09-09T03:33:33.000Z</time>
      </trkpt>
      <trkpt lat="45.19957" lon="5.74151">
        <ele>220.80000305176</ele>
        <time>2021-09-09T03:33:34.000Z</time>
      </trkpt>
      <trkpt lat="45.19972" lon="5.74136">
        <ele>220.80000305176</ele>
        <time>2021-09-09T03:33:41.000Z</time>
      </trkpt>
      <trkpt lat="45.19977" lon="5.74131">
        <ele>220.80000305176</ele>
        <time>2021-09-09T03:33:43.000Z</time>
      </trkpt>
      <trkpt lat="45.19984" lon="5.74125">
        <ele>220.60000610352</ele>
        <time>2021-09-09T03:33:46.000Z</time>
      </trkpt>
      <trkpt lat="45.19991" lon="5.74115">
        <ele>219.60000610352</ele>
        <time>2021-09-09T03:33:50.000Z</time>
      </trkpt>
      <trkpt lat="45.2" lon="5.74103">
        <ele>218.60000610352</ele>
        <time>2021-09-09T03:33:55.000Z</time>
      </trkpt>
      <trkpt lat="45.20002" lon="5.741">
        <ele>218.39999389648</ele>
        <time>2021-09-09T03:33:56.000Z</time>
      </trkpt>
      <trkpt lat="45.20007" lon="5.74095">
        <ele>218.39999389648</ele>
        <time>2021-09-09T03:33:59.000Z</time>
      </trkpt>
      <trkpt lat="45.20029" lon="5.74044">
        <ele>218.39999389648</ele>
        <time>2021-09-09T03:34:11.000Z</time>
      </trkpt>
      <trkpt lat="45.20034" lon="5.74044">
        <ele>218.39999389648</ele>
        <time>2021-09-09T03:34:12.000Z</time>
      </trkpt>
      <trkpt lat="45.20046" lon="5.74028">
        <ele>219.60000610352</ele>
        <time>2021-09-09T03:34:17.000Z</time>
      </trkpt>
      <trkpt lat="45.20052" lon="5.74015">
        <ele>220.39999389648</ele>
        <time>2021-09-09T03:34:21.000Z</time>
      </trkpt>
      <trkpt lat="45.20053" lon="5.74013">
        <ele>220.60000610352</ele>
        <time>2021-09-09T03:34:22.000Z</time>
      </trkpt>
      <trkpt lat="45.20055" lon="5.74012">
        <ele>220.60000610352</ele>
        <time>2021-09-09T03:34:23.000Z</time>
      </trkpt>
      <trkpt lat="45.20056" lon="5.74011">
        <ele>220.60000610352</ele>
        <time>2021-09-09T03:34:24.000Z</time>
      </trkpt>
      <trkpt lat="45.20056" lon="5.74011">
        <ele>220.80000305176</ele>
        <time>2021-09-09T03:34:25.000Z</time>
      </trkpt>
      <trkpt lat="45.20056" lon="5.74012">
        <ele>220.80000305176</ele>
        <time>2021-09-09T03:34:26.000Z</time>
      </trkpt>
      <trkpt lat="45.20054" lon="5.74017">
        <ele>221.39999389648</ele>
        <time>2021-09-09T03:34:29.000Z</time>
      </trkpt>
      <trkpt lat="45.20051" lon="5.74021">
        <ele>221.80000305176</ele>
        <time>2021-09-09T03:34:31.000Z</time>
      </trkpt>
      <trkpt lat="45.20048" lon="5.74024">
        <ele>221.80000305176</ele>
        <time>2021-09-09T03:34:32.000Z</time>
      </trkpt>
      <trkpt lat="45.20043" lon="5.74033">
        <ele>222.80000305176</ele>
        <time>2021-09-09T03:34:36.000Z</time>
      </trkpt>
      <trkpt lat="45.20041" lon="5.74035">
        <ele>222.80000305176</ele>
        <time>2021-09-09T03:34:37.000Z</time>
      </trkpt>
      <trkpt lat="45.20032" lon="5.74048">
        <ele>223.60000610352</ele>
        <time>2021-09-09T03:34:42.000Z</time>
      </trkpt>
      <trkpt lat="45.20032" lon="5.74051">
        <ele>223.80000305176</ele>
        <time>2021-09-09T03:34:43.000Z</time>
      </trkpt>
      <trkpt lat="45.20032" lon="5.74054">
        <ele>224</ele>
        <time>2021-09-09T03:34:44.000Z</time>
      </trkpt>
      <trkpt lat="45.20046" lon="5.74075">
        <ele>224.39999389648</ele>
        <time>2021-09-09T03:34:51.000Z</time>
      </trkpt>
      <trkpt lat="45.20054" lon="5.74085">
        <ele>224.80000305176</ele>
        <time>2021-09-09T03:34:55.000Z</time>
      </trkpt>
      <trkpt lat="45.20056" lon="5.74087">
        <ele>224.80000305176</ele>
        <time>2021-09-09T03:34:56.000Z</time>
      </trkpt>
      <trkpt lat="45.20072" lon="5.74105">
        <ele>224.60000610352</ele>
        <time>2021-09-09T03:35:02.000Z</time>
      </trkpt>
      <trkpt lat="45.20075" lon="5.74108">
        <ele>224.80000305176</ele>
        <time>2021-09-09T03:35:03.000Z</time>
      </trkpt>
      <trkpt lat="45.20083" lon="5.7412">
        <ele>224.60000610352</ele>
        <time>2021-09-09T03:35:07.000Z</time>
      </trkpt>
      <trkpt lat="45.20098" lon="5.74134">
        <ele>224.60000610352</ele>
        <time>2021-09-09T03:35:12.000Z</time>
      </trkpt>
      <trkpt lat="45.2011" lon="5.74148">
        <ele>224.80000305176</ele>
        <time>2021-09-09T03:35:17.000Z</time>
      </trkpt>
      <trkpt lat="45.20119" lon="5.7416">
        <ele>224.39999389648</ele>
        <time>2021-09-09T03:35:21.000Z</time>
      </trkpt>
      <trkpt lat="45.20126" lon="5.74164">
        <ele>224</ele>
        <time>2021-09-09T03:35:25.000Z</time>
      </trkpt>
      <trkpt lat="45.20132" lon="5.74149">
        <ele>223.39999389648</ele>
        <time>2021-09-09T03:35:30.000Z</time>
      </trkpt>
      <trkpt lat="45.20138" lon="5.74131">
        <ele>222.60000610352</ele>
        <time>2021-09-09T03:35:35.000Z</time>
      </trkpt>
      <trkpt lat="45.20143" lon="5.74118">
        <ele>221.80000305176</ele>
        <time>2021-09-09T03:35:38.000Z</time>
      </trkpt>
      <trkpt lat="45.20149" lon="5.74111">
        <ele>221.19999694824</ele>
        <time>2021-09-09T03:35:41.000Z</time>
      </trkpt>
      <trkpt lat="45.2015" lon="5.74104">
        <ele>221</ele>
        <time>2021-09-09T03:35:43.000Z</time>
      </trkpt>
      <trkpt lat="45.2015" lon="5.741">
        <ele>220.80000305176</ele>
        <time>2021-09-09T03:35:44.000Z</time>
      </trkpt>
      <trkpt lat="45.20151" lon="5.74095">
        <ele>220.80000305176</ele>
        <time>2021-09-09T03:35:45.000Z</time>
      </trkpt>
      <trkpt lat="45.20155" lon="5.7408">
        <ele>220.19999694824</ele>
        <time>2021-09-09T03:35:48.000Z</time>
      </trkpt>
      <trkpt lat="45.20156" lon="5.74076">
        <ele>220</ele>
        <time>2021-09-09T03:35:49.000Z</time>
      </trkpt>
      <trkpt lat="45.20167" lon="5.74053">
        <ele>219.60000610352</ele>
        <time>2021-09-09T03:35:55.000Z</time>
      </trkpt>
      <trkpt lat="45.20169" lon="5.74049">
        <ele>219.60000610352</ele>
        <time>2021-09-09T03:35:56.000Z</time>
      </trkpt>
      <trkpt lat="45.20182" lon="5.74028">
        <ele>219.19999694824</ele>
        <time>2021-09-09T03:36:03.000Z</time>
      </trkpt>
      <trkpt lat="45.20184" lon="5.74024">
        <ele>219.19999694824</ele>
        <time>2021-09-09T03:36:04.000Z</time>
      </trkpt>
      <trkpt lat="45.20188" lon="5.74019">
        <ele>219.19999694824</ele>
        <time>2021-09-09T03:36:06.000Z</time>
      </trkpt>
      <trkpt lat="45.20191" lon="5.74014">
        <ele>219.19999694824</ele>
        <time>2021-09-09T03:36:08.000Z</time>
      </trkpt>
      <trkpt lat="45.20192" lon="5.74011">
        <ele>219</ele>
        <time>2021-09-09T03:36:09.000Z</time>
      </trkpt>
      <trkpt lat="45.20198" lon="5.73997">
        <ele>219.19999694824</ele>
        <time>2021-09-09T03:36:15.000Z</time>
      </trkpt>
      <trkpt lat="45.20206" lon="5.7397">
        <ele>219.19999694824</ele>
        <time>2021-09-09T03:36:22.000Z</time>
      </trkpt>
      <trkpt lat="45.20214" lon="5.73946">
        <ele>219.19999694824</ele>
        <time>2021-09-09T03:36:28.000Z</time>
      </trkpt>
      <trkpt lat="45.20215" lon="5.73943">
        <ele>219.19999694824</ele>
        <time>2021-09-09T03:36:29.000Z</time>
      </trkpt>
      <trkpt lat="45.20223" lon="5.73918">
        <ele>218.80000305176</ele>
        <time>2021-09-09T03:36:35.000Z</time>
      </trkpt>
      <trkpt lat="45.20227" lon="5.739">
        <ele>219.19999694824</ele>
        <time>2021-09-09T03:36:40.000Z</time>
      </trkpt>
      <trkpt lat="45.20231" lon="5.73877">
        <ele>219</ele>
        <time>2021-09-09T03:36:46.000Z</time>
      </trkpt>
      <trkpt lat="45.20237" lon="5.73851">
        <ele>219</ele>
        <time>2021-09-09T03:36:52.000Z</time>
      </trkpt>
      <trkpt lat="45.20239" lon="5.73843">
        <ele>219.19999694824</ele>
        <time>2021-09-09T03:36:54.000Z</time>
      </trkpt>
      <trkpt lat="45.20243" lon="5.73813">
        <ele>219</ele>
        <time>2021-09-09T03:37:01.000Z</time>
      </trkpt>
      <trkpt lat="45.20243" lon="5.73809">
        <ele>219</ele>
        <time>2021-09-09T03:37:02.000Z</time>
      </trkpt>
      <trkpt lat="45.20247" lon="5.73782">
        <ele>219</ele>
        <time>2021-09-09T03:37:09.000Z</time>
      </trkpt>
      <trkpt lat="45.20247" lon="5.73777">
        <ele>219</ele>
        <time>2021-09-09T03:37:10.000Z</time>
      </trkpt>
      <trkpt lat="45.20248" lon="5.73758">
        <ele>218.80000305176</ele>
        <time>2021-09-09T03:37:15.000Z</time>
      </trkpt>
      <trkpt lat="45.20246" lon="5.73739">
        <ele>218.39999389648</ele>
        <time>2021-09-09T03:37:20.000Z</time>
      </trkpt>
      <trkpt lat="45.20243" lon="5.73713">
        <ele>219</ele>
        <time>2021-09-09T03:37:27.000Z</time>
      </trkpt>
      <trkpt lat="45.20243" lon="5.73708">
        <ele>219</ele>
        <time>2021-09-09T03:37:28.000Z</time>
      </trkpt>
      <trkpt lat="45.20243" lon="5.737">
        <ele>219</ele>
        <time>2021-09-09T03:37:30.000Z</time>
      </trkpt>
      <trkpt lat="45.20243" lon="5.73696">
        <ele>219</ele>
        <time>2021-09-09T03:37:31.000Z</time>
      </trkpt>
      <trkpt lat="45.20242" lon="5.7368">
        <ele>218.80000305176</ele>
        <time>2021-09-09T03:37:35.000Z</time>
      </trkpt>
      <trkpt lat="45.20239" lon="5.73654">
        <ele>218.80000305176</ele>
        <time>2021-09-09T03:37:41.000Z</time>
      </trkpt>
      <trkpt lat="45.20238" lon="5.7365">
        <ele>218.80000305176</ele>
        <time>2021-09-09T03:37:42.000Z</time>
      </trkpt>
      <trkpt lat="45.20232" lon="5.73634">
        <ele>218.80000305176</ele>
        <time>2021-09-09T03:37:46.000Z</time>
      </trkpt>
      <trkpt lat="45.20231" lon="5.7363">
        <ele>218.80000305176</ele>
        <time>2021-09-09T03:37:47.000Z</time>
      </trkpt>
      <trkpt lat="45.20227" lon="5.73618">
        <ele>218.19999694824</ele>
        <time>2021-09-09T03:37:51.000Z</time>
      </trkpt>
      <trkpt lat="45.20224" lon="5.73611">
        <ele>218.19999694824</ele>
        <time>2021-09-09T03:37:53.000Z</time>
      </trkpt>
      <trkpt lat="45.20224" lon="5.73603">
        <ele>218.60000610352</ele>
        <time>2021-09-09T03:37:55.000Z</time>
      </trkpt>
      <trkpt lat="45.20226" lon="5.73595">
        <ele>218.60000610352</ele>
        <time>2021-09-09T03:37:57.000Z</time>
      </trkpt>
      <trkpt lat="45.2023" lon="5.7359">
        <ele>218.80000305176</ele>
        <time>2021-09-09T03:37:59.000Z</time>
      </trkpt>
      <trkpt lat="45.20236" lon="5.73588">
        <ele>219</ele>
        <time>2021-09-09T03:38:01.000Z</time>
      </trkpt>
      <trkpt lat="45.20249" lon="5.7357">
        <ele>219.80000305176</ele>
        <time>2021-09-09T03:38:06.000Z</time>
      </trkpt>
      <trkpt lat="45.20251" lon="5.73566">
        <ele>220.19999694824</ele>
        <time>2021-09-09T03:38:07.000Z</time>
      </trkpt>
      <trkpt lat="45.20259" lon="5.73561">
        <ele>221.39999389648</ele>
        <time>2021-09-09T03:38:11.000Z</time>
      </trkpt>
      <trkpt lat="45.20261" lon="5.7356">
        <ele>221.80000305176</ele>
        <time>2021-09-09T03:38:12.000Z</time>
      </trkpt>
      <trkpt lat="45.20266" lon="5.73558">
        <ele>222.80000305176</ele>
        <time>2021-09-09T03:38:15.000Z</time>
      </trkpt>
      <trkpt lat="45.20269" lon="5.73553">
        <ele>223</ele>
        <time>2021-09-09T03:38:18.000Z</time>
      </trkpt>
      <trkpt lat="45.20269" lon="5.7355">
        <ele>223</ele>
        <time>2021-09-09T03:38:19.000Z</time>
      </trkpt>
      <trkpt lat="45.20261" lon="5.73537">
        <ele>223</ele>
        <time>2021-09-09T03:38:22.000Z</time>
      </trkpt>
      <trkpt lat="45.20251" lon="5.73524">
        <ele>222.80000305176</ele>
        <time>2021-09-09T03:38:27.000Z</time>
      </trkpt>
      <trkpt lat="45.20245" lon="5.73505">
        <ele>222</ele>
        <time>2021-09-09T03:38:33.000Z</time>
      </trkpt>
      <trkpt lat="45.20235" lon="5.73488">
        <ele>221.60000610352</ele>
        <time>2021-09-09T03:38:38.000Z</time>
      </trkpt>
      <trkpt lat="45.20223" lon="5.73472">
        <ele>221.60000610352</ele>
        <time>2021-09-09T03:38:43.000Z</time>
      </trkpt>
      <trkpt lat="45.2022" lon="5.7347">
        <ele>221.60000610352</ele>
        <time>2021-09-09T03:38:44.000Z</time>
      </trkpt>
      <trkpt lat="45.20205" lon="5.73455">
        <ele>221.19999694824</ele>
        <time>2021-09-09T03:38:50.000Z</time>
      </trkpt>
      <trkpt lat="45.20194" lon="5.73444">
        <ele>221</ele>
        <time>2021-09-09T03:38:55.000Z</time>
      </trkpt>
      <trkpt lat="45.20182" lon="5.7343">
        <ele>221.19999694824</ele>
        <time>2021-09-09T03:39:01.000Z</time>
      </trkpt>
      <trkpt lat="45.20172" lon="5.73418">
        <ele>221.19999694824</ele>
        <time>2021-09-09T03:39:05.000Z</time>
      </trkpt>
      <trkpt lat="45.2017" lon="5.73416">
        <ele>221.19999694824</ele>
        <time>2021-09-09T03:39:06.000Z</time>
      </trkpt>
      <trkpt lat="45.20161" lon="5.73412">
        <ele>221</ele>
        <time>2021-09-09T03:39:11.000Z</time>
      </trkpt>
      <trkpt lat="45.20156" lon="5.7341">
        <ele>220.80000305176</ele>
        <time>2021-09-09T03:39:13.000Z</time>
      </trkpt>
      <trkpt lat="45.20154" lon="5.73408">
        <ele>220.60000610352</ele>
        <time>2021-09-09T03:39:14.000Z</time>
      </trkpt>
      <trkpt lat="45.20151" lon="5.73407">
        <ele>220.60000610352</ele>
        <time>2021-09-09T03:39:15.000Z</time>
      </trkpt>
      <trkpt lat="45.20139" lon="5.73403">
        <ele>220.19999694824</ele>
        <time>2021-09-09T03:39:20.000Z</time>
      </trkpt>
      <trkpt lat="45.20119" lon="5.73401">
        <ele>220</ele>
        <time>2021-09-09T03:39:27.000Z</time>
      </trkpt>
      <trkpt lat="45.20114" lon="5.734">
        <ele>220</ele>
        <time>2021-09-09T03:39:29.000Z</time>
      </trkpt>
      <trkpt lat="45.20098" lon="5.73397">
        <ele>219.80000305176</ele>
        <time>2021-09-09T03:39:35.000Z</time>
      </trkpt>
      <trkpt lat="45.20084" lon="5.73391">
        <ele>219.60000610352</ele>
        <time>2021-09-09T03:39:39.000Z</time>
      </trkpt>
      <trkpt lat="45.20076" lon="5.73386">
        <ele>219.39999389648</ele>
        <time>2021-09-09T03:39:42.000Z</time>
      </trkpt>
      <trkpt lat="45.20056" lon="5.73377">
        <ele>219.80000305176</ele>
        <time>2021-09-09T03:39:49.000Z</time>
      </trkpt>
      <trkpt lat="45.20053" lon="5.73376">
        <ele>219.80000305176</ele>
        <time>2021-09-09T03:39:50.000Z</time>
      </trkpt>
      <trkpt lat="45.2004" lon="5.73376">
        <ele>220</ele>
        <time>2021-09-09T03:39:55.000Z</time>
      </trkpt>
      <trkpt lat="45.20036" lon="5.73374">
        <ele>220</ele>
        <time>2021-09-09T03:39:56.000Z</time>
      </trkpt>
      <trkpt lat="45.20018" lon="5.73362">
        <ele>220.39999389648</ele>
        <time>2021-09-09T03:40:02.000Z</time>
      </trkpt>
      <trkpt lat="45.20014" lon="5.73356">
        <ele>220.60000610352</ele>
        <time>2021-09-09T03:40:04.000Z</time>
      </trkpt>
      <trkpt lat="45.20003" lon="5.7335">
        <ele>220.60000610352</ele>
        <time>2021-09-09T03:40:08.000Z</time>
      </trkpt>
      <trkpt lat="45.19992" lon="5.73342">
        <ele>220.60000610352</ele>
        <time>2021-09-09T03:40:13.000Z</time>
      </trkpt>
      <trkpt lat="45.19978" lon="5.73337">
        <ele>221</ele>
        <time>2021-09-09T03:40:18.000Z</time>
      </trkpt>
      <trkpt lat="45.19969" lon="5.73334">
        <ele>221</ele>
        <time>2021-09-09T03:40:21.000Z</time>
      </trkpt>
      <trkpt lat="45.19964" lon="5.73333">
        <ele>221.19999694824</ele>
        <time>2021-09-09T03:40:23.000Z</time>
      </trkpt>
      <trkpt lat="45.19961" lon="5.73331">
        <ele>221.19999694824</ele>
        <time>2021-09-09T03:40:24.000Z</time>
      </trkpt>
      <trkpt lat="45.19956" lon="5.73328">
        <ele>221.39999389648</ele>
        <time>2021-09-09T03:40:26.000Z</time>
      </trkpt>
      <trkpt lat="45.19947" lon="5.73324">
        <ele>221.39999389648</ele>
        <time>2021-09-09T03:40:29.000Z</time>
      </trkpt>
      <trkpt lat="45.19942" lon="5.73326">
        <ele>221.60000610352</ele>
        <time>2021-09-09T03:40:31.000Z</time>
      </trkpt>
      <trkpt lat="45.1994" lon="5.73326">
        <ele>221.60000610352</ele>
        <time>2021-09-09T03:40:32.000Z</time>
      </trkpt>
      <trkpt lat="45.19937" lon="5.73325">
        <ele>221.60000610352</ele>
        <time>2021-09-09T03:40:33.000Z</time>
      </trkpt>
      <trkpt lat="45.1992" lon="5.73316">
        <ele>221.19999694824</ele>
        <time>2021-09-09T03:40:40.000Z</time>
      </trkpt>
      <trkpt lat="45.19917" lon="5.73315">
        <ele>221.19999694824</ele>
        <time>2021-09-09T03:40:41.000Z</time>
      </trkpt>
      <trkpt lat="45.19898" lon="5.73309">
        <ele>221.60000610352</ele>
        <time>2021-09-09T03:40:48.000Z</time>
      </trkpt>
      <trkpt lat="45.19883" lon="5.733">
        <ele>221.39999389648</ele>
        <time>2021-09-09T03:40:54.000Z</time>
      </trkpt>
      <trkpt lat="45.19881" lon="5.73298">
        <ele>221.39999389648</ele>
        <time>2021-09-09T03:40:55.000Z</time>
      </trkpt>
      <trkpt lat="45.19869" lon="5.73292">
        <ele>221.39999389648</ele>
        <time>2021-09-09T03:40:59.000Z</time>
      </trkpt>
      <trkpt lat="45.19858" lon="5.73289">
        <ele>221.80000305176</ele>
        <time>2021-09-09T03:41:03.000Z</time>
      </trkpt>
      <trkpt lat="45.19839" lon="5.73285">
        <ele>221.60000610352</ele>
        <time>2021-09-09T03:41:08.000Z</time>
      </trkpt>
      <trkpt lat="45.19826" lon="5.7329">
        <ele>221.19999694824</ele>
        <time>2021-09-09T03:41:12.000Z</time>
      </trkpt>
      <trkpt lat="45.19808" lon="5.73281">
        <ele>221.39999389648</ele>
        <time>2021-09-09T03:41:17.000Z</time>
      </trkpt>
      <trkpt lat="45.19793" lon="5.73275">
        <ele>221.60000610352</ele>
        <time>2021-09-09T03:41:21.000Z</time>
      </trkpt>
      <trkpt lat="45.1978" lon="5.73266">
        <ele>221.39999389648</ele>
        <time>2021-09-09T03:41:25.000Z</time>
      </trkpt>
      <trkpt lat="45.19768" lon="5.73256">
        <ele>221.39999389648</ele>
        <time>2021-09-09T03:41:28.000Z</time>
      </trkpt>
      <trkpt lat="45.19765" lon="5.73246">
        <ele>221.19999694824</ele>
        <time>2021-09-09T03:41:31.000Z</time>
      </trkpt>
      <trkpt lat="45.19765" lon="5.73242">
        <ele>221.19999694824</ele>
        <time>2021-09-09T03:41:32.000Z</time>
      </trkpt>
      <trkpt lat="45.1977" lon="5.73221">
        <ele>221</ele>
        <time>2021-09-09T03:41:38.000Z</time>
      </trkpt>
      <trkpt lat="45.1977" lon="5.73217">
        <ele>221</ele>
        <time>2021-09-09T03:41:39.000Z</time>
      </trkpt>
      <trkpt lat="45.19768" lon="5.73197">
        <ele>220.80000305176</ele>
        <time>2021-09-09T03:41:44.000Z</time>
      </trkpt>
      <trkpt lat="45.19767" lon="5.73179">
        <ele>221.19999694824</ele>
        <time>2021-09-09T03:41:50.000Z</time>
      </trkpt>
      <trkpt lat="45.19772" lon="5.73167">
        <ele>222.60000610352</ele>
        <time>2021-09-09T03:41:54.000Z</time>
      </trkpt>
      <trkpt lat="45.19775" lon="5.73163">
        <ele>223</ele>
        <time>2021-09-09T03:41:55.000Z</time>
      </trkpt>
      <trkpt lat="45.19781" lon="5.73155">
        <ele>223.80000305176</ele>
        <time>2021-09-09T03:41:57.000Z</time>
      </trkpt>
      <trkpt lat="45.19786" lon="5.73145">
        <ele>225.19999694824</ele>
        <time>2021-09-09T03:42:01.000Z</time>
      </trkpt>
      <trkpt lat="45.19787" lon="5.73143">
        <ele>225.80000305176</ele>
        <time>2021-09-09T03:42:02.000Z</time>
      </trkpt>
      <trkpt lat="45.1979" lon="5.73139">
        <ele>226.39999389648</ele>
        <time>2021-09-09T03:42:04.000Z</time>
      </trkpt>
      <trkpt lat="45.19798" lon="5.73134">
        <ele>227.60000610352</ele>
        <time>2021-09-09T03:42:08.000Z</time>
      </trkpt>
      <trkpt lat="45.19795" lon="5.73132">
        <ele>228.19999694824</ele>
        <time>2021-09-09T03:42:10.000Z</time>
      </trkpt>
      <trkpt lat="45.1979" lon="5.7313">
        <ele>228.80000305176</ele>
        <time>2021-09-09T03:42:12.000Z</time>
      </trkpt>
      <trkpt lat="45.19783" lon="5.7313">
        <ele>229.60000610352</ele>
        <time>2021-09-09T03:42:15.000Z</time>
      </trkpt>
      <trkpt lat="45.19771" lon="5.73105">
        <ele>232.19999694824</ele>
        <time>2021-09-09T03:42:24.000Z</time>
      </trkpt>
      <trkpt lat="45.19762" lon="5.73105">
        <ele>232.39999389648</ele>
        <time>2021-09-09T03:42:25.000Z</time>
      </trkpt>
      <trkpt lat="45.19757" lon="5.73097">
        <ele>233.39999389648</ele>
        <time>2021-09-09T03:42:28.000Z</time>
      </trkpt>
      <trkpt lat="45.19755" lon="5.73096">
        <ele>233.39999389648</ele>
        <time>2021-09-09T03:42:29.000Z</time>
      </trkpt>
      <trkpt lat="45.19755" lon="5.73091">
        <ele>234.19999694824</ele>
        <time>2021-09-09T03:42:31.000Z</time>
      </trkpt>
      <trkpt lat="45.19759" lon="5.73089">
        <ele>234.39999389648</ele>
        <time>2021-09-09T03:42:33.000Z</time>
      </trkpt>
      <trkpt lat="45.19772" lon="5.73089">
        <ele>235.39999389648</ele>
        <time>2021-09-09T03:42:39.000Z</time>
      </trkpt>
      <trkpt lat="45.19783" lon="5.73093">
        <ele>236.60000610352</ele>
        <time>2021-09-09T03:42:44.000Z</time>
      </trkpt>
      <trkpt lat="45.19789" lon="5.73096">
        <ele>237.60000610352</ele>
        <time>2021-09-09T03:42:48.000Z</time>
      </trkpt>
      <trkpt lat="45.19791" lon="5.73097">
        <ele>237.80000305176</ele>
        <time>2021-09-09T03:42:49.000Z</time>
      </trkpt>
      <trkpt lat="45.19797" lon="5.73098">
        <ele>238.80000305176</ele>
        <time>2021-09-09T03:42:54.000Z</time>
      </trkpt>
      <trkpt lat="45.19797" lon="5.73098">
        <ele>239</ele>
        <time>2021-09-09T03:42:55.000Z</time>
      </trkpt>
      <trkpt lat="45.19796" lon="5.731">
        <ele>239.39999389648</ele>
        <time>2021-09-09T03:42:56.000Z</time>
      </trkpt>
      <trkpt lat="45.19792" lon="5.73099">
        <ele>239.80000305176</ele>
        <time>2021-09-09T03:42:59.000Z</time>
      </trkpt>
      <trkpt lat="45.19788" lon="5.73096">
        <ele>240.39999389648</ele>
        <time>2021-09-09T03:43:01.000Z</time>
      </trkpt>
      <trkpt lat="45.19784" lon="5.73093">
        <ele>241</ele>
        <time>2021-09-09T03:43:03.000Z</time>
      </trkpt>
      <trkpt lat="45.1978" lon="5.73091">
        <ele>241.19999694824</ele>
        <time>2021-09-09T03:43:05.000Z</time>
      </trkpt>
      <trkpt lat="45.19776" lon="5.73088">
        <ele>241.60000610352</ele>
        <time>2021-09-09T03:43:07.000Z</time>
      </trkpt>
      <trkpt lat="45.19774" lon="5.73087">
        <ele>242</ele>
        <time>2021-09-09T03:43:08.000Z</time>
      </trkpt>
      <trkpt lat="45.19768" lon="5.73084">
        <ele>242.80000305176</ele>
        <time>2021-09-09T03:43:11.000Z</time>
      </trkpt>
      <trkpt lat="45.19766" lon="5.73083">
        <ele>243.19999694824</ele>
        <time>2021-09-09T03:43:12.000Z</time>
      </trkpt>
      <trkpt lat="45.19765" lon="5.73081">
        <ele>243.39999389648</ele>
        <time>2021-09-09T03:43:13.000Z</time>
      </trkpt>
      <trkpt lat="45.19759" lon="5.73077">
        <ele>244.39999389648</ele>
        <time>2021-09-09T03:43:16.000Z</time>
      </trkpt>
      <trkpt lat="45.19751" lon="5.73074">
        <ele>245.19999694824</ele>
        <time>2021-09-09T03:43:19.000Z</time>
      </trkpt>
      <trkpt lat="45.19749" lon="5.7307">
        <ele>245.60000610352</ele>
        <time>2021-09-09T03:43:20.000Z</time>
      </trkpt>
      <trkpt lat="45.19748" lon="5.73063">
        <ele>245.80000305176</ele>
        <time>2021-09-09T03:43:22.000Z</time>
      </trkpt>
      <trkpt lat="45.19749" lon="5.73061">
        <ele>246</ele>
        <time>2021-09-09T03:43:23.000Z</time>
      </trkpt>
      <trkpt lat="45.19751" lon="5.7306">
        <ele>246.19999694824</ele>
        <time>2021-09-09T03:43:24.000Z</time>
      </trkpt>
      <trkpt lat="45.19752" lon="5.73059">
        <ele>246.19999694824</ele>
        <time>2021-09-09T03:43:25.000Z</time>
      </trkpt>
      <trkpt lat="45.19754" lon="5.73059">
        <ele>246.60000610352</ele>
        <time>2021-09-09T03:43:26.000Z</time>
      </trkpt>
      <trkpt lat="45.19757" lon="5.7306">
        <ele>246.80000305176</ele>
        <time>2021-09-09T03:43:28.000Z</time>
      </trkpt>
      <trkpt lat="45.19761" lon="5.7306">
        <ele>247.60000610352</ele>
        <time>2021-09-09T03:43:31.000Z</time>
      </trkpt>
      <trkpt lat="45.19769" lon="5.73054">
        <ele>248.39999389648</ele>
        <time>2021-09-09T03:43:35.000Z</time>
      </trkpt>
      <trkpt lat="45.19773" lon="5.73053">
        <ele>248.80000305176</ele>
        <time>2021-09-09T03:43:37.000Z</time>
      </trkpt>
      <trkpt lat="45.19785" lon="5.73055">
        <ele>249.80000305176</ele>
        <time>2021-09-09T03:43:42.000Z</time>
      </trkpt>
      <trkpt lat="45.19791" lon="5.73056">
        <ele>250.80000305176</ele>
        <time>2021-09-09T03:43:46.000Z</time>
      </trkpt>
      <trkpt lat="45.19793" lon="5.73057">
        <ele>251</ele>
        <time>2021-09-09T03:43:47.000Z</time>
      </trkpt>
      <trkpt lat="45.19794" lon="5.73057">
        <ele>251.60000610352</ele>
        <time>2021-09-09T03:43:50.000Z</time>
      </trkpt>
      <trkpt lat="45.19792" lon="5.73058">
        <ele>252</ele>
        <time>2021-09-09T03:43:51.000Z</time>
      </trkpt>
      <trkpt lat="45.1979" lon="5.73058">
        <ele>252.19999694824</ele>
        <time>2021-09-09T03:43:52.000Z</time>
      </trkpt>
      <trkpt lat="45.19787" lon="5.7306">
        <ele>252.39999389648</ele>
        <time>2021-09-09T03:43:54.000Z</time>
      </trkpt>
      <trkpt lat="45.19785" lon="5.7306">
        <ele>252.60000610352</ele>
        <time>2021-09-09T03:43:55.000Z</time>
      </trkpt>
      <trkpt lat="45.1978" lon="5.73059">
        <ele>253.39999389648</ele>
        <time>2021-09-09T03:43:58.000Z</time>
      </trkpt>
      <trkpt lat="45.19778" lon="5.73058">
        <ele>253.60000610352</ele>
        <time>2021-09-09T03:43:59.000Z</time>
      </trkpt>
      <trkpt lat="45.19774" lon="5.73056">
        <ele>254.19999694824</ele>
        <time>2021-09-09T03:44:01.000Z</time>
      </trkpt>
      <trkpt lat="45.19771" lon="5.73054">
        <ele>254.39999389648</ele>
        <time>2021-09-09T03:44:02.000Z</time>
      </trkpt>
      <trkpt lat="45.19769" lon="5.73053">
        <ele>254.80000305176</ele>
        <time>2021-09-09T03:44:03.000Z</time>
      </trkpt>
      <trkpt lat="45.19757" lon="5.73047">
        <ele>255.80000305176</ele>
        <time>2021-09-09T03:44:08.000Z</time>
      </trkpt>
      <trkpt lat="45.19753" lon="5.73044">
        <ele>256.39999389648</ele>
        <time>2021-09-09T03:44:10.000Z</time>
      </trkpt>
      <trkpt lat="45.1975" lon="5.7304">
        <ele>257.20001220703</ele>
        <time>2021-09-09T03:44:12.000Z</time>
      </trkpt>
      <trkpt lat="45.19751" lon="5.73036">
        <ele>258</ele>
        <time>2021-09-09T03:44:14.000Z</time>
      </trkpt>
      <trkpt lat="45.19754" lon="5.73035">
        <ele>258.20001220703</ele>
        <time>2021-09-09T03:44:15.000Z</time>
      </trkpt>
      <trkpt lat="45.19758" lon="5.73036">
        <ele>258.79998779297</ele>
        <time>2021-09-09T03:44:17.000Z</time>
      </trkpt>
      <trkpt lat="45.19764" lon="5.73038">
        <ele>259.20001220703</ele>
        <time>2021-09-09T03:44:19.000Z</time>
      </trkpt>
      <trkpt lat="45.19779" lon="5.73037">
        <ele>260.60000610352</ele>
        <time>2021-09-09T03:44:25.000Z</time>
      </trkpt>
      <trkpt lat="45.19781" lon="5.73037">
        <ele>260.60000610352</ele>
        <time>2021-09-09T03:44:26.000Z</time>
      </trkpt>
      <trkpt lat="45.19793" lon="5.73038">
        <ele>262</ele>
        <time>2021-09-09T03:44:32.000Z</time>
      </trkpt>
      <trkpt lat="45.19794" lon="5.73037">
        <ele>262.20001220703</ele>
        <time>2021-09-09T03:44:33.000Z</time>
      </trkpt>
      <trkpt lat="45.19799" lon="5.73037">
        <ele>263.20001220703</ele>
        <time>2021-09-09T03:44:36.000Z</time>
      </trkpt>
      <trkpt lat="45.19803" lon="5.73036">
        <ele>263.79998779297</ele>
        <time>2021-09-09T03:44:39.000Z</time>
      </trkpt>
      <trkpt lat="45.19803" lon="5.73036">
        <ele>264.20001220703</ele>
        <time>2021-09-09T03:44:40.000Z</time>
      </trkpt>
      <trkpt lat="45.19802" lon="5.73037">
        <ele>264.39999389648</ele>
        <time>2021-09-09T03:44:41.000Z</time>
      </trkpt>
      <trkpt lat="45.19793" lon="5.73039">
        <ele>265.20001220703</ele>
        <time>2021-09-09T03:44:46.000Z</time>
      </trkpt>
      <trkpt lat="45.19789" lon="5.73037">
        <ele>265.60000610352</ele>
        <time>2021-09-09T03:44:48.000Z</time>
      </trkpt>
      <trkpt lat="45.19779" lon="5.73032">
        <ele>266.20001220703</ele>
        <time>2021-09-09T03:44:53.000Z</time>
      </trkpt>
      <trkpt lat="45.19777" lon="5.7303">
        <ele>266.79998779297</ele>
        <time>2021-09-09T03:44:55.000Z</time>
      </trkpt>
      <trkpt lat="45.19772" lon="5.73028">
        <ele>267.39999389648</ele>
        <time>2021-09-09T03:44:58.000Z</time>
      </trkpt>
      <trkpt lat="45.19763" lon="5.73024">
        <ele>268.39999389648</ele>
        <time>2021-09-09T03:45:01.000Z</time>
      </trkpt>
      <trkpt lat="45.19761" lon="5.7302">
        <ele>268.60000610352</ele>
        <time>2021-09-09T03:45:02.000Z</time>
      </trkpt>
      <trkpt lat="45.19764" lon="5.73011">
        <ele>269.20001220703</ele>
        <time>2021-09-09T03:45:04.000Z</time>
      </trkpt>
      <trkpt lat="45.19765" lon="5.73012">
        <ele>269.79998779297</ele>
        <time>2021-09-09T03:45:05.000Z</time>
      </trkpt>
      <trkpt lat="45.19767" lon="5.73012">
        <ele>270.20001220703</ele>
        <time>2021-09-09T03:45:06.000Z</time>
      </trkpt>
      <trkpt lat="45.19769" lon="5.73013">
        <ele>270.39999389648</ele>
        <time>2021-09-09T03:45:07.000Z</time>
      </trkpt>
      <trkpt lat="45.19774" lon="5.73015">
        <ele>271</ele>
        <time>2021-09-09T03:45:09.000Z</time>
      </trkpt>
      <trkpt lat="45.19782" lon="5.73018">
        <ele>271.79998779297</ele>
        <time>2021-09-09T03:45:13.000Z</time>
      </trkpt>
      <trkpt lat="45.19783" lon="5.73019">
        <ele>272</ele>
        <time>2021-09-09T03:45:14.000Z</time>
      </trkpt>
      <trkpt lat="45.19796" lon="5.73023">
        <ele>273.20001220703</ele>
        <time>2021-09-09T03:45:19.000Z</time>
      </trkpt>
      <trkpt lat="45.198" lon="5.73023">
        <ele>274.20001220703</ele>
        <time>2021-09-09T03:45:23.000Z</time>
      </trkpt>
      <trkpt lat="45.198" lon="5.73021">
        <ele>274.39999389648</ele>
        <time>2021-09-09T03:45:24.000Z</time>
      </trkpt>
      <trkpt lat="45.19798" lon="5.7302">
        <ele>274.60000610352</ele>
        <time>2021-09-09T03:45:25.000Z</time>
      </trkpt>
      <trkpt lat="45.19794" lon="5.73017">
        <ele>275.20001220703</ele>
        <time>2021-09-09T03:45:27.000Z</time>
      </trkpt>
      <trkpt lat="45.19791" lon="5.73017">
        <ele>275.39999389648</ele>
        <time>2021-09-09T03:45:29.000Z</time>
      </trkpt>
      <trkpt lat="45.19782" lon="5.73018">
        <ele>276.20001220703</ele>
        <time>2021-09-09T03:45:33.000Z</time>
      </trkpt>
      <trkpt lat="45.1978" lon="5.73014">
        <ele>276.60000610352</ele>
        <time>2021-09-09T03:45:35.000Z</time>
      </trkpt>
      <trkpt lat="45.19776" lon="5.73005">
        <ele>277.39999389648</ele>
        <time>2021-09-09T03:45:39.000Z</time>
      </trkpt>
      <trkpt lat="45.19772" lon="5.73003">
        <ele>277.79998779297</ele>
        <time>2021-09-09T03:45:41.000Z</time>
      </trkpt>
      <trkpt lat="45.19761" lon="5.72991">
        <ele>279</ele>
        <time>2021-09-09T03:45:48.000Z</time>
      </trkpt>
      <trkpt lat="45.19755" lon="5.72981">
        <ele>280</ele>
        <time>2021-09-09T03:45:52.000Z</time>
      </trkpt>
      <trkpt lat="45.19754" lon="5.72978">
        <ele>280.20001220703</ele>
        <time>2021-09-09T03:45:53.000Z</time>
      </trkpt>
      <trkpt lat="45.19753" lon="5.72977">
        <ele>280.39999389648</ele>
        <time>2021-09-09T03:45:54.000Z</time>
      </trkpt>
      <trkpt lat="45.19751" lon="5.72975">
        <ele>280.60000610352</ele>
        <time>2021-09-09T03:45:55.000Z</time>
      </trkpt>
      <trkpt lat="45.19746" lon="5.72966">
        <ele>281.20001220703</ele>
        <time>2021-09-09T03:45:59.000Z</time>
      </trkpt>
      <trkpt lat="45.19742" lon="5.7296">
        <ele>282.20001220703</ele>
        <time>2021-09-09T03:46:01.000Z</time>
      </trkpt>
      <trkpt lat="45.19741" lon="5.72957">
        <ele>282.39999389648</ele>
        <time>2021-09-09T03:46:02.000Z</time>
      </trkpt>
      <trkpt lat="45.19735" lon="5.72946">
        <ele>283.39999389648</ele>
        <time>2021-09-09T03:46:06.000Z</time>
      </trkpt>
      <trkpt lat="45.19732" lon="5.7294">
        <ele>283.79998779297</ele>
        <time>2021-09-09T03:46:08.000Z</time>
      </trkpt>
      <trkpt lat="45.19727" lon="5.72928">
        <ele>284.60000610352</ele>
        <time>2021-09-09T03:46:12.000Z</time>
      </trkpt>
      <trkpt lat="45.19721" lon="5.72917">
        <ele>285.60000610352</ele>
        <time>2021-09-09T03:46:15.000Z</time>
      </trkpt>
      <trkpt lat="45.19719" lon="5.72915">
        <ele>286.20001220703</ele>
        <time>2021-09-09T03:46:16.000Z</time>
      </trkpt>
      <trkpt lat="45.19718" lon="5.72911">
        <ele>286.60000610352</ele>
        <time>2021-09-09T03:46:17.000Z</time>
      </trkpt>
      <trkpt lat="45.19714" lon="5.72904">
        <ele>287.20001220703</ele>
        <time>2021-09-09T03:46:19.000Z</time>
      </trkpt>
      <trkpt lat="45.19707" lon="5.72892">
        <ele>288.39999389648</ele>
        <time>2021-09-09T03:46:23.000Z</time>
      </trkpt>
      <trkpt lat="45.19705" lon="5.72888">
        <ele>288.60000610352</ele>
        <time>2021-09-09T03:46:24.000Z</time>
      </trkpt>
      <trkpt lat="45.19703" lon="5.72885">
        <ele>289</ele>
        <time>2021-09-09T03:46:25.000Z</time>
      </trkpt>
      <trkpt lat="45.197" lon="5.72879">
        <ele>289.60000610352</ele>
        <time>2021-09-09T03:46:27.000Z</time>
      </trkpt>
      <trkpt lat="45.19692" lon="5.72873">
        <ele>290.60000610352</ele>
        <time>2021-09-09T03:46:31.000Z</time>
      </trkpt>
      <trkpt lat="45.19684" lon="5.72858">
        <ele>291.79998779297</ele>
        <time>2021-09-09T03:46:37.000Z</time>
      </trkpt>
      <trkpt lat="45.19684" lon="5.72851">
        <ele>292.39999389648</ele>
        <time>2021-09-09T03:46:39.000Z</time>
      </trkpt>
      <trkpt lat="45.19687" lon="5.72847">
        <ele>292.39999389648</ele>
        <time>2021-09-09T03:46:40.000Z</time>
      </trkpt>
      <trkpt lat="45.19691" lon="5.72845">
        <ele>293</ele>
        <time>2021-09-09T03:46:42.000Z</time>
      </trkpt>
      <trkpt lat="45.19693" lon="5.72846">
        <ele>293.20001220703</ele>
        <time>2021-09-09T03:46:43.000Z</time>
      </trkpt>
      <trkpt lat="45.19695" lon="5.72848">
        <ele>293.39999389648</ele>
        <time>2021-09-09T03:46:44.000Z</time>
      </trkpt>
      <trkpt lat="45.19701" lon="5.72853">
        <ele>294</ele>
        <time>2021-09-09T03:46:47.000Z</time>
      </trkpt>
      <trkpt lat="45.19703" lon="5.72855">
        <ele>294.20001220703</ele>
        <time>2021-09-09T03:46:48.000Z</time>
      </trkpt>
      <trkpt lat="45.19714" lon="5.72862">
        <ele>295.39999389648</ele>
        <time>2021-09-09T03:46:53.000Z</time>
      </trkpt>
      <trkpt lat="45.19716" lon="5.72865">
        <ele>295.60000610352</ele>
        <time>2021-09-09T03:46:55.000Z</time>
      </trkpt>
      <trkpt lat="45.19725" lon="5.72866">
        <ele>296.39999389648</ele>
        <time>2021-09-09T03:46:59.000Z</time>
      </trkpt>
      <trkpt lat="45.19728" lon="5.72869">
        <ele>296.79998779297</ele>
        <time>2021-09-09T03:47:00.000Z</time>
      </trkpt>
      <trkpt lat="45.19735" lon="5.72873">
        <ele>297.60000610352</ele>
        <time>2021-09-09T03:47:03.000Z</time>
      </trkpt>
      <trkpt lat="45.19747" lon="5.72879">
        <ele>299</ele>
        <time>2021-09-09T03:47:08.000Z</time>
      </trkpt>
      <trkpt lat="45.19751" lon="5.72882">
        <ele>299.39999389648</ele>
        <time>2021-09-09T03:47:10.000Z</time>
      </trkpt>
      <trkpt lat="45.19756" lon="5.72886">
        <ele>299.79998779297</ele>
        <time>2021-09-09T03:47:12.000Z</time>
      </trkpt>
      <trkpt lat="45.19758" lon="5.72888">
        <ele>300.39999389648</ele>
        <time>2021-09-09T03:47:13.000Z</time>
      </trkpt>
      <trkpt lat="45.19763" lon="5.72893">
        <ele>301.60000610352</ele>
        <time>2021-09-09T03:47:16.000Z</time>
      </trkpt>
      <trkpt lat="45.19765" lon="5.72894">
        <ele>301.79998779297</ele>
        <time>2021-09-09T03:47:17.000Z</time>
      </trkpt>
      <trkpt lat="45.19772" lon="5.72904">
        <ele>302.60000610352</ele>
        <time>2021-09-09T03:47:20.000Z</time>
      </trkpt>
      <trkpt lat="45.19779" lon="5.72907">
        <ele>303.79998779297</ele>
        <time>2021-09-09T03:47:23.000Z</time>
      </trkpt>
      <trkpt lat="45.19783" lon="5.72909">
        <ele>304</ele>
        <time>2021-09-09T03:47:24.000Z</time>
      </trkpt>
      <trkpt lat="45.19785" lon="5.7291">
        <ele>304.20001220703</ele>
        <time>2021-09-09T03:47:25.000Z</time>
      </trkpt>
      <trkpt lat="45.19792" lon="5.72909">
        <ele>305</ele>
        <time>2021-09-09T03:47:28.000Z</time>
      </trkpt>
      <trkpt lat="45.19794" lon="5.72909">
        <ele>305.39999389648</ele>
        <time>2021-09-09T03:47:29.000Z</time>
      </trkpt>
      <trkpt lat="45.19799" lon="5.72913">
        <ele>306.20001220703</ele>
        <time>2021-09-09T03:47:32.000Z</time>
      </trkpt>
      <trkpt lat="45.198" lon="5.72913">
        <ele>306.79998779297</ele>
        <time>2021-09-09T03:47:35.000Z</time>
      </trkpt>
      <trkpt lat="45.19795" lon="5.72917">
        <ele>307.39999389648</ele>
        <time>2021-09-09T03:47:37.000Z</time>
      </trkpt>
      <trkpt lat="45.1979" lon="5.72917">
        <ele>307.79998779297</ele>
        <time>2021-09-09T03:47:39.000Z</time>
      </trkpt>
      <trkpt lat="45.19784" lon="5.72915">
        <ele>308.60000610352</ele>
        <time>2021-09-09T03:47:42.000Z</time>
      </trkpt>
      <trkpt lat="45.19777" lon="5.72906">
        <ele>309.60000610352</ele>
        <time>2021-09-09T03:47:47.000Z</time>
      </trkpt>
      <trkpt lat="45.19769" lon="5.72897">
        <ele>310.60000610352</ele>
        <time>2021-09-09T03:47:52.000Z</time>
      </trkpt>
      <trkpt lat="45.19766" lon="5.72888">
        <ele>311.39999389648</ele>
        <time>2021-09-09T03:47:55.000Z</time>
      </trkpt>
      <trkpt lat="45.19765" lon="5.72886">
        <ele>311.79998779297</ele>
        <time>2021-09-09T03:47:56.000Z</time>
      </trkpt>
      <trkpt lat="45.19759" lon="5.72877">
        <ele>312.60000610352</ele>
        <time>2021-09-09T03:48:00.000Z</time>
      </trkpt>
      <trkpt lat="45.19756" lon="5.72875">
        <ele>313</ele>
        <time>2021-09-09T03:48:01.000Z</time>
      </trkpt>
      <trkpt lat="45.19749" lon="5.72863">
        <ele>314.20001220703</ele>
        <time>2021-09-09T03:48:05.000Z</time>
      </trkpt>
      <trkpt lat="45.19745" lon="5.72855">
        <ele>315.20001220703</ele>
        <time>2021-09-09T03:48:08.000Z</time>
      </trkpt>
      <trkpt lat="45.19744" lon="5.7285">
        <ele>315.79998779297</ele>
        <time>2021-09-09T03:48:10.000Z</time>
      </trkpt>
      <trkpt lat="45.19741" lon="5.72843">
        <ele>316.39999389648</ele>
        <time>2021-09-09T03:48:12.000Z</time>
      </trkpt>
      <trkpt lat="45.19742" lon="5.7284">
        <ele>316.60000610352</ele>
        <time>2021-09-09T03:48:13.000Z</time>
      </trkpt>
      <trkpt lat="45.19744" lon="5.72838">
        <ele>317</ele>
        <time>2021-09-09T03:48:14.000Z</time>
      </trkpt>
      <trkpt lat="45.19746" lon="5.72839">
        <ele>317.60000610352</ele>
        <time>2021-09-09T03:48:15.000Z</time>
      </trkpt>
      <trkpt lat="45.19755" lon="5.72841">
        <ele>318.39999389648</ele>
        <time>2021-09-09T03:48:18.000Z</time>
      </trkpt>
      <trkpt lat="45.1976" lon="5.72845">
        <ele>318.79998779297</ele>
        <time>2021-09-09T03:48:20.000Z</time>
      </trkpt>
      <trkpt lat="45.1977" lon="5.7285">
        <ele>319.60000610352</ele>
        <time>2021-09-09T03:48:24.000Z</time>
      </trkpt>
      <trkpt lat="45.19772" lon="5.72852">
        <ele>319.79998779297</ele>
        <time>2021-09-09T03:48:25.000Z</time>
      </trkpt>
      <trkpt lat="45.1978" lon="5.72858">
        <ele>321</ele>
        <time>2021-09-09T03:48:29.000Z</time>
      </trkpt>
      <trkpt lat="45.19783" lon="5.72859">
        <ele>321.60000610352</ele>
        <time>2021-09-09T03:48:31.000Z</time>
      </trkpt>
      <trkpt lat="45.19786" lon="5.7286">
        <ele>322.20001220703</ele>
        <time>2021-09-09T03:48:33.000Z</time>
      </trkpt>
      <trkpt lat="45.19795" lon="5.72865">
        <ele>323.39999389648</ele>
        <time>2021-09-09T03:48:38.000Z</time>
      </trkpt>
      <trkpt lat="45.19797" lon="5.72867">
        <ele>323.39999389648</ele>
        <time>2021-09-09T03:48:39.000Z</time>
      </trkpt>
      <trkpt lat="45.19805" lon="5.72869">
        <ele>324.39999389648</ele>
        <time>2021-09-09T03:48:43.000Z</time>
      </trkpt>
      <trkpt lat="45.1981" lon="5.72871">
        <ele>325.60000610352</ele>
        <time>2021-09-09T03:48:48.000Z</time>
      </trkpt>
      <trkpt lat="45.19808" lon="5.72873">
        <ele>325.60000610352</ele>
        <time>2021-09-09T03:48:49.000Z</time>
      </trkpt>
      <trkpt lat="45.19805" lon="5.72872">
        <ele>326.20001220703</ele>
        <time>2021-09-09T03:48:51.000Z</time>
      </trkpt>
      <trkpt lat="45.19803" lon="5.72869">
        <ele>326.60000610352</ele>
        <time>2021-09-09T03:48:53.000Z</time>
      </trkpt>
      <trkpt lat="45.19801" lon="5.72864">
        <ele>326.79998779297</ele>
        <time>2021-09-09T03:48:55.000Z</time>
      </trkpt>
      <trkpt lat="45.19797" lon="5.72861">
        <ele>327.79998779297</ele>
        <time>2021-09-09T03:48:58.000Z</time>
      </trkpt>
      <trkpt lat="45.19789" lon="5.72853">
        <ele>329</ele>
        <time>2021-09-09T03:49:02.000Z</time>
      </trkpt>
      <trkpt lat="45.19783" lon="5.72852">
        <ele>329.39999389648</ele>
        <time>2021-09-09T03:49:04.000Z</time>
      </trkpt>
      <trkpt lat="45.19777" lon="5.72846">
        <ele>330.20001220703</ele>
        <time>2021-09-09T03:49:07.000Z</time>
      </trkpt>
      <trkpt lat="45.19773" lon="5.72838">
        <ele>331.20001220703</ele>
        <time>2021-09-09T03:49:10.000Z</time>
      </trkpt>
      <trkpt lat="45.19771" lon="5.72835">
        <ele>331.60000610352</ele>
        <time>2021-09-09T03:49:11.000Z</time>
      </trkpt>
      <trkpt lat="45.19767" lon="5.72826">
        <ele>332.39999389648</ele>
        <time>2021-09-09T03:49:14.000Z</time>
      </trkpt>
      <trkpt lat="45.19759" lon="5.72816">
        <ele>333.20001220703</ele>
        <time>2021-09-09T03:49:18.000Z</time>
      </trkpt>
      <trkpt lat="45.19757" lon="5.72814">
        <ele>333.79998779297</ele>
        <time>2021-09-09T03:49:19.000Z</time>
      </trkpt>
      <trkpt lat="45.19755" lon="5.72807">
        <ele>334.39999389648</ele>
        <time>2021-09-09T03:49:21.000Z</time>
      </trkpt>
      <trkpt lat="45.19757" lon="5.72803">
        <ele>335</ele>
        <time>2021-09-09T03:49:23.000Z</time>
      </trkpt>
      <trkpt lat="45.19761" lon="5.72804">
        <ele>335.79998779297</ele>
        <time>2021-09-09T03:49:25.000Z</time>
      </trkpt>
      <trkpt lat="45.19763" lon="5.72805">
        <ele>336.20001220703</ele>
        <time>2021-09-09T03:49:26.000Z</time>
      </trkpt>
      <trkpt lat="45.19767" lon="5.72807">
        <ele>336.60000610352</ele>
        <time>2021-09-09T03:49:28.000Z</time>
      </trkpt>
      <trkpt lat="45.1977" lon="5.72807">
        <ele>337.20001220703</ele>
        <time>2021-09-09T03:49:30.000Z</time>
      </trkpt>
      <trkpt lat="45.19775" lon="5.7281">
        <ele>338</ele>
        <time>2021-09-09T03:49:34.000Z</time>
      </trkpt>
      <trkpt lat="45.19777" lon="5.72811">
        <ele>338.39999389648</ele>
        <time>2021-09-09T03:49:35.000Z</time>
      </trkpt>
      <trkpt lat="45.19779" lon="5.72812">
        <ele>338.60000610352</ele>
        <time>2021-09-09T03:49:36.000Z</time>
      </trkpt>
      <trkpt lat="45.19786" lon="5.72817">
        <ele>339.39999389648</ele>
        <time>2021-09-09T03:49:40.000Z</time>
      </trkpt>
      <trkpt lat="45.1979" lon="5.72818">
        <ele>339.79998779297</ele>
        <time>2021-09-09T03:49:42.000Z</time>
      </trkpt>
      <trkpt lat="45.19796" lon="5.72821">
        <ele>340.60000610352</ele>
        <time>2021-09-09T03:49:46.000Z</time>
      </trkpt>
      <trkpt lat="45.19801" lon="5.72823">
        <ele>341.20001220703</ele>
        <time>2021-09-09T03:49:49.000Z</time>
      </trkpt>
      <trkpt lat="45.19804" lon="5.72823">
        <ele>341.79998779297</ele>
        <time>2021-09-09T03:49:51.000Z</time>
      </trkpt>
      <trkpt lat="45.19813" lon="5.72826">
        <ele>342.60000610352</ele>
        <time>2021-09-09T03:49:55.000Z</time>
      </trkpt>
      <trkpt lat="45.19817" lon="5.72829">
        <ele>343</ele>
        <time>2021-09-09T03:49:57.000Z</time>
      </trkpt>
      <trkpt lat="45.19823" lon="5.72833">
        <ele>343.79998779297</ele>
        <time>2021-09-09T03:50:00.000Z</time>
      </trkpt>
      <trkpt lat="45.19824" lon="5.72832">
        <ele>344.20001220703</ele>
        <time>2021-09-09T03:50:01.000Z</time>
      </trkpt>
      <trkpt lat="45.19818" lon="5.7283">
        <ele>345</ele>
        <time>2021-09-09T03:50:04.000Z</time>
      </trkpt>
      <trkpt lat="45.19813" lon="5.72827">
        <ele>345.20001220703</ele>
        <time>2021-09-09T03:50:06.000Z</time>
      </trkpt>
      <trkpt lat="45.19799" lon="5.7282">
        <ele>345.60000610352</ele>
        <time>2021-09-09T03:50:11.000Z</time>
      </trkpt>
      <trkpt lat="45.19792" lon="5.72813">
        <ele>346.20001220703</ele>
        <time>2021-09-09T03:50:15.000Z</time>
      </trkpt>
      <trkpt lat="45.19792" lon="5.72811">
        <ele>346.60000610352</ele>
        <time>2021-09-09T03:50:16.000Z</time>
      </trkpt>
      <trkpt lat="45.19796" lon="5.7281">
        <ele>347.20001220703</ele>
        <time>2021-09-09T03:50:18.000Z</time>
      </trkpt>
      <trkpt lat="45.19798" lon="5.72811">
        <ele>347.60000610352</ele>
        <time>2021-09-09T03:50:19.000Z</time>
      </trkpt>
      <trkpt lat="45.19806" lon="5.7282">
        <ele>348.39999389648</ele>
        <time>2021-09-09T03:50:23.000Z</time>
      </trkpt>
      <trkpt lat="45.1981" lon="5.72823">
        <ele>349.20001220703</ele>
        <time>2021-09-09T03:50:25.000Z</time>
      </trkpt>
      <trkpt lat="45.19812" lon="5.72824">
        <ele>349.39999389648</ele>
        <time>2021-09-09T03:50:26.000Z</time>
      </trkpt>
      <trkpt lat="45.19814" lon="5.72824">
        <ele>349.79998779297</ele>
        <time>2021-09-09T03:50:27.000Z</time>
      </trkpt>
      <trkpt lat="45.19825" lon="5.72827">
        <ele>351</ele>
        <time>2021-09-09T03:50:31.000Z</time>
      </trkpt>
      <trkpt lat="45.19833" lon="5.72829">
        <ele>351.60000610352</ele>
        <time>2021-09-09T03:50:35.000Z</time>
      </trkpt>
      <trkpt lat="45.19836" lon="5.72829">
        <ele>352</ele>
        <time>2021-09-09T03:50:37.000Z</time>
      </trkpt>
      <trkpt lat="45.19837" lon="5.72828">
        <ele>352.20001220703</ele>
        <time>2021-09-09T03:50:38.000Z</time>
      </trkpt>
      <trkpt lat="45.19837" lon="5.72825">
        <ele>352.60000610352</ele>
        <time>2021-09-09T03:50:40.000Z</time>
      </trkpt>
      <trkpt lat="45.19831" lon="5.72821">
        <ele>353.39999389648</ele>
        <time>2021-09-09T03:50:43.000Z</time>
      </trkpt>
      <trkpt lat="45.19826" lon="5.72818">
        <ele>354</ele>
        <time>2021-09-09T03:50:46.000Z</time>
      </trkpt>
      <trkpt lat="45.19822" lon="5.72816">
        <ele>354.39999389648</ele>
        <time>2021-09-09T03:50:48.000Z</time>
      </trkpt>
      <trkpt lat="45.1982" lon="5.72812">
        <ele>354.60000610352</ele>
        <time>2021-09-09T03:50:50.000Z</time>
      </trkpt>
      <trkpt lat="45.19822" lon="5.72807">
        <ele>355</ele>
        <time>2021-09-09T03:50:52.000Z</time>
      </trkpt>
      <trkpt lat="45.19827" lon="5.72807">
        <ele>355.60000610352</ele>
        <time>2021-09-09T03:50:54.000Z</time>
      </trkpt>
      <trkpt lat="45.19829" lon="5.72807">
        <ele>355.60000610352</ele>
        <time>2021-09-09T03:50:55.000Z</time>
      </trkpt>
      <trkpt lat="45.19835" lon="5.7281">
        <ele>356.60000610352</ele>
        <time>2021-09-09T03:50:58.000Z</time>
      </trkpt>
      <trkpt lat="45.19842" lon="5.72816">
        <ele>357.79998779297</ele>
        <time>2021-09-09T03:51:03.000Z</time>
      </trkpt>
      <trkpt lat="45.19847" lon="5.72818">
        <ele>358</ele>
        <time>2021-09-09T03:51:05.000Z</time>
      </trkpt>
      <trkpt lat="45.19852" lon="5.72818">
        <ele>358.60000610352</ele>
        <time>2021-09-09T03:51:08.000Z</time>
      </trkpt>
      <trkpt lat="45.19852" lon="5.72818">
        <ele>358.79998779297</ele>
        <time>2021-09-09T03:51:09.000Z</time>
      </trkpt>
      <trkpt lat="45.19851" lon="5.72817">
        <ele>359</ele>
        <time>2021-09-09T03:51:10.000Z</time>
      </trkpt>
      <trkpt lat="45.19843" lon="5.72812">
        <ele>360</ele>
        <time>2021-09-09T03:51:14.000Z</time>
      </trkpt>
      <trkpt lat="45.19841" lon="5.7281">
        <ele>360.20001220703</ele>
        <time>2021-09-09T03:51:15.000Z</time>
      </trkpt>
      <trkpt lat="45.19835" lon="5.72805">
        <ele>361.39999389648</ele>
        <time>2021-09-09T03:51:18.000Z</time>
      </trkpt>
      <trkpt lat="45.19833" lon="5.72804">
        <ele>361.60000610352</ele>
        <time>2021-09-09T03:51:19.000Z</time>
      </trkpt>
      <trkpt lat="45.1983" lon="5.72802">
        <ele>362</ele>
        <time>2021-09-09T03:51:21.000Z</time>
      </trkpt>
      <trkpt lat="45.19827" lon="5.72799">
        <ele>362.39999389648</ele>
        <time>2021-09-09T03:51:23.000Z</time>
      </trkpt>
      <trkpt lat="45.19822" lon="5.72796">
        <ele>363.39999389648</ele>
        <time>2021-09-09T03:51:26.000Z</time>
      </trkpt>
      <trkpt lat="45.19817" lon="5.72791">
        <ele>363.79998779297</ele>
        <time>2021-09-09T03:51:29.000Z</time>
      </trkpt>
      <trkpt lat="45.19813" lon="5.72788">
        <ele>364.39999389648</ele>
        <time>2021-09-09T03:51:31.000Z</time>
      </trkpt>
      <trkpt lat="45.19806" lon="5.72784">
        <ele>365</ele>
        <time>2021-09-09T03:51:34.000Z</time>
      </trkpt>
      <trkpt lat="45.198" lon="5.72779">
        <ele>365.60000610352</ele>
        <time>2021-09-09T03:51:37.000Z</time>
      </trkpt>
      <trkpt lat="45.198" lon="5.72773">
        <ele>365.79998779297</ele>
        <time>2021-09-09T03:51:39.000Z</time>
      </trkpt>
      <trkpt lat="45.19801" lon="5.72771">
        <ele>366.39999389648</ele>
        <time>2021-09-09T03:51:41.000Z</time>
      </trkpt>
      <trkpt lat="45.19802" lon="5.72772">
        <ele>366.60000610352</ele>
        <time>2021-09-09T03:51:42.000Z</time>
      </trkpt>
      <trkpt lat="45.19803" lon="5.72773">
        <ele>366.79998779297</ele>
        <time>2021-09-09T03:51:43.000Z</time>
      </trkpt>
      <trkpt lat="45.19809" lon="5.72778">
        <ele>367.60000610352</ele>
        <time>2021-09-09T03:51:46.000Z</time>
      </trkpt>
      <trkpt lat="45.19814" lon="5.72779">
        <ele>368.20001220703</ele>
        <time>2021-09-09T03:51:48.000Z</time>
      </trkpt>
      <trkpt lat="45.1982" lon="5.72783">
        <ele>368.60000610352</ele>
        <time>2021-09-09T03:51:51.000Z</time>
      </trkpt>
      <trkpt lat="45.19822" lon="5.72784">
        <ele>369</ele>
        <time>2021-09-09T03:51:52.000Z</time>
      </trkpt>
      <trkpt lat="45.1983" lon="5.72789">
        <ele>370</ele>
        <time>2021-09-09T03:51:56.000Z</time>
      </trkpt>
      <trkpt lat="45.1984" lon="5.72795">
        <ele>371</ele>
        <time>2021-09-09T03:52:01.000Z</time>
      </trkpt>
      <trkpt lat="45.19842" lon="5.72797">
        <ele>371.60000610352</ele>
        <time>2021-09-09T03:52:02.000Z</time>
      </trkpt>
      <trkpt lat="45.19844" lon="5.72798">
        <ele>371.79998779297</ele>
        <time>2021-09-09T03:52:03.000Z</time>
      </trkpt>
      <trkpt lat="45.19845" lon="5.72797">
        <ele>372.20001220703</ele>
        <time>2021-09-09T03:52:04.000Z</time>
      </trkpt>
      <trkpt lat="45.19844" lon="5.72795">
        <ele>372.79998779297</ele>
        <time>2021-09-09T03:52:06.000Z</time>
      </trkpt>
      <trkpt lat="45.19838" lon="5.7279">
        <ele>373.39999389648</ele>
        <time>2021-09-09T03:52:09.000Z</time>
      </trkpt>
      <trkpt lat="45.19836" lon="5.72786">
        <ele>374</ele>
        <time>2021-09-09T03:52:11.000Z</time>
      </trkpt>
      <trkpt lat="45.19833" lon="5.72783">
        <ele>374.60000610352</ele>
        <time>2021-09-09T03:52:13.000Z</time>
      </trkpt>
      <trkpt lat="45.19824" lon="5.72775">
        <ele>375.79998779297</ele>
        <time>2021-09-09T03:52:18.000Z</time>
      </trkpt>
      <trkpt lat="45.19819" lon="5.7277">
        <ele>376.60000610352</ele>
        <time>2021-09-09T03:52:21.000Z</time>
      </trkpt>
      <trkpt lat="45.19817" lon="5.72769">
        <ele>376.79998779297</ele>
        <time>2021-09-09T03:52:22.000Z</time>
      </trkpt>
      <trkpt lat="45.19812" lon="5.72759">
        <ele>378.20001220703</ele>
        <time>2021-09-09T03:52:27.000Z</time>
      </trkpt>
      <trkpt lat="45.19811" lon="5.72756">
        <ele>378.39999389648</ele>
        <time>2021-09-09T03:52:28.000Z</time>
      </trkpt>
      <trkpt lat="45.19805" lon="5.7275">
        <ele>379.20001220703</ele>
        <time>2021-09-09T03:52:32.000Z</time>
      </trkpt>
      <trkpt lat="45.19801" lon="5.72746">
        <ele>380</ele>
        <time>2021-09-09T03:52:35.000Z</time>
      </trkpt>
      <trkpt lat="45.19799" lon="5.72745">
        <ele>380.20001220703</ele>
        <time>2021-09-09T03:52:36.000Z</time>
      </trkpt>
      <trkpt lat="45.19797" lon="5.72743">
        <ele>380.39999389648</ele>
        <time>2021-09-09T03:52:37.000Z</time>
      </trkpt>
      <trkpt lat="45.19794" lon="5.72737">
        <ele>381.20001220703</ele>
        <time>2021-09-09T03:52:40.000Z</time>
      </trkpt>
      <trkpt lat="45.19793" lon="5.72734">
        <ele>381.39999389648</ele>
        <time>2021-09-09T03:52:41.000Z</time>
      </trkpt>
      <trkpt lat="45.19794" lon="5.7273">
        <ele>382</ele>
        <time>2021-09-09T03:52:43.000Z</time>
      </trkpt>
      <trkpt lat="45.19795" lon="5.72729">
        <ele>382</ele>
        <time>2021-09-09T03:52:44.000Z</time>
      </trkpt>
      <trkpt lat="45.19797" lon="5.72729">
        <ele>382.39999389648</ele>
        <time>2021-09-09T03:52:45.000Z</time>
      </trkpt>
      <trkpt lat="45.19802" lon="5.72731">
        <ele>383</ele>
        <time>2021-09-09T03:52:47.000Z</time>
      </trkpt>
      <trkpt lat="45.19807" lon="5.72732">
        <ele>383.39999389648</ele>
        <time>2021-09-09T03:52:49.000Z</time>
      </trkpt>
      <trkpt lat="45.19813" lon="5.72738">
        <ele>384.20001220703</ele>
        <time>2021-09-09T03:52:53.000Z</time>
      </trkpt>
      <trkpt lat="45.19815" lon="5.72739">
        <ele>384.60000610352</ele>
        <time>2021-09-09T03:52:54.000Z</time>
      </trkpt>
      <trkpt lat="45.19824" lon="5.72746">
        <ele>385.60000610352</ele>
        <time>2021-09-09T03:52:59.000Z</time>
      </trkpt>
      <trkpt lat="45.19829" lon="5.7275">
        <ele>385.79998779297</ele>
        <time>2021-09-09T03:53:01.000Z</time>
      </trkpt>
      <trkpt lat="45.19836" lon="5.72756">
        <ele>386.60000610352</ele>
        <time>2021-09-09T03:53:05.000Z</time>
      </trkpt>
      <trkpt lat="45.19839" lon="5.72758">
        <ele>386.79998779297</ele>
        <time>2021-09-09T03:53:06.000Z</time>
      </trkpt>
      <trkpt lat="45.19844" lon="5.72763">
        <ele>387.20001220703</ele>
        <time>2021-09-09T03:53:09.000Z</time>
      </trkpt>
      <trkpt lat="45.19847" lon="5.72764">
        <ele>387.60000610352</ele>
        <time>2021-09-09T03:53:10.000Z</time>
      </trkpt>
      <trkpt lat="45.19852" lon="5.72767">
        <ele>388.20001220703</ele>
        <time>2021-09-09T03:53:12.000Z</time>
      </trkpt>
      <trkpt lat="45.19856" lon="5.72769">
        <ele>388.79998779297</ele>
        <time>2021-09-09T03:53:14.000Z</time>
      </trkpt>
      <trkpt lat="45.19858" lon="5.7277">
        <ele>389</ele>
        <time>2021-09-09T03:53:16.000Z</time>
      </trkpt>
      <trkpt lat="45.19858" lon="5.72764">
        <ele>389.79998779297</ele>
        <time>2021-09-09T03:53:19.000Z</time>
      </trkpt>
      <trkpt lat="45.19855" lon="5.72759">
        <ele>390.39999389648</ele>
        <time>2021-09-09T03:53:22.000Z</time>
      </trkpt>
      <trkpt lat="45.19857" lon="5.72756">
        <ele>390.79998779297</ele>
        <time>2021-09-09T03:53:24.000Z</time>
      </trkpt>
      <trkpt lat="45.19858" lon="5.72756">
        <ele>391</ele>
        <time>2021-09-09T03:53:25.000Z</time>
      </trkpt>
      <trkpt lat="45.19859" lon="5.72757">
        <ele>391.79998779297</ele>
        <time>2021-09-09T03:53:27.000Z</time>
      </trkpt>
      <trkpt lat="45.19861" lon="5.72757">
        <ele>392.60000610352</ele>
        <time>2021-09-09T03:53:29.000Z</time>
      </trkpt>
      <trkpt lat="45.19862" lon="5.72757">
        <ele>393.20001220703</ele>
        <time>2021-09-09T03:53:30.000Z</time>
      </trkpt>
      <trkpt lat="45.19864" lon="5.72757">
        <ele>394</ele>
        <time>2021-09-09T03:53:32.000Z</time>
      </trkpt>
      <trkpt lat="45.19866" lon="5.72758">
        <ele>394.60000610352</ele>
        <time>2021-09-09T03:53:34.000Z</time>
      </trkpt>
      <trkpt lat="45.19867" lon="5.72758">
        <ele>395</ele>
        <time>2021-09-09T03:53:35.000Z</time>
      </trkpt>
      <trkpt lat="45.19866" lon="5.72756">
        <ele>395.79998779297</ele>
        <time>2021-09-09T03:53:38.000Z</time>
      </trkpt>
      <trkpt lat="45.19866" lon="5.72753">
        <ele>396.39999389648</ele>
        <time>2021-09-09T03:53:40.000Z</time>
      </trkpt>
      <trkpt lat="45.19871" lon="5.72739">
        <ele>412.79998779297</ele>
        <time>2021-09-09T03:54:22.000Z</time>
      </trkpt>
      <trkpt lat="45.1987" lon="5.72739">
        <ele>413.20001220703</ele>
        <time>2021-09-09T03:54:23.000Z</time>
      </trkpt>
      <trkpt lat="45.19867" lon="5.72741">
        <ele>413.60000610352</ele>
        <time>2021-09-09T03:54:25.000Z</time>
      </trkpt>
      <trkpt lat="45.19868" lon="5.72735">
        <ele>414.20001220703</ele>
        <time>2021-09-09T03:54:27.000Z</time>
      </trkpt>
      <trkpt lat="45.19864" lon="5.72721">
        <ele>415</ele>
        <time>2021-09-09T03:54:33.000Z</time>
      </trkpt>
      <trkpt lat="45.19864" lon="5.72716">
        <ele>415.20001220703</ele>
        <time>2021-09-09T03:54:35.000Z</time>
      </trkpt>
      <trkpt lat="45.19865" lon="5.72714">
        <ele>415.39999389648</ele>
        <time>2021-09-09T03:54:36.000Z</time>
      </trkpt>
      <trkpt lat="45.19866" lon="5.72712">
        <ele>416</ele>
        <time>2021-09-09T03:54:37.000Z</time>
      </trkpt>
      <trkpt lat="45.1984" lon="5.72707">
        <ele>418.79998779297</ele>
        <time>2021-09-09T03:54:58.000Z</time>
      </trkpt>
      <trkpt lat="45.19838" lon="5.72705">
        <ele>418.60000610352</ele>
        <time>2021-09-09T03:54:59.000Z</time>
      </trkpt>
      <trkpt lat="45.19834" lon="5.72704">
        <ele>418.60000610352</ele>
        <time>2021-09-09T03:55:00.000Z</time>
      </trkpt>
      <trkpt lat="45.1982" lon="5.72696">
        <ele>418.39999389648</ele>
        <time>2021-09-09T03:55:04.000Z</time>
      </trkpt>
      <trkpt lat="45.19802" lon="5.72682">
        <ele>418.39999389648</ele>
        <time>2021-09-09T03:55:10.000Z</time>
      </trkpt>
      <trkpt lat="45.19798" lon="5.7268">
        <ele>418.39999389648</ele>
        <time>2021-09-09T03:55:11.000Z</time>
      </trkpt>
      <trkpt lat="45.19785" lon="5.72664">
        <ele>418.20001220703</ele>
        <time>2021-09-09T03:55:16.000Z</time>
      </trkpt>
      <trkpt lat="45.19771" lon="5.72644">
        <ele>417.60000610352</ele>
        <time>2021-09-09T03:55:22.000Z</time>
      </trkpt>
      <trkpt lat="45.19764" lon="5.72632">
        <ele>417.20001220703</ele>
        <time>2021-09-09T03:55:25.000Z</time>
      </trkpt>
      <trkpt lat="45.19762" lon="5.72628">
        <ele>417.20001220703</ele>
        <time>2021-09-09T03:55:26.000Z</time>
      </trkpt>
      <trkpt lat="45.1976" lon="5.72611">
        <ele>417.60000610352</ele>
        <time>2021-09-09T03:55:30.000Z</time>
      </trkpt>
      <trkpt lat="45.19757" lon="5.72601">
        <ele>417.79998779297</ele>
        <time>2021-09-09T03:55:33.000Z</time>
      </trkpt>
      <trkpt lat="45.19755" lon="5.72598">
        <ele>417.79998779297</ele>
        <time>2021-09-09T03:55:34.000Z</time>
      </trkpt>
      <trkpt lat="45.19752" lon="5.72592">
        <ele>417.79998779297</ele>
        <time>2021-09-09T03:55:36.000Z</time>
      </trkpt>
      <trkpt lat="45.19745" lon="5.7258">
        <ele>417.39999389648</ele>
        <time>2021-09-09T03:55:40.000Z</time>
      </trkpt>
      <trkpt lat="45.19743" lon="5.72553">
        <ele>417.79998779297</ele>
        <time>2021-09-09T03:55:47.000Z</time>
      </trkpt>
      <trkpt lat="45.19743" lon="5.7255">
        <ele>417.79998779297</ele>
        <time>2021-09-09T03:55:48.000Z</time>
      </trkpt>
      <trkpt lat="45.1974" lon="5.7253">
        <ele>417.79998779297</ele>
        <time>2021-09-09T03:55:54.000Z</time>
      </trkpt>
      <trkpt lat="45.19738" lon="5.72529">
        <ele>417.79998779297</ele>
        <time>2021-09-09T03:55:55.000Z</time>
      </trkpt>
      <trkpt lat="45.19731" lon="5.72524">
        <ele>418</ele>
        <time>2021-09-09T03:55:58.000Z</time>
      </trkpt>
      <trkpt lat="45.19729" lon="5.72516">
        <ele>418</ele>
        <time>2021-09-09T03:56:00.000Z</time>
      </trkpt>
      <trkpt lat="45.1973" lon="5.72513">
        <ele>418.20001220703</ele>
        <time>2021-09-09T03:56:01.000Z</time>
      </trkpt>
      <trkpt lat="45.19742" lon="5.72506">
        <ele>418</ele>
        <time>2021-09-09T03:56:05.000Z</time>
      </trkpt>
      <trkpt lat="45.19754" lon="5.72486">
        <ele>417.79998779297</ele>
        <time>2021-09-09T03:56:10.000Z</time>
      </trkpt>
      <trkpt lat="45.19766" lon="5.72462">
        <ele>417.20001220703</ele>
        <time>2021-09-09T03:56:16.000Z</time>
      </trkpt>
      <trkpt lat="45.19774" lon="5.72447">
        <ele>417</ele>
        <time>2021-09-09T03:56:20.000Z</time>
      </trkpt>
      <trkpt lat="45.19784" lon="5.72428">
        <ele>417.20001220703</ele>
        <time>2021-09-09T03:56:25.000Z</time>
      </trkpt>
      <trkpt lat="45.19786" lon="5.72425">
        <ele>417.20001220703</ele>
        <time>2021-09-09T03:56:26.000Z</time>
      </trkpt>
      <trkpt lat="45.19792" lon="5.72404">
        <ele>418.79998779297</ele>
        <time>2021-09-09T03:56:32.000Z</time>
      </trkpt>
      <trkpt lat="45.19791" lon="5.72376">
        <ele>418.79998779297</ele>
        <time>2021-09-09T03:56:39.000Z</time>
      </trkpt>
      <trkpt lat="45.19793" lon="5.72367">
        <ele>419.20001220703</ele>
        <time>2021-09-09T03:56:41.000Z</time>
      </trkpt>
      <trkpt lat="45.19804" lon="5.72344">
        <ele>419</ele>
        <time>2021-09-09T03:56:48.000Z</time>
      </trkpt>
      <trkpt lat="45.19815" lon="5.7232">
        <ele>419</ele>
        <time>2021-09-09T03:56:55.000Z</time>
      </trkpt>
      <trkpt lat="45.19818" lon="5.72312">
        <ele>419</ele>
        <time>2021-09-09T03:56:58.000Z</time>
      </trkpt>
      <trkpt lat="45.19818" lon="5.72313">
        <ele>419</ele>
        <time>2021-09-09T03:56:59.000Z</time>
      </trkpt>
      <trkpt lat="45.19818" lon="5.72321">
        <ele>419</ele>
        <time>2021-09-09T03:57:01.000Z</time>
      </trkpt>
      <trkpt lat="45.19815" lon="5.72336">
        <ele>419.20001220703</ele>
        <time>2021-09-09T03:57:04.000Z</time>
      </trkpt>
      <trkpt lat="45.19807" lon="5.72359">
        <ele>419</ele>
        <time>2021-09-09T03:57:09.000Z</time>
      </trkpt>
      <trkpt lat="45.19801" lon="5.72366">
        <ele>418.79998779297</ele>
        <time>2021-09-09T03:57:11.000Z</time>
      </trkpt>
      <trkpt lat="45.19793" lon="5.72384">
        <ele>418.20001220703</ele>
        <time>2021-09-09T03:57:16.000Z</time>
      </trkpt>
      <trkpt lat="45.19791" lon="5.7241">
        <ele>418.20001220703</ele>
        <time>2021-09-09T03:57:21.000Z</time>
      </trkpt>
      <trkpt lat="45.19791" lon="5.72415">
        <ele>418.20001220703</ele>
        <time>2021-09-09T03:57:22.000Z</time>
      </trkpt>
      <trkpt lat="45.19792" lon="5.72429">
        <ele>418</ele>
        <time>2021-09-09T03:57:25.000Z</time>
      </trkpt>
      <trkpt lat="45.19791" lon="5.72448">
        <ele>418.20001220703</ele>
        <time>2021-09-09T03:57:29.000Z</time>
      </trkpt>
      <trkpt lat="45.19787" lon="5.72473">
        <ele>419</ele>
        <time>2021-09-09T03:57:36.000Z</time>
      </trkpt>
      <trkpt lat="45.19783" lon="5.7249">
        <ele>419.79998779297</ele>
        <time>2021-09-09T03:57:41.000Z</time>
      </trkpt>
      <trkpt lat="45.1978" lon="5.72497">
        <ele>419.79998779297</ele>
        <time>2021-09-09T03:57:43.000Z</time>
      </trkpt>
      <trkpt lat="45.19772" lon="5.72514">
        <ele>420.60000610352</ele>
        <time>2021-09-09T03:57:49.000Z</time>
      </trkpt>
      <trkpt lat="45.19771" lon="5.72517">
        <ele>420.79998779297</ele>
        <time>2021-09-09T03:57:50.000Z</time>
      </trkpt>
      <trkpt lat="45.1977" lon="5.72519">
        <ele>420.79998779297</ele>
        <time>2021-09-09T03:57:51.000Z</time>
      </trkpt>
      <trkpt lat="45.19768" lon="5.72525">
        <ele>421.39999389648</ele>
        <time>2021-09-09T03:57:53.000Z</time>
      </trkpt>
      <trkpt lat="45.19767" lon="5.72531">
        <ele>422</ele>
        <time>2021-09-09T03:57:55.000Z</time>
      </trkpt>
      <trkpt lat="45.19765" lon="5.72552">
        <ele>423.20001220703</ele>
        <time>2021-09-09T03:58:01.000Z</time>
      </trkpt>
      <trkpt lat="45.19766" lon="5.72558">
        <ele>423.60000610352</ele>
        <time>2021-09-09T03:58:03.000Z</time>
      </trkpt>
      <trkpt lat="45.19768" lon="5.72565">
        <ele>424.20001220703</ele>
        <time>2021-09-09T03:58:05.000Z</time>
      </trkpt>
      <trkpt lat="45.1977" lon="5.72576">
        <ele>425.20001220703</ele>
        <time>2021-09-09T03:58:08.000Z</time>
      </trkpt>
      <trkpt lat="45.1977" lon="5.7258">
        <ele>425.39999389648</ele>
        <time>2021-09-09T03:58:09.000Z</time>
      </trkpt>
      <trkpt lat="45.19772" lon="5.72584">
        <ele>426.20001220703</ele>
        <time>2021-09-09T03:58:11.000Z</time>
      </trkpt>
      <trkpt lat="45.19773" lon="5.72585">
        <ele>426.39999389648</ele>
        <time>2021-09-09T03:58:13.000Z</time>
      </trkpt>
      <trkpt lat="45.19772" lon="5.72581">
        <ele>426.79998779297</ele>
        <time>2021-09-09T03:58:14.000Z</time>
      </trkpt>
      <trkpt lat="45.19775" lon="5.72572">
        <ele>427.79998779297</ele>
        <time>2021-09-09T03:58:17.000Z</time>
      </trkpt>
      <trkpt lat="45.19777" lon="5.72551">
        <ele>428.79998779297</ele>
        <time>2021-09-09T03:58:23.000Z</time>
      </trkpt>
      <trkpt lat="45.19778" lon="5.72548">
        <ele>429.20001220703</ele>
        <time>2021-09-09T03:58:24.000Z</time>
      </trkpt>
      <trkpt lat="45.19779" lon="5.72544">
        <ele>429.39999389648</ele>
        <time>2021-09-09T03:58:25.000Z</time>
      </trkpt>
      <trkpt lat="45.19781" lon="5.72536">
        <ele>430</ele>
        <time>2021-09-09T03:58:27.000Z</time>
      </trkpt>
      <trkpt lat="45.19782" lon="5.72534">
        <ele>430.39999389648</ele>
        <time>2021-09-09T03:58:28.000Z</time>
      </trkpt>
      <trkpt lat="45.19784" lon="5.72532">
        <ele>430.60000610352</ele>
        <time>2021-09-09T03:58:29.000Z</time>
      </trkpt>
      <trkpt lat="45.19785" lon="5.72532">
        <ele>430.79998779297</ele>
        <time>2021-09-09T03:58:30.000Z</time>
      </trkpt>
      <trkpt lat="45.19787" lon="5.72533">
        <ele>431.20001220703</ele>
        <time>2021-09-09T03:58:31.000Z</time>
      </trkpt>
      <trkpt lat="45.19787" lon="5.72535">
        <ele>431.39999389648</ele>
        <time>2021-09-09T03:58:32.000Z</time>
      </trkpt>
      <trkpt lat="45.19789" lon="5.72548">
        <ele>432.20001220703</ele>
        <time>2021-09-09T03:58:37.000Z</time>
      </trkpt>
      <trkpt lat="45.19791" lon="5.7256">
        <ele>432.79998779297</ele>
        <time>2021-09-09T03:58:41.000Z</time>
      </trkpt>
      <trkpt lat="45.19792" lon="5.72568">
        <ele>433.39999389648</ele>
        <time>2021-09-09T03:58:44.000Z</time>
      </trkpt>
      <trkpt lat="45.19792" lon="5.72575">
        <ele>433.79998779297</ele>
        <time>2021-09-09T03:58:47.000Z</time>
      </trkpt>
      <trkpt lat="45.19792" lon="5.7258">
        <ele>434.39999389648</ele>
        <time>2021-09-09T03:58:49.000Z</time>
      </trkpt>
      <trkpt lat="45.19792" lon="5.72583">
        <ele>434.60000610352</ele>
        <time>2021-09-09T03:58:50.000Z</time>
      </trkpt>
      <trkpt lat="45.19792" lon="5.72588">
        <ele>435</ele>
        <time>2021-09-09T03:58:52.000Z</time>
      </trkpt>
      <trkpt lat="45.19792" lon="5.72594">
        <ele>435.39999389648</ele>
        <time>2021-09-09T03:58:55.000Z</time>
      </trkpt>
      <trkpt lat="45.19792" lon="5.726">
        <ele>435.60000610352</ele>
        <time>2021-09-09T03:58:57.000Z</time>
      </trkpt>
      <trkpt lat="45.19793" lon="5.72603">
        <ele>436</ele>
        <time>2021-09-09T03:58:58.000Z</time>
      </trkpt>
      <trkpt lat="45.19794" lon="5.72617">
        <ele>436.79998779297</ele>
        <time>2021-09-09T03:59:02.000Z</time>
      </trkpt>
      <trkpt lat="45.19797" lon="5.72626">
        <ele>437.60000610352</ele>
        <time>2021-09-09T03:59:05.000Z</time>
      </trkpt>
      <trkpt lat="45.19799" lon="5.72628">
        <ele>437.79998779297</ele>
        <time>2021-09-09T03:59:06.000Z</time>
      </trkpt>
      <trkpt lat="45.19801" lon="5.7263">
        <ele>438.20001220703</ele>
        <time>2021-09-09T03:59:07.000Z</time>
      </trkpt>
      <trkpt lat="45.1981" lon="5.72642">
        <ele>439</ele>
        <time>2021-09-09T03:59:13.000Z</time>
      </trkpt>
      <trkpt lat="45.19812" lon="5.72644">
        <ele>439.60000610352</ele>
        <time>2021-09-09T03:59:14.000Z</time>
      </trkpt>
      <trkpt lat="45.19818" lon="5.7265">
        <ele>440.39999389648</ele>
        <time>2021-09-09T03:59:17.000Z</time>
      </trkpt>
      <trkpt lat="45.1982" lon="5.72652">
        <ele>440.60000610352</ele>
        <time>2021-09-09T03:59:18.000Z</time>
      </trkpt>
      <trkpt lat="45.19824" lon="5.72662">
        <ele>441.39999389648</ele>
        <time>2021-09-09T03:59:22.000Z</time>
      </trkpt>
      <trkpt lat="45.19827" lon="5.72668">
        <ele>442</ele>
        <time>2021-09-09T03:59:24.000Z</time>
      </trkpt>
      <trkpt lat="45.19828" lon="5.72672">
        <ele>442.20001220703</ele>
        <time>2021-09-09T03:59:25.000Z</time>
      </trkpt>
      <trkpt lat="45.19831" lon="5.72678">
        <ele>443.20001220703</ele>
        <time>2021-09-09T03:59:27.000Z</time>
      </trkpt>
      <trkpt lat="45.19832" lon="5.72681">
        <ele>443.60000610352</ele>
        <time>2021-09-09T03:59:28.000Z</time>
      </trkpt>
      <trkpt lat="45.19838" lon="5.72693">
        <ele>444.39999389648</ele>
        <time>2021-09-09T03:59:33.000Z</time>
      </trkpt>
      <trkpt lat="45.19839" lon="5.72695">
        <ele>444.60000610352</ele>
        <time>2021-09-09T03:59:34.000Z</time>
      </trkpt>
      <trkpt lat="45.19846" lon="5.72703">
        <ele>445.39999389648</ele>
        <time>2021-09-09T03:59:39.000Z</time>
      </trkpt>
      <trkpt lat="45.19847" lon="5.72702">
        <ele>445.39999389648</ele>
        <time>2021-09-09T03:59:40.000Z</time>
      </trkpt>
      <trkpt lat="45.19846" lon="5.72698">
        <ele>445.79998779297</ele>
        <time>2021-09-09T03:59:42.000Z</time>
      </trkpt>
      <trkpt lat="45.19844" lon="5.72696">
        <ele>446</ele>
        <time>2021-09-09T03:59:43.000Z</time>
      </trkpt>
      <trkpt lat="45.19842" lon="5.72692">
        <ele>446.60000610352</ele>
        <time>2021-09-09T03:59:45.000Z</time>
      </trkpt>
      <trkpt lat="45.19841" lon="5.72691">
        <ele>446.79998779297</ele>
        <time>2021-09-09T03:59:46.000Z</time>
      </trkpt>
      <trkpt lat="45.19841" lon="5.72689">
        <ele>447</ele>
        <time>2021-09-09T03:59:47.000Z</time>
      </trkpt>
      <trkpt lat="45.19839" lon="5.72684">
        <ele>447.39999389648</ele>
        <time>2021-09-09T03:59:49.000Z</time>
      </trkpt>
      <trkpt lat="45.19838" lon="5.72683">
        <ele>447.60000610352</ele>
        <time>2021-09-09T03:59:50.000Z</time>
      </trkpt>
      <trkpt lat="45.19836" lon="5.72681">
        <ele>447.60000610352</ele>
        <time>2021-09-09T03:59:51.000Z</time>
      </trkpt>
      <trkpt lat="45.19829" lon="5.72672">
        <ele>448.39999389648</ele>
        <time>2021-09-09T03:59:55.000Z</time>
      </trkpt>
      <trkpt lat="45.19829" lon="5.7267">
        <ele>448.60000610352</ele>
        <time>2021-09-09T03:59:56.000Z</time>
      </trkpt>
      <trkpt lat="45.19827" lon="5.72666">
        <ele>448.79998779297</ele>
        <time>2021-09-09T03:59:57.000Z</time>
      </trkpt>
      <trkpt lat="45.19825" lon="5.72661">
        <ele>449.20001220703</ele>
        <time>2021-09-09T03:59:59.000Z</time>
      </trkpt>
      <trkpt lat="45.19823" lon="5.72655">
        <ele>449.39999389648</ele>
        <time>2021-09-09T04:00:01.000Z</time>
      </trkpt>
      <trkpt lat="45.1982" lon="5.72647">
        <ele>450</ele>
        <time>2021-09-09T04:00:04.000Z</time>
      </trkpt>
      <trkpt lat="45.19817" lon="5.72638">
        <ele>450.79998779297</ele>
        <time>2021-09-09T04:00:07.000Z</time>
      </trkpt>
      <trkpt lat="45.19816" lon="5.7263">
        <ele>451</ele>
        <time>2021-09-09T04:00:09.000Z</time>
      </trkpt>
      <trkpt lat="45.19815" lon="5.72621">
        <ele>451</ele>
        <time>2021-09-09T04:00:11.000Z</time>
      </trkpt>
      <trkpt lat="45.19815" lon="5.72613">
        <ele>451.39999389648</ele>
        <time>2021-09-09T04:00:13.000Z</time>
      </trkpt>
      <trkpt lat="45.19815" lon="5.72605">
        <ele>452.20001220703</ele>
        <time>2021-09-09T04:00:15.000Z</time>
      </trkpt>
      <trkpt lat="45.19815" lon="5.72593">
        <ele>452.79998779297</ele>
        <time>2021-09-09T04:00:18.000Z</time>
      </trkpt>
      <trkpt lat="45.19814" lon="5.72581">
        <ele>453.60000610352</ele>
        <time>2021-09-09T04:00:21.000Z</time>
      </trkpt>
      <trkpt lat="45.19811" lon="5.72567">
        <ele>454.60000610352</ele>
        <time>2021-09-09T04:00:25.000Z</time>
      </trkpt>
      <trkpt lat="45.19813" lon="5.72554">
        <ele>455.60000610352</ele>
        <time>2021-09-09T04:00:28.000Z</time>
      </trkpt>
      <trkpt lat="45.19813" lon="5.72545">
        <ele>456.20001220703</ele>
        <time>2021-09-09T04:00:31.000Z</time>
      </trkpt>
      <trkpt lat="45.19814" lon="5.72536">
        <ele>456.79998779297</ele>
        <time>2021-09-09T04:00:34.000Z</time>
      </trkpt>
      <trkpt lat="45.19816" lon="5.72527">
        <ele>457.39999389648</ele>
        <time>2021-09-09T04:00:37.000Z</time>
      </trkpt>
      <trkpt lat="45.19817" lon="5.72521">
        <ele>457.79998779297</ele>
        <time>2021-09-09T04:00:39.000Z</time>
      </trkpt>
      <trkpt lat="45.19821" lon="5.72506">
        <ele>459</ele>
        <time>2021-09-09T04:00:44.000Z</time>
      </trkpt>
      <trkpt lat="45.19822" lon="5.72503">
        <ele>459.20001220703</ele>
        <time>2021-09-09T04:00:45.000Z</time>
      </trkpt>
      <trkpt lat="45.19825" lon="5.72491">
        <ele>460.20001220703</ele>
        <time>2021-09-09T04:00:49.000Z</time>
      </trkpt>
      <trkpt lat="45.19827" lon="5.72482">
        <ele>460.79998779297</ele>
        <time>2021-09-09T04:00:52.000Z</time>
      </trkpt>
      <trkpt lat="45.19829" lon="5.72477">
        <ele>461.20001220703</ele>
        <time>2021-09-09T04:00:54.000Z</time>
      </trkpt>
      <trkpt lat="45.19829" lon="5.72475">
        <ele>461.39999389648</ele>
        <time>2021-09-09T04:00:55.000Z</time>
      </trkpt>
      <trkpt lat="45.19832" lon="5.72463">
        <ele>462.39999389648</ele>
        <time>2021-09-09T04:00:59.000Z</time>
      </trkpt>
      <trkpt lat="45.19834" lon="5.72453">
        <ele>463.20001220703</ele>
        <time>2021-09-09T04:01:02.000Z</time>
      </trkpt>
      <trkpt lat="45.19835" lon="5.7245">
        <ele>463.39999389648</ele>
        <time>2021-09-09T04:01:03.000Z</time>
      </trkpt>
      <trkpt lat="45.1984" lon="5.72442">
        <ele>464</ele>
        <time>2021-09-09T04:01:06.000Z</time>
      </trkpt>
      <trkpt lat="45.19843" lon="5.72442">
        <ele>464.39999389648</ele>
        <time>2021-09-09T04:01:07.000Z</time>
      </trkpt>
      <trkpt lat="45.19844" lon="5.72443">
        <ele>464.79998779297</ele>
        <time>2021-09-09T04:01:08.000Z</time>
      </trkpt>
      <trkpt lat="45.19845" lon="5.72448">
        <ele>465</ele>
        <time>2021-09-09T04:01:10.000Z</time>
      </trkpt>
      <trkpt lat="45.19846" lon="5.72452">
        <ele>465.20001220703</ele>
        <time>2021-09-09T04:01:11.000Z</time>
      </trkpt>
      <trkpt lat="45.19847" lon="5.72456">
        <ele>465.60000610352</ele>
        <time>2021-09-09T04:01:12.000Z</time>
      </trkpt>
      <trkpt lat="45.19849" lon="5.72464">
        <ele>466</ele>
        <time>2021-09-09T04:01:14.000Z</time>
      </trkpt>
      <trkpt lat="45.1985" lon="5.72472">
        <ele>466.39999389648</ele>
        <time>2021-09-09T04:01:16.000Z</time>
      </trkpt>
      <trkpt lat="45.19851" lon="5.72476">
        <ele>467</ele>
        <time>2021-09-09T04:01:17.000Z</time>
      </trkpt>
      <trkpt lat="45.19853" lon="5.72487">
        <ele>468</ele>
        <time>2021-09-09T04:01:20.000Z</time>
      </trkpt>
      <trkpt lat="45.19853" lon="5.72491">
        <ele>468.39999389648</ele>
        <time>2021-09-09T04:01:21.000Z</time>
      </trkpt>
      <trkpt lat="45.1985" lon="5.7251">
        <ele>469.20001220703</ele>
        <time>2021-09-09T04:01:25.000Z</time>
      </trkpt>
      <trkpt lat="45.1985" lon="5.72523">
        <ele>470.20001220703</ele>
        <time>2021-09-09T04:01:28.000Z</time>
      </trkpt>
      <trkpt lat="45.19851" lon="5.72527">
        <ele>470.79998779297</ele>
        <time>2021-09-09T04:01:30.000Z</time>
      </trkpt>
      <trkpt lat="45.19853" lon="5.72543">
        <ele>471.39999389648</ele>
        <time>2021-09-09T04:01:35.000Z</time>
      </trkpt>
      <trkpt lat="45.19853" lon="5.72546">
        <ele>471.39999389648</ele>
        <time>2021-09-09T04:01:36.000Z</time>
      </trkpt>
      <trkpt lat="45.19854" lon="5.72556">
        <ele>472.39999389648</ele>
        <time>2021-09-09T04:01:40.000Z</time>
      </trkpt>
      <trkpt lat="45.19856" lon="5.72557">
        <ele>472.39999389648</ele>
        <time>2021-09-09T04:01:42.000Z</time>
      </trkpt>
      <trkpt lat="45.19854" lon="5.72554">
        <ele>473.20001220703</ele>
        <time>2021-09-09T04:01:45.000Z</time>
      </trkpt>
      <trkpt lat="45.19854" lon="5.72552">
        <ele>473.60000610352</ele>
        <time>2021-09-09T04:01:46.000Z</time>
      </trkpt>
      <trkpt lat="45.19851" lon="5.72543">
        <ele>474.39999389648</ele>
        <time>2021-09-09T04:01:50.000Z</time>
      </trkpt>
      <trkpt lat="45.19851" lon="5.72541">
        <ele>474.60000610352</ele>
        <time>2021-09-09T04:01:51.000Z</time>
      </trkpt>
      <trkpt lat="45.1985" lon="5.7253">
        <ele>475.20001220703</ele>
        <time>2021-09-09T04:01:55.000Z</time>
      </trkpt>
      <trkpt lat="45.1985" lon="5.72522">
        <ele>475.60000610352</ele>
        <time>2021-09-09T04:01:57.000Z</time>
      </trkpt>
      <trkpt lat="45.1985" lon="5.72512">
        <ele>476.20001220703</ele>
        <time>2021-09-09T04:01:59.000Z</time>
      </trkpt>
      <trkpt lat="45.19851" lon="5.72503">
        <ele>476.39999389648</ele>
        <time>2021-09-09T04:02:01.000Z</time>
      </trkpt>
      <trkpt lat="45.19852" lon="5.72498">
        <ele>476.60000610352</ele>
        <time>2021-09-09T04:02:02.000Z</time>
      </trkpt>
      <trkpt lat="45.19854" lon="5.72495">
        <ele>477</ele>
        <time>2021-09-09T04:02:03.000Z</time>
      </trkpt>
      <trkpt lat="45.19856" lon="5.72492">
        <ele>476.79998779297</ele>
        <time>2021-09-09T04:02:04.000Z</time>
      </trkpt>
      <trkpt lat="45.19869" lon="5.72482">
        <ele>477.60000610352</ele>
        <time>2021-09-09T04:02:09.000Z</time>
      </trkpt>
      <trkpt lat="45.19876" lon="5.72479">
        <ele>477.79998779297</ele>
        <time>2021-09-09T04:02:11.000Z</time>
      </trkpt>
      <trkpt lat="45.19884" lon="5.72476">
        <ele>477.79998779297</ele>
        <time>2021-09-09T04:02:15.000Z</time>
      </trkpt>
      <trkpt lat="45.19891" lon="5.72474">
        <ele>477.60000610352</ele>
        <time>2021-09-09T04:02:18.000Z</time>
      </trkpt>
      <trkpt lat="45.19891" lon="5.7247">
        <ele>477.60000610352</ele>
        <time>2021-09-09T04:02:20.000Z</time>
      </trkpt>
      <trkpt lat="45.1989" lon="5.72452">
        <ele>477.39999389648</ele>
        <time>2021-09-09T04:02:25.000Z</time>
      </trkpt>
      <trkpt lat="45.19892" lon="5.7244">
        <ele>476.39999389648</ele>
        <time>2021-09-09T04:02:28.000Z</time>
      </trkpt>
      <trkpt lat="45.19974" lon="5.724">
        <ele>475.60000610352</ele>
        <time>2021-09-09T04:02:57.000Z</time>
      </trkpt>
      <trkpt lat="45.19979" lon="5.72402">
        <ele>476</ele>
        <time>2021-09-09T04:02:58.000Z</time>
      </trkpt>
      <trkpt lat="45.19982" lon="5.72404">
        <ele>476.20001220703</ele>
        <time>2021-09-09T04:02:59.000Z</time>
      </trkpt>
      <trkpt lat="45.19985" lon="5.72405">
        <ele>476.20001220703</ele>
        <time>2021-09-09T04:03:00.000Z</time>
      </trkpt>
      <trkpt lat="45.19989" lon="5.72406">
        <ele>476.79998779297</ele>
        <time>2021-09-09T04:03:01.000Z</time>
      </trkpt>
      <trkpt lat="45.19997" lon="5.7241">
        <ele>477.20001220703</ele>
        <time>2021-09-09T04:03:04.000Z</time>
      </trkpt>
      <trkpt lat="45.20006" lon="5.72413">
        <ele>477.79998779297</ele>
        <time>2021-09-09T04:03:07.000Z</time>
      </trkpt>
      <trkpt lat="45.20017" lon="5.72417">
        <ele>479.60000610352</ele>
        <time>2021-09-09T04:03:11.000Z</time>
      </trkpt>
      <trkpt lat="45.2002" lon="5.72417">
        <ele>480</ele>
        <time>2021-09-09T04:03:12.000Z</time>
      </trkpt>
      <trkpt lat="45.20028" lon="5.72419">
        <ele>480.60000610352</ele>
        <time>2021-09-09T04:03:15.000Z</time>
      </trkpt>
      <trkpt lat="45.20042" lon="5.72419">
        <ele>481.79998779297</ele>
        <time>2021-09-09T04:03:20.000Z</time>
      </trkpt>
      <trkpt lat="45.20052" lon="5.7242">
        <ele>483</ele>
        <time>2021-09-09T04:03:24.000Z</time>
      </trkpt>
      <trkpt lat="45.20055" lon="5.72421">
        <ele>483.39999389648</ele>
        <time>2021-09-09T04:03:25.000Z</time>
      </trkpt>
      <trkpt lat="45.20057" lon="5.72422">
        <ele>484</ele>
        <time>2021-09-09T04:03:26.000Z</time>
      </trkpt>
      <trkpt lat="45.20059" lon="5.72422">
        <ele>484.20001220703</ele>
        <time>2021-09-09T04:03:27.000Z</time>
      </trkpt>
      <trkpt lat="45.20062" lon="5.72424">
        <ele>484.60000610352</ele>
        <time>2021-09-09T04:03:28.000Z</time>
      </trkpt>
      <trkpt lat="45.20066" lon="5.72429">
        <ele>485.39999389648</ele>
        <time>2021-09-09T04:03:30.000Z</time>
      </trkpt>
      <trkpt lat="45.20068" lon="5.72431">
        <ele>485.79998779297</ele>
        <time>2021-09-09T04:03:31.000Z</time>
      </trkpt>
      <trkpt lat="45.20068" lon="5.72433">
        <ele>486</ele>
        <time>2021-09-09T04:03:32.000Z</time>
      </trkpt>
      <trkpt lat="45.2007" lon="5.72439">
        <ele>486.39999389648</ele>
        <time>2021-09-09T04:03:34.000Z</time>
      </trkpt>
      <trkpt lat="45.2007" lon="5.72442">
        <ele>486.60000610352</ele>
        <time>2021-09-09T04:03:35.000Z</time>
      </trkpt>
      <trkpt lat="45.2007" lon="5.72456">
        <ele>487.39999389648</ele>
        <time>2021-09-09T04:03:39.000Z</time>
      </trkpt>
      <trkpt lat="45.20071" lon="5.72458">
        <ele>487.60000610352</ele>
        <time>2021-09-09T04:03:40.000Z</time>
      </trkpt>
      <trkpt lat="45.20071" lon="5.72471">
        <ele>488.39999389648</ele>
        <time>2021-09-09T04:03:44.000Z</time>
      </trkpt>
      <trkpt lat="45.20075" lon="5.72483">
        <ele>489.20001220703</ele>
        <time>2021-09-09T04:03:48.000Z</time>
      </trkpt>
      <trkpt lat="45.20075" lon="5.72487">
        <ele>489.20001220703</ele>
        <time>2021-09-09T04:03:49.000Z</time>
      </trkpt>
      <trkpt lat="45.20075" lon="5.72494">
        <ele>489.60000610352</ele>
        <time>2021-09-09T04:03:51.000Z</time>
      </trkpt>
      <trkpt lat="45.20074" lon="5.72504">
        <ele>490</ele>
        <time>2021-09-09T04:03:54.000Z</time>
      </trkpt>
      <trkpt lat="45.20073" lon="5.72507">
        <ele>490.20001220703</ele>
        <time>2021-09-09T04:03:55.000Z</time>
      </trkpt>
      <trkpt lat="45.20072" lon="5.72526">
        <ele>490.39999389648</ele>
        <time>2021-09-09T04:04:01.000Z</time>
      </trkpt>
      <trkpt lat="45.20083" lon="5.72543">
        <ele>490.79998779297</ele>
        <time>2021-09-09T04:04:08.000Z</time>
      </trkpt>
      <trkpt lat="45.20092" lon="5.72544">
        <ele>491.79998779297</ele>
        <time>2021-09-09T04:04:14.000Z</time>
      </trkpt>
      <trkpt lat="45.20098" lon="5.72544">
        <ele>493.20001220703</ele>
        <time>2021-09-09T04:04:18.000Z</time>
      </trkpt>
      <trkpt lat="45.20101" lon="5.72544">
        <ele>494.20001220703</ele>
        <time>2021-09-09T04:04:20.000Z</time>
      </trkpt>
      <trkpt lat="45.20102" lon="5.72544">
        <ele>494.39999389648</ele>
        <time>2021-09-09T04:04:21.000Z</time>
      </trkpt>
      <trkpt lat="45.20108" lon="5.72544">
        <ele>495.60000610352</ele>
        <time>2021-09-09T04:04:25.000Z</time>
      </trkpt>
      <trkpt lat="45.20112" lon="5.72545">
        <ele>496.20001220703</ele>
        <time>2021-09-09T04:04:27.000Z</time>
      </trkpt>
      <trkpt lat="45.20114" lon="5.72547">
        <ele>496.79998779297</ele>
        <time>2021-09-09T04:04:29.000Z</time>
      </trkpt>
      <trkpt lat="45.20117" lon="5.72544">
        <ele>498</ele>
        <time>2021-09-09T04:04:33.000Z</time>
      </trkpt>
      <trkpt lat="45.20116" lon="5.72543">
        <ele>498.20001220703</ele>
        <time>2021-09-09T04:04:34.000Z</time>
      </trkpt>
      <trkpt lat="45.20113" lon="5.72541">
        <ele>499.39999389648</ele>
        <time>2021-09-09T04:04:37.000Z</time>
      </trkpt>
      <trkpt lat="45.2011" lon="5.72535">
        <ele>500</ele>
        <time>2021-09-09T04:04:40.000Z</time>
      </trkpt>
      <trkpt lat="45.2011" lon="5.72532">
        <ele>500.20001220703</ele>
        <time>2021-09-09T04:04:41.000Z</time>
      </trkpt>
      <trkpt lat="45.2011" lon="5.72529">
        <ele>500.39999389648</ele>
        <time>2021-09-09T04:04:42.000Z</time>
      </trkpt>
      <trkpt lat="45.2011" lon="5.72526">
        <ele>500.60000610352</ele>
        <time>2021-09-09T04:04:43.000Z</time>
      </trkpt>
      <trkpt lat="45.20109" lon="5.72523">
        <ele>501.20001220703</ele>
        <time>2021-09-09T04:04:45.000Z</time>
      </trkpt>
      <trkpt lat="45.20109" lon="5.72519">
        <ele>501.60000610352</ele>
        <time>2021-09-09T04:04:47.000Z</time>
      </trkpt>
      <trkpt lat="45.20112" lon="5.72512">
        <ele>502.60000610352</ele>
        <time>2021-09-09T04:04:51.000Z</time>
      </trkpt>
      <trkpt lat="45.20116" lon="5.72507">
        <ele>503.79998779297</ele>
        <time>2021-09-09T04:04:55.000Z</time>
      </trkpt>
      <trkpt lat="45.20117" lon="5.72506">
        <ele>504.20001220703</ele>
        <time>2021-09-09T04:04:56.000Z</time>
      </trkpt>
      <trkpt lat="45.20118" lon="5.72502">
        <ele>504.60000610352</ele>
        <time>2021-09-09T04:04:58.000Z</time>
      </trkpt>
      <trkpt lat="45.20119" lon="5.72501">
        <ele>504.79998779297</ele>
        <time>2021-09-09T04:04:59.000Z</time>
      </trkpt>
      <trkpt lat="45.20122" lon="5.72494">
        <ele>506</ele>
        <time>2021-09-09T04:05:03.000Z</time>
      </trkpt>
      <trkpt lat="45.20124" lon="5.72492">
        <ele>506.20001220703</ele>
        <time>2021-09-09T04:05:05.000Z</time>
      </trkpt>
      <trkpt lat="45.20127" lon="5.72489">
        <ele>507.20001220703</ele>
        <time>2021-09-09T04:05:08.000Z</time>
      </trkpt>
      <trkpt lat="45.20129" lon="5.72483">
        <ele>508</ele>
        <time>2021-09-09T04:05:12.000Z</time>
      </trkpt>
      <trkpt lat="45.20129" lon="5.72481">
        <ele>508.39999389648</ele>
        <time>2021-09-09T04:05:13.000Z</time>
      </trkpt>
      <trkpt lat="45.20131" lon="5.72476">
        <ele>509.79998779297</ele>
        <time>2021-09-09T04:05:17.000Z</time>
      </trkpt>
      <trkpt lat="45.20132" lon="5.72471">
        <ele>510.60000610352</ele>
        <time>2021-09-09T04:05:20.000Z</time>
      </trkpt>
      <trkpt lat="45.20132" lon="5.72469">
        <ele>511.20001220703</ele>
        <time>2021-09-09T04:05:21.000Z</time>
      </trkpt>
      <trkpt lat="45.20133" lon="5.72467">
        <ele>511.79998779297</ele>
        <time>2021-09-09T04:05:23.000Z</time>
      </trkpt>
      <trkpt lat="45.20137" lon="5.72466">
        <ele>512.40002441406</ele>
        <time>2021-09-09T04:05:26.000Z</time>
      </trkpt>
      <trkpt lat="45.20137" lon="5.72463">
        <ele>513.40002441406</ele>
        <time>2021-09-09T04:05:29.000Z</time>
      </trkpt>
      <trkpt lat="45.20138" lon="5.72462">
        <ele>513.40002441406</ele>
        <time>2021-09-09T04:05:30.000Z</time>
      </trkpt>
      <trkpt lat="45.20139" lon="5.72461">
        <ele>513.79998779297</ele>
        <time>2021-09-09T04:05:31.000Z</time>
      </trkpt>
      <trkpt lat="45.20139" lon="5.72461">
        <ele>514</ele>
        <time>2021-09-09T04:05:32.000Z</time>
      </trkpt>
      <trkpt lat="45.2014" lon="5.7246">
        <ele>515</ele>
        <time>2021-09-09T04:05:34.000Z</time>
      </trkpt>
      <trkpt lat="45.20141" lon="5.72458">
        <ele>515.79998779297</ele>
        <time>2021-09-09T04:05:36.000Z</time>
      </trkpt>
      <trkpt lat="45.20141" lon="5.72457">
        <ele>516</ele>
        <time>2021-09-09T04:05:37.000Z</time>
      </trkpt>
      <trkpt lat="45.20142" lon="5.72454">
        <ele>516.20001220703</ele>
        <time>2021-09-09T04:05:39.000Z</time>
      </trkpt>
      <trkpt lat="45.20144" lon="5.72454">
        <ele>517</ele>
        <time>2021-09-09T04:05:41.000Z</time>
      </trkpt>
      <trkpt lat="45.20145" lon="5.72455">
        <ele>517.20001220703</ele>
        <time>2021-09-09T04:05:42.000Z</time>
      </trkpt>
      <trkpt lat="45.20146" lon="5.72456">
        <ele>517.59997558594</ele>
        <time>2021-09-09T04:05:43.000Z</time>
      </trkpt>
      <trkpt lat="45.20148" lon="5.72457">
        <ele>518</ele>
        <time>2021-09-09T04:05:45.000Z</time>
      </trkpt>
      <trkpt lat="45.20149" lon="5.72458">
        <ele>518.40002441406</ele>
        <time>2021-09-09T04:05:46.000Z</time>
      </trkpt>
      <trkpt lat="45.2015" lon="5.72459">
        <ele>519.20001220703</ele>
        <time>2021-09-09T04:05:48.000Z</time>
      </trkpt>
      <trkpt lat="45.20151" lon="5.7246">
        <ele>519.40002441406</ele>
        <time>2021-09-09T04:05:49.000Z</time>
      </trkpt>
      <trkpt lat="45.20154" lon="5.72462">
        <ele>520.79998779297</ele>
        <time>2021-09-09T04:05:54.000Z</time>
      </trkpt>
      <trkpt lat="45.20155" lon="5.72464">
        <ele>521.59997558594</ele>
        <time>2021-09-09T04:05:56.000Z</time>
      </trkpt>
      <trkpt lat="45.20156" lon="5.72465">
        <ele>522</ele>
        <time>2021-09-09T04:05:57.000Z</time>
      </trkpt>
      <trkpt lat="45.20157" lon="5.72467">
        <ele>523</ele>
        <time>2021-09-09T04:06:00.000Z</time>
      </trkpt>
      <trkpt lat="45.20158" lon="5.72468">
        <ele>523.59997558594</ele>
        <time>2021-09-09T04:06:02.000Z</time>
      </trkpt>
      <trkpt lat="45.2016" lon="5.7247">
        <ele>524.20001220703</ele>
        <time>2021-09-09T04:06:05.000Z</time>
      </trkpt>
      <trkpt lat="45.20163" lon="5.72471">
        <ele>525.59997558594</ele>
        <time>2021-09-09T04:06:08.000Z</time>
      </trkpt>
      <trkpt lat="45.20164" lon="5.72472">
        <ele>526.20001220703</ele>
        <time>2021-09-09T04:06:10.000Z</time>
      </trkpt>
      <trkpt lat="45.20165" lon="5.72471">
        <ele>526.59997558594</ele>
        <time>2021-09-09T04:06:12.000Z</time>
      </trkpt>
      <trkpt lat="45.20166" lon="5.72471">
        <ele>527</ele>
        <time>2021-09-09T04:06:13.000Z</time>
      </trkpt>
      <trkpt lat="45.20166" lon="5.72472">
        <ele>527.20001220703</ele>
        <time>2021-09-09T04:06:14.000Z</time>
      </trkpt>
      <trkpt lat="45.20167" lon="5.72474">
        <ele>527.59997558594</ele>
        <time>2021-09-09T04:06:15.000Z</time>
      </trkpt>
      <trkpt lat="45.20167" lon="5.72475">
        <ele>528</ele>
        <time>2021-09-09T04:06:16.000Z</time>
      </trkpt>
      <trkpt lat="45.20168" lon="5.72478">
        <ele>528.79998779297</ele>
        <time>2021-09-09T04:06:18.000Z</time>
      </trkpt>
      <trkpt lat="45.20172" lon="5.72481">
        <ele>529.79998779297</ele>
        <time>2021-09-09T04:06:22.000Z</time>
      </trkpt>
      <trkpt lat="45.20172" lon="5.72483">
        <ele>530.20001220703</ele>
        <time>2021-09-09T04:06:23.000Z</time>
      </trkpt>
      <trkpt lat="45.20175" lon="5.72486">
        <ele>531</ele>
        <time>2021-09-09T04:06:25.000Z</time>
      </trkpt>
      <trkpt lat="45.2018" lon="5.7249">
        <ele>532</ele>
        <time>2021-09-09T04:06:31.000Z</time>
      </trkpt>
      <trkpt lat="45.20181" lon="5.72491">
        <ele>532.20001220703</ele>
        <time>2021-09-09T04:06:32.000Z</time>
      </trkpt>
      <trkpt lat="45.20182" lon="5.72492">
        <ele>533</ele>
        <time>2021-09-09T04:06:34.000Z</time>
      </trkpt>
      <trkpt lat="45.20183" lon="5.72494">
        <ele>533.40002441406</ele>
        <time>2021-09-09T04:06:35.000Z</time>
      </trkpt>
      <trkpt lat="45.20186" lon="5.72499">
        <ele>533.59997558594</ele>
        <time>2021-09-09T04:06:38.000Z</time>
      </trkpt>
      <trkpt lat="45.20189" lon="5.72501">
        <ele>534.20001220703</ele>
        <time>2021-09-09T04:06:40.000Z</time>
      </trkpt>
      <trkpt lat="45.20194" lon="5.72505">
        <ele>535.40002441406</ele>
        <time>2021-09-09T04:06:46.000Z</time>
      </trkpt>
      <trkpt lat="45.20196" lon="5.72507">
        <ele>535.59997558594</ele>
        <time>2021-09-09T04:06:48.000Z</time>
      </trkpt>
      <trkpt lat="45.20198" lon="5.72511">
        <ele>536.40002441406</ele>
        <time>2021-09-09T04:06:51.000Z</time>
      </trkpt>
      <trkpt lat="45.20199" lon="5.72512">
        <ele>536.59997558594</ele>
        <time>2021-09-09T04:06:52.000Z</time>
      </trkpt>
      <trkpt lat="45.20204" lon="5.72516">
        <ele>537.59997558594</ele>
        <time>2021-09-09T04:06:56.000Z</time>
      </trkpt>
      <trkpt lat="45.20208" lon="5.72522">
        <ele>538.59997558594</ele>
        <time>2021-09-09T04:07:01.000Z</time>
      </trkpt>
      <trkpt lat="45.2021" lon="5.72523">
        <ele>539.59997558594</ele>
        <time>2021-09-09T04:07:04.000Z</time>
      </trkpt>
      <trkpt lat="45.20212" lon="5.72523">
        <ele>539.79998779297</ele>
        <time>2021-09-09T04:07:07.000Z</time>
      </trkpt>
      <trkpt lat="45.20213" lon="5.72523">
        <ele>540.40002441406</ele>
        <time>2021-09-09T04:07:08.000Z</time>
      </trkpt>
      <trkpt lat="45.20214" lon="5.72524">
        <ele>541</ele>
        <time>2021-09-09T04:07:09.000Z</time>
      </trkpt>
      <trkpt lat="45.20215" lon="5.72524">
        <ele>541.40002441406</ele>
        <time>2021-09-09T04:07:10.000Z</time>
      </trkpt>
      <trkpt lat="45.20217" lon="5.72524">
        <ele>542</ele>
        <time>2021-09-09T04:07:13.000Z</time>
      </trkpt>
      <trkpt lat="45.2022" lon="5.72523">
        <ele>542.40002441406</ele>
        <time>2021-09-09T04:07:15.000Z</time>
      </trkpt>
      <trkpt lat="45.20221" lon="5.72523">
        <ele>542.79998779297</ele>
        <time>2021-09-09T04:07:16.000Z</time>
      </trkpt>
      <trkpt lat="45.20222" lon="5.72523">
        <ele>543.40002441406</ele>
        <time>2021-09-09T04:07:17.000Z</time>
      </trkpt>
      <trkpt lat="45.20226" lon="5.72522">
        <ele>544.40002441406</ele>
        <time>2021-09-09T04:07:21.000Z</time>
      </trkpt>
      <trkpt lat="45.20227" lon="5.72523">
        <ele>544.59997558594</ele>
        <time>2021-09-09T04:07:22.000Z</time>
      </trkpt>
      <trkpt lat="45.20231" lon="5.7252">
        <ele>545.59997558594</ele>
        <time>2021-09-09T04:07:27.000Z</time>
      </trkpt>
      <trkpt lat="45.20231" lon="5.72519">
        <ele>546</ele>
        <time>2021-09-09T04:07:28.000Z</time>
      </trkpt>
      <trkpt lat="45.20233" lon="5.72518">
        <ele>546.59997558594</ele>
        <time>2021-09-09T04:07:30.000Z</time>
      </trkpt>
      <trkpt lat="45.20237" lon="5.7252">
        <ele>547.79998779297</ele>
        <time>2021-09-09T04:07:34.000Z</time>
      </trkpt>
      <trkpt lat="45.20238" lon="5.72521">
        <ele>548.20001220703</ele>
        <time>2021-09-09T04:07:35.000Z</time>
      </trkpt>
      <trkpt lat="45.20238" lon="5.72522">
        <ele>548.59997558594</ele>
        <time>2021-09-09T04:07:36.000Z</time>
      </trkpt>
      <trkpt lat="45.20238" lon="5.72522">
        <ele>548.79998779297</ele>
        <time>2021-09-09T04:07:38.000Z</time>
      </trkpt>
      <trkpt lat="45.20239" lon="5.72522">
        <ele>549</ele>
        <time>2021-09-09T04:07:39.000Z</time>
      </trkpt>
      <trkpt lat="45.20241" lon="5.72522">
        <ele>550</ele>
        <time>2021-09-09T04:07:41.000Z</time>
      </trkpt>
      <trkpt lat="45.20246" lon="5.72521">
        <ele>551.20001220703</ele>
        <time>2021-09-09T04:07:46.000Z</time>
      </trkpt>
      <trkpt lat="45.20247" lon="5.7252">
        <ele>551.79998779297</ele>
        <time>2021-09-09T04:07:47.000Z</time>
      </trkpt>
      <trkpt lat="45.20248" lon="5.72519">
        <ele>552.59997558594</ele>
        <time>2021-09-09T04:07:49.000Z</time>
      </trkpt>
      <trkpt lat="45.2025" lon="5.72518">
        <ele>553</ele>
        <time>2021-09-09T04:07:51.000Z</time>
      </trkpt>
      <trkpt lat="45.20254" lon="5.72518">
        <ele>553.79998779297</ele>
        <time>2021-09-09T04:07:54.000Z</time>
      </trkpt>
      <trkpt lat="45.20255" lon="5.72518">
        <ele>554</ele>
        <time>2021-09-09T04:07:55.000Z</time>
      </trkpt>
      <trkpt lat="45.2026" lon="5.72518">
        <ele>554.59997558594</ele>
        <time>2021-09-09T04:07:59.000Z</time>
      </trkpt>
      <trkpt lat="45.20262" lon="5.72516">
        <ele>555</ele>
        <time>2021-09-09T04:08:00.000Z</time>
      </trkpt>
      <trkpt lat="45.20263" lon="5.72516">
        <ele>555.40002441406</ele>
        <time>2021-09-09T04:08:01.000Z</time>
      </trkpt>
      <trkpt lat="45.20263" lon="5.72516">
        <ele>555.79998779297</ele>
        <time>2021-09-09T04:08:02.000Z</time>
      </trkpt>
      <trkpt lat="45.20264" lon="5.72516">
        <ele>556</ele>
        <time>2021-09-09T04:08:03.000Z</time>
      </trkpt>
      <trkpt lat="45.20265" lon="5.72516">
        <ele>556.20001220703</ele>
        <time>2021-09-09T04:08:04.000Z</time>
      </trkpt>
      <trkpt lat="45.20268" lon="5.72515">
        <ele>557.20001220703</ele>
        <time>2021-09-09T04:08:07.000Z</time>
      </trkpt>
      <trkpt lat="45.20271" lon="5.72515">
        <ele>557.40002441406</ele>
        <time>2021-09-09T04:08:09.000Z</time>
      </trkpt>
      <trkpt lat="45.20275" lon="5.72515">
        <ele>558.59997558594</ele>
        <time>2021-09-09T04:08:12.000Z</time>
      </trkpt>
      <trkpt lat="45.20277" lon="5.72515">
        <ele>558.79998779297</ele>
        <time>2021-09-09T04:08:14.000Z</time>
      </trkpt>
      <trkpt lat="45.20278" lon="5.72515">
        <ele>559</ele>
        <time>2021-09-09T04:08:15.000Z</time>
      </trkpt>
      <trkpt lat="45.2028" lon="5.72515">
        <ele>559.59997558594</ele>
        <time>2021-09-09T04:08:17.000Z</time>
      </trkpt>
      <trkpt lat="45.20286" lon="5.72517">
        <ele>560.59997558594</ele>
        <time>2021-09-09T04:08:22.000Z</time>
      </trkpt>
      <trkpt lat="45.20287" lon="5.72517">
        <ele>560.79998779297</ele>
        <time>2021-09-09T04:08:23.000Z</time>
      </trkpt>
      <trkpt lat="45.20288" lon="5.72517">
        <ele>561</ele>
        <time>2021-09-09T04:08:24.000Z</time>
      </trkpt>
      <trkpt lat="45.20293" lon="5.72515">
        <ele>561.79998779297</ele>
        <time>2021-09-09T04:08:27.000Z</time>
      </trkpt>
      <trkpt lat="45.20295" lon="5.72515">
        <ele>562</ele>
        <time>2021-09-09T04:08:28.000Z</time>
      </trkpt>
      <trkpt lat="45.20301" lon="5.72515">
        <ele>563.20001220703</ele>
        <time>2021-09-09T04:08:33.000Z</time>
      </trkpt>
      <trkpt lat="45.20308" lon="5.72515">
        <ele>564.20001220703</ele>
        <time>2021-09-09T04:08:38.000Z</time>
      </trkpt>
      <trkpt lat="45.2031" lon="5.72515">
        <ele>565</ele>
        <time>2021-09-09T04:08:40.000Z</time>
      </trkpt>
      <trkpt lat="45.20311" lon="5.72514">
        <ele>565.20001220703</ele>
        <time>2021-09-09T04:08:41.000Z</time>
      </trkpt>
      <trkpt lat="45.20312" lon="5.72515">
        <ele>565.40002441406</ele>
        <time>2021-09-09T04:08:42.000Z</time>
      </trkpt>
      <trkpt lat="45.20314" lon="5.72515">
        <ele>566</ele>
        <time>2021-09-09T04:08:44.000Z</time>
      </trkpt>
      <trkpt lat="45.20314" lon="5.72515">
        <ele>566.40002441406</ele>
        <time>2021-09-09T04:08:45.000Z</time>
      </trkpt>
      <trkpt lat="45.20315" lon="5.72517">
        <ele>567.59997558594</ele>
        <time>2021-09-09T04:08:48.000Z</time>
      </trkpt>
      <trkpt lat="45.20316" lon="5.72517">
        <ele>567.79998779297</ele>
        <time>2021-09-09T04:08:49.000Z</time>
      </trkpt>
      <trkpt lat="45.20317" lon="5.72516">
        <ele>568</ele>
        <time>2021-09-09T04:08:50.000Z</time>
      </trkpt>
      <trkpt lat="45.2032" lon="5.72517">
        <ele>569</ele>
        <time>2021-09-09T04:08:53.000Z</time>
      </trkpt>
      <trkpt lat="45.20321" lon="5.72518">
        <ele>569.59997558594</ele>
        <time>2021-09-09T04:08:55.000Z</time>
      </trkpt>
      <trkpt lat="45.20322" lon="5.72517">
        <ele>569.79998779297</ele>
        <time>2021-09-09T04:08:56.000Z</time>
      </trkpt>
      <trkpt lat="45.20323" lon="5.72518">
        <ele>570</ele>
        <time>2021-09-09T04:08:57.000Z</time>
      </trkpt>
      <trkpt lat="45.20325" lon="5.72519">
        <ele>571.20001220703</ele>
        <time>2021-09-09T04:09:01.000Z</time>
      </trkpt>
      <trkpt lat="45.20327" lon="5.72519">
        <ele>571.40002441406</ele>
        <time>2021-09-09T04:09:02.000Z</time>
      </trkpt>
      <trkpt lat="45.20329" lon="5.72519">
        <ele>572.40002441406</ele>
        <time>2021-09-09T04:09:05.000Z</time>
      </trkpt>
      <trkpt lat="45.2033" lon="5.72519">
        <ele>573</ele>
        <time>2021-09-09T04:09:08.000Z</time>
      </trkpt>
      <trkpt lat="45.20331" lon="5.72521">
        <ele>573.59997558594</ele>
        <time>2021-09-09T04:09:11.000Z</time>
      </trkpt>
      <trkpt lat="45.20331" lon="5.72523">
        <ele>574.40002441406</ele>
        <time>2021-09-09T04:09:13.000Z</time>
      </trkpt>
      <trkpt lat="45.20331" lon="5.72523">
        <ele>574.59997558594</ele>
        <time>2021-09-09T04:09:14.000Z</time>
      </trkpt>
      <trkpt lat="45.20331" lon="5.72523">
        <ele>574.79998779297</ele>
        <time>2021-09-09T04:09:15.000Z</time>
      </trkpt>
      <trkpt lat="45.20332" lon="5.72522">
        <ele>576.20001220703</ele>
        <time>2021-09-09T04:09:19.000Z</time>
      </trkpt>
      <trkpt lat="45.20335" lon="5.72526">
        <ele>577.20001220703</ele>
        <time>2021-09-09T04:09:24.000Z</time>
      </trkpt>
      <trkpt lat="45.20336" lon="5.72526">
        <ele>577.40002441406</ele>
        <time>2021-09-09T04:09:25.000Z</time>
      </trkpt>
      <trkpt lat="45.20338" lon="5.72527">
        <ele>578.40002441406</ele>
        <time>2021-09-09T04:09:29.000Z</time>
      </trkpt>
      <trkpt lat="45.20339" lon="5.72527">
        <ele>578.59997558594</ele>
        <time>2021-09-09T04:09:30.000Z</time>
      </trkpt>
      <trkpt lat="45.2034" lon="5.72527">
        <ele>579.59997558594</ele>
        <time>2021-09-09T04:09:33.000Z</time>
      </trkpt>
      <trkpt lat="45.20341" lon="5.72527">
        <ele>579.79998779297</ele>
        <time>2021-09-09T04:09:34.000Z</time>
      </trkpt>
      <trkpt lat="45.20341" lon="5.72527">
        <ele>580.20001220703</ele>
        <time>2021-09-09T04:09:35.000Z</time>
      </trkpt>
      <trkpt lat="45.20343" lon="5.72525">
        <ele>581</ele>
        <time>2021-09-09T04:09:39.000Z</time>
      </trkpt>
      <trkpt lat="45.20343" lon="5.72524">
        <ele>581.59997558594</ele>
        <time>2021-09-09T04:09:41.000Z</time>
      </trkpt>
      <trkpt lat="45.20344" lon="5.72523">
        <ele>582</ele>
        <time>2021-09-09T04:09:42.000Z</time>
      </trkpt>
      <trkpt lat="45.20348" lon="5.72525">
        <ele>583.20001220703</ele>
        <time>2021-09-09T04:09:46.000Z</time>
      </trkpt>
      <trkpt lat="45.20351" lon="5.72529">
        <ele>584.20001220703</ele>
        <time>2021-09-09T04:09:51.000Z</time>
      </trkpt>
      <trkpt lat="45.20353" lon="5.72529">
        <ele>584.20001220703</ele>
        <time>2021-09-09T04:09:52.000Z</time>
      </trkpt>
      <trkpt lat="45.2036" lon="5.72527">
        <ele>585.59997558594</ele>
        <time>2021-09-09T04:09:58.000Z</time>
      </trkpt>
      <trkpt lat="45.20362" lon="5.72527">
        <ele>585.79998779297</ele>
        <time>2021-09-09T04:09:59.000Z</time>
      </trkpt>
      <trkpt lat="45.20365" lon="5.72533">
        <ele>586.79998779297</ele>
        <time>2021-09-09T04:10:03.000Z</time>
      </trkpt>
      <trkpt lat="45.20369" lon="5.72534">
        <ele>587.59997558594</ele>
        <time>2021-09-09T04:10:06.000Z</time>
      </trkpt>
      <trkpt lat="45.20369" lon="5.72533">
        <ele>587.79998779297</ele>
        <time>2021-09-09T04:10:07.000Z</time>
      </trkpt>
      <trkpt lat="45.20371" lon="5.72532">
        <ele>589</ele>
        <time>2021-09-09T04:10:10.000Z</time>
      </trkpt>
      <trkpt lat="45.20372" lon="5.72533">
        <ele>589.20001220703</ele>
        <time>2021-09-09T04:10:11.000Z</time>
      </trkpt>
      <trkpt lat="45.20373" lon="5.72533">
        <ele>589.59997558594</ele>
        <time>2021-09-09T04:10:12.000Z</time>
      </trkpt>
      <trkpt lat="45.20373" lon="5.72533">
        <ele>589.79998779297</ele>
        <time>2021-09-09T04:10:13.000Z</time>
      </trkpt>
      <trkpt lat="45.20374" lon="5.72533">
        <ele>590.20001220703</ele>
        <time>2021-09-09T04:10:14.000Z</time>
      </trkpt>
      <trkpt lat="45.20377" lon="5.72535">
        <ele>591.20001220703</ele>
        <time>2021-09-09T04:10:17.000Z</time>
      </trkpt>
      <trkpt lat="45.20378" lon="5.72536">
        <ele>591.59997558594</ele>
        <time>2021-09-09T04:10:18.000Z</time>
      </trkpt>
      <trkpt lat="45.20381" lon="5.72539">
        <ele>592.40002441406</ele>
        <time>2021-09-09T04:10:21.000Z</time>
      </trkpt>
      <trkpt lat="45.20383" lon="5.7254">
        <ele>592.79998779297</ele>
        <time>2021-09-09T04:10:23.000Z</time>
      </trkpt>
      <trkpt lat="45.20384" lon="5.7254">
        <ele>593</ele>
        <time>2021-09-09T04:10:24.000Z</time>
      </trkpt>
      <trkpt lat="45.20387" lon="5.72538">
        <ele>593.79998779297</ele>
        <time>2021-09-09T04:10:28.000Z</time>
      </trkpt>
      <trkpt lat="45.20387" lon="5.72537">
        <ele>594.20001220703</ele>
        <time>2021-09-09T04:10:29.000Z</time>
      </trkpt>
      <trkpt lat="45.20387" lon="5.72536">
        <ele>594.59997558594</ele>
        <time>2021-09-09T04:10:30.000Z</time>
      </trkpt>
      <trkpt lat="45.20388" lon="5.72535">
        <ele>595.20001220703</ele>
        <time>2021-09-09T04:10:31.000Z</time>
      </trkpt>
      <trkpt lat="45.20391" lon="5.72533">
        <ele>596.20001220703</ele>
        <time>2021-09-09T04:10:35.000Z</time>
      </trkpt>
      <trkpt lat="45.20392" lon="5.72534">
        <ele>596.40002441406</ele>
        <time>2021-09-09T04:10:37.000Z</time>
      </trkpt>
      <trkpt lat="45.20393" lon="5.72535">
        <ele>596.79998779297</ele>
        <time>2021-09-09T04:10:38.000Z</time>
      </trkpt>
      <trkpt lat="45.20395" lon="5.72537">
        <ele>597.40002441406</ele>
        <time>2021-09-09T04:10:41.000Z</time>
      </trkpt>
      <trkpt lat="45.20396" lon="5.72538">
        <ele>597.59997558594</ele>
        <time>2021-09-09T04:10:42.000Z</time>
      </trkpt>
      <trkpt lat="45.20397" lon="5.72538">
        <ele>597.79998779297</ele>
        <time>2021-09-09T04:10:43.000Z</time>
      </trkpt>
      <trkpt lat="45.20397" lon="5.72538">
        <ele>598.40002441406</ele>
        <time>2021-09-09T04:10:46.000Z</time>
      </trkpt>
      <trkpt lat="45.20398" lon="5.72537">
        <ele>598.79998779297</ele>
        <time>2021-09-09T04:10:47.000Z</time>
      </trkpt>
      <trkpt lat="45.20399" lon="5.72537">
        <ele>598.79998779297</ele>
        <time>2021-09-09T04:10:48.000Z</time>
      </trkpt>
      <trkpt lat="45.20399" lon="5.72536">
        <ele>599</ele>
        <time>2021-09-09T04:10:49.000Z</time>
      </trkpt>
      <trkpt lat="45.204" lon="5.72535">
        <ele>599.59997558594</ele>
        <time>2021-09-09T04:10:51.000Z</time>
      </trkpt>
      <trkpt lat="45.20403" lon="5.72532">
        <ele>600.79998779297</ele>
        <time>2021-09-09T04:10:54.000Z</time>
      </trkpt>
      <trkpt lat="45.20404" lon="5.72531">
        <ele>601</ele>
        <time>2021-09-09T04:10:55.000Z</time>
      </trkpt>
      <trkpt lat="45.20406" lon="5.72529">
        <ele>601.79998779297</ele>
        <time>2021-09-09T04:10:59.000Z</time>
      </trkpt>
      <trkpt lat="45.20409" lon="5.72528">
        <ele>602.79998779297</ele>
        <time>2021-09-09T04:11:02.000Z</time>
      </trkpt>
      <trkpt lat="45.2041" lon="5.72527">
        <ele>603.20001220703</ele>
        <time>2021-09-09T04:11:03.000Z</time>
      </trkpt>
      <trkpt lat="45.20413" lon="5.72523">
        <ele>604</ele>
        <time>2021-09-09T04:11:07.000Z</time>
      </trkpt>
      <trkpt lat="45.20413" lon="5.72523">
        <ele>604.40002441406</ele>
        <time>2021-09-09T04:11:08.000Z</time>
      </trkpt>
      <trkpt lat="45.20413" lon="5.72523">
        <ele>604.59997558594</ele>
        <time>2021-09-09T04:11:09.000Z</time>
      </trkpt>
      <trkpt lat="45.20414" lon="5.72521">
        <ele>605.59997558594</ele>
        <time>2021-09-09T04:11:11.000Z</time>
      </trkpt>
      <trkpt lat="45.20415" lon="5.72518">
        <ele>605.79998779297</ele>
        <time>2021-09-09T04:11:13.000Z</time>
      </trkpt>
      <trkpt lat="45.20416" lon="5.72517">
        <ele>606.40002441406</ele>
        <time>2021-09-09T04:11:15.000Z</time>
      </trkpt>
      <trkpt lat="45.20417" lon="5.72517">
        <ele>606.59997558594</ele>
        <time>2021-09-09T04:11:16.000Z</time>
      </trkpt>
      <trkpt lat="45.20417" lon="5.72515">
        <ele>607.40002441406</ele>
        <time>2021-09-09T04:11:18.000Z</time>
      </trkpt>
      <trkpt lat="45.20417" lon="5.72515">
        <ele>607.59997558594</ele>
        <time>2021-09-09T04:11:19.000Z</time>
      </trkpt>
      <trkpt lat="45.20419" lon="5.72514">
        <ele>608.20001220703</ele>
        <time>2021-09-09T04:11:21.000Z</time>
      </trkpt>
      <trkpt lat="45.20421" lon="5.72514">
        <ele>608.79998779297</ele>
        <time>2021-09-09T04:11:23.000Z</time>
      </trkpt>
      <trkpt lat="45.20423" lon="5.72514">
        <ele>609.79998779297</ele>
        <time>2021-09-09T04:11:26.000Z</time>
      </trkpt>
      <trkpt lat="45.20424" lon="5.72514">
        <ele>610</ele>
        <time>2021-09-09T04:11:27.000Z</time>
      </trkpt>
      <trkpt lat="45.20428" lon="5.72513">
        <ele>611.20001220703</ele>
        <time>2021-09-09T04:11:31.000Z</time>
      </trkpt>
      <trkpt lat="45.20429" lon="5.72512">
        <ele>611.40002441406</ele>
        <time>2021-09-09T04:11:32.000Z</time>
      </trkpt>
      <trkpt lat="45.2043" lon="5.72511">
        <ele>612.40002441406</ele>
        <time>2021-09-09T04:11:34.000Z</time>
      </trkpt>
      <trkpt lat="45.20432" lon="5.72511">
        <ele>613.40002441406</ele>
        <time>2021-09-09T04:11:37.000Z</time>
      </trkpt>
      <trkpt lat="45.20433" lon="5.7251">
        <ele>613.79998779297</ele>
        <time>2021-09-09T04:11:38.000Z</time>
      </trkpt>
      <trkpt lat="45.2044" lon="5.72508">
        <ele>614.59997558594</ele>
        <time>2021-09-09T04:11:42.000Z</time>
      </trkpt>
      <trkpt lat="45.20442" lon="5.72509">
        <ele>614.59997558594</ele>
        <time>2021-09-09T04:11:43.000Z</time>
      </trkpt>
      <trkpt lat="45.20444" lon="5.7251">
        <ele>615</ele>
        <time>2021-09-09T04:11:44.000Z</time>
      </trkpt>
      <trkpt lat="45.20451" lon="5.72518">
        <ele>615.79998779297</ele>
        <time>2021-09-09T04:11:49.000Z</time>
      </trkpt>
      <trkpt lat="45.20454" lon="5.72521">
        <ele>616.20001220703</ele>
        <time>2021-09-09T04:11:51.000Z</time>
      </trkpt>
      <trkpt lat="45.2046" lon="5.7253">
        <ele>617</ele>
        <time>2021-09-09T04:11:55.000Z</time>
      </trkpt>
      <trkpt lat="45.20464" lon="5.72537">
        <ele>617.79998779297</ele>
        <time>2021-09-09T04:11:59.000Z</time>
      </trkpt>
      <trkpt lat="45.20465" lon="5.72538">
        <ele>618</ele>
        <time>2021-09-09T04:12:00.000Z</time>
      </trkpt>
      <trkpt lat="45.20472" lon="5.72547">
        <ele>619</ele>
        <time>2021-09-09T04:12:06.000Z</time>
      </trkpt>
      <trkpt lat="45.20478" lon="5.72554">
        <ele>619.79998779297</ele>
        <time>2021-09-09T04:12:10.000Z</time>
      </trkpt>
      <trkpt lat="45.20479" lon="5.72556">
        <ele>620</ele>
        <time>2021-09-09T04:12:11.000Z</time>
      </trkpt>
      <trkpt lat="45.20481" lon="5.72557">
        <ele>620.40002441406</ele>
        <time>2021-09-09T04:12:12.000Z</time>
      </trkpt>
      <trkpt lat="45.20492" lon="5.72563">
        <ele>621.20001220703</ele>
        <time>2021-09-09T04:12:18.000Z</time>
      </trkpt>
      <trkpt lat="45.20508" lon="5.7257">
        <ele>622</ele>
        <time>2021-09-09T04:12:26.000Z</time>
      </trkpt>
      <trkpt lat="45.20514" lon="5.7257">
        <ele>622.20001220703</ele>
        <time>2021-09-09T04:12:29.000Z</time>
      </trkpt>
      <trkpt lat="45.20519" lon="5.7257">
        <ele>623</ele>
        <time>2021-09-09T04:12:32.000Z</time>
      </trkpt>
      <trkpt lat="45.20521" lon="5.72569">
        <ele>623.20001220703</ele>
        <time>2021-09-09T04:12:33.000Z</time>
      </trkpt>
      <trkpt lat="45.20524" lon="5.72569">
        <ele>623.40002441406</ele>
        <time>2021-09-09T04:12:35.000Z</time>
      </trkpt>
      <trkpt lat="45.20529" lon="5.72567">
        <ele>624</ele>
        <time>2021-09-09T04:12:39.000Z</time>
      </trkpt>
      <trkpt lat="45.20534" lon="5.72563">
        <ele>624.59997558594</ele>
        <time>2021-09-09T04:12:42.000Z</time>
      </trkpt>
      <trkpt lat="45.20541" lon="5.72559">
        <ele>625.20001220703</ele>
        <time>2021-09-09T04:12:45.000Z</time>
      </trkpt>
      <trkpt lat="45.20547" lon="5.72556">
        <ele>625.59997558594</ele>
        <time>2021-09-09T04:12:48.000Z</time>
      </trkpt>
      <trkpt lat="45.20556" lon="5.72555">
        <ele>626.20001220703</ele>
        <time>2021-09-09T04:12:52.000Z</time>
      </trkpt>
      <trkpt lat="45.2056" lon="5.72555">
        <ele>626.40002441406</ele>
        <time>2021-09-09T04:12:54.000Z</time>
      </trkpt>
      <trkpt lat="45.20565" lon="5.72556">
        <ele>626.59997558594</ele>
        <time>2021-09-09T04:12:56.000Z</time>
      </trkpt>
      <trkpt lat="45.20578" lon="5.72562">
        <ele>627.79998779297</ele>
        <time>2021-09-09T04:13:04.000Z</time>
      </trkpt>
      <trkpt lat="45.2058" lon="5.72562">
        <ele>628.20001220703</ele>
        <time>2021-09-09T04:13:05.000Z</time>
      </trkpt>
      <trkpt lat="45.20586" lon="5.72566">
        <ele>629</ele>
        <time>2021-09-09T04:13:09.000Z</time>
      </trkpt>
      <trkpt lat="45.2059" lon="5.72571">
        <ele>629.40002441406</ele>
        <time>2021-09-09T04:13:12.000Z</time>
      </trkpt>
      <trkpt lat="45.20598" lon="5.72577">
        <ele>630</ele>
        <time>2021-09-09T04:13:16.000Z</time>
      </trkpt>
      <trkpt lat="45.20608" lon="5.72587">
        <ele>630.79998779297</ele>
        <time>2021-09-09T04:13:22.000Z</time>
      </trkpt>
      <trkpt lat="45.20609" lon="5.72588">
        <ele>631</ele>
        <time>2021-09-09T04:13:23.000Z</time>
      </trkpt>
      <trkpt lat="45.20616" lon="5.72592">
        <ele>632.20001220703</ele>
        <time>2021-09-09T04:13:27.000Z</time>
      </trkpt>
      <trkpt lat="45.20619" lon="5.72593">
        <ele>632.59997558594</ele>
        <time>2021-09-09T04:13:29.000Z</time>
      </trkpt>
      <trkpt lat="45.20624" lon="5.72597">
        <ele>633.40002441406</ele>
        <time>2021-09-09T04:13:33.000Z</time>
      </trkpt>
      <trkpt lat="45.20625" lon="5.72598">
        <ele>633.59997558594</ele>
        <time>2021-09-09T04:13:34.000Z</time>
      </trkpt>
      <trkpt lat="45.20627" lon="5.72598">
        <ele>633.79998779297</ele>
        <time>2021-09-09T04:13:35.000Z</time>
      </trkpt>
      <trkpt lat="45.2064" lon="5.72596">
        <ele>634.59997558594</ele>
        <time>2021-09-09T04:13:41.000Z</time>
      </trkpt>
      <trkpt lat="45.20648" lon="5.72591">
        <ele>634.79998779297</ele>
        <time>2021-09-09T04:13:45.000Z</time>
      </trkpt>
      <trkpt lat="45.2065" lon="5.72589">
        <ele>635.20001220703</ele>
        <time>2021-09-09T04:13:47.000Z</time>
      </trkpt>
      <trkpt lat="45.20653" lon="5.72586">
        <ele>635.59997558594</ele>
        <time>2021-09-09T04:13:49.000Z</time>
      </trkpt>
      <trkpt lat="45.20662" lon="5.72581">
        <ele>636.59997558594</ele>
        <time>2021-09-09T04:13:54.000Z</time>
      </trkpt>
      <trkpt lat="45.20664" lon="5.7258">
        <ele>636.79998779297</ele>
        <time>2021-09-09T04:13:55.000Z</time>
      </trkpt>
      <trkpt lat="45.20671" lon="5.72571">
        <ele>637.79998779297</ele>
        <time>2021-09-09T04:14:00.000Z</time>
      </trkpt>
      <trkpt lat="45.20676" lon="5.72569">
        <ele>638.40002441406</ele>
        <time>2021-09-09T04:14:03.000Z</time>
      </trkpt>
      <trkpt lat="45.2068" lon="5.72567">
        <ele>639</ele>
        <time>2021-09-09T04:14:05.000Z</time>
      </trkpt>
      <trkpt lat="45.20686" lon="5.72565">
        <ele>640</ele>
        <time>2021-09-09T04:14:09.000Z</time>
      </trkpt>
      <trkpt lat="45.20693" lon="5.72564">
        <ele>641.40002441406</ele>
        <time>2021-09-09T04:14:14.000Z</time>
      </trkpt>
      <trkpt lat="45.20699" lon="5.72564">
        <ele>642.59997558594</ele>
        <time>2021-09-09T04:14:18.000Z</time>
      </trkpt>
      <trkpt lat="45.207" lon="5.72565">
        <ele>642.79998779297</ele>
        <time>2021-09-09T04:14:19.000Z</time>
      </trkpt>
      <trkpt lat="45.20702" lon="5.72568">
        <ele>643.40002441406</ele>
        <time>2021-09-09T04:14:21.000Z</time>
      </trkpt>
      <trkpt lat="45.20702" lon="5.72569">
        <ele>643.79998779297</ele>
        <time>2021-09-09T04:14:22.000Z</time>
      </trkpt>
      <trkpt lat="45.20704" lon="5.7257">
        <ele>643.79998779297</ele>
        <time>2021-09-09T04:14:23.000Z</time>
      </trkpt>
      <trkpt lat="45.20707" lon="5.72572">
        <ele>644.79998779297</ele>
        <time>2021-09-09T04:14:26.000Z</time>
      </trkpt>
      <trkpt lat="45.20709" lon="5.72572">
        <ele>645.40002441406</ele>
        <time>2021-09-09T04:14:28.000Z</time>
      </trkpt>
      <trkpt lat="45.2071" lon="5.72572">
        <ele>645.59997558594</ele>
        <time>2021-09-09T04:14:29.000Z</time>
      </trkpt>
      <trkpt lat="45.20711" lon="5.72572">
        <ele>646.20001220703</ele>
        <time>2021-09-09T04:14:30.000Z</time>
      </trkpt>
      <trkpt lat="45.20716" lon="5.72574">
        <ele>647.40002441406</ele>
        <time>2021-09-09T04:14:34.000Z</time>
      </trkpt>
      <trkpt lat="45.20719" lon="5.72573">
        <ele>648.20001220703</ele>
        <time>2021-09-09T04:14:36.000Z</time>
      </trkpt>
      <trkpt lat="45.2072" lon="5.72573">
        <ele>648.40002441406</ele>
        <time>2021-09-09T04:14:37.000Z</time>
      </trkpt>
      <trkpt lat="45.20721" lon="5.72573">
        <ele>648.40002441406</ele>
        <time>2021-09-09T04:14:38.000Z</time>
      </trkpt>
      <trkpt lat="45.20725" lon="5.72573">
        <ele>649.20001220703</ele>
        <time>2021-09-09T04:14:41.000Z</time>
      </trkpt>
      <trkpt lat="45.20726" lon="5.72575">
        <ele>649.59997558594</ele>
        <time>2021-09-09T04:14:42.000Z</time>
      </trkpt>
      <trkpt lat="45.2073" lon="5.72578">
        <ele>650.59997558594</ele>
        <time>2021-09-09T04:14:45.000Z</time>
      </trkpt>
      <trkpt lat="45.20734" lon="5.72579">
        <ele>651.79998779297</ele>
        <time>2021-09-09T04:14:49.000Z</time>
      </trkpt>
      <trkpt lat="45.20738" lon="5.7258">
        <ele>652.40002441406</ele>
        <time>2021-09-09T04:14:51.000Z</time>
      </trkpt>
      <trkpt lat="45.20739" lon="5.72583">
        <ele>652.79998779297</ele>
        <time>2021-09-09T04:14:53.000Z</time>
      </trkpt>
      <trkpt lat="45.2074" lon="5.72589">
        <ele>653.59997558594</ele>
        <time>2021-09-09T04:14:56.000Z</time>
      </trkpt>
      <trkpt lat="45.20741" lon="5.72593">
        <ele>654</ele>
        <time>2021-09-09T04:14:58.000Z</time>
      </trkpt>
      <trkpt lat="45.20741" lon="5.72596">
        <ele>654.79998779297</ele>
        <time>2021-09-09T04:15:00.000Z</time>
      </trkpt>
      <trkpt lat="45.20742" lon="5.726">
        <ele>655</ele>
        <time>2021-09-09T04:15:02.000Z</time>
      </trkpt>
      <trkpt lat="45.20742" lon="5.72602">
        <ele>655.40002441406</ele>
        <time>2021-09-09T04:15:03.000Z</time>
      </trkpt>
      <trkpt lat="45.20743" lon="5.72603">
        <ele>655.79998779297</ele>
        <time>2021-09-09T04:15:04.000Z</time>
      </trkpt>
      <trkpt lat="45.20745" lon="5.72606">
        <ele>656.40002441406</ele>
        <time>2021-09-09T04:15:06.000Z</time>
      </trkpt>
      <trkpt lat="45.20746" lon="5.72609">
        <ele>656.79998779297</ele>
        <time>2021-09-09T04:15:08.000Z</time>
      </trkpt>
      <trkpt lat="45.20747" lon="5.72612">
        <ele>657.79998779297</ele>
        <time>2021-09-09T04:15:11.000Z</time>
      </trkpt>
      <trkpt lat="45.20748" lon="5.72612">
        <ele>658.20001220703</ele>
        <time>2021-09-09T04:15:13.000Z</time>
      </trkpt>
      <trkpt lat="45.2075" lon="5.72612">
        <ele>658.40002441406</ele>
        <time>2021-09-09T04:15:14.000Z</time>
      </trkpt>
      <trkpt lat="45.20752" lon="5.72611">
        <ele>659</ele>
        <time>2021-09-09T04:15:16.000Z</time>
      </trkpt>
      <trkpt lat="45.20757" lon="5.72611">
        <ele>659.79998779297</ele>
        <time>2021-09-09T04:15:20.000Z</time>
      </trkpt>
      <trkpt lat="45.20758" lon="5.72611">
        <ele>660.20001220703</ele>
        <time>2021-09-09T04:15:21.000Z</time>
      </trkpt>
      <trkpt lat="45.20758" lon="5.72611">
        <ele>660.59997558594</ele>
        <time>2021-09-09T04:15:22.000Z</time>
      </trkpt>
      <trkpt lat="45.20761" lon="5.7261">
        <ele>661.20001220703</ele>
        <time>2021-09-09T04:15:25.000Z</time>
      </trkpt>
      <trkpt lat="45.20764" lon="5.72609">
        <ele>662.40002441406</ele>
        <time>2021-09-09T04:15:28.000Z</time>
      </trkpt>
      <trkpt lat="45.20766" lon="5.72607">
        <ele>663</ele>
        <time>2021-09-09T04:15:30.000Z</time>
      </trkpt>
      <trkpt lat="45.20768" lon="5.72606">
        <ele>663.59997558594</ele>
        <time>2021-09-09T04:15:32.000Z</time>
      </trkpt>
      <trkpt lat="45.20772" lon="5.72607">
        <ele>664.40002441406</ele>
        <time>2021-09-09T04:15:35.000Z</time>
      </trkpt>
      <trkpt lat="45.20773" lon="5.72608">
        <ele>664.79998779297</ele>
        <time>2021-09-09T04:15:36.000Z</time>
      </trkpt>
      <trkpt lat="45.20774" lon="5.7261">
        <ele>665</ele>
        <time>2021-09-09T04:15:37.000Z</time>
      </trkpt>
      <trkpt lat="45.20775" lon="5.72616">
        <ele>666</ele>
        <time>2021-09-09T04:15:40.000Z</time>
      </trkpt>
      <trkpt lat="45.20776" lon="5.72626">
        <ele>667.20001220703</ele>
        <time>2021-09-09T04:15:45.000Z</time>
      </trkpt>
      <trkpt lat="45.20775" lon="5.72633">
        <ele>668</ele>
        <time>2021-09-09T04:15:50.000Z</time>
      </trkpt>
      <trkpt lat="45.20774" lon="5.72633">
        <ele>668.59997558594</ele>
        <time>2021-09-09T04:15:51.000Z</time>
      </trkpt>
      <trkpt lat="45.20774" lon="5.72635">
        <ele>669.40002441406</ele>
        <time>2021-09-09T04:15:53.000Z</time>
      </trkpt>
      <trkpt lat="45.20774" lon="5.72636">
        <ele>669.59997558594</ele>
        <time>2021-09-09T04:15:54.000Z</time>
      </trkpt>
      <trkpt lat="45.20774" lon="5.7264">
        <ele>670</ele>
        <time>2021-09-09T04:15:56.000Z</time>
      </trkpt>
      <trkpt lat="45.20775" lon="5.72641">
        <ele>670.59997558594</ele>
        <time>2021-09-09T04:15:58.000Z</time>
      </trkpt>
      <trkpt lat="45.20775" lon="5.72641">
        <ele>671</ele>
        <time>2021-09-09T04:15:59.000Z</time>
      </trkpt>
      <trkpt lat="45.20777" lon="5.7264">
        <ele>671.40002441406</ele>
        <time>2021-09-09T04:16:02.000Z</time>
      </trkpt>
      <trkpt lat="45.20778" lon="5.72639">
        <ele>671.79998779297</ele>
        <time>2021-09-09T04:16:03.000Z</time>
      </trkpt>
      <trkpt lat="45.20779" lon="5.72639">
        <ele>672.20001220703</ele>
        <time>2021-09-09T04:16:04.000Z</time>
      </trkpt>
      <trkpt lat="45.2078" lon="5.72636">
        <ele>672.79998779297</ele>
        <time>2021-09-09T04:16:06.000Z</time>
      </trkpt>
      <trkpt lat="45.20782" lon="5.72635">
        <ele>673.20001220703</ele>
        <time>2021-09-09T04:16:08.000Z</time>
      </trkpt>
      <trkpt lat="45.20784" lon="5.72634">
        <ele>674.20001220703</ele>
        <time>2021-09-09T04:16:11.000Z</time>
      </trkpt>
      <trkpt lat="45.20785" lon="5.72633">
        <ele>674.59997558594</ele>
        <time>2021-09-09T04:16:12.000Z</time>
      </trkpt>
      <trkpt lat="45.20788" lon="5.72633">
        <ele>675.20001220703</ele>
        <time>2021-09-09T04:16:15.000Z</time>
      </trkpt>
      <trkpt lat="45.20791" lon="5.72631">
        <ele>676.40002441406</ele>
        <time>2021-09-09T04:16:18.000Z</time>
      </trkpt>
      <trkpt lat="45.20791" lon="5.7263">
        <ele>676.59997558594</ele>
        <time>2021-09-09T04:16:19.000Z</time>
      </trkpt>
      <trkpt lat="45.20794" lon="5.72624">
        <ele>677.59997558594</ele>
        <time>2021-09-09T04:16:24.000Z</time>
      </trkpt>
      <trkpt lat="45.20794" lon="5.72622">
        <ele>677.79998779297</ele>
        <time>2021-09-09T04:16:25.000Z</time>
      </trkpt>
      <trkpt lat="45.20795" lon="5.72621">
        <ele>678</ele>
        <time>2021-09-09T04:16:26.000Z</time>
      </trkpt>
      <trkpt lat="45.20796" lon="5.72619">
        <ele>679</ele>
        <time>2021-09-09T04:16:28.000Z</time>
      </trkpt>
      <trkpt lat="45.20796" lon="5.7262">
        <ele>679.20001220703</ele>
        <time>2021-09-09T04:16:29.000Z</time>
      </trkpt>
      <trkpt lat="45.20797" lon="5.72625">
        <ele>680.20001220703</ele>
        <time>2021-09-09T04:16:32.000Z</time>
      </trkpt>
      <trkpt lat="45.20798" lon="5.72629">
        <ele>680.59997558594</ele>
        <time>2021-09-09T04:16:34.000Z</time>
      </trkpt>
      <trkpt lat="45.208" lon="5.72634">
        <ele>681.20001220703</ele>
        <time>2021-09-09T04:16:38.000Z</time>
      </trkpt>
      <trkpt lat="45.20801" lon="5.72635">
        <ele>682</ele>
        <time>2021-09-09T04:16:40.000Z</time>
      </trkpt>
      <trkpt lat="45.20802" lon="5.72636">
        <ele>682.20001220703</ele>
        <time>2021-09-09T04:16:41.000Z</time>
      </trkpt>
      <trkpt lat="45.20803" lon="5.72637">
        <ele>682.59997558594</ele>
        <time>2021-09-09T04:16:42.000Z</time>
      </trkpt>
      <trkpt lat="45.20804" lon="5.72639">
        <ele>683.79998779297</ele>
        <time>2021-09-09T04:16:45.000Z</time>
      </trkpt>
      <trkpt lat="45.20804" lon="5.72639">
        <ele>684</ele>
        <time>2021-09-09T04:16:46.000Z</time>
      </trkpt>
      <trkpt lat="45.20804" lon="5.72643">
        <ele>684.20001220703</ele>
        <time>2021-09-09T04:16:48.000Z</time>
      </trkpt>
      <trkpt lat="45.20805" lon="5.72648">
        <ele>684.79998779297</ele>
        <time>2021-09-09T04:16:50.000Z</time>
      </trkpt>
      <trkpt lat="45.20805" lon="5.72651">
        <ele>685.20001220703</ele>
        <time>2021-09-09T04:16:51.000Z</time>
      </trkpt>
      <trkpt lat="45.20805" lon="5.72653">
        <ele>685.59997558594</ele>
        <time>2021-09-09T04:16:52.000Z</time>
      </trkpt>
      <trkpt lat="45.20805" lon="5.72654">
        <ele>685.79998779297</ele>
        <time>2021-09-09T04:16:53.000Z</time>
      </trkpt>
      <trkpt lat="45.20805" lon="5.72656">
        <ele>686</ele>
        <time>2021-09-09T04:16:54.000Z</time>
      </trkpt>
      <trkpt lat="45.20807" lon="5.7266">
        <ele>686.79998779297</ele>
        <time>2021-09-09T04:16:57.000Z</time>
      </trkpt>
      <trkpt lat="45.20807" lon="5.72662">
        <ele>687.20001220703</ele>
        <time>2021-09-09T04:16:58.000Z</time>
      </trkpt>
      <trkpt lat="45.20808" lon="5.72665">
        <ele>687.59997558594</ele>
        <time>2021-09-09T04:17:00.000Z</time>
      </trkpt>
      <trkpt lat="45.2081" lon="5.72666">
        <ele>688.40002441406</ele>
        <time>2021-09-09T04:17:02.000Z</time>
      </trkpt>
      <trkpt lat="45.20814" lon="5.72665">
        <ele>689.59997558594</ele>
        <time>2021-09-09T04:17:06.000Z</time>
      </trkpt>
      <trkpt lat="45.20819" lon="5.72661">
        <ele>690.59997558594</ele>
        <time>2021-09-09T04:17:10.000Z</time>
      </trkpt>
      <trkpt lat="45.2082" lon="5.7266">
        <ele>691</ele>
        <time>2021-09-09T04:17:11.000Z</time>
      </trkpt>
      <trkpt lat="45.20823" lon="5.72658">
        <ele>692</ele>
        <time>2021-09-09T04:17:15.000Z</time>
      </trkpt>
      <trkpt lat="45.20823" lon="5.72658">
        <ele>692</ele>
        <time>2021-09-09T04:17:16.000Z</time>
      </trkpt>
      <trkpt lat="45.20827" lon="5.72655">
        <ele>693.20001220703</ele>
        <time>2021-09-09T04:17:20.000Z</time>
      </trkpt>
      <trkpt lat="45.20829" lon="5.72656">
        <ele>693.59997558594</ele>
        <time>2021-09-09T04:17:22.000Z</time>
      </trkpt>
      <trkpt lat="45.2083" lon="5.72657">
        <ele>694</ele>
        <time>2021-09-09T04:17:23.000Z</time>
      </trkpt>
      <trkpt lat="45.2083" lon="5.72658">
        <ele>694.40002441406</ele>
        <time>2021-09-09T04:17:24.000Z</time>
      </trkpt>
      <trkpt lat="45.20832" lon="5.7266">
        <ele>695.20001220703</ele>
        <time>2021-09-09T04:17:28.000Z</time>
      </trkpt>
      <trkpt lat="45.20833" lon="5.7266">
        <ele>695.79998779297</ele>
        <time>2021-09-09T04:17:29.000Z</time>
      </trkpt>
      <trkpt lat="45.20834" lon="5.7266">
        <ele>696.20001220703</ele>
        <time>2021-09-09T04:17:30.000Z</time>
      </trkpt>
      <trkpt lat="45.20834" lon="5.72661">
        <ele>697</ele>
        <time>2021-09-09T04:17:32.000Z</time>
      </trkpt>
      <trkpt lat="45.20835" lon="5.72667">
        <ele>697.59997558594</ele>
        <time>2021-09-09T04:17:35.000Z</time>
      </trkpt>
      <trkpt lat="45.20835" lon="5.72669">
        <ele>698</ele>
        <time>2021-09-09T04:17:36.000Z</time>
      </trkpt>
      <trkpt lat="45.20836" lon="5.72671">
        <ele>698.20001220703</ele>
        <time>2021-09-09T04:17:37.000Z</time>
      </trkpt>
      <trkpt lat="45.20835" lon="5.72677">
        <ele>699.20001220703</ele>
        <time>2021-09-09T04:17:40.000Z</time>
      </trkpt>
      <trkpt lat="45.20835" lon="5.72679">
        <ele>699.40002441406</ele>
        <time>2021-09-09T04:17:41.000Z</time>
      </trkpt>
      <trkpt lat="45.20835" lon="5.7268">
        <ele>699.59997558594</ele>
        <time>2021-09-09T04:17:42.000Z</time>
      </trkpt>
      <trkpt lat="45.20836" lon="5.72689">
        <ele>700.79998779297</ele>
        <time>2021-09-09T04:17:47.000Z</time>
      </trkpt>
      <trkpt lat="45.20836" lon="5.72691">
        <ele>701.59997558594</ele>
        <time>2021-09-09T04:17:49.000Z</time>
      </trkpt>
      <trkpt lat="45.20835" lon="5.72692">
        <ele>701.79998779297</ele>
        <time>2021-09-09T04:17:50.000Z</time>
      </trkpt>
      <trkpt lat="45.20833" lon="5.72697">
        <ele>703.20001220703</ele>
        <time>2021-09-09T04:17:55.000Z</time>
      </trkpt>
      <trkpt lat="45.20833" lon="5.72698">
        <ele>703.59997558594</ele>
        <time>2021-09-09T04:17:56.000Z</time>
      </trkpt>
      <trkpt lat="45.20832" lon="5.727">
        <ele>704.40002441406</ele>
        <time>2021-09-09T04:17:58.000Z</time>
      </trkpt>
      <trkpt lat="45.20831" lon="5.72703">
        <ele>704.79998779297</ele>
        <time>2021-09-09T04:18:00.000Z</time>
      </trkpt>
      <trkpt lat="45.2083" lon="5.72706">
        <ele>705.59997558594</ele>
        <time>2021-09-09T04:18:02.000Z</time>
      </trkpt>
      <trkpt lat="45.2083" lon="5.72708">
        <ele>706.59997558594</ele>
        <time>2021-09-09T04:18:05.000Z</time>
      </trkpt>
      <trkpt lat="45.2083" lon="5.72709">
        <ele>706.59997558594</ele>
        <time>2021-09-09T04:18:06.000Z</time>
      </trkpt>
      <trkpt lat="45.20829" lon="5.7271">
        <ele>707</ele>
        <time>2021-09-09T04:18:07.000Z</time>
      </trkpt>
      <trkpt lat="45.20829" lon="5.72712">
        <ele>708</ele>
        <time>2021-09-09T04:18:09.000Z</time>
      </trkpt>
      <trkpt lat="45.20829" lon="5.72713">
        <ele>708.79998779297</ele>
        <time>2021-09-09T04:18:11.000Z</time>
      </trkpt>
      <trkpt lat="45.20829" lon="5.72714">
        <ele>709.20001220703</ele>
        <time>2021-09-09T04:18:12.000Z</time>
      </trkpt>
      <trkpt lat="45.20828" lon="5.72714">
        <ele>709.20001220703</ele>
        <time>2021-09-09T04:18:13.000Z</time>
      </trkpt>
      <trkpt lat="45.20827" lon="5.72717">
        <ele>709.59997558594</ele>
        <time>2021-09-09T04:18:15.000Z</time>
      </trkpt>
      <trkpt lat="45.20824" lon="5.7272">
        <ele>709.79998779297</ele>
        <time>2021-09-09T04:18:18.000Z</time>
      </trkpt>
      <trkpt lat="45.20823" lon="5.72721">
        <ele>710</ele>
        <time>2021-09-09T04:18:20.000Z</time>
      </trkpt>
      <trkpt lat="45.20824" lon="5.72722">
        <ele>710.20001220703</ele>
        <time>2021-09-09T04:18:21.000Z</time>
      </trkpt>
      <trkpt lat="45.20821" lon="5.72725">
        <ele>709.79998779297</ele>
        <time>2021-09-09T04:18:26.000Z</time>
      </trkpt>
      <trkpt lat="45.20821" lon="5.72728">
        <ele>709.40002441406</ele>
        <time>2021-09-09T04:18:28.000Z</time>
      </trkpt>
      <trkpt lat="45.20819" lon="5.72729">
        <ele>709.40002441406</ele>
        <time>2021-09-09T04:18:29.000Z</time>
      </trkpt>
      <trkpt lat="45.20819" lon="5.72729">
        <ele>709</ele>
        <time>2021-09-09T04:18:30.000Z</time>
      </trkpt>
      <trkpt lat="45.20818" lon="5.7273">
        <ele>708.59997558594</ele>
        <time>2021-09-09T04:18:31.000Z</time>
      </trkpt>
      <trkpt lat="45.20816" lon="5.72729">
        <ele>708</ele>
        <time>2021-09-09T04:18:33.000Z</time>
      </trkpt>
      <trkpt lat="45.20815" lon="5.72729">
        <ele>708</ele>
        <time>2021-09-09T04:18:34.000Z</time>
      </trkpt>
      <trkpt lat="45.20813" lon="5.7273">
        <ele>707.40002441406</ele>
        <time>2021-09-09T04:18:37.000Z</time>
      </trkpt>
      <trkpt lat="45.20811" lon="5.7273">
        <ele>707.20001220703</ele>
        <time>2021-09-09T04:18:39.000Z</time>
      </trkpt>
      <trkpt lat="45.20809" lon="5.7273">
        <ele>707</ele>
        <time>2021-09-09T04:18:42.000Z</time>
      </trkpt>
      <trkpt lat="45.20808" lon="5.72731">
        <ele>707</ele>
        <time>2021-09-09T04:18:43.000Z</time>
      </trkpt>
      <trkpt lat="45.20805" lon="5.7273">
        <ele>707.59997558594</ele>
        <time>2021-09-09T04:18:48.000Z</time>
      </trkpt>
      <trkpt lat="45.20804" lon="5.72729">
        <ele>707.79998779297</ele>
        <time>2021-09-09T04:18:49.000Z</time>
      </trkpt>
      <trkpt lat="45.20803" lon="5.72729">
        <ele>708</ele>
        <time>2021-09-09T04:18:50.000Z</time>
      </trkpt>
      <trkpt lat="45.20801" lon="5.72728">
        <ele>709.20001220703</ele>
        <time>2021-09-09T04:18:54.000Z</time>
      </trkpt>
      <trkpt lat="45.208" lon="5.72729">
        <ele>709.59997558594</ele>
        <time>2021-09-09T04:18:57.000Z</time>
      </trkpt>
      <trkpt lat="45.20799" lon="5.7273">
        <ele>709.59997558594</ele>
        <time>2021-09-09T04:19:01.000Z</time>
      </trkpt>
      <trkpt lat="45.20796" lon="5.72729">
        <ele>709</ele>
        <time>2021-09-09T04:19:09.000Z</time>
      </trkpt>
      <trkpt lat="45.20796" lon="5.72729">
        <ele>708.40002441406</ele>
        <time>2021-09-09T04:19:21.000Z</time>
      </trkpt>
      <trkpt lat="45.20796" lon="5.72729">
        <ele>708.59997558594</ele>
        <time>2021-09-09T04:19:23.000Z</time>
      </trkpt>
      <trkpt lat="45.20796" lon="5.7273">
        <ele>708.59997558594</ele>
        <time>2021-09-09T04:19:25.000Z</time>
      </trkpt>
      <trkpt lat="45.20796" lon="5.7273">
        <ele>708.59997558594</ele>
        <time>2021-09-09T04:19:28.000Z</time>
      </trkpt>
      <trkpt lat="45.20795" lon="5.72731">
        <ele>708.59997558594</ele>
        <time>2021-09-09T04:19:32.000Z</time>
      </trkpt>
      <trkpt lat="45.20794" lon="5.72734">
        <ele>708.20001220703</ele>
        <time>2021-09-09T04:19:46.000Z</time>
      </trkpt>
      <trkpt lat="45.20798" lon="5.72732">
        <ele>707</ele>
        <time>2021-09-09T04:19:52.000Z</time>
      </trkpt>
      <trkpt lat="45.20799" lon="5.72732">
        <ele>707</ele>
        <time>2021-09-09T04:19:53.000Z</time>
      </trkpt>
      <trkpt lat="45.20801" lon="5.72732">
        <ele>707</ele>
        <time>2021-09-09T04:19:54.000Z</time>
      </trkpt>
      <trkpt lat="45.20811" lon="5.72732">
        <ele>707.59997558594</ele>
        <time>2021-09-09T04:20:00.000Z</time>
      </trkpt>
      <trkpt lat="45.20813" lon="5.72732">
        <ele>708</ele>
        <time>2021-09-09T04:20:02.000Z</time>
      </trkpt>
      <trkpt lat="45.20813" lon="5.72731">
        <ele>708.20001220703</ele>
        <time>2021-09-09T04:20:03.000Z</time>
      </trkpt>
      <trkpt lat="45.20817" lon="5.7273">
        <ele>709.40002441406</ele>
        <time>2021-09-09T04:20:06.000Z</time>
      </trkpt>
      <trkpt lat="45.20818" lon="5.72729">
        <ele>709.59997558594</ele>
        <time>2021-09-09T04:20:07.000Z</time>
      </trkpt>
      <trkpt lat="45.20822" lon="5.72725">
        <ele>710.20001220703</ele>
        <time>2021-09-09T04:20:13.000Z</time>
      </trkpt>
      <trkpt lat="45.20825" lon="5.7272">
        <ele>710</ele>
        <time>2021-09-09T04:20:19.000Z</time>
      </trkpt>
      <trkpt lat="45.20825" lon="5.72719">
        <ele>709.79998779297</ele>
        <time>2021-09-09T04:20:21.000Z</time>
      </trkpt>
      <trkpt lat="45.20825" lon="5.72716">
        <ele>709</ele>
        <time>2021-09-09T04:20:23.000Z</time>
      </trkpt>
      <trkpt lat="45.20825" lon="5.72713">
        <ele>708</ele>
        <time>2021-09-09T04:20:26.000Z</time>
      </trkpt>
      <trkpt lat="45.20827" lon="5.72711">
        <ele>707</ele>
        <time>2021-09-09T04:20:28.000Z</time>
      </trkpt>
      <trkpt lat="45.20827" lon="5.72709">
        <ele>706.59997558594</ele>
        <time>2021-09-09T04:20:29.000Z</time>
      </trkpt>
      <trkpt lat="45.20828" lon="5.72707">
        <ele>705.79998779297</ele>
        <time>2021-09-09T04:20:31.000Z</time>
      </trkpt>
      <trkpt lat="45.20829" lon="5.72706">
        <ele>705.40002441406</ele>
        <time>2021-09-09T04:20:32.000Z</time>
      </trkpt>
      <trkpt lat="45.20829" lon="5.72705">
        <ele>704.79998779297</ele>
        <time>2021-09-09T04:20:34.000Z</time>
      </trkpt>
      <trkpt lat="45.20831" lon="5.72702">
        <ele>704</ele>
        <time>2021-09-09T04:20:36.000Z</time>
      </trkpt>
      <trkpt lat="45.20831" lon="5.72701">
        <ele>703.40002441406</ele>
        <time>2021-09-09T04:20:37.000Z</time>
      </trkpt>
      <trkpt lat="45.20832" lon="5.72697">
        <ele>702.40002441406</ele>
        <time>2021-09-09T04:20:39.000Z</time>
      </trkpt>
      <trkpt lat="45.20832" lon="5.72696">
        <ele>702</ele>
        <time>2021-09-09T04:20:40.000Z</time>
      </trkpt>
      <trkpt lat="45.20832" lon="5.72692">
        <ele>701.40002441406</ele>
        <time>2021-09-09T04:20:42.000Z</time>
      </trkpt>
      <trkpt lat="45.20831" lon="5.72689">
        <ele>700.79998779297</ele>
        <time>2021-09-09T04:20:44.000Z</time>
      </trkpt>
      <trkpt lat="45.20831" lon="5.72686">
        <ele>700.20001220703</ele>
        <time>2021-09-09T04:20:45.000Z</time>
      </trkpt>
      <trkpt lat="45.20831" lon="5.72681">
        <ele>699.59997558594</ele>
        <time>2021-09-09T04:20:47.000Z</time>
      </trkpt>
      <trkpt lat="45.20831" lon="5.72676">
        <ele>698.40002441406</ele>
        <time>2021-09-09T04:20:50.000Z</time>
      </trkpt>
      <trkpt lat="45.2083" lon="5.72673">
        <ele>697.79998779297</ele>
        <time>2021-09-09T04:20:52.000Z</time>
      </trkpt>
      <trkpt lat="45.20829" lon="5.7267">
        <ele>697.20001220703</ele>
        <time>2021-09-09T04:20:54.000Z</time>
      </trkpt>
      <trkpt lat="45.20828" lon="5.72668">
        <ele>697</ele>
        <time>2021-09-09T04:20:55.000Z</time>
      </trkpt>
      <trkpt lat="45.20827" lon="5.72665">
        <ele>696.40002441406</ele>
        <time>2021-09-09T04:20:57.000Z</time>
      </trkpt>
      <trkpt lat="45.20826" lon="5.72665">
        <ele>695.59997558594</ele>
        <time>2021-09-09T04:20:58.000Z</time>
      </trkpt>
      <trkpt lat="45.20825" lon="5.72665">
        <ele>695.59997558594</ele>
        <time>2021-09-09T04:21:00.000Z</time>
      </trkpt>
      <trkpt lat="45.20823" lon="5.72667">
        <ele>695.40002441406</ele>
        <time>2021-09-09T04:21:02.000Z</time>
      </trkpt>
      <trkpt lat="45.20823" lon="5.72669">
        <ele>694.79998779297</ele>
        <time>2021-09-09T04:21:04.000Z</time>
      </trkpt>
      <trkpt lat="45.2082" lon="5.72671">
        <ele>694.59997558594</ele>
        <time>2021-09-09T04:21:05.000Z</time>
      </trkpt>
      <trkpt lat="45.20819" lon="5.72671">
        <ele>694.20001220703</ele>
        <time>2021-09-09T04:21:06.000Z</time>
      </trkpt>
      <trkpt lat="45.20816" lon="5.72672">
        <ele>693.40002441406</ele>
        <time>2021-09-09T04:21:08.000Z</time>
      </trkpt>
      <trkpt lat="45.20814" lon="5.72672">
        <ele>693</ele>
        <time>2021-09-09T04:21:09.000Z</time>
      </trkpt>
      <trkpt lat="45.20809" lon="5.72673">
        <ele>692.20001220703</ele>
        <time>2021-09-09T04:21:12.000Z</time>
      </trkpt>
      <trkpt lat="45.20807" lon="5.72671">
        <ele>691.79998779297</ele>
        <time>2021-09-09T04:21:13.000Z</time>
      </trkpt>
      <trkpt lat="45.20804" lon="5.72663">
        <ele>690.79998779297</ele>
        <time>2021-09-09T04:21:16.000Z</time>
      </trkpt>
      <trkpt lat="45.20803" lon="5.72658">
        <ele>689.59997558594</ele>
        <time>2021-09-09T04:21:18.000Z</time>
      </trkpt>
      <trkpt lat="45.20803" lon="5.72655">
        <ele>688.79998779297</ele>
        <time>2021-09-09T04:21:20.000Z</time>
      </trkpt>
      <trkpt lat="45.20803" lon="5.72653">
        <ele>688.59997558594</ele>
        <time>2021-09-09T04:21:21.000Z</time>
      </trkpt>
      <trkpt lat="45.20804" lon="5.72647">
        <ele>687.59997558594</ele>
        <time>2021-09-09T04:21:24.000Z</time>
      </trkpt>
      <trkpt lat="45.20803" lon="5.72646">
        <ele>687</ele>
        <time>2021-09-09T04:21:25.000Z</time>
      </trkpt>
      <trkpt lat="45.20802" lon="5.72641">
        <ele>686.20001220703</ele>
        <time>2021-09-09T04:21:28.000Z</time>
      </trkpt>
      <trkpt lat="45.20801" lon="5.7264">
        <ele>685.59997558594</ele>
        <time>2021-09-09T04:21:29.000Z</time>
      </trkpt>
      <trkpt lat="45.20799" lon="5.72636">
        <ele>685</ele>
        <time>2021-09-09T04:21:31.000Z</time>
      </trkpt>
      <trkpt lat="45.20798" lon="5.72634">
        <ele>684.59997558594</ele>
        <time>2021-09-09T04:21:32.000Z</time>
      </trkpt>
      <trkpt lat="45.20797" lon="5.72632">
        <ele>684</ele>
        <time>2021-09-09T04:21:34.000Z</time>
      </trkpt>
      <trkpt lat="45.20797" lon="5.72632">
        <ele>683.59997558594</ele>
        <time>2021-09-09T04:21:35.000Z</time>
      </trkpt>
      <trkpt lat="45.20797" lon="5.72631">
        <ele>683.40002441406</ele>
        <time>2021-09-09T04:21:36.000Z</time>
      </trkpt>
      <trkpt lat="45.20797" lon="5.72631">
        <ele>683.20001220703</ele>
        <time>2021-09-09T04:21:37.000Z</time>
      </trkpt>
      <trkpt lat="45.20797" lon="5.72633">
        <ele>682.20001220703</ele>
        <time>2021-09-09T04:21:39.000Z</time>
      </trkpt>
      <trkpt lat="45.20797" lon="5.72635">
        <ele>682</ele>
        <time>2021-09-09T04:21:40.000Z</time>
      </trkpt>
      <trkpt lat="45.20795" lon="5.72639">
        <ele>681</ele>
        <time>2021-09-09T04:21:42.000Z</time>
      </trkpt>
      <trkpt lat="45.20793" lon="5.72642">
        <ele>679.79998779297</ele>
        <time>2021-09-09T04:21:45.000Z</time>
      </trkpt>
      <trkpt lat="45.20789" lon="5.72644">
        <ele>678.79998779297</ele>
        <time>2021-09-09T04:21:48.000Z</time>
      </trkpt>
      <trkpt lat="45.20788" lon="5.72645">
        <ele>678.59997558594</ele>
        <time>2021-09-09T04:21:49.000Z</time>
      </trkpt>
      <trkpt lat="45.20786" lon="5.72646">
        <ele>677.59997558594</ele>
        <time>2021-09-09T04:21:51.000Z</time>
      </trkpt>
      <trkpt lat="45.20783" lon="5.72648">
        <ele>677</ele>
        <time>2021-09-09T04:21:53.000Z</time>
      </trkpt>
      <trkpt lat="45.20781" lon="5.72648">
        <ele>676.20001220703</ele>
        <time>2021-09-09T04:21:55.000Z</time>
      </trkpt>
      <trkpt lat="45.20777" lon="5.72645">
        <ele>675.40002441406</ele>
        <time>2021-09-09T04:21:57.000Z</time>
      </trkpt>
      <trkpt lat="45.20776" lon="5.72643">
        <ele>675</ele>
        <time>2021-09-09T04:21:58.000Z</time>
      </trkpt>
      <trkpt lat="45.20773" lon="5.72637">
        <ele>674</ele>
        <time>2021-09-09T04:22:01.000Z</time>
      </trkpt>
      <trkpt lat="45.20772" lon="5.72634">
        <ele>673.59997558594</ele>
        <time>2021-09-09T04:22:02.000Z</time>
      </trkpt>
      <trkpt lat="45.20772" lon="5.72629">
        <ele>672.59997558594</ele>
        <time>2021-09-09T04:22:04.000Z</time>
      </trkpt>
      <trkpt lat="45.20771" lon="5.72621">
        <ele>671.40002441406</ele>
        <time>2021-09-09T04:22:07.000Z</time>
      </trkpt>
      <trkpt lat="45.20769" lon="5.72616">
        <ele>670</ele>
        <time>2021-09-09T04:22:10.000Z</time>
      </trkpt>
      <trkpt lat="45.20766" lon="5.72615">
        <ele>668.59997558594</ele>
        <time>2021-09-09T04:22:13.000Z</time>
      </trkpt>
      <trkpt lat="45.20764" lon="5.72616">
        <ele>668.20001220703</ele>
        <time>2021-09-09T04:22:14.000Z</time>
      </trkpt>
      <trkpt lat="45.20762" lon="5.72617">
        <ele>667.40002441406</ele>
        <time>2021-09-09T04:22:16.000Z</time>
      </trkpt>
      <trkpt lat="45.2076" lon="5.72617">
        <ele>666</ele>
        <time>2021-09-09T04:22:19.000Z</time>
      </trkpt>
      <trkpt lat="45.20756" lon="5.72618">
        <ele>665</ele>
        <time>2021-09-09T04:22:22.000Z</time>
      </trkpt>
      <trkpt lat="45.20754" lon="5.72618">
        <ele>664.20001220703</ele>
        <time>2021-09-09T04:22:24.000Z</time>
      </trkpt>
      <trkpt lat="45.20752" lon="5.72618">
        <ele>663.79998779297</ele>
        <time>2021-09-09T04:22:25.000Z</time>
      </trkpt>
      <trkpt lat="45.20746" lon="5.72616">
        <ele>662.59997558594</ele>
        <time>2021-09-09T04:22:28.000Z</time>
      </trkpt>
      <trkpt lat="45.20743" lon="5.72613">
        <ele>661.79998779297</ele>
        <time>2021-09-09T04:22:30.000Z</time>
      </trkpt>
      <trkpt lat="45.20742" lon="5.72611">
        <ele>661.40002441406</ele>
        <time>2021-09-09T04:22:31.000Z</time>
      </trkpt>
      <trkpt lat="45.20738" lon="5.72604">
        <ele>660.40002441406</ele>
        <time>2021-09-09T04:22:35.000Z</time>
      </trkpt>
      <trkpt lat="45.20737" lon="5.72599">
        <ele>659.40002441406</ele>
        <time>2021-09-09T04:22:37.000Z</time>
      </trkpt>
      <trkpt lat="45.20736" lon="5.72594">
        <ele>658.59997558594</ele>
        <time>2021-09-09T04:22:39.000Z</time>
      </trkpt>
      <trkpt lat="45.20735" lon="5.72593">
        <ele>658.40002441406</ele>
        <time>2021-09-09T04:22:40.000Z</time>
      </trkpt>
      <trkpt lat="45.20735" lon="5.72594">
        <ele>658</ele>
        <time>2021-09-09T04:22:41.000Z</time>
      </trkpt>
      <trkpt lat="45.20733" lon="5.72594">
        <ele>657.59997558594</ele>
        <time>2021-09-09T04:22:42.000Z</time>
      </trkpt>
      <trkpt lat="45.2073" lon="5.72592">
        <ele>656.79998779297</ele>
        <time>2021-09-09T04:22:44.000Z</time>
      </trkpt>
      <trkpt lat="45.20728" lon="5.72589">
        <ele>655.79998779297</ele>
        <time>2021-09-09T04:22:46.000Z</time>
      </trkpt>
      <trkpt lat="45.20723" lon="5.72585">
        <ele>654.40002441406</ele>
        <time>2021-09-09T04:22:49.000Z</time>
      </trkpt>
      <trkpt lat="45.2072" lon="5.72583">
        <ele>653.59997558594</ele>
        <time>2021-09-09T04:22:51.000Z</time>
      </trkpt>
      <trkpt lat="45.20718" lon="5.72583">
        <ele>653.40002441406</ele>
        <time>2021-09-09T04:22:52.000Z</time>
      </trkpt>
      <trkpt lat="45.20717" lon="5.72582">
        <ele>653.20001220703</ele>
        <time>2021-09-09T04:22:53.000Z</time>
      </trkpt>
      <trkpt lat="45.20715" lon="5.72582">
        <ele>652.20001220703</ele>
        <time>2021-09-09T04:22:55.000Z</time>
      </trkpt>
      <trkpt lat="45.20714" lon="5.72582">
        <ele>652</ele>
        <time>2021-09-09T04:22:56.000Z</time>
      </trkpt>
      <trkpt lat="45.2071" lon="5.7258">
        <ele>651.20001220703</ele>
        <time>2021-09-09T04:22:59.000Z</time>
      </trkpt>
      <trkpt lat="45.20707" lon="5.72578">
        <ele>650.20001220703</ele>
        <time>2021-09-09T04:23:02.000Z</time>
      </trkpt>
      <trkpt lat="45.20706" lon="5.72577">
        <ele>650</ele>
        <time>2021-09-09T04:23:03.000Z</time>
      </trkpt>
      <trkpt lat="45.20704" lon="5.72572">
        <ele>649</ele>
        <time>2021-09-09T04:23:06.000Z</time>
      </trkpt>
      <trkpt lat="45.20703" lon="5.72569">
        <ele>648.40002441406</ele>
        <time>2021-09-09T04:23:08.000Z</time>
      </trkpt>
      <trkpt lat="45.20701" lon="5.72569">
        <ele>648</ele>
        <time>2021-09-09T04:23:09.000Z</time>
      </trkpt>
      <trkpt lat="45.207" lon="5.7257">
        <ele>647.59997558594</ele>
        <time>2021-09-09T04:23:10.000Z</time>
      </trkpt>
      <trkpt lat="45.20695" lon="5.72571">
        <ele>646.59997558594</ele>
        <time>2021-09-09T04:23:13.000Z</time>
      </trkpt>
      <trkpt lat="45.20693" lon="5.72572">
        <ele>645.79998779297</ele>
        <time>2021-09-09T04:23:15.000Z</time>
      </trkpt>
      <trkpt lat="45.20691" lon="5.72572">
        <ele>645.40002441406</ele>
        <time>2021-09-09T04:23:16.000Z</time>
      </trkpt>
      <trkpt lat="45.20683" lon="5.72576">
        <ele>644.20001220703</ele>
        <time>2021-09-09T04:23:20.000Z</time>
      </trkpt>
      <trkpt lat="45.20679" lon="5.7258">
        <ele>643.20001220703</ele>
        <time>2021-09-09T04:23:23.000Z</time>
      </trkpt>
      <trkpt lat="45.20672" lon="5.72588">
        <ele>642.20001220703</ele>
        <time>2021-09-09T04:23:27.000Z</time>
      </trkpt>
      <trkpt lat="45.20666" lon="5.72594">
        <ele>641.20001220703</ele>
        <time>2021-09-09T04:23:30.000Z</time>
      </trkpt>
      <trkpt lat="45.20655" lon="5.72601">
        <ele>640</ele>
        <time>2021-09-09T04:23:35.000Z</time>
      </trkpt>
      <trkpt lat="45.20652" lon="5.72602">
        <ele>640</ele>
        <time>2021-09-09T04:23:36.000Z</time>
      </trkpt>
      <trkpt lat="45.20645" lon="5.72605">
        <ele>639.79998779297</ele>
        <time>2021-09-09T04:23:38.000Z</time>
      </trkpt>
      <trkpt lat="45.20639" lon="5.72606">
        <ele>639.59997558594</ele>
        <time>2021-09-09T04:23:40.000Z</time>
      </trkpt>
      <trkpt lat="45.20629" lon="5.72604">
        <ele>638.79998779297</ele>
        <time>2021-09-09T04:23:44.000Z</time>
      </trkpt>
      <trkpt lat="45.20626" lon="5.72604">
        <ele>638.59997558594</ele>
        <time>2021-09-09T04:23:45.000Z</time>
      </trkpt>
      <trkpt lat="45.20621" lon="5.72602">
        <ele>637.79998779297</ele>
        <time>2021-09-09T04:23:47.000Z</time>
      </trkpt>
      <trkpt lat="45.20611" lon="5.72594">
        <ele>636.59997558594</ele>
        <time>2021-09-09T04:23:52.000Z</time>
      </trkpt>
      <trkpt lat="45.20608" lon="5.72592">
        <ele>636.40002441406</ele>
        <time>2021-09-09T04:23:53.000Z</time>
      </trkpt>
      <trkpt lat="45.20599" lon="5.72585">
        <ele>636</ele>
        <time>2021-09-09T04:23:57.000Z</time>
      </trkpt>
      <trkpt lat="45.20595" lon="5.72582">
        <ele>635.59997558594</ele>
        <time>2021-09-09T04:23:59.000Z</time>
      </trkpt>
      <trkpt lat="45.20582" lon="5.72575">
        <ele>634.79998779297</ele>
        <time>2021-09-09T04:24:04.000Z</time>
      </trkpt>
      <trkpt lat="45.20581" lon="5.72574">
        <ele>634.40002441406</ele>
        <time>2021-09-09T04:24:05.000Z</time>
      </trkpt>
      <trkpt lat="45.20571" lon="5.72569">
        <ele>633.40002441406</ele>
        <time>2021-09-09T04:24:09.000Z</time>
      </trkpt>
      <trkpt lat="45.20569" lon="5.72568">
        <ele>633.20001220703</ele>
        <time>2021-09-09T04:24:10.000Z</time>
      </trkpt>
      <trkpt lat="45.20559" lon="5.72564">
        <ele>632.40002441406</ele>
        <time>2021-09-09T04:24:14.000Z</time>
      </trkpt>
      <trkpt lat="45.20554" lon="5.72563">
        <ele>632.20001220703</ele>
        <time>2021-09-09T04:24:16.000Z</time>
      </trkpt>
      <trkpt lat="45.20544" lon="5.72566">
        <ele>631.59997558594</ele>
        <time>2021-09-09T04:24:21.000Z</time>
      </trkpt>
      <trkpt lat="45.2053" lon="5.7257">
        <ele>631.59997558594</ele>
        <time>2021-09-09T04:24:27.000Z</time>
      </trkpt>
      <trkpt lat="45.20513" lon="5.72566">
        <ele>633.20001220703</ele>
        <time>2021-09-09T04:24:33.000Z</time>
      </trkpt>
      <trkpt lat="45.20509" lon="5.72562">
        <ele>633.40002441406</ele>
        <time>2021-09-09T04:24:35.000Z</time>
      </trkpt>
      <trkpt lat="45.205" lon="5.72551">
        <ele>633.40002441406</ele>
        <time>2021-09-09T04:24:39.000Z</time>
      </trkpt>
      <trkpt lat="45.20489" lon="5.72537">
        <ele>633.20001220703</ele>
        <time>2021-09-09T04:24:44.000Z</time>
      </trkpt>
      <trkpt lat="45.20484" lon="5.72531">
        <ele>633</ele>
        <time>2021-09-09T04:24:46.000Z</time>
      </trkpt>
      <trkpt lat="45.20479" lon="5.72514">
        <ele>632.20001220703</ele>
        <time>2021-09-09T04:24:51.000Z</time>
      </trkpt>
      <trkpt lat="45.20476" lon="5.72503">
        <ele>632</ele>
        <time>2021-09-09T04:24:54.000Z</time>
      </trkpt>
      <trkpt lat="45.20473" lon="5.72488">
        <ele>632</ele>
        <time>2021-09-09T04:24:58.000Z</time>
      </trkpt>
      <trkpt lat="45.20471" lon="5.72475">
        <ele>633.40002441406</ele>
        <time>2021-09-09T04:25:03.000Z</time>
      </trkpt>
      <trkpt lat="45.20471" lon="5.72472">
        <ele>633.59997558594</ele>
        <time>2021-09-09T04:25:04.000Z</time>
      </trkpt>
      <trkpt lat="45.20471" lon="5.72468">
        <ele>634.20001220703</ele>
        <time>2021-09-09T04:25:06.000Z</time>
      </trkpt>
      <trkpt lat="45.20471" lon="5.72467">
        <ele>634.79998779297</ele>
        <time>2021-09-09T04:25:07.000Z</time>
      </trkpt>
      <trkpt lat="45.2047" lon="5.72465">
        <ele>635.20001220703</ele>
        <time>2021-09-09T04:25:08.000Z</time>
      </trkpt>
      <trkpt lat="45.20468" lon="5.72458">
        <ele>635.79998779297</ele>
        <time>2021-09-09T04:25:11.000Z</time>
      </trkpt>
      <trkpt lat="45.20467" lon="5.72452">
        <ele>636.20001220703</ele>
        <time>2021-09-09T04:25:13.000Z</time>
      </trkpt>
      <trkpt lat="45.20466" lon="5.72449">
        <ele>636.40002441406</ele>
        <time>2021-09-09T04:25:14.000Z</time>
      </trkpt>
      <trkpt lat="45.20465" lon="5.72446">
        <ele>636.40002441406</ele>
        <time>2021-09-09T04:25:15.000Z</time>
      </trkpt>
      <trkpt lat="45.20457" lon="5.72439">
        <ele>636.59997558594</ele>
        <time>2021-09-09T04:25:19.000Z</time>
      </trkpt>
      <trkpt lat="45.20451" lon="5.72436">
        <ele>636.59997558594</ele>
        <time>2021-09-09T04:25:22.000Z</time>
      </trkpt>
      <trkpt lat="45.20446" lon="5.72435">
        <ele>636.59997558594</ele>
        <time>2021-09-09T04:25:25.000Z</time>
      </trkpt>
      <trkpt lat="45.20444" lon="5.72433">
        <ele>636.59997558594</ele>
        <time>2021-09-09T04:25:26.000Z</time>
      </trkpt>
      <trkpt lat="45.20436" lon="5.72429">
        <ele>636.40002441406</ele>
        <time>2021-09-09T04:25:31.000Z</time>
      </trkpt>
      <trkpt lat="45.20428" lon="5.7243">
        <ele>636.20001220703</ele>
        <time>2021-09-09T04:25:35.000Z</time>
      </trkpt>
      <trkpt lat="45.20425" lon="5.72428">
        <ele>636.20001220703</ele>
        <time>2021-09-09T04:25:37.000Z</time>
      </trkpt>
      <trkpt lat="45.20423" lon="5.72427">
        <ele>636.20001220703</ele>
        <time>2021-09-09T04:25:39.000Z</time>
      </trkpt>
      <trkpt lat="45.20418" lon="5.72429">
        <ele>636.79998779297</ele>
        <time>2021-09-09T04:25:42.000Z</time>
      </trkpt>
      <trkpt lat="45.20416" lon="5.72429">
        <ele>636.79998779297</ele>
        <time>2021-09-09T04:25:43.000Z</time>
      </trkpt>
      <trkpt lat="45.20401" lon="5.72431">
        <ele>637.20001220703</ele>
        <time>2021-09-09T04:25:50.000Z</time>
      </trkpt>
      <trkpt lat="45.204" lon="5.72429">
        <ele>637.20001220703</ele>
        <time>2021-09-09T04:25:51.000Z</time>
      </trkpt>
      <trkpt lat="45.20398" lon="5.72421">
        <ele>637.20001220703</ele>
        <time>2021-09-09T04:25:54.000Z</time>
      </trkpt>
      <trkpt lat="45.20397" lon="5.72417">
        <ele>637.20001220703</ele>
        <time>2021-09-09T04:25:56.000Z</time>
      </trkpt>
      <trkpt lat="45.20396" lon="5.72417">
        <ele>637.20001220703</ele>
        <time>2021-09-09T04:25:57.000Z</time>
      </trkpt>
      <trkpt lat="45.20395" lon="5.72418">
        <ele>637.20001220703</ele>
        <time>2021-09-09T04:25:59.000Z</time>
      </trkpt>
      <trkpt lat="45.20387" lon="5.72423">
        <ele>636</ele>
        <time>2021-09-09T04:26:06.000Z</time>
      </trkpt>
      <trkpt lat="45.20386" lon="5.72426">
        <ele>635.79998779297</ele>
        <time>2021-09-09T04:26:08.000Z</time>
      </trkpt>
      <trkpt lat="45.20386" lon="5.72435">
        <ele>635.40002441406</ele>
        <time>2021-09-09T04:26:11.000Z</time>
      </trkpt>
      <trkpt lat="45.20387" lon="5.72438">
        <ele>635.20001220703</ele>
        <time>2021-09-09T04:26:13.000Z</time>
      </trkpt>
      <trkpt lat="45.20389" lon="5.72439">
        <ele>635.40002441406</ele>
        <time>2021-09-09T04:26:15.000Z</time>
      </trkpt>
      <trkpt lat="45.204" lon="5.72437">
        <ele>634.59997558594</ele>
        <time>2021-09-09T04:26:22.000Z</time>
      </trkpt>
      <trkpt lat="45.20402" lon="5.72439">
        <ele>634.40002441406</ele>
        <time>2021-09-09T04:26:24.000Z</time>
      </trkpt>
      <trkpt lat="45.20402" lon="5.72441">
        <ele>634</ele>
        <time>2021-09-09T04:26:26.000Z</time>
      </trkpt>
      <trkpt lat="45.20403" lon="5.72443">
        <ele>633.59997558594</ele>
        <time>2021-09-09T04:26:28.000Z</time>
      </trkpt>
      <trkpt lat="45.20408" lon="5.72446">
        <ele>632.20001220703</ele>
        <time>2021-09-09T04:26:31.000Z</time>
      </trkpt>
      <trkpt lat="45.20417" lon="5.72455">
        <ele>631.20001220703</ele>
        <time>2021-09-09T04:26:36.000Z</time>
      </trkpt>
      <trkpt lat="45.20433" lon="5.72465">
        <ele>630.59997558594</ele>
        <time>2021-09-09T04:26:43.000Z</time>
      </trkpt>
      <trkpt lat="45.20444" lon="5.7247">
        <ele>631.40002441406</ele>
        <time>2021-09-09T04:26:49.000Z</time>
      </trkpt>
      <trkpt lat="45.20457" lon="5.72475">
        <ele>631.40002441406</ele>
        <time>2021-09-09T04:26:56.000Z</time>
      </trkpt>
      <trkpt lat="45.20465" lon="5.72478">
        <ele>631.20001220703</ele>
        <time>2021-09-09T04:27:00.000Z</time>
      </trkpt>
      <trkpt lat="45.20468" lon="5.72478">
        <ele>631.40002441406</ele>
        <time>2021-09-09T04:27:01.000Z</time>
      </trkpt>
      <trkpt lat="45.20471" lon="5.7248">
        <ele>631.20001220703</ele>
        <time>2021-09-09T04:27:02.000Z</time>
      </trkpt>
      <trkpt lat="45.20472" lon="5.72483">
        <ele>631.40002441406</ele>
        <time>2021-09-09T04:27:03.000Z</time>
      </trkpt>
      <trkpt lat="45.20478" lon="5.72495">
        <ele>631.59997558594</ele>
        <time>2021-09-09T04:27:06.000Z</time>
      </trkpt>
      <trkpt lat="45.20482" lon="5.72522">
        <ele>632</ele>
        <time>2021-09-09T04:27:12.000Z</time>
      </trkpt>
      <trkpt lat="45.20483" lon="5.72524">
        <ele>631.79998779297</ele>
        <time>2021-09-09T04:27:13.000Z</time>
      </trkpt>
      <trkpt lat="45.20485" lon="5.72533">
        <ele>631.40002441406</ele>
        <time>2021-09-09T04:27:16.000Z</time>
      </trkpt>
      <trkpt lat="45.20488" lon="5.72546">
        <ele>630.20001220703</ele>
        <time>2021-09-09T04:27:20.000Z</time>
      </trkpt>
      <trkpt lat="45.2049" lon="5.72552">
        <ele>629</ele>
        <time>2021-09-09T04:27:23.000Z</time>
      </trkpt>
      <trkpt lat="45.20488" lon="5.72564">
        <ele>628</ele>
        <time>2021-09-09T04:27:27.000Z</time>
      </trkpt>
      <trkpt lat="45.20484" lon="5.72563">
        <ele>627</ele>
        <time>2021-09-09T04:27:29.000Z</time>
      </trkpt>
      <trkpt lat="45.20481" lon="5.72562">
        <ele>626.59997558594</ele>
        <time>2021-09-09T04:27:30.000Z</time>
      </trkpt>
      <trkpt lat="45.2048" lon="5.72559">
        <ele>626.40002441406</ele>
        <time>2021-09-09T04:27:31.000Z</time>
      </trkpt>
      <trkpt lat="45.2047" lon="5.72552">
        <ele>625.59997558594</ele>
        <time>2021-09-09T04:27:35.000Z</time>
      </trkpt>
      <trkpt lat="45.20464" lon="5.72546">
        <ele>624.79998779297</ele>
        <time>2021-09-09T04:27:38.000Z</time>
      </trkpt>
      <trkpt lat="45.20461" lon="5.72545">
        <ele>624.40002441406</ele>
        <time>2021-09-09T04:27:39.000Z</time>
      </trkpt>
      <trkpt lat="45.20451" lon="5.72535">
        <ele>623.20001220703</ele>
        <time>2021-09-09T04:27:44.000Z</time>
      </trkpt>
      <trkpt lat="45.20443" lon="5.72527">
        <ele>622</ele>
        <time>2021-09-09T04:27:48.000Z</time>
      </trkpt>
      <trkpt lat="45.20439" lon="5.72525">
        <ele>621.59997558594</ele>
        <time>2021-09-09T04:27:50.000Z</time>
      </trkpt>
      <trkpt lat="45.20437" lon="5.72525">
        <ele>621.20001220703</ele>
        <time>2021-09-09T04:27:52.000Z</time>
      </trkpt>
      <trkpt lat="45.20437" lon="5.72527">
        <ele>620.79998779297</ele>
        <time>2021-09-09T04:27:53.000Z</time>
      </trkpt>
      <trkpt lat="45.20437" lon="5.72529">
        <ele>620.40002441406</ele>
        <time>2021-09-09T04:27:54.000Z</time>
      </trkpt>
      <trkpt lat="45.20441" lon="5.72536">
        <ele>619.79998779297</ele>
        <time>2021-09-09T04:27:57.000Z</time>
      </trkpt>
      <trkpt lat="45.20443" lon="5.72541">
        <ele>619.40002441406</ele>
        <time>2021-09-09T04:27:59.000Z</time>
      </trkpt>
      <trkpt lat="45.20446" lon="5.72549">
        <ele>618.59997558594</ele>
        <time>2021-09-09T04:28:02.000Z</time>
      </trkpt>
      <trkpt lat="45.2045" lon="5.72559">
        <ele>617.79998779297</ele>
        <time>2021-09-09T04:28:06.000Z</time>
      </trkpt>
      <trkpt lat="45.20451" lon="5.7256">
        <ele>617.40002441406</ele>
        <time>2021-09-09T04:28:07.000Z</time>
      </trkpt>
      <trkpt lat="45.20457" lon="5.72572">
        <ele>616.40002441406</ele>
        <time>2021-09-09T04:28:12.000Z</time>
      </trkpt>
      <trkpt lat="45.20458" lon="5.72574">
        <ele>616.20001220703</ele>
        <time>2021-09-09T04:28:13.000Z</time>
      </trkpt>
      <trkpt lat="45.20463" lon="5.72587">
        <ele>615.20001220703</ele>
        <time>2021-09-09T04:28:17.000Z</time>
      </trkpt>
      <trkpt lat="45.20469" lon="5.72597">
        <ele>614.40002441406</ele>
        <time>2021-09-09T04:28:21.000Z</time>
      </trkpt>
      <trkpt lat="45.20471" lon="5.726">
        <ele>613.79998779297</ele>
        <time>2021-09-09T04:28:22.000Z</time>
      </trkpt>
      <trkpt lat="45.20477" lon="5.72607">
        <ele>612.59997558594</ele>
        <time>2021-09-09T04:28:26.000Z</time>
      </trkpt>
      <trkpt lat="45.2048" lon="5.72611">
        <ele>612</ele>
        <time>2021-09-09T04:28:28.000Z</time>
      </trkpt>
      <trkpt lat="45.20486" lon="5.72616">
        <ele>611.20001220703</ele>
        <time>2021-09-09T04:28:31.000Z</time>
      </trkpt>
      <trkpt lat="45.20494" lon="5.72621">
        <ele>610.20001220703</ele>
        <time>2021-09-09T04:28:35.000Z</time>
      </trkpt>
      <trkpt lat="45.20505" lon="5.72625">
        <ele>609</ele>
        <time>2021-09-09T04:28:40.000Z</time>
      </trkpt>
      <trkpt lat="45.20507" lon="5.72627">
        <ele>608.79998779297</ele>
        <time>2021-09-09T04:28:41.000Z</time>
      </trkpt>
      <trkpt lat="45.20515" lon="5.72633">
        <ele>608</ele>
        <time>2021-09-09T04:28:44.000Z</time>
      </trkpt>
      <trkpt lat="45.20521" lon="5.72642">
        <ele>607.40002441406</ele>
        <time>2021-09-09T04:28:47.000Z</time>
      </trkpt>
      <trkpt lat="45.20525" lon="5.72647">
        <ele>607</ele>
        <time>2021-09-09T04:28:49.000Z</time>
      </trkpt>
      <trkpt lat="45.20534" lon="5.72659">
        <ele>605.79998779297</ele>
        <time>2021-09-09T04:28:53.000Z</time>
      </trkpt>
      <trkpt lat="45.20536" lon="5.72661">
        <ele>605.40002441406</ele>
        <time>2021-09-09T04:28:54.000Z</time>
      </trkpt>
      <trkpt lat="45.20541" lon="5.72666">
        <ele>604.59997558594</ele>
        <time>2021-09-09T04:28:56.000Z</time>
      </trkpt>
      <trkpt lat="45.2055" lon="5.72675">
        <ele>603.79998779297</ele>
        <time>2021-09-09T04:29:00.000Z</time>
      </trkpt>
      <trkpt lat="45.20553" lon="5.72677">
        <ele>603.59997558594</ele>
        <time>2021-09-09T04:29:01.000Z</time>
      </trkpt>
      <trkpt lat="45.20569" lon="5.7269">
        <ele>602.40002441406</ele>
        <time>2021-09-09T04:29:07.000Z</time>
      </trkpt>
      <trkpt lat="45.20571" lon="5.72693">
        <ele>602.40002441406</ele>
        <time>2021-09-09T04:29:08.000Z</time>
      </trkpt>
      <trkpt lat="45.20576" lon="5.72697">
        <ele>602.20001220703</ele>
        <time>2021-09-09T04:29:10.000Z</time>
      </trkpt>
      <trkpt lat="45.20578" lon="5.72705">
        <ele>602</ele>
        <time>2021-09-09T04:29:12.000Z</time>
      </trkpt>
      <trkpt lat="45.20577" lon="5.72707">
        <ele>601.79998779297</ele>
        <time>2021-09-09T04:29:13.000Z</time>
      </trkpt>
      <trkpt lat="45.20572" lon="5.7271">
        <ele>601.20001220703</ele>
        <time>2021-09-09T04:29:15.000Z</time>
      </trkpt>
      <trkpt lat="45.20562" lon="5.72707">
        <ele>600</ele>
        <time>2021-09-09T04:29:19.000Z</time>
      </trkpt>
      <trkpt lat="45.2056" lon="5.72706">
        <ele>599.59997558594</ele>
        <time>2021-09-09T04:29:20.000Z</time>
      </trkpt>
      <trkpt lat="45.20555" lon="5.72704">
        <ele>598.79998779297</ele>
        <time>2021-09-09T04:29:22.000Z</time>
      </trkpt>
      <trkpt lat="45.20548" lon="5.727">
        <ele>598.20001220703</ele>
        <time>2021-09-09T04:29:25.000Z</time>
      </trkpt>
      <trkpt lat="45.20544" lon="5.72697">
        <ele>597.59997558594</ele>
        <time>2021-09-09T04:29:27.000Z</time>
      </trkpt>
      <trkpt lat="45.20537" lon="5.72695">
        <ele>596.59997558594</ele>
        <time>2021-09-09T04:29:30.000Z</time>
      </trkpt>
      <trkpt lat="45.20528" lon="5.7269">
        <ele>595.59997558594</ele>
        <time>2021-09-09T04:29:34.000Z</time>
      </trkpt>
      <trkpt lat="45.20527" lon="5.72689">
        <ele>595.20001220703</ele>
        <time>2021-09-09T04:29:35.000Z</time>
      </trkpt>
      <trkpt lat="45.20519" lon="5.72683">
        <ele>593.79998779297</ele>
        <time>2021-09-09T04:29:39.000Z</time>
      </trkpt>
      <trkpt lat="45.2051" lon="5.72681">
        <ele>592.59997558594</ele>
        <time>2021-09-09T04:29:43.000Z</time>
      </trkpt>
      <trkpt lat="45.20505" lon="5.7268">
        <ele>592.20001220703</ele>
        <time>2021-09-09T04:29:45.000Z</time>
      </trkpt>
      <trkpt lat="45.205" lon="5.72675">
        <ele>591.20001220703</ele>
        <time>2021-09-09T04:29:48.000Z</time>
      </trkpt>
      <trkpt lat="45.20493" lon="5.72672">
        <ele>590.20001220703</ele>
        <time>2021-09-09T04:29:52.000Z</time>
      </trkpt>
      <trkpt lat="45.2049" lon="5.7267">
        <ele>590.20001220703</ele>
        <time>2021-09-09T04:29:53.000Z</time>
      </trkpt>
      <trkpt lat="45.20481" lon="5.72667">
        <ele>589</ele>
        <time>2021-09-09T04:29:57.000Z</time>
      </trkpt>
      <trkpt lat="45.20477" lon="5.72664">
        <ele>588.40002441406</ele>
        <time>2021-09-09T04:29:59.000Z</time>
      </trkpt>
      <trkpt lat="45.20473" lon="5.72662">
        <ele>587.79998779297</ele>
        <time>2021-09-09T04:30:01.000Z</time>
      </trkpt>
      <trkpt lat="45.20466" lon="5.72658">
        <ele>586.79998779297</ele>
        <time>2021-09-09T04:30:04.000Z</time>
      </trkpt>
      <trkpt lat="45.20463" lon="5.72657">
        <ele>586.79998779297</ele>
        <time>2021-09-09T04:30:05.000Z</time>
      </trkpt>
      <trkpt lat="45.20456" lon="5.72655">
        <ele>585.59997558594</ele>
        <time>2021-09-09T04:30:08.000Z</time>
      </trkpt>
      <trkpt lat="45.20454" lon="5.72654">
        <ele>585.40002441406</ele>
        <time>2021-09-09T04:30:09.000Z</time>
      </trkpt>
      <trkpt lat="45.20447" lon="5.72654">
        <ele>584.59997558594</ele>
        <time>2021-09-09T04:30:12.000Z</time>
      </trkpt>
      <trkpt lat="45.20442" lon="5.72652">
        <ele>584</ele>
        <time>2021-09-09T04:30:14.000Z</time>
      </trkpt>
      <trkpt lat="45.20435" lon="5.72645">
        <ele>583.40002441406</ele>
        <time>2021-09-09T04:30:17.000Z</time>
      </trkpt>
      <trkpt lat="45.20428" lon="5.72637">
        <ele>582.40002441406</ele>
        <time>2021-09-09T04:30:20.000Z</time>
      </trkpt>
      <trkpt lat="45.20426" lon="5.72635">
        <ele>582.20001220703</ele>
        <time>2021-09-09T04:30:21.000Z</time>
      </trkpt>
      <trkpt lat="45.20422" lon="5.72632">
        <ele>582</ele>
        <time>2021-09-09T04:30:23.000Z</time>
      </trkpt>
      <trkpt lat="45.20419" lon="5.72633">
        <ele>581.40002441406</ele>
        <time>2021-09-09T04:30:25.000Z</time>
      </trkpt>
      <trkpt lat="45.20418" lon="5.72633">
        <ele>581</ele>
        <time>2021-09-09T04:30:26.000Z</time>
      </trkpt>
      <trkpt lat="45.20418" lon="5.72635">
        <ele>580.40002441406</ele>
        <time>2021-09-09T04:30:28.000Z</time>
      </trkpt>
      <trkpt lat="45.20419" lon="5.72636">
        <ele>580</ele>
        <time>2021-09-09T04:30:29.000Z</time>
      </trkpt>
      <trkpt lat="45.20421" lon="5.72642">
        <ele>579</ele>
        <time>2021-09-09T04:30:32.000Z</time>
      </trkpt>
      <trkpt lat="45.20423" lon="5.72644">
        <ele>578.79998779297</ele>
        <time>2021-09-09T04:30:33.000Z</time>
      </trkpt>
      <trkpt lat="45.20425" lon="5.72646">
        <ele>578.59997558594</ele>
        <time>2021-09-09T04:30:34.000Z</time>
      </trkpt>
      <trkpt lat="45.2043" lon="5.72651">
        <ele>578.20001220703</ele>
        <time>2021-09-09T04:30:36.000Z</time>
      </trkpt>
      <trkpt lat="45.20431" lon="5.72652">
        <ele>577.79998779297</ele>
        <time>2021-09-09T04:30:37.000Z</time>
      </trkpt>
      <trkpt lat="45.20434" lon="5.72657">
        <ele>577.40002441406</ele>
        <time>2021-09-09T04:30:39.000Z</time>
      </trkpt>
      <trkpt lat="45.20439" lon="5.72663">
        <ele>576.59997558594</ele>
        <time>2021-09-09T04:30:42.000Z</time>
      </trkpt>
      <trkpt lat="45.20443" lon="5.72668">
        <ele>575.79998779297</ele>
        <time>2021-09-09T04:30:45.000Z</time>
      </trkpt>
      <trkpt lat="45.20444" lon="5.72668">
        <ele>575.59997558594</ele>
        <time>2021-09-09T04:30:46.000Z</time>
      </trkpt>
      <trkpt lat="45.20446" lon="5.7267">
        <ele>575.20001220703</ele>
        <time>2021-09-09T04:30:47.000Z</time>
      </trkpt>
      <trkpt lat="45.20453" lon="5.72675">
        <ele>574</ele>
        <time>2021-09-09T04:30:52.000Z</time>
      </trkpt>
      <trkpt lat="45.20455" lon="5.72676">
        <ele>573.79998779297</ele>
        <time>2021-09-09T04:30:53.000Z</time>
      </trkpt>
      <trkpt lat="45.20459" lon="5.72678">
        <ele>573.40002441406</ele>
        <time>2021-09-09T04:30:55.000Z</time>
      </trkpt>
      <trkpt lat="45.20462" lon="5.72682">
        <ele>572.59997558594</ele>
        <time>2021-09-09T04:30:57.000Z</time>
      </trkpt>
      <trkpt lat="45.20465" lon="5.72686">
        <ele>572</ele>
        <time>2021-09-09T04:30:59.000Z</time>
      </trkpt>
      <trkpt lat="45.20468" lon="5.72688">
        <ele>571.40002441406</ele>
        <time>2021-09-09T04:31:01.000Z</time>
      </trkpt>
      <trkpt lat="45.20469" lon="5.72691">
        <ele>571.20001220703</ele>
        <time>2021-09-09T04:31:02.000Z</time>
      </trkpt>
      <trkpt lat="45.20472" lon="5.72695">
        <ele>570.79998779297</ele>
        <time>2021-09-09T04:31:04.000Z</time>
      </trkpt>
      <trkpt lat="45.20478" lon="5.72699">
        <ele>570.40002441406</ele>
        <time>2021-09-09T04:31:06.000Z</time>
      </trkpt>
      <trkpt lat="45.2048" lon="5.72701">
        <ele>570.20001220703</ele>
        <time>2021-09-09T04:31:07.000Z</time>
      </trkpt>
      <trkpt lat="45.20481" lon="5.72703">
        <ele>570</ele>
        <time>2021-09-09T04:31:08.000Z</time>
      </trkpt>
      <trkpt lat="45.20484" lon="5.72708">
        <ele>569.20001220703</ele>
        <time>2021-09-09T04:31:10.000Z</time>
      </trkpt>
      <trkpt lat="45.20486" lon="5.7271">
        <ele>568.79998779297</ele>
        <time>2021-09-09T04:31:11.000Z</time>
      </trkpt>
      <trkpt lat="45.2049" lon="5.72714">
        <ele>568.59997558594</ele>
        <time>2021-09-09T04:31:13.000Z</time>
      </trkpt>
      <trkpt lat="45.20492" lon="5.72714">
        <ele>568.20001220703</ele>
        <time>2021-09-09T04:31:14.000Z</time>
      </trkpt>
      <trkpt lat="45.20494" lon="5.72716">
        <ele>568</ele>
        <time>2021-09-09T04:31:15.000Z</time>
      </trkpt>
      <trkpt lat="45.20496" lon="5.72717">
        <ele>567.59997558594</ele>
        <time>2021-09-09T04:31:16.000Z</time>
      </trkpt>
      <trkpt lat="45.20506" lon="5.72726">
        <ele>566.79998779297</ele>
        <time>2021-09-09T04:31:21.000Z</time>
      </trkpt>
      <trkpt lat="45.20508" lon="5.72728">
        <ele>566.40002441406</ele>
        <time>2021-09-09T04:31:22.000Z</time>
      </trkpt>
      <trkpt lat="45.20516" lon="5.72735">
        <ele>565.79998779297</ele>
        <time>2021-09-09T04:31:25.000Z</time>
      </trkpt>
      <trkpt lat="45.20522" lon="5.72743">
        <ele>565.40002441406</ele>
        <time>2021-09-09T04:31:28.000Z</time>
      </trkpt>
      <trkpt lat="45.20529" lon="5.72753">
        <ele>564.79998779297</ele>
        <time>2021-09-09T04:31:31.000Z</time>
      </trkpt>
      <trkpt lat="45.20539" lon="5.72764">
        <ele>564.59997558594</ele>
        <time>2021-09-09T04:31:35.000Z</time>
      </trkpt>
      <trkpt lat="45.20549" lon="5.7278">
        <ele>563.59997558594</ele>
        <time>2021-09-09T04:31:40.000Z</time>
      </trkpt>
      <trkpt lat="45.20553" lon="5.72785">
        <ele>563.59997558594</ele>
        <time>2021-09-09T04:31:42.000Z</time>
      </trkpt>
      <trkpt lat="45.20567" lon="5.72805">
        <ele>564</ele>
        <time>2021-09-09T04:31:50.000Z</time>
      </trkpt>
      <trkpt lat="45.20577" lon="5.7282">
        <ele>564.59997558594</ele>
        <time>2021-09-09T04:31:56.000Z</time>
      </trkpt>
      <trkpt lat="45.20583" lon="5.72827">
        <ele>564.79998779297</ele>
        <time>2021-09-09T04:31:58.000Z</time>
      </trkpt>
      <trkpt lat="45.20596" lon="5.72845">
        <ele>564</ele>
        <time>2021-09-09T04:32:04.000Z</time>
      </trkpt>
      <trkpt lat="45.20602" lon="5.72854">
        <ele>563.59997558594</ele>
        <time>2021-09-09T04:32:07.000Z</time>
      </trkpt>
      <trkpt lat="45.20608" lon="5.72858">
        <ele>563.20001220703</ele>
        <time>2021-09-09T04:32:09.000Z</time>
      </trkpt>
      <trkpt lat="45.20622" lon="5.7287">
        <ele>562.59997558594</ele>
        <time>2021-09-09T04:32:15.000Z</time>
      </trkpt>
      <trkpt lat="45.20634" lon="5.7288">
        <ele>563.79998779297</ele>
        <time>2021-09-09T04:32:21.000Z</time>
      </trkpt>
      <trkpt lat="45.20639" lon="5.72889">
        <ele>564</ele>
        <time>2021-09-09T04:32:24.000Z</time>
      </trkpt>
      <trkpt lat="45.20641" lon="5.72892">
        <ele>564</ele>
        <time>2021-09-09T04:32:25.000Z</time>
      </trkpt>
      <trkpt lat="45.20653" lon="5.72908">
        <ele>563.59997558594</ele>
        <time>2021-09-09T04:32:31.000Z</time>
      </trkpt>
      <trkpt lat="45.20657" lon="5.72915">
        <ele>563</ele>
        <time>2021-09-09T04:32:33.000Z</time>
      </trkpt>
      <trkpt lat="45.20661" lon="5.7292">
        <ele>562.40002441406</ele>
        <time>2021-09-09T04:32:35.000Z</time>
      </trkpt>
      <trkpt lat="45.20663" lon="5.72923">
        <ele>562.20001220703</ele>
        <time>2021-09-09T04:32:36.000Z</time>
      </trkpt>
      <trkpt lat="45.20664" lon="5.72924">
        <ele>562</ele>
        <time>2021-09-09T04:32:37.000Z</time>
      </trkpt>
      <trkpt lat="45.2067" lon="5.72928">
        <ele>561.20001220703</ele>
        <time>2021-09-09T04:32:40.000Z</time>
      </trkpt>
      <trkpt lat="45.20673" lon="5.72938">
        <ele>560.20001220703</ele>
        <time>2021-09-09T04:32:43.000Z</time>
      </trkpt>
      <trkpt lat="45.20678" lon="5.72947">
        <ele>559</ele>
        <time>2021-09-09T04:32:46.000Z</time>
      </trkpt>
      <trkpt lat="45.20691" lon="5.72954">
        <ele>558</ele>
        <time>2021-09-09T04:32:51.000Z</time>
      </trkpt>
      <trkpt lat="45.20692" lon="5.72956">
        <ele>558</ele>
        <time>2021-09-09T04:32:52.000Z</time>
      </trkpt>
      <trkpt lat="45.20706" lon="5.72969">
        <ele>557</ele>
        <time>2021-09-09T04:32:59.000Z</time>
      </trkpt>
      <trkpt lat="45.20711" lon="5.72975">
        <ele>555.59997558594</ele>
        <time>2021-09-09T04:33:03.000Z</time>
      </trkpt>
      <trkpt lat="45.20712" lon="5.72978">
        <ele>555.20001220703</ele>
        <time>2021-09-09T04:33:04.000Z</time>
      </trkpt>
      <trkpt lat="45.20714" lon="5.72985">
        <ele>555</ele>
        <time>2021-09-09T04:33:06.000Z</time>
      </trkpt>
      <trkpt lat="45.20716" lon="5.72988">
        <ele>554.79998779297</ele>
        <time>2021-09-09T04:33:07.000Z</time>
      </trkpt>
      <trkpt lat="45.20717" lon="5.7299">
        <ele>554.59997558594</ele>
        <time>2021-09-09T04:33:08.000Z</time>
      </trkpt>
      <trkpt lat="45.2072" lon="5.72994">
        <ele>553.59997558594</ele>
        <time>2021-09-09T04:33:11.000Z</time>
      </trkpt>
      <trkpt lat="45.2072" lon="5.72996">
        <ele>553.40002441406</ele>
        <time>2021-09-09T04:33:12.000Z</time>
      </trkpt>
      <trkpt lat="45.20721" lon="5.72999">
        <ele>553</ele>
        <time>2021-09-09T04:33:13.000Z</time>
      </trkpt>
      <trkpt lat="45.20724" lon="5.73005">
        <ele>552.79998779297</ele>
        <time>2021-09-09T04:33:15.000Z</time>
      </trkpt>
      <trkpt lat="45.20726" lon="5.73013">
        <ele>552</ele>
        <time>2021-09-09T04:33:17.000Z</time>
      </trkpt>
      <trkpt lat="45.20728" lon="5.73015">
        <ele>551.79998779297</ele>
        <time>2021-09-09T04:33:18.000Z</time>
      </trkpt>
      <trkpt lat="45.20734" lon="5.73019">
        <ele>551.20001220703</ele>
        <time>2021-09-09T04:33:21.000Z</time>
      </trkpt>
      <trkpt lat="45.20736" lon="5.73021">
        <ele>551.20001220703</ele>
        <time>2021-09-09T04:33:22.000Z</time>
      </trkpt>
      <trkpt lat="45.20738" lon="5.73023">
        <ele>550.79998779297</ele>
        <time>2021-09-09T04:33:23.000Z</time>
      </trkpt>
      <trkpt lat="45.20745" lon="5.7303">
        <ele>550.40002441406</ele>
        <time>2021-09-09T04:33:26.000Z</time>
      </trkpt>
      <trkpt lat="45.20753" lon="5.73037">
        <ele>550.20001220703</ele>
        <time>2021-09-09T04:33:30.000Z</time>
      </trkpt>
      <trkpt lat="45.20755" lon="5.73038">
        <ele>549.79998779297</ele>
        <time>2021-09-09T04:33:31.000Z</time>
      </trkpt>
      <trkpt lat="45.20757" lon="5.7304">
        <ele>549.79998779297</ele>
        <time>2021-09-09T04:33:32.000Z</time>
      </trkpt>
      <trkpt lat="45.20763" lon="5.73043">
        <ele>549.40002441406</ele>
        <time>2021-09-09T04:33:35.000Z</time>
      </trkpt>
      <trkpt lat="45.20764" lon="5.73045">
        <ele>549.20001220703</ele>
        <time>2021-09-09T04:33:36.000Z</time>
      </trkpt>
      <trkpt lat="45.20767" lon="5.73048">
        <ele>548.59997558594</ele>
        <time>2021-09-09T04:33:38.000Z</time>
      </trkpt>
      <trkpt lat="45.20769" lon="5.73053">
        <ele>548</ele>
        <time>2021-09-09T04:33:40.000Z</time>
      </trkpt>
      <trkpt lat="45.20771" lon="5.73055">
        <ele>547.79998779297</ele>
        <time>2021-09-09T04:33:41.000Z</time>
      </trkpt>
      <trkpt lat="45.20772" lon="5.73057">
        <ele>547.59997558594</ele>
        <time>2021-09-09T04:33:42.000Z</time>
      </trkpt>
      <trkpt lat="45.20777" lon="5.73064">
        <ele>546.79998779297</ele>
        <time>2021-09-09T04:33:45.000Z</time>
      </trkpt>
      <trkpt lat="45.20777" lon="5.73066">
        <ele>546.59997558594</ele>
        <time>2021-09-09T04:33:46.000Z</time>
      </trkpt>
      <trkpt lat="45.20777" lon="5.73068">
        <ele>546.20001220703</ele>
        <time>2021-09-09T04:33:47.000Z</time>
      </trkpt>
      <trkpt lat="45.20779" lon="5.73076">
        <ele>545</ele>
        <time>2021-09-09T04:33:50.000Z</time>
      </trkpt>
      <trkpt lat="45.20781" lon="5.7308">
        <ele>544.40002441406</ele>
        <time>2021-09-09T04:33:52.000Z</time>
      </trkpt>
      <trkpt lat="45.20781" lon="5.73087">
        <ele>543.79998779297</ele>
        <time>2021-09-09T04:33:55.000Z</time>
      </trkpt>
      <trkpt lat="45.20782" lon="5.73088">
        <ele>543.59997558594</ele>
        <time>2021-09-09T04:33:56.000Z</time>
      </trkpt>
      <trkpt lat="45.20784" lon="5.73093">
        <ele>543</ele>
        <time>2021-09-09T04:33:58.000Z</time>
      </trkpt>
      <trkpt lat="45.20785" lon="5.73095">
        <ele>542.79998779297</ele>
        <time>2021-09-09T04:33:59.000Z</time>
      </trkpt>
      <trkpt lat="45.20788" lon="5.73099">
        <ele>542</ele>
        <time>2021-09-09T04:34:02.000Z</time>
      </trkpt>
      <trkpt lat="45.20788" lon="5.73101">
        <ele>541.59997558594</ele>
        <time>2021-09-09T04:34:03.000Z</time>
      </trkpt>
      <trkpt lat="45.2079" lon="5.73103">
        <ele>541</ele>
        <time>2021-09-09T04:34:05.000Z</time>
      </trkpt>
      <trkpt lat="45.20792" lon="5.73105">
        <ele>540.59997558594</ele>
        <time>2021-09-09T04:34:06.000Z</time>
      </trkpt>
      <trkpt lat="45.20794" lon="5.7311">
        <ele>540.20001220703</ele>
        <time>2021-09-09T04:34:08.000Z</time>
      </trkpt>
      <trkpt lat="45.20795" lon="5.73112">
        <ele>539.79998779297</ele>
        <time>2021-09-09T04:34:09.000Z</time>
      </trkpt>
      <trkpt lat="45.20797" lon="5.73115">
        <ele>539.40002441406</ele>
        <time>2021-09-09T04:34:11.000Z</time>
      </trkpt>
      <trkpt lat="45.20802" lon="5.73121">
        <ele>538.40002441406</ele>
        <time>2021-09-09T04:34:15.000Z</time>
      </trkpt>
      <trkpt lat="45.20803" lon="5.73122">
        <ele>538</ele>
        <time>2021-09-09T04:34:16.000Z</time>
      </trkpt>
      <trkpt lat="45.20807" lon="5.73126">
        <ele>537</ele>
        <time>2021-09-09T04:34:19.000Z</time>
      </trkpt>
      <trkpt lat="45.20809" lon="5.73133">
        <ele>535.79998779297</ele>
        <time>2021-09-09T04:34:23.000Z</time>
      </trkpt>
      <trkpt lat="45.20815" lon="5.73143">
        <ele>534.59997558594</ele>
        <time>2021-09-09T04:34:28.000Z</time>
      </trkpt>
      <trkpt lat="45.20816" lon="5.73143">
        <ele>534.40002441406</ele>
        <time>2021-09-09T04:34:29.000Z</time>
      </trkpt>
      <trkpt lat="45.20818" lon="5.73145">
        <ele>534.40002441406</ele>
        <time>2021-09-09T04:34:30.000Z</time>
      </trkpt>
      <trkpt lat="45.20822" lon="5.7315">
        <ele>533.79998779297</ele>
        <time>2021-09-09T04:34:33.000Z</time>
      </trkpt>
      <trkpt lat="45.20824" lon="5.73155">
        <ele>533.40002441406</ele>
        <time>2021-09-09T04:34:36.000Z</time>
      </trkpt>
      <trkpt lat="45.20825" lon="5.73159">
        <ele>532.79998779297</ele>
        <time>2021-09-09T04:34:38.000Z</time>
      </trkpt>
      <trkpt lat="45.20828" lon="5.73161">
        <ele>532.40002441406</ele>
        <time>2021-09-09T04:34:40.000Z</time>
      </trkpt>
      <trkpt lat="45.20829" lon="5.73162">
        <ele>532.20001220703</ele>
        <time>2021-09-09T04:34:41.000Z</time>
      </trkpt>
      <trkpt lat="45.20831" lon="5.73166">
        <ele>531.40002441406</ele>
        <time>2021-09-09T04:34:43.000Z</time>
      </trkpt>
      <trkpt lat="45.20832" lon="5.73167">
        <ele>531.20001220703</ele>
        <time>2021-09-09T04:34:44.000Z</time>
      </trkpt>
      <trkpt lat="45.20832" lon="5.73169">
        <ele>531</ele>
        <time>2021-09-09T04:34:45.000Z</time>
      </trkpt>
      <trkpt lat="45.20833" lon="5.7317">
        <ele>530.59997558594</ele>
        <time>2021-09-09T04:34:46.000Z</time>
      </trkpt>
      <trkpt lat="45.20833" lon="5.73171">
        <ele>530.40002441406</ele>
        <time>2021-09-09T04:34:47.000Z</time>
      </trkpt>
      <trkpt lat="45.20835" lon="5.73174">
        <ele>530.20001220703</ele>
        <time>2021-09-09T04:34:49.000Z</time>
      </trkpt>
      <trkpt lat="45.20839" lon="5.73182">
        <ele>528.79998779297</ele>
        <time>2021-09-09T04:34:53.000Z</time>
      </trkpt>
      <trkpt lat="45.20841" lon="5.73191">
        <ele>527.59997558594</ele>
        <time>2021-09-09T04:34:56.000Z</time>
      </trkpt>
      <trkpt lat="45.20847" lon="5.73201">
        <ele>526.40002441406</ele>
        <time>2021-09-09T04:35:00.000Z</time>
      </trkpt>
      <trkpt lat="45.20852" lon="5.7321">
        <ele>525.79998779297</ele>
        <time>2021-09-09T04:35:03.000Z</time>
      </trkpt>
      <trkpt lat="45.20857" lon="5.73219">
        <ele>525.40002441406</ele>
        <time>2021-09-09T04:35:06.000Z</time>
      </trkpt>
      <trkpt lat="45.20861" lon="5.73228">
        <ele>524.79998779297</ele>
        <time>2021-09-09T04:35:09.000Z</time>
      </trkpt>
      <trkpt lat="45.20862" lon="5.73234">
        <ele>524.40002441406</ele>
        <time>2021-09-09T04:35:11.000Z</time>
      </trkpt>
      <trkpt lat="45.20864" lon="5.73237">
        <ele>524</ele>
        <time>2021-09-09T04:35:12.000Z</time>
      </trkpt>
      <trkpt lat="45.2087" lon="5.73247">
        <ele>523.59997558594</ele>
        <time>2021-09-09T04:35:16.000Z</time>
      </trkpt>
      <trkpt lat="45.20873" lon="5.73252">
        <ele>523.59997558594</ele>
        <time>2021-09-09T04:35:18.000Z</time>
      </trkpt>
      <trkpt lat="45.20873" lon="5.73255">
        <ele>523.79998779297</ele>
        <time>2021-09-09T04:35:19.000Z</time>
      </trkpt>
      <trkpt lat="45.20876" lon="5.73262">
        <ele>524.20001220703</ele>
        <time>2021-09-09T04:35:23.000Z</time>
      </trkpt>
      <trkpt lat="45.20881" lon="5.73267">
        <ele>525.20001220703</ele>
        <time>2021-09-09T04:35:29.000Z</time>
      </trkpt>
      <trkpt lat="45.20884" lon="5.73268">
        <ele>525.59997558594</ele>
        <time>2021-09-09T04:35:32.000Z</time>
      </trkpt>
      <trkpt lat="45.20885" lon="5.73269">
        <ele>525.79998779297</ele>
        <time>2021-09-09T04:35:34.000Z</time>
      </trkpt>
      <trkpt lat="45.20885" lon="5.7327">
        <ele>526</ele>
        <time>2021-09-09T04:35:35.000Z</time>
      </trkpt>
      <trkpt lat="45.20886" lon="5.7327">
        <ele>526.40002441406</ele>
        <time>2021-09-09T04:35:36.000Z</time>
      </trkpt>
      <trkpt lat="45.20887" lon="5.73271">
        <ele>526.79998779297</ele>
        <time>2021-09-09T04:35:37.000Z</time>
      </trkpt>
      <trkpt lat="45.20888" lon="5.73272">
        <ele>527.40002441406</ele>
        <time>2021-09-09T04:35:39.000Z</time>
      </trkpt>
      <trkpt lat="45.2089" lon="5.73273">
        <ele>528</ele>
        <time>2021-09-09T04:35:41.000Z</time>
      </trkpt>
      <trkpt lat="45.20891" lon="5.73273">
        <ele>528.20001220703</ele>
        <time>2021-09-09T04:35:42.000Z</time>
      </trkpt>
      <trkpt lat="45.20893" lon="5.73271">
        <ele>529.40002441406</ele>
        <time>2021-09-09T04:35:45.000Z</time>
      </trkpt>
      <trkpt lat="45.20893" lon="5.73271">
        <ele>529.59997558594</ele>
        <time>2021-09-09T04:35:46.000Z</time>
      </trkpt>
      <trkpt lat="45.20893" lon="5.73271">
        <ele>530</ele>
        <time>2021-09-09T04:35:48.000Z</time>
      </trkpt>
      <trkpt lat="45.20892" lon="5.73271">
        <ele>530.59997558594</ele>
        <time>2021-09-09T04:35:49.000Z</time>
      </trkpt>
      <trkpt lat="45.20895" lon="5.73267">
        <ele>531.59997558594</ele>
        <time>2021-09-09T04:35:53.000Z</time>
      </trkpt>
      <trkpt lat="45.20896" lon="5.73265">
        <ele>533</ele>
        <time>2021-09-09T04:35:56.000Z</time>
      </trkpt>
      <trkpt lat="45.20897" lon="5.73264">
        <ele>533.79998779297</ele>
        <time>2021-09-09T04:35:58.000Z</time>
      </trkpt>
      <trkpt lat="45.20897" lon="5.73263">
        <ele>534.20001220703</ele>
        <time>2021-09-09T04:35:59.000Z</time>
      </trkpt>
      <trkpt lat="45.20898" lon="5.73263">
        <ele>534.40002441406</ele>
        <time>2021-09-09T04:36:00.000Z</time>
      </trkpt>
      <trkpt lat="45.20898" lon="5.73262">
        <ele>535.20001220703</ele>
        <time>2021-09-09T04:36:02.000Z</time>
      </trkpt>
      <trkpt lat="45.20898" lon="5.73262">
        <ele>535.40002441406</ele>
        <time>2021-09-09T04:36:03.000Z</time>
      </trkpt>
      <trkpt lat="45.20898" lon="5.73261">
        <ele>536.20001220703</ele>
        <time>2021-09-09T04:36:05.000Z</time>
      </trkpt>
      <trkpt lat="45.20899" lon="5.7326">
        <ele>536.59997558594</ele>
        <time>2021-09-09T04:36:07.000Z</time>
      </trkpt>
      <trkpt lat="45.20899" lon="5.73259">
        <ele>537.20001220703</ele>
        <time>2021-09-09T04:36:09.000Z</time>
      </trkpt>
      <trkpt lat="45.20899" lon="5.73259">
        <ele>537.79998779297</ele>
        <time>2021-09-09T04:36:10.000Z</time>
      </trkpt>
      <trkpt lat="45.20899" lon="5.73258">
        <ele>538.40002441406</ele>
        <time>2021-09-09T04:36:11.000Z</time>
      </trkpt>
      <trkpt lat="45.20901" lon="5.73257">
        <ele>539.20001220703</ele>
        <time>2021-09-09T04:36:13.000Z</time>
      </trkpt>
      <trkpt lat="45.20901" lon="5.73256">
        <ele>539.79998779297</ele>
        <time>2021-09-09T04:36:15.000Z</time>
      </trkpt>
      <trkpt lat="45.20903" lon="5.73254">
        <ele>540.20001220703</ele>
        <time>2021-09-09T04:36:17.000Z</time>
      </trkpt>
      <trkpt lat="45.20909" lon="5.73256">
        <ele>540.59997558594</ele>
        <time>2021-09-09T04:36:20.000Z</time>
      </trkpt>
      <trkpt lat="45.20912" lon="5.73259">
        <ele>540.59997558594</ele>
        <time>2021-09-09T04:36:22.000Z</time>
      </trkpt>
      <trkpt lat="45.20918" lon="5.73263">
        <ele>539.20001220703</ele>
        <time>2021-09-09T04:36:27.000Z</time>
      </trkpt>
      <trkpt lat="45.2092" lon="5.73265">
        <ele>538.20001220703</ele>
        <time>2021-09-09T04:36:29.000Z</time>
      </trkpt>
      <trkpt lat="45.20922" lon="5.73267">
        <ele>538</ele>
        <time>2021-09-09T04:36:30.000Z</time>
      </trkpt>
      <trkpt lat="45.20928" lon="5.73271">
        <ele>537</ele>
        <time>2021-09-09T04:36:33.000Z</time>
      </trkpt>
      <trkpt lat="45.2093" lon="5.73273">
        <ele>536.59997558594</ele>
        <time>2021-09-09T04:36:34.000Z</time>
      </trkpt>
      <trkpt lat="45.20933" lon="5.73274">
        <ele>536</ele>
        <time>2021-09-09T04:36:35.000Z</time>
      </trkpt>
      <trkpt lat="45.20936" lon="5.73276">
        <ele>535.40002441406</ele>
        <time>2021-09-09T04:36:37.000Z</time>
      </trkpt>
      <trkpt lat="45.20945" lon="5.73281">
        <ele>534.40002441406</ele>
        <time>2021-09-09T04:36:42.000Z</time>
      </trkpt>
      <trkpt lat="45.20946" lon="5.73281">
        <ele>534.20001220703</ele>
        <time>2021-09-09T04:36:43.000Z</time>
      </trkpt>
      <trkpt lat="45.20947" lon="5.7328">
        <ele>533.79998779297</ele>
        <time>2021-09-09T04:36:44.000Z</time>
      </trkpt>
      <trkpt lat="45.20951" lon="5.7328">
        <ele>533.20001220703</ele>
        <time>2021-09-09T04:36:46.000Z</time>
      </trkpt>
      <trkpt lat="45.20956" lon="5.73283">
        <ele>532</ele>
        <time>2021-09-09T04:36:49.000Z</time>
      </trkpt>
      <trkpt lat="45.20957" lon="5.73283">
        <ele>531.59997558594</ele>
        <time>2021-09-09T04:36:50.000Z</time>
      </trkpt>
      <trkpt lat="45.2096" lon="5.73284">
        <ele>530.79998779297</ele>
        <time>2021-09-09T04:36:52.000Z</time>
      </trkpt>
      <trkpt lat="45.20967" lon="5.73289">
        <ele>529.40002441406</ele>
        <time>2021-09-09T04:36:57.000Z</time>
      </trkpt>
      <trkpt lat="45.2097" lon="5.73289">
        <ele>528.79998779297</ele>
        <time>2021-09-09T04:36:59.000Z</time>
      </trkpt>
      <trkpt lat="45.20972" lon="5.73292">
        <ele>528.40002441406</ele>
        <time>2021-09-09T04:37:01.000Z</time>
      </trkpt>
      <trkpt lat="45.20975" lon="5.73293">
        <ele>527.79998779297</ele>
        <time>2021-09-09T04:37:03.000Z</time>
      </trkpt>
      <trkpt lat="45.20978" lon="5.73293">
        <ele>527.20001220703</ele>
        <time>2021-09-09T04:37:05.000Z</time>
      </trkpt>
      <trkpt lat="45.20981" lon="5.73294">
        <ele>526.59997558594</ele>
        <time>2021-09-09T04:37:07.000Z</time>
      </trkpt>
      <trkpt lat="45.20982" lon="5.73294">
        <ele>526.40002441406</ele>
        <time>2021-09-09T04:37:08.000Z</time>
      </trkpt>
      <trkpt lat="45.20981" lon="5.73295">
        <ele>526.20001220703</ele>
        <time>2021-09-09T04:37:09.000Z</time>
      </trkpt>
      <trkpt lat="45.20977" lon="5.73297">
        <ele>525.40002441406</ele>
        <time>2021-09-09T04:37:12.000Z</time>
      </trkpt>
      <trkpt lat="45.20975" lon="5.73298">
        <ele>525</ele>
        <time>2021-09-09T04:37:13.000Z</time>
      </trkpt>
      <trkpt lat="45.20974" lon="5.73299">
        <ele>524.59997558594</ele>
        <time>2021-09-09T04:37:14.000Z</time>
      </trkpt>
      <trkpt lat="45.20971" lon="5.73298">
        <ele>524</ele>
        <time>2021-09-09T04:37:16.000Z</time>
      </trkpt>
      <trkpt lat="45.2097" lon="5.73298">
        <ele>523.79998779297</ele>
        <time>2021-09-09T04:37:17.000Z</time>
      </trkpt>
      <trkpt lat="45.20964" lon="5.73299">
        <ele>522.59997558594</ele>
        <time>2021-09-09T04:37:20.000Z</time>
      </trkpt>
      <trkpt lat="45.20959" lon="5.73304">
        <ele>521.59997558594</ele>
        <time>2021-09-09T04:37:23.000Z</time>
      </trkpt>
      <trkpt lat="45.20958" lon="5.73306">
        <ele>521.20001220703</ele>
        <time>2021-09-09T04:37:24.000Z</time>
      </trkpt>
      <trkpt lat="45.20956" lon="5.73309">
        <ele>520.79998779297</ele>
        <time>2021-09-09T04:37:26.000Z</time>
      </trkpt>
      <trkpt lat="45.20952" lon="5.7331">
        <ele>520</ele>
        <time>2021-09-09T04:37:28.000Z</time>
      </trkpt>
      <trkpt lat="45.20951" lon="5.73312">
        <ele>519.79998779297</ele>
        <time>2021-09-09T04:37:29.000Z</time>
      </trkpt>
      <trkpt lat="45.20946" lon="5.73314">
        <ele>518.79998779297</ele>
        <time>2021-09-09T04:37:32.000Z</time>
      </trkpt>
      <trkpt lat="45.20943" lon="5.73314">
        <ele>518.20001220703</ele>
        <time>2021-09-09T04:37:34.000Z</time>
      </trkpt>
      <trkpt lat="45.20939" lon="5.73313">
        <ele>517.40002441406</ele>
        <time>2021-09-09T04:37:36.000Z</time>
      </trkpt>
      <trkpt lat="45.20931" lon="5.73312">
        <ele>516.79998779297</ele>
        <time>2021-09-09T04:37:39.000Z</time>
      </trkpt>
      <trkpt lat="45.20928" lon="5.73312">
        <ele>516.40002441406</ele>
        <time>2021-09-09T04:37:40.000Z</time>
      </trkpt>
      <trkpt lat="45.20926" lon="5.73312">
        <ele>516</ele>
        <time>2021-09-09T04:37:41.000Z</time>
      </trkpt>
      <trkpt lat="45.20919" lon="5.7331">
        <ele>515.20001220703</ele>
        <time>2021-09-09T04:37:44.000Z</time>
      </trkpt>
      <trkpt lat="45.20914" lon="5.7331">
        <ele>514.40002441406</ele>
        <time>2021-09-09T04:37:46.000Z</time>
      </trkpt>
      <trkpt lat="45.20912" lon="5.7331">
        <ele>514.20001220703</ele>
        <time>2021-09-09T04:37:47.000Z</time>
      </trkpt>
      <trkpt lat="45.20909" lon="5.73311">
        <ele>513</ele>
        <time>2021-09-09T04:37:49.000Z</time>
      </trkpt>
      <trkpt lat="45.20902" lon="5.73312">
        <ele>512.20001220703</ele>
        <time>2021-09-09T04:37:52.000Z</time>
      </trkpt>
      <trkpt lat="45.20899" lon="5.73313">
        <ele>511.79998779297</ele>
        <time>2021-09-09T04:37:53.000Z</time>
      </trkpt>
      <trkpt lat="45.20895" lon="5.73314">
        <ele>510.60000610352</ele>
        <time>2021-09-09T04:37:56.000Z</time>
      </trkpt>
      <trkpt lat="45.20893" lon="5.73314">
        <ele>510.39999389648</ele>
        <time>2021-09-09T04:37:57.000Z</time>
      </trkpt>
      <trkpt lat="45.20889" lon="5.73315">
        <ele>509.60000610352</ele>
        <time>2021-09-09T04:38:00.000Z</time>
      </trkpt>
      <trkpt lat="45.20886" lon="5.73317">
        <ele>509</ele>
        <time>2021-09-09T04:38:02.000Z</time>
      </trkpt>
      <trkpt lat="45.20882" lon="5.73321">
        <ele>508.39999389648</ele>
        <time>2021-09-09T04:38:04.000Z</time>
      </trkpt>
      <trkpt lat="45.20874" lon="5.73324">
        <ele>507.20001220703</ele>
        <time>2021-09-09T04:38:08.000Z</time>
      </trkpt>
      <trkpt lat="45.20872" lon="5.73323">
        <ele>506.79998779297</ele>
        <time>2021-09-09T04:38:09.000Z</time>
      </trkpt>
      <trkpt lat="45.20866" lon="5.73322">
        <ele>506.20001220703</ele>
        <time>2021-09-09T04:38:12.000Z</time>
      </trkpt>
      <trkpt lat="45.20863" lon="5.73321">
        <ele>505.39999389648</ele>
        <time>2021-09-09T04:38:13.000Z</time>
      </trkpt>
      <trkpt lat="45.2086" lon="5.7332">
        <ele>504.79998779297</ele>
        <time>2021-09-09T04:38:15.000Z</time>
      </trkpt>
      <trkpt lat="45.20858" lon="5.73319">
        <ele>504.39999389648</ele>
        <time>2021-09-09T04:38:16.000Z</time>
      </trkpt>
      <trkpt lat="45.20854" lon="5.73314">
        <ele>503.39999389648</ele>
        <time>2021-09-09T04:38:19.000Z</time>
      </trkpt>
      <trkpt lat="45.20853" lon="5.73312">
        <ele>503.20001220703</ele>
        <time>2021-09-09T04:38:20.000Z</time>
      </trkpt>
      <trkpt lat="45.20851" lon="5.73302">
        <ele>503.39999389648</ele>
        <time>2021-09-09T04:38:24.000Z</time>
      </trkpt>
      <trkpt lat="45.2085" lon="5.73301">
        <ele>503.39999389648</ele>
        <time>2021-09-09T04:38:25.000Z</time>
      </trkpt>
      <trkpt lat="45.20849" lon="5.73299">
        <ele>503.39999389648</ele>
        <time>2021-09-09T04:38:26.000Z</time>
      </trkpt>
      <trkpt lat="45.20841" lon="5.73286">
        <ele>503.39999389648</ele>
        <time>2021-09-09T04:38:31.000Z</time>
      </trkpt>
      <trkpt lat="45.20832" lon="5.73268">
        <ele>503.79998779297</ele>
        <time>2021-09-09T04:38:37.000Z</time>
      </trkpt>
      <trkpt lat="45.20829" lon="5.7326">
        <ele>504</ele>
        <time>2021-09-09T04:38:40.000Z</time>
      </trkpt>
      <trkpt lat="45.20824" lon="5.73251">
        <ele>504.39999389648</ele>
        <time>2021-09-09T04:38:43.000Z</time>
      </trkpt>
      <trkpt lat="45.20821" lon="5.73246">
        <ele>505</ele>
        <time>2021-09-09T04:38:46.000Z</time>
      </trkpt>
      <trkpt lat="45.20819" lon="5.73241">
        <ele>505.60000610352</ele>
        <time>2021-09-09T04:38:48.000Z</time>
      </trkpt>
      <trkpt lat="45.20815" lon="5.73232">
        <ele>506.60000610352</ele>
        <time>2021-09-09T04:38:53.000Z</time>
      </trkpt>
      <trkpt lat="45.20814" lon="5.7323">
        <ele>506.79998779297</ele>
        <time>2021-09-09T04:38:54.000Z</time>
      </trkpt>
      <trkpt lat="45.2081" lon="5.73222">
        <ele>507.79998779297</ele>
        <time>2021-09-09T04:38:59.000Z</time>
      </trkpt>
      <trkpt lat="45.20808" lon="5.7322">
        <ele>508</ele>
        <time>2021-09-09T04:39:00.000Z</time>
      </trkpt>
      <trkpt lat="45.20803" lon="5.73211">
        <ele>508.39999389648</ele>
        <time>2021-09-09T04:39:04.000Z</time>
      </trkpt>
      <trkpt lat="45.20801" lon="5.73206">
        <ele>508.79998779297</ele>
        <time>2021-09-09T04:39:06.000Z</time>
      </trkpt>
      <trkpt lat="45.208" lon="5.73204">
        <ele>509</ele>
        <time>2021-09-09T04:39:07.000Z</time>
      </trkpt>
      <trkpt lat="45.20798" lon="5.732">
        <ele>509.39999389648</ele>
        <time>2021-09-09T04:39:09.000Z</time>
      </trkpt>
      <trkpt lat="45.20795" lon="5.73193">
        <ele>510</ele>
        <time>2021-09-09T04:39:12.000Z</time>
      </trkpt>
      <trkpt lat="45.20792" lon="5.73187">
        <ele>510.79998779297</ele>
        <time>2021-09-09T04:39:15.000Z</time>
      </trkpt>
      <trkpt lat="45.20791" lon="5.73183">
        <ele>511.20001220703</ele>
        <time>2021-09-09T04:39:17.000Z</time>
      </trkpt>
      <trkpt lat="45.2079" lon="5.7318">
        <ele>511.60000610352</ele>
        <time>2021-09-09T04:39:18.000Z</time>
      </trkpt>
      <trkpt lat="45.20789" lon="5.73176">
        <ele>512.20001220703</ele>
        <time>2021-09-09T04:39:20.000Z</time>
      </trkpt>
      <trkpt lat="45.20787" lon="5.73169">
        <ele>513.40002441406</ele>
        <time>2021-09-09T04:39:24.000Z</time>
      </trkpt>
      <trkpt lat="45.20786" lon="5.73165">
        <ele>514.59997558594</ele>
        <time>2021-09-09T04:39:26.000Z</time>
      </trkpt>
      <trkpt lat="45.20785" lon="5.73161">
        <ele>515.59997558594</ele>
        <time>2021-09-09T04:39:29.000Z</time>
      </trkpt>
      <trkpt lat="45.20784" lon="5.73156">
        <ele>516.79998779297</ele>
        <time>2021-09-09T04:39:32.000Z</time>
      </trkpt>
      <trkpt lat="45.20781" lon="5.73151">
        <ele>517.79998779297</ele>
        <time>2021-09-09T04:39:35.000Z</time>
      </trkpt>
      <trkpt lat="45.20779" lon="5.73147">
        <ele>518</ele>
        <time>2021-09-09T04:39:37.000Z</time>
      </trkpt>
      <trkpt lat="45.20774" lon="5.73143">
        <ele>518.79998779297</ele>
        <time>2021-09-09T04:39:41.000Z</time>
      </trkpt>
      <trkpt lat="45.20772" lon="5.73142">
        <ele>519.20001220703</ele>
        <time>2021-09-09T04:39:42.000Z</time>
      </trkpt>
      <trkpt lat="45.20768" lon="5.73137">
        <ele>520</ele>
        <time>2021-09-09T04:39:46.000Z</time>
      </trkpt>
      <trkpt lat="45.20767" lon="5.73136">
        <ele>520.20001220703</ele>
        <time>2021-09-09T04:39:47.000Z</time>
      </trkpt>
      <trkpt lat="45.2076" lon="5.73125">
        <ele>520.79998779297</ele>
        <time>2021-09-09T04:39:54.000Z</time>
      </trkpt>
      <trkpt lat="45.20756" lon="5.7312">
        <ele>521</ele>
        <time>2021-09-09T04:39:57.000Z</time>
      </trkpt>
      <trkpt lat="45.20751" lon="5.73114">
        <ele>521.20001220703</ele>
        <time>2021-09-09T04:40:01.000Z</time>
      </trkpt>
      <trkpt lat="45.20748" lon="5.73108">
        <ele>521.40002441406</ele>
        <time>2021-09-09T04:40:04.000Z</time>
      </trkpt>
      <trkpt lat="45.20745" lon="5.73105">
        <ele>521.40002441406</ele>
        <time>2021-09-09T04:40:06.000Z</time>
      </trkpt>
      <trkpt lat="45.20744" lon="5.73103">
        <ele>521.20001220703</ele>
        <time>2021-09-09T04:40:07.000Z</time>
      </trkpt>
      <trkpt lat="45.20737" lon="5.73093">
        <ele>520.59997558594</ele>
        <time>2021-09-09T04:40:13.000Z</time>
      </trkpt>
      <trkpt lat="45.20733" lon="5.73085">
        <ele>520.79998779297</ele>
        <time>2021-09-09T04:40:17.000Z</time>
      </trkpt>
      <trkpt lat="45.20726" lon="5.73078">
        <ele>521</ele>
        <time>2021-09-09T04:40:21.000Z</time>
      </trkpt>
      <trkpt lat="45.20719" lon="5.73075">
        <ele>521.40002441406</ele>
        <time>2021-09-09T04:40:25.000Z</time>
      </trkpt>
      <trkpt lat="45.20717" lon="5.73073">
        <ele>521.59997558594</ele>
        <time>2021-09-09T04:40:26.000Z</time>
      </trkpt>
      <trkpt lat="45.20716" lon="5.73071">
        <ele>521.59997558594</ele>
        <time>2021-09-09T04:40:27.000Z</time>
      </trkpt>
      <trkpt lat="45.20712" lon="5.73068">
        <ele>521.59997558594</ele>
        <time>2021-09-09T04:40:29.000Z</time>
      </trkpt>
      <trkpt lat="45.20708" lon="5.73067">
        <ele>521.59997558594</ele>
        <time>2021-09-09T04:40:31.000Z</time>
      </trkpt>
      <trkpt lat="45.20703" lon="5.73063">
        <ele>521.40002441406</ele>
        <time>2021-09-09T04:40:34.000Z</time>
      </trkpt>
      <trkpt lat="45.20694" lon="5.73053">
        <ele>520.40002441406</ele>
        <time>2021-09-09T04:40:40.000Z</time>
      </trkpt>
      <trkpt lat="45.20685" lon="5.73045">
        <ele>519.59997558594</ele>
        <time>2021-09-09T04:40:45.000Z</time>
      </trkpt>
      <trkpt lat="45.20683" lon="5.73043">
        <ele>519.40002441406</ele>
        <time>2021-09-09T04:40:46.000Z</time>
      </trkpt>
      <trkpt lat="45.20672" lon="5.73033">
        <ele>518.40002441406</ele>
        <time>2021-09-09T04:40:51.000Z</time>
      </trkpt>
      <trkpt lat="45.2067" lon="5.73032">
        <ele>518.20001220703</ele>
        <time>2021-09-09T04:40:52.000Z</time>
      </trkpt>
      <trkpt lat="45.20659" lon="5.73019">
        <ele>518.20001220703</ele>
        <time>2021-09-09T04:40:58.000Z</time>
      </trkpt>
      <trkpt lat="45.20645" lon="5.73003">
        <ele>518.20001220703</ele>
        <time>2021-09-09T04:41:06.000Z</time>
      </trkpt>
      <trkpt lat="45.2064" lon="5.72996">
        <ele>518.20001220703</ele>
        <time>2021-09-09T04:41:11.000Z</time>
      </trkpt>
      <trkpt lat="45.20628" lon="5.72987">
        <ele>517.79998779297</ele>
        <time>2021-09-09T04:41:19.000Z</time>
      </trkpt>
      <trkpt lat="45.20615" lon="5.72972">
        <ele>517.59997558594</ele>
        <time>2021-09-09T04:41:27.000Z</time>
      </trkpt>
      <trkpt lat="45.20611" lon="5.72968">
        <ele>517.40002441406</ele>
        <time>2021-09-09T04:41:29.000Z</time>
      </trkpt>
      <trkpt lat="45.20607" lon="5.72965">
        <ele>517.20001220703</ele>
        <time>2021-09-09T04:41:31.000Z</time>
      </trkpt>
      <trkpt lat="45.20604" lon="5.72962">
        <ele>517.20001220703</ele>
        <time>2021-09-09T04:41:33.000Z</time>
      </trkpt>
      <trkpt lat="45.20591" lon="5.72952">
        <ele>517.79998779297</ele>
        <time>2021-09-09T04:41:40.000Z</time>
      </trkpt>
      <trkpt lat="45.20581" lon="5.72946">
        <ele>518</ele>
        <time>2021-09-09T04:41:45.000Z</time>
      </trkpt>
      <trkpt lat="45.20577" lon="5.72943">
        <ele>518.20001220703</ele>
        <time>2021-09-09T04:41:47.000Z</time>
      </trkpt>
      <trkpt lat="45.20565" lon="5.72936">
        <ele>518.20001220703</ele>
        <time>2021-09-09T04:41:53.000Z</time>
      </trkpt>
      <trkpt lat="45.20563" lon="5.72936">
        <ele>518.40002441406</ele>
        <time>2021-09-09T04:41:54.000Z</time>
      </trkpt>
      <trkpt lat="45.20554" lon="5.72934">
        <ele>518.20001220703</ele>
        <time>2021-09-09T04:41:58.000Z</time>
      </trkpt>
      <trkpt lat="45.20552" lon="5.72931">
        <ele>518.40002441406</ele>
        <time>2021-09-09T04:41:59.000Z</time>
      </trkpt>
      <trkpt lat="45.20551" lon="5.72929">
        <ele>518.59997558594</ele>
        <time>2021-09-09T04:42:00.000Z</time>
      </trkpt>
      <trkpt lat="45.20548" lon="5.72923">
        <ele>518.79998779297</ele>
        <time>2021-09-09T04:42:02.000Z</time>
      </trkpt>
      <trkpt lat="45.2054" lon="5.72918">
        <ele>519.40002441406</ele>
        <time>2021-09-09T04:42:06.000Z</time>
      </trkpt>
      <trkpt lat="45.20529" lon="5.72909">
        <ele>519.40002441406</ele>
        <time>2021-09-09T04:42:11.000Z</time>
      </trkpt>
      <trkpt lat="45.20525" lon="5.72906">
        <ele>519.59997558594</ele>
        <time>2021-09-09T04:42:13.000Z</time>
      </trkpt>
      <trkpt lat="45.20516" lon="5.72896">
        <ele>520.59997558594</ele>
        <time>2021-09-09T04:42:19.000Z</time>
      </trkpt>
      <trkpt lat="45.2051" lon="5.72886">
        <ele>521.79998779297</ele>
        <time>2021-09-09T04:42:24.000Z</time>
      </trkpt>
      <trkpt lat="45.20509" lon="5.72885">
        <ele>522</ele>
        <time>2021-09-09T04:42:25.000Z</time>
      </trkpt>
      <trkpt lat="45.20499" lon="5.72877">
        <ele>522.79998779297</ele>
        <time>2021-09-09T04:42:31.000Z</time>
      </trkpt>
      <trkpt lat="45.20497" lon="5.72875">
        <ele>523</ele>
        <time>2021-09-09T04:42:32.000Z</time>
      </trkpt>
      <trkpt lat="45.20482" lon="5.72865">
        <ele>523.40002441406</ele>
        <time>2021-09-09T04:42:39.000Z</time>
      </trkpt>
      <trkpt lat="45.2047" lon="5.72855">
        <ele>523.20001220703</ele>
        <time>2021-09-09T04:42:44.000Z</time>
      </trkpt>
      <trkpt lat="45.20458" lon="5.72843">
        <ele>522</ele>
        <time>2021-09-09T04:42:49.000Z</time>
      </trkpt>
      <trkpt lat="45.20453" lon="5.72838">
        <ele>521.79998779297</ele>
        <time>2021-09-09T04:42:51.000Z</time>
      </trkpt>
      <trkpt lat="45.2044" lon="5.72826">
        <ele>520.79998779297</ele>
        <time>2021-09-09T04:42:57.000Z</time>
      </trkpt>
      <trkpt lat="45.20439" lon="5.72824">
        <ele>520.79998779297</ele>
        <time>2021-09-09T04:42:58.000Z</time>
      </trkpt>
      <trkpt lat="45.20437" lon="5.72821">
        <ele>520.59997558594</ele>
        <time>2021-09-09T04:42:59.000Z</time>
      </trkpt>
      <trkpt lat="45.20428" lon="5.7281">
        <ele>520</ele>
        <time>2021-09-09T04:43:04.000Z</time>
      </trkpt>
      <trkpt lat="45.20426" lon="5.72806">
        <ele>519.40002441406</ele>
        <time>2021-09-09T04:43:06.000Z</time>
      </trkpt>
      <trkpt lat="45.20424" lon="5.72805">
        <ele>519.20001220703</ele>
        <time>2021-09-09T04:43:07.000Z</time>
      </trkpt>
      <trkpt lat="45.20422" lon="5.72802">
        <ele>518.79998779297</ele>
        <time>2021-09-09T04:43:09.000Z</time>
      </trkpt>
      <trkpt lat="45.2042" lon="5.728">
        <ele>518.40002441406</ele>
        <time>2021-09-09T04:43:10.000Z</time>
      </trkpt>
      <trkpt lat="45.20417" lon="5.72796">
        <ele>517.59997558594</ele>
        <time>2021-09-09T04:43:12.000Z</time>
      </trkpt>
      <trkpt lat="45.20413" lon="5.72793">
        <ele>517.20001220703</ele>
        <time>2021-09-09T04:43:14.000Z</time>
      </trkpt>
      <trkpt lat="45.20406" lon="5.72789">
        <ele>516.59997558594</ele>
        <time>2021-09-09T04:43:17.000Z</time>
      </trkpt>
      <trkpt lat="45.20403" lon="5.72788">
        <ele>516.20001220703</ele>
        <time>2021-09-09T04:43:18.000Z</time>
      </trkpt>
      <trkpt lat="45.20395" lon="5.72785">
        <ele>515.59997558594</ele>
        <time>2021-09-09T04:43:21.000Z</time>
      </trkpt>
      <trkpt lat="45.20391" lon="5.72782">
        <ele>515</ele>
        <time>2021-09-09T04:43:23.000Z</time>
      </trkpt>
      <trkpt lat="45.20385" lon="5.72777">
        <ele>514.20001220703</ele>
        <time>2021-09-09T04:43:26.000Z</time>
      </trkpt>
      <trkpt lat="45.20383" lon="5.72775">
        <ele>514</ele>
        <time>2021-09-09T04:43:27.000Z</time>
      </trkpt>
      <trkpt lat="45.20382" lon="5.72773">
        <ele>513.79998779297</ele>
        <time>2021-09-09T04:43:28.000Z</time>
      </trkpt>
      <trkpt lat="45.2038" lon="5.72771">
        <ele>513.59997558594</ele>
        <time>2021-09-09T04:43:29.000Z</time>
      </trkpt>
      <trkpt lat="45.20378" lon="5.7277">
        <ele>513.40002441406</ele>
        <time>2021-09-09T04:43:30.000Z</time>
      </trkpt>
      <trkpt lat="45.20372" lon="5.72764">
        <ele>512.59997558594</ele>
        <time>2021-09-09T04:43:33.000Z</time>
      </trkpt>
      <trkpt lat="45.2037" lon="5.72763">
        <ele>512.59997558594</ele>
        <time>2021-09-09T04:43:34.000Z</time>
      </trkpt>
      <trkpt lat="45.20364" lon="5.72759">
        <ele>512</ele>
        <time>2021-09-09T04:43:37.000Z</time>
      </trkpt>
      <trkpt lat="45.20362" lon="5.72758">
        <ele>511.60000610352</ele>
        <time>2021-09-09T04:43:38.000Z</time>
      </trkpt>
      <trkpt lat="45.2036" lon="5.72754">
        <ele>511</ele>
        <time>2021-09-09T04:43:40.000Z</time>
      </trkpt>
      <trkpt lat="45.20356" lon="5.72751">
        <ele>510.60000610352</ele>
        <time>2021-09-09T04:43:42.000Z</time>
      </trkpt>
      <trkpt lat="45.20354" lon="5.7275">
        <ele>510.39999389648</ele>
        <time>2021-09-09T04:43:43.000Z</time>
      </trkpt>
      <trkpt lat="45.20344" lon="5.72742">
        <ele>509.39999389648</ele>
        <time>2021-09-09T04:43:48.000Z</time>
      </trkpt>
      <trkpt lat="45.20342" lon="5.72741">
        <ele>509.20001220703</ele>
        <time>2021-09-09T04:43:49.000Z</time>
      </trkpt>
      <trkpt lat="45.20332" lon="5.72728">
        <ele>508.60000610352</ele>
        <time>2021-09-09T04:43:54.000Z</time>
      </trkpt>
      <trkpt lat="45.20322" lon="5.7272">
        <ele>508</ele>
        <time>2021-09-09T04:43:58.000Z</time>
      </trkpt>
      <trkpt lat="45.20316" lon="5.72718">
        <ele>508</ele>
        <time>2021-09-09T04:44:00.000Z</time>
      </trkpt>
      <trkpt lat="45.203" lon="5.72709">
        <ele>507.39999389648</ele>
        <time>2021-09-09T04:44:06.000Z</time>
      </trkpt>
      <trkpt lat="45.20297" lon="5.72707">
        <ele>507</ele>
        <time>2021-09-09T04:44:07.000Z</time>
      </trkpt>
      <trkpt lat="45.20285" lon="5.72697">
        <ele>505.79998779297</ele>
        <time>2021-09-09T04:44:12.000Z</time>
      </trkpt>
      <trkpt lat="45.20282" lon="5.72695">
        <ele>505.39999389648</ele>
        <time>2021-09-09T04:44:13.000Z</time>
      </trkpt>
      <trkpt lat="45.20272" lon="5.72687">
        <ele>504.60000610352</ele>
        <time>2021-09-09T04:44:17.000Z</time>
      </trkpt>
      <trkpt lat="45.20266" lon="5.72678">
        <ele>504.39999389648</ele>
        <time>2021-09-09T04:44:20.000Z</time>
      </trkpt>
      <trkpt lat="45.20262" lon="5.72667">
        <ele>505.60000610352</ele>
        <time>2021-09-09T04:44:25.000Z</time>
      </trkpt>
      <trkpt lat="45.20261" lon="5.72665">
        <ele>506.20001220703</ele>
        <time>2021-09-09T04:44:26.000Z</time>
      </trkpt>
      <trkpt lat="45.20257" lon="5.72661">
        <ele>507.20001220703</ele>
        <time>2021-09-09T04:44:29.000Z</time>
      </trkpt>
      <trkpt lat="45.20256" lon="5.72659">
        <ele>507.60000610352</ele>
        <time>2021-09-09T04:44:30.000Z</time>
      </trkpt>
      <trkpt lat="45.20255" lon="5.72657">
        <ele>507.79998779297</ele>
        <time>2021-09-09T04:44:31.000Z</time>
      </trkpt>
      <trkpt lat="45.20253" lon="5.72656">
        <ele>508.39999389648</ele>
        <time>2021-09-09T04:44:32.000Z</time>
      </trkpt>
      <trkpt lat="45.20248" lon="5.7265">
        <ele>509.60000610352</ele>
        <time>2021-09-09T04:44:36.000Z</time>
      </trkpt>
      <trkpt lat="45.20242" lon="5.72646">
        <ele>510.60000610352</ele>
        <time>2021-09-09T04:44:40.000Z</time>
      </trkpt>
      <trkpt lat="45.2024" lon="5.72645">
        <ele>510.79998779297</ele>
        <time>2021-09-09T04:44:41.000Z</time>
      </trkpt>
      <trkpt lat="45.20236" lon="5.72641">
        <ele>511.60000610352</ele>
        <time>2021-09-09T04:44:44.000Z</time>
      </trkpt>
      <trkpt lat="45.2023" lon="5.72636">
        <ele>512</ele>
        <time>2021-09-09T04:44:48.000Z</time>
      </trkpt>
      <trkpt lat="45.20222" lon="5.72628">
        <ele>512.79998779297</ele>
        <time>2021-09-09T04:44:54.000Z</time>
      </trkpt>
      <trkpt lat="45.20219" lon="5.72622">
        <ele>513.20001220703</ele>
        <time>2021-09-09T04:44:57.000Z</time>
      </trkpt>
      <trkpt lat="45.20214" lon="5.72614">
        <ele>513.79998779297</ele>
        <time>2021-09-09T04:45:02.000Z</time>
      </trkpt>
      <trkpt lat="45.20212" lon="5.72611">
        <ele>514.20001220703</ele>
        <time>2021-09-09T04:45:04.000Z</time>
      </trkpt>
      <trkpt lat="45.20209" lon="5.72608">
        <ele>515</ele>
        <time>2021-09-09T04:45:07.000Z</time>
      </trkpt>
      <trkpt lat="45.20202" lon="5.726">
        <ele>515.79998779297</ele>
        <time>2021-09-09T04:45:13.000Z</time>
      </trkpt>
      <trkpt lat="45.202" lon="5.72599">
        <ele>516</ele>
        <time>2021-09-09T04:45:14.000Z</time>
      </trkpt>
      <trkpt lat="45.20195" lon="5.72593">
        <ele>516.59997558594</ele>
        <time>2021-09-09T04:45:18.000Z</time>
      </trkpt>
      <trkpt lat="45.20194" lon="5.7259">
        <ele>517.20001220703</ele>
        <time>2021-09-09T04:45:20.000Z</time>
      </trkpt>
      <trkpt lat="45.20193" lon="5.72588">
        <ele>517.20001220703</ele>
        <time>2021-09-09T04:45:21.000Z</time>
      </trkpt>
      <trkpt lat="45.20187" lon="5.72584">
        <ele>517.40002441406</ele>
        <time>2021-09-09T04:45:24.000Z</time>
      </trkpt>
      <trkpt lat="45.20176" lon="5.72578">
        <ele>516.20001220703</ele>
        <time>2021-09-09T04:45:29.000Z</time>
      </trkpt>
      <trkpt lat="45.20173" lon="5.72577">
        <ele>516</ele>
        <time>2021-09-09T04:45:30.000Z</time>
      </trkpt>
      <trkpt lat="45.20166" lon="5.72575">
        <ele>515</ele>
        <time>2021-09-09T04:45:33.000Z</time>
      </trkpt>
      <trkpt lat="45.20164" lon="5.72574">
        <ele>514.59997558594</ele>
        <time>2021-09-09T04:45:34.000Z</time>
      </trkpt>
      <trkpt lat="45.20161" lon="5.72573">
        <ele>514.20001220703</ele>
        <time>2021-09-09T04:45:35.000Z</time>
      </trkpt>
      <trkpt lat="45.20157" lon="5.72571">
        <ele>513.40002441406</ele>
        <time>2021-09-09T04:45:37.000Z</time>
      </trkpt>
      <trkpt lat="45.20147" lon="5.72566">
        <ele>512.40002441406</ele>
        <time>2021-09-09T04:45:41.000Z</time>
      </trkpt>
      <trkpt lat="45.20145" lon="5.72565">
        <ele>512.20001220703</ele>
        <time>2021-09-09T04:45:42.000Z</time>
      </trkpt>
      <trkpt lat="45.20138" lon="5.72562">
        <ele>511</ele>
        <time>2021-09-09T04:45:45.000Z</time>
      </trkpt>
      <trkpt lat="45.2013" lon="5.72558">
        <ele>510</ele>
        <time>2021-09-09T04:45:49.000Z</time>
      </trkpt>
      <trkpt lat="45.20122" lon="5.72554">
        <ele>508.39999389648</ele>
        <time>2021-09-09T04:45:53.000Z</time>
      </trkpt>
      <trkpt lat="45.20117" lon="5.72552">
        <ele>507.20001220703</ele>
        <time>2021-09-09T04:45:56.000Z</time>
      </trkpt>
      <trkpt lat="45.20114" lon="5.7255">
        <ele>506.60000610352</ele>
        <time>2021-09-09T04:45:58.000Z</time>
      </trkpt>
      <trkpt lat="45.2011" lon="5.72547">
        <ele>506.20001220703</ele>
        <time>2021-09-09T04:46:00.000Z</time>
      </trkpt>
      <trkpt lat="45.20106" lon="5.72546">
        <ele>505</ele>
        <time>2021-09-09T04:46:02.000Z</time>
      </trkpt>
      <trkpt lat="45.20101" lon="5.72546">
        <ele>503.79998779297</ele>
        <time>2021-09-09T04:46:05.000Z</time>
      </trkpt>
      <trkpt lat="45.20094" lon="5.72548">
        <ele>502.20001220703</ele>
        <time>2021-09-09T04:46:08.000Z</time>
      </trkpt>
      <trkpt lat="45.20088" lon="5.72549">
        <ele>501</ele>
        <time>2021-09-09T04:46:11.000Z</time>
      </trkpt>
      <trkpt lat="45.20082" lon="5.72552">
        <ele>500.20001220703</ele>
        <time>2021-09-09T04:46:13.000Z</time>
      </trkpt>
      <trkpt lat="45.2008" lon="5.72554">
        <ele>499.60000610352</ele>
        <time>2021-09-09T04:46:14.000Z</time>
      </trkpt>
      <trkpt lat="45.20074" lon="5.72557">
        <ele>498.39999389648</ele>
        <time>2021-09-09T04:46:18.000Z</time>
      </trkpt>
      <trkpt lat="45.20073" lon="5.72559">
        <ele>498</ele>
        <time>2021-09-09T04:46:19.000Z</time>
      </trkpt>
      <trkpt lat="45.20071" lon="5.7256">
        <ele>497.79998779297</ele>
        <time>2021-09-09T04:46:20.000Z</time>
      </trkpt>
      <trkpt lat="45.2007" lon="5.7256">
        <ele>497.79998779297</ele>
        <time>2021-09-09T04:46:21.000Z</time>
      </trkpt>
      <trkpt lat="45.20069" lon="5.7256">
        <ele>497.60000610352</ele>
        <time>2021-09-09T04:46:22.000Z</time>
      </trkpt>
      <trkpt lat="45.20069" lon="5.7256">
        <ele>497.39999389648</ele>
        <time>2021-09-09T04:46:23.000Z</time>
      </trkpt>
      <trkpt lat="45.20068" lon="5.72558">
        <ele>497</ele>
        <time>2021-09-09T04:46:31.000Z</time>
      </trkpt>
      <trkpt lat="45.20069" lon="5.72558">
        <ele>497.20001220703</ele>
        <time>2021-09-09T04:46:35.000Z</time>
      </trkpt>
      <trkpt lat="45.20069" lon="5.72558">
        <ele>497.20001220703</ele>
        <time>2021-09-09T04:46:36.000Z</time>
      </trkpt>
      <trkpt lat="45.20068" lon="5.7255">
        <ele>497.60000610352</ele>
        <time>2021-09-09T04:46:46.000Z</time>
      </trkpt>
      <trkpt lat="45.20065" lon="5.72529">
        <ele>498.60000610352</ele>
        <time>2021-09-09T04:46:51.000Z</time>
      </trkpt>
      <trkpt lat="45.20065" lon="5.72525">
        <ele>498.60000610352</ele>
        <time>2021-09-09T04:46:52.000Z</time>
      </trkpt>
      <trkpt lat="45.2007" lon="5.725">
        <ele>498.39999389648</ele>
        <time>2021-09-09T04:46:58.000Z</time>
      </trkpt>
      <trkpt lat="45.20072" lon="5.72492">
        <ele>498.20001220703</ele>
        <time>2021-09-09T04:47:00.000Z</time>
      </trkpt>
      <trkpt lat="45.20073" lon="5.72488">
        <ele>498</ele>
        <time>2021-09-09T04:47:01.000Z</time>
      </trkpt>
      <trkpt lat="45.20074" lon="5.72476">
        <ele>497.39999389648</ele>
        <time>2021-09-09T04:47:04.000Z</time>
      </trkpt>
      <trkpt lat="45.20074" lon="5.72473">
        <ele>497.20001220703</ele>
        <time>2021-09-09T04:47:05.000Z</time>
      </trkpt>
      <trkpt lat="45.20071" lon="5.72455">
        <ele>496.20001220703</ele>
        <time>2021-09-09T04:47:10.000Z</time>
      </trkpt>
      <trkpt lat="45.2007" lon="5.72447">
        <ele>495.79998779297</ele>
        <time>2021-09-09T04:47:12.000Z</time>
      </trkpt>
      <trkpt lat="45.20067" lon="5.72441">
        <ele>495.20001220703</ele>
        <time>2021-09-09T04:47:14.000Z</time>
      </trkpt>
      <trkpt lat="45.2006" lon="5.72435">
        <ele>494</ele>
        <time>2021-09-09T04:47:17.000Z</time>
      </trkpt>
      <trkpt lat="45.20053" lon="5.72432">
        <ele>493</ele>
        <time>2021-09-09T04:47:20.000Z</time>
      </trkpt>
      <trkpt lat="45.20045" lon="5.72432">
        <ele>492</ele>
        <time>2021-09-09T04:47:23.000Z</time>
      </trkpt>
      <trkpt lat="45.20043" lon="5.72432">
        <ele>492</ele>
        <time>2021-09-09T04:47:24.000Z</time>
      </trkpt>
      <trkpt lat="45.20038" lon="5.72431">
        <ele>491</ele>
        <time>2021-09-09T04:47:26.000Z</time>
      </trkpt>
      <trkpt lat="45.20035" lon="5.72431">
        <ele>490.79998779297</ele>
        <time>2021-09-09T04:47:27.000Z</time>
      </trkpt>
      <trkpt lat="45.20024" lon="5.72431">
        <ele>489.60000610352</ele>
        <time>2021-09-09T04:47:31.000Z</time>
      </trkpt>
      <trkpt lat="45.20021" lon="5.72431">
        <ele>489.39999389648</ele>
        <time>2021-09-09T04:47:32.000Z</time>
      </trkpt>
      <trkpt lat="45.20015" lon="5.72431">
        <ele>489.20001220703</ele>
        <time>2021-09-09T04:47:34.000Z</time>
      </trkpt>
      <trkpt lat="45.20009" lon="5.72429">
        <ele>488.20001220703</ele>
        <time>2021-09-09T04:47:36.000Z</time>
      </trkpt>
      <trkpt lat="45.2" lon="5.72428">
        <ele>487.20001220703</ele>
        <time>2021-09-09T04:47:40.000Z</time>
      </trkpt>
      <trkpt lat="45.19997" lon="5.72428">
        <ele>487</ele>
        <time>2021-09-09T04:47:41.000Z</time>
      </trkpt>
      <trkpt lat="45.19985" lon="5.72427">
        <ele>485.60000610352</ele>
        <time>2021-09-09T04:47:45.000Z</time>
      </trkpt>
      <trkpt lat="45.19975" lon="5.72425">
        <ele>484.39999389648</ele>
        <time>2021-09-09T04:47:49.000Z</time>
      </trkpt>
      <trkpt lat="45.19962" lon="5.72424">
        <ele>483.20001220703</ele>
        <time>2021-09-09T04:47:53.000Z</time>
      </trkpt>
      <trkpt lat="45.19953" lon="5.72424">
        <ele>482</ele>
        <time>2021-09-09T04:47:57.000Z</time>
      </trkpt>
      <trkpt lat="45.19939" lon="5.72425">
        <ele>481</ele>
        <time>2021-09-09T04:48:02.000Z</time>
      </trkpt>
      <trkpt lat="45.1992" lon="5.72429">
        <ele>481.39999389648</ele>
        <time>2021-09-09T04:48:09.000Z</time>
      </trkpt>
      <trkpt lat="45.19917" lon="5.72429">
        <ele>481.39999389648</ele>
        <time>2021-09-09T04:48:10.000Z</time>
      </trkpt>
      <trkpt lat="45.19908" lon="5.7243">
        <ele>482.20001220703</ele>
        <time>2021-09-09T04:48:13.000Z</time>
      </trkpt>
      <trkpt lat="45.19895" lon="5.72436">
        <ele>483</ele>
        <time>2021-09-09T04:48:17.000Z</time>
      </trkpt>
      <trkpt lat="45.19892" lon="5.7244">
        <ele>483.20001220703</ele>
        <time>2021-09-09T04:48:19.000Z</time>
      </trkpt>
      <trkpt lat="45.19891" lon="5.72447">
        <ele>483.79998779297</ele>
        <time>2021-09-09T04:48:21.000Z</time>
      </trkpt>
      <trkpt lat="45.19891" lon="5.72452">
        <ele>484.39999389648</ele>
        <time>2021-09-09T04:48:23.000Z</time>
      </trkpt>
      <trkpt lat="45.19889" lon="5.72455">
        <ele>484.79998779297</ele>
        <time>2021-09-09T04:48:26.000Z</time>
      </trkpt>
      <trkpt lat="45.1989" lon="5.72456">
        <ele>485</ele>
        <time>2021-09-09T04:48:27.000Z</time>
      </trkpt>
      <trkpt lat="45.19889" lon="5.72467">
        <ele>485.20001220703</ele>
        <time>2021-09-09T04:48:30.000Z</time>
      </trkpt>
      <trkpt lat="45.19889" lon="5.7247">
        <ele>485.20001220703</ele>
        <time>2021-09-09T04:48:31.000Z</time>
      </trkpt>
      <trkpt lat="45.19889" lon="5.72474">
        <ele>485.39999389648</ele>
        <time>2021-09-09T04:48:32.000Z</time>
      </trkpt>
      <trkpt lat="45.19885" lon="5.72478">
        <ele>485.20001220703</ele>
        <time>2021-09-09T04:48:34.000Z</time>
      </trkpt>
      <trkpt lat="45.19884" lon="5.72481">
        <ele>485.20001220703</ele>
        <time>2021-09-09T04:48:35.000Z</time>
      </trkpt>
      <trkpt lat="45.1988" lon="5.72486">
        <ele>485.20001220703</ele>
        <time>2021-09-09T04:48:37.000Z</time>
      </trkpt>
      <trkpt lat="45.19876" lon="5.72486">
        <ele>485.20001220703</ele>
        <time>2021-09-09T04:48:38.000Z</time>
      </trkpt>
      <trkpt lat="45.19867" lon="5.72488">
        <ele>485</ele>
        <time>2021-09-09T04:48:40.000Z</time>
      </trkpt>
      <trkpt lat="45.19863" lon="5.72492">
        <ele>484.60000610352</ele>
        <time>2021-09-09T04:48:42.000Z</time>
      </trkpt>
      <trkpt lat="45.19862" lon="5.72495">
        <ele>484.39999389648</ele>
        <time>2021-09-09T04:48:43.000Z</time>
      </trkpt>
      <trkpt lat="45.1986" lon="5.72504">
        <ele>484.20001220703</ele>
        <time>2021-09-09T04:48:46.000Z</time>
      </trkpt>
      <trkpt lat="45.19859" lon="5.72508">
        <ele>484</ele>
        <time>2021-09-09T04:48:47.000Z</time>
      </trkpt>
      <trkpt lat="45.19859" lon="5.72513">
        <ele>484</ele>
        <time>2021-09-09T04:48:48.000Z</time>
      </trkpt>
      <trkpt lat="45.19859" lon="5.72521">
        <ele>484</ele>
        <time>2021-09-09T04:48:50.000Z</time>
      </trkpt>
      <trkpt lat="45.1986" lon="5.72533">
        <ele>483.20001220703</ele>
        <time>2021-09-09T04:48:53.000Z</time>
      </trkpt>
      <trkpt lat="45.19861" lon="5.7254">
        <ele>482.60000610352</ele>
        <time>2021-09-09T04:48:55.000Z</time>
      </trkpt>
      <trkpt lat="45.19861" lon="5.72543">
        <ele>482</ele>
        <time>2021-09-09T04:48:56.000Z</time>
      </trkpt>
      <trkpt lat="45.19861" lon="5.72549">
        <ele>481.60000610352</ele>
        <time>2021-09-09T04:48:58.000Z</time>
      </trkpt>
      <trkpt lat="45.19857" lon="5.7255">
        <ele>481.20001220703</ele>
        <time>2021-09-09T04:49:00.000Z</time>
      </trkpt>
      <trkpt lat="45.19856" lon="5.72547">
        <ele>481</ele>
        <time>2021-09-09T04:49:01.000Z</time>
      </trkpt>
      <trkpt lat="45.19855" lon="5.72544">
        <ele>480.60000610352</ele>
        <time>2021-09-09T04:49:02.000Z</time>
      </trkpt>
      <trkpt lat="45.19854" lon="5.72536">
        <ele>479.79998779297</ele>
        <time>2021-09-09T04:49:04.000Z</time>
      </trkpt>
      <trkpt lat="45.19851" lon="5.72522">
        <ele>478.79998779297</ele>
        <time>2021-09-09T04:49:08.000Z</time>
      </trkpt>
      <trkpt lat="45.1985" lon="5.72519">
        <ele>478.79998779297</ele>
        <time>2021-09-09T04:49:09.000Z</time>
      </trkpt>
      <trkpt lat="45.19849" lon="5.72516">
        <ele>478.60000610352</ele>
        <time>2021-09-09T04:49:10.000Z</time>
      </trkpt>
      <trkpt lat="45.19845" lon="5.72504">
        <ele>477.79998779297</ele>
        <time>2021-09-09T04:49:13.000Z</time>
      </trkpt>
      <trkpt lat="45.19843" lon="5.72494">
        <ele>477</ele>
        <time>2021-09-09T04:49:16.000Z</time>
      </trkpt>
      <trkpt lat="45.19842" lon="5.7249">
        <ele>476.60000610352</ele>
        <time>2021-09-09T04:49:17.000Z</time>
      </trkpt>
      <trkpt lat="45.19841" lon="5.72475">
        <ele>475.39999389648</ele>
        <time>2021-09-09T04:49:21.000Z</time>
      </trkpt>
      <trkpt lat="45.19841" lon="5.72471">
        <ele>475.20001220703</ele>
        <time>2021-09-09T04:49:22.000Z</time>
      </trkpt>
      <trkpt lat="45.1984" lon="5.7246">
        <ele>474.20001220703</ele>
        <time>2021-09-09T04:49:25.000Z</time>
      </trkpt>
      <trkpt lat="45.19839" lon="5.72452">
        <ele>473.79998779297</ele>
        <time>2021-09-09T04:49:27.000Z</time>
      </trkpt>
      <trkpt lat="45.19836" lon="5.72444">
        <ele>473.20001220703</ele>
        <time>2021-09-09T04:49:30.000Z</time>
      </trkpt>
      <trkpt lat="45.19835" lon="5.72444">
        <ele>472.79998779297</ele>
        <time>2021-09-09T04:49:31.000Z</time>
      </trkpt>
      <trkpt lat="45.19834" lon="5.72446">
        <ele>472.39999389648</ele>
        <time>2021-09-09T04:49:32.000Z</time>
      </trkpt>
      <trkpt lat="45.19833" lon="5.72448">
        <ele>472.20001220703</ele>
        <time>2021-09-09T04:49:33.000Z</time>
      </trkpt>
      <trkpt lat="45.19832" lon="5.72453">
        <ele>471.60000610352</ele>
        <time>2021-09-09T04:49:35.000Z</time>
      </trkpt>
      <trkpt lat="45.19831" lon="5.72463">
        <ele>471</ele>
        <time>2021-09-09T04:49:38.000Z</time>
      </trkpt>
      <trkpt lat="45.1983" lon="5.72473">
        <ele>470.20001220703</ele>
        <time>2021-09-09T04:49:41.000Z</time>
      </trkpt>
      <trkpt lat="45.19829" lon="5.72477">
        <ele>470</ele>
        <time>2021-09-09T04:49:42.000Z</time>
      </trkpt>
      <trkpt lat="45.19825" lon="5.72492">
        <ele>468.79998779297</ele>
        <time>2021-09-09T04:49:46.000Z</time>
      </trkpt>
      <trkpt lat="45.19823" lon="5.72499">
        <ele>468</ele>
        <time>2021-09-09T04:49:48.000Z</time>
      </trkpt>
      <trkpt lat="45.19823" lon="5.72503">
        <ele>467.60000610352</ele>
        <time>2021-09-09T04:49:49.000Z</time>
      </trkpt>
      <trkpt lat="45.19819" lon="5.72518">
        <ele>466.20001220703</ele>
        <time>2021-09-09T04:49:53.000Z</time>
      </trkpt>
      <trkpt lat="45.19818" lon="5.72521">
        <ele>466</ele>
        <time>2021-09-09T04:49:54.000Z</time>
      </trkpt>
      <trkpt lat="45.19819" lon="5.72533">
        <ele>465.20001220703</ele>
        <time>2021-09-09T04:49:57.000Z</time>
      </trkpt>
      <trkpt lat="45.1982" lon="5.72544">
        <ele>464</ele>
        <time>2021-09-09T04:50:00.000Z</time>
      </trkpt>
      <trkpt lat="45.19819" lon="5.72561">
        <ele>463</ele>
        <time>2021-09-09T04:50:04.000Z</time>
      </trkpt>
      <trkpt lat="45.19819" lon="5.72571">
        <ele>462.20001220703</ele>
        <time>2021-09-09T04:50:07.000Z</time>
      </trkpt>
      <trkpt lat="45.19819" lon="5.72575">
        <ele>461.79998779297</ele>
        <time>2021-09-09T04:50:08.000Z</time>
      </trkpt>
      <trkpt lat="45.19821" lon="5.72588">
        <ele>460.60000610352</ele>
        <time>2021-09-09T04:50:12.000Z</time>
      </trkpt>
      <trkpt lat="45.19823" lon="5.72595">
        <ele>460</ele>
        <time>2021-09-09T04:50:14.000Z</time>
      </trkpt>
      <trkpt lat="45.19825" lon="5.72606">
        <ele>459.60000610352</ele>
        <time>2021-09-09T04:50:17.000Z</time>
      </trkpt>
      <trkpt lat="45.19826" lon="5.72609">
        <ele>459.39999389648</ele>
        <time>2021-09-09T04:50:18.000Z</time>
      </trkpt>
      <trkpt lat="45.1983" lon="5.72621">
        <ele>458.39999389648</ele>
        <time>2021-09-09T04:50:21.000Z</time>
      </trkpt>
      <trkpt lat="45.19834" lon="5.72633">
        <ele>457.39999389648</ele>
        <time>2021-09-09T04:50:25.000Z</time>
      </trkpt>
      <trkpt lat="45.19836" lon="5.72641">
        <ele>456.79998779297</ele>
        <time>2021-09-09T04:50:28.000Z</time>
      </trkpt>
      <trkpt lat="45.19839" lon="5.72648">
        <ele>456.39999389648</ele>
        <time>2021-09-09T04:50:31.000Z</time>
      </trkpt>
      <trkpt lat="45.19844" lon="5.72658">
        <ele>455.20001220703</ele>
        <time>2021-09-09T04:50:35.000Z</time>
      </trkpt>
      <trkpt lat="45.19854" lon="5.72673">
        <ele>454</ele>
        <time>2021-09-09T04:50:40.000Z</time>
      </trkpt>
      <trkpt lat="45.19856" lon="5.72677">
        <ele>454</ele>
        <time>2021-09-09T04:50:41.000Z</time>
      </trkpt>
      <trkpt lat="45.19855" lon="5.72681">
        <ele>453.60000610352</ele>
        <time>2021-09-09T04:50:42.000Z</time>
      </trkpt>
      <trkpt lat="45.19852" lon="5.72683">
        <ele>452.79998779297</ele>
        <time>2021-09-09T04:50:44.000Z</time>
      </trkpt>
      <trkpt lat="45.19848" lon="5.7268">
        <ele>452.39999389648</ele>
        <time>2021-09-09T04:50:46.000Z</time>
      </trkpt>
      <trkpt lat="45.19843" lon="5.72677">
        <ele>451.79998779297</ele>
        <time>2021-09-09T04:50:48.000Z</time>
      </trkpt>
      <trkpt lat="45.19839" lon="5.72674">
        <ele>451.20001220703</ele>
        <time>2021-09-09T04:50:50.000Z</time>
      </trkpt>
      <trkpt lat="45.19834" lon="5.7267">
        <ele>450.79998779297</ele>
        <time>2021-09-09T04:50:52.000Z</time>
      </trkpt>
      <trkpt lat="45.19832" lon="5.72668">
        <ele>450.79998779297</ele>
        <time>2021-09-09T04:50:53.000Z</time>
      </trkpt>
      <trkpt lat="45.1983" lon="5.72665">
        <ele>450.39999389648</ele>
        <time>2021-09-09T04:50:54.000Z</time>
      </trkpt>
      <trkpt lat="45.19824" lon="5.7266">
        <ele>449.60000610352</ele>
        <time>2021-09-09T04:50:57.000Z</time>
      </trkpt>
      <trkpt lat="45.19818" lon="5.72654">
        <ele>449</ele>
        <time>2021-09-09T04:51:00.000Z</time>
      </trkpt>
      <trkpt lat="45.19813" lon="5.72651">
        <ele>448.39999389648</ele>
        <time>2021-09-09T04:51:02.000Z</time>
      </trkpt>
      <trkpt lat="45.19806" lon="5.72647">
        <ele>447.39999389648</ele>
        <time>2021-09-09T04:51:05.000Z</time>
      </trkpt>
      <trkpt lat="45.19803" lon="5.72646">
        <ele>447</ele>
        <time>2021-09-09T04:51:06.000Z</time>
      </trkpt>
      <trkpt lat="45.19796" lon="5.7264">
        <ele>446.20001220703</ele>
        <time>2021-09-09T04:51:09.000Z</time>
      </trkpt>
      <trkpt lat="45.19787" lon="5.72629">
        <ele>445</ele>
        <time>2021-09-09T04:51:14.000Z</time>
      </trkpt>
      <trkpt lat="45.19785" lon="5.72625">
        <ele>445</ele>
        <time>2021-09-09T04:51:15.000Z</time>
      </trkpt>
      <trkpt lat="45.19785" lon="5.7262">
        <ele>444.60000610352</ele>
        <time>2021-09-09T04:51:16.000Z</time>
      </trkpt>
      <trkpt lat="45.19784" lon="5.72611">
        <ele>444</ele>
        <time>2021-09-09T04:51:18.000Z</time>
      </trkpt>
      <trkpt lat="45.19783" lon="5.726">
        <ele>443.39999389648</ele>
        <time>2021-09-09T04:51:20.000Z</time>
      </trkpt>
      <trkpt lat="45.19782" lon="5.72592">
        <ele>443</ele>
        <time>2021-09-09T04:51:22.000Z</time>
      </trkpt>
      <trkpt lat="45.19781" lon="5.72575">
        <ele>442</ele>
        <time>2021-09-09T04:51:26.000Z</time>
      </trkpt>
      <trkpt lat="45.19779" lon="5.7256">
        <ele>440.79998779297</ele>
        <time>2021-09-09T04:51:30.000Z</time>
      </trkpt>
      <trkpt lat="45.1978" lon="5.72548">
        <ele>439.79998779297</ele>
        <time>2021-09-09T04:51:33.000Z</time>
      </trkpt>
      <trkpt lat="45.1978" lon="5.72544">
        <ele>439.60000610352</ele>
        <time>2021-09-09T04:51:34.000Z</time>
      </trkpt>
      <trkpt lat="45.1978" lon="5.7253">
        <ele>438.79998779297</ele>
        <time>2021-09-09T04:51:38.000Z</time>
      </trkpt>
      <trkpt lat="45.1978" lon="5.72529">
        <ele>438.60000610352</ele>
        <time>2021-09-09T04:51:39.000Z</time>
      </trkpt>
      <trkpt lat="45.1978" lon="5.72529">
        <ele>438.20001220703</ele>
        <time>2021-09-09T04:51:40.000Z</time>
      </trkpt>
      <trkpt lat="45.19778" lon="5.72533">
        <ele>437.60000610352</ele>
        <time>2021-09-09T04:51:42.000Z</time>
      </trkpt>
      <trkpt lat="45.19778" lon="5.72536">
        <ele>437.39999389648</ele>
        <time>2021-09-09T04:51:43.000Z</time>
      </trkpt>
      <trkpt lat="45.19773" lon="5.7255">
        <ele>436.20001220703</ele>
        <time>2021-09-09T04:51:47.000Z</time>
      </trkpt>
      <trkpt lat="45.19771" lon="5.72564">
        <ele>435.39999389648</ele>
        <time>2021-09-09T04:51:50.000Z</time>
      </trkpt>
      <trkpt lat="45.19769" lon="5.72567">
        <ele>435</ele>
        <time>2021-09-09T04:51:51.000Z</time>
      </trkpt>
      <trkpt lat="45.19769" lon="5.72571">
        <ele>435</ele>
        <time>2021-09-09T04:51:52.000Z</time>
      </trkpt>
      <trkpt lat="45.19767" lon="5.72583">
        <ele>433.79998779297</ele>
        <time>2021-09-09T04:51:56.000Z</time>
      </trkpt>
      <trkpt lat="45.19765" lon="5.72582">
        <ele>433.60000610352</ele>
        <time>2021-09-09T04:51:57.000Z</time>
      </trkpt>
      <trkpt lat="45.19762" lon="5.72568">
        <ele>432.39999389648</ele>
        <time>2021-09-09T04:52:01.000Z</time>
      </trkpt>
      <trkpt lat="45.19762" lon="5.72558">
        <ele>431.39999389648</ele>
        <time>2021-09-09T04:52:04.000Z</time>
      </trkpt>
      <trkpt lat="45.1976" lon="5.72545">
        <ele>430.39999389648</ele>
        <time>2021-09-09T04:52:07.000Z</time>
      </trkpt>
      <trkpt lat="45.1976" lon="5.72541">
        <ele>430</ele>
        <time>2021-09-09T04:52:08.000Z</time>
      </trkpt>
      <trkpt lat="45.19762" lon="5.72525">
        <ele>429</ele>
        <time>2021-09-09T04:52:12.000Z</time>
      </trkpt>
      <trkpt lat="45.19765" lon="5.72518">
        <ele>428.60000610352</ele>
        <time>2021-09-09T04:52:14.000Z</time>
      </trkpt>
      <trkpt lat="45.19767" lon="5.72511">
        <ele>428</ele>
        <time>2021-09-09T04:52:16.000Z</time>
      </trkpt>
      <trkpt lat="45.19767" lon="5.72508">
        <ele>427.79998779297</ele>
        <time>2021-09-09T04:52:17.000Z</time>
      </trkpt>
      <trkpt lat="45.19767" lon="5.72506">
        <ele>427.60000610352</ele>
        <time>2021-09-09T04:52:18.000Z</time>
      </trkpt>
      <trkpt lat="45.19766" lon="5.72508">
        <ele>426.79998779297</ele>
        <time>2021-09-09T04:52:20.000Z</time>
      </trkpt>
      <trkpt lat="45.19765" lon="5.72511">
        <ele>426.60000610352</ele>
        <time>2021-09-09T04:52:21.000Z</time>
      </trkpt>
      <trkpt lat="45.19763" lon="5.72515">
        <ele>425.79998779297</ele>
        <time>2021-09-09T04:52:23.000Z</time>
      </trkpt>
      <trkpt lat="45.19757" lon="5.72524">
        <ele>425.20001220703</ele>
        <time>2021-09-09T04:52:26.000Z</time>
      </trkpt>
      <trkpt lat="45.19755" lon="5.72528">
        <ele>424.79998779297</ele>
        <time>2021-09-09T04:52:27.000Z</time>
      </trkpt>
      <trkpt lat="45.19749" lon="5.72545">
        <ele>424.39999389648</ele>
        <time>2021-09-09T04:52:32.000Z</time>
      </trkpt>
      <trkpt lat="45.19745" lon="5.7256">
        <ele>424.39999389648</ele>
        <time>2021-09-09T04:52:37.000Z</time>
      </trkpt>
      <trkpt lat="45.19745" lon="5.72567">
        <ele>424.39999389648</ele>
        <time>2021-09-09T04:52:39.000Z</time>
      </trkpt>
      <trkpt lat="45.19745" lon="5.72582">
        <ele>424.20001220703</ele>
        <time>2021-09-09T04:52:43.000Z</time>
      </trkpt>
      <trkpt lat="45.19745" lon="5.72589">
        <ele>424.20001220703</ele>
        <time>2021-09-09T04:52:45.000Z</time>
      </trkpt>
      <trkpt lat="45.1975" lon="5.72611">
        <ele>424.20001220703</ele>
        <time>2021-09-09T04:52:51.000Z</time>
      </trkpt>
      <trkpt lat="45.19753" lon="5.72627">
        <ele>424.20001220703</ele>
        <time>2021-09-09T04:52:55.000Z</time>
      </trkpt>
      <trkpt lat="45.19755" lon="5.72634">
        <ele>424.20001220703</ele>
        <time>2021-09-09T04:52:57.000Z</time>
      </trkpt>
      <trkpt lat="45.19756" lon="5.72637">
        <ele>424.20001220703</ele>
        <time>2021-09-09T04:52:58.000Z</time>
      </trkpt>
      <trkpt lat="45.19772" lon="5.72659">
        <ele>423.79998779297</ele>
        <time>2021-09-09T04:53:04.000Z</time>
      </trkpt>
      <trkpt lat="45.19778" lon="5.72667">
        <ele>424</ele>
        <time>2021-09-09T04:53:07.000Z</time>
      </trkpt>
      <trkpt lat="45.19781" lon="5.7267">
        <ele>424</ele>
        <time>2021-09-09T04:53:08.000Z</time>
      </trkpt>
      <trkpt lat="45.19797" lon="5.72686">
        <ele>424.60000610352</ele>
        <time>2021-09-09T04:53:14.000Z</time>
      </trkpt>
      <trkpt lat="45.19812" lon="5.72698">
        <ele>425.20001220703</ele>
        <time>2021-09-09T04:53:20.000Z</time>
      </trkpt>
      <trkpt lat="45.19828" lon="5.72716">
        <ele>425.60000610352</ele>
        <time>2021-09-09T04:53:26.000Z</time>
      </trkpt>
      <trkpt lat="45.19833" lon="5.72724">
        <ele>425.39999389648</ele>
        <time>2021-09-09T04:53:28.000Z</time>
      </trkpt>
      <trkpt lat="45.19841" lon="5.72739">
        <ele>425.39999389648</ele>
        <time>2021-09-09T04:53:32.000Z</time>
      </trkpt>
      <trkpt lat="45.19845" lon="5.72743">
        <ele>425.39999389648</ele>
        <time>2021-09-09T04:53:34.000Z</time>
      </trkpt>
      <trkpt lat="45.19846" lon="5.72743">
        <ele>425.39999389648</ele>
        <time>2021-09-09T04:53:35.000Z</time>
      </trkpt>
      <trkpt lat="45.19862" lon="5.72741">
        <ele>422.20001220703</ele>
        <time>2021-09-09T04:53:49.000Z</time>
      </trkpt>
      <trkpt lat="45.1986" lon="5.72741">
        <ele>422</ele>
        <time>2021-09-09T04:53:50.000Z</time>
      </trkpt>
      <trkpt lat="45.19857" lon="5.72752">
        <ele>421.39999389648</ele>
        <time>2021-09-09T04:53:52.000Z</time>
      </trkpt>
      <trkpt lat="45.19857" lon="5.7276">
        <ele>421.20001220703</ele>
        <time>2021-09-09T04:53:54.000Z</time>
      </trkpt>
      <trkpt lat="45.19855" lon="5.72765">
        <ele>420.60000610352</ele>
        <time>2021-09-09T04:53:57.000Z</time>
      </trkpt>
      <trkpt lat="45.19854" lon="5.72764">
        <ele>420.20001220703</ele>
        <time>2021-09-09T04:53:58.000Z</time>
      </trkpt>
      <trkpt lat="45.19853" lon="5.72761">
        <ele>419</ele>
        <time>2021-09-09T04:54:01.000Z</time>
      </trkpt>
      <trkpt lat="45.19853" lon="5.72758">
        <ele>418</ele>
        <time>2021-09-09T04:54:03.000Z</time>
      </trkpt>
      <trkpt lat="45.19854" lon="5.72753">
        <ele>416.79998779297</ele>
        <time>2021-09-09T04:54:05.000Z</time>
      </trkpt>
      <trkpt lat="45.19853" lon="5.72752">
        <ele>416.20001220703</ele>
        <time>2021-09-09T04:54:07.000Z</time>
      </trkpt>
      <trkpt lat="45.19855" lon="5.72755">
        <ele>416</ele>
        <time>2021-09-09T04:54:08.000Z</time>
      </trkpt>
      <trkpt lat="45.19855" lon="5.72756">
        <ele>415.60000610352</ele>
        <time>2021-09-09T04:54:09.000Z</time>
      </trkpt>
      <trkpt lat="45.19853" lon="5.72804">
        <ele>402.39999389648</ele>
        <time>2021-09-09T04:54:41.000Z</time>
      </trkpt>
      <trkpt lat="45.19851" lon="5.7279">
        <ele>401.39999389648</ele>
        <time>2021-09-09T04:54:43.000Z</time>
      </trkpt>
      <trkpt lat="45.19849" lon="5.72786">
        <ele>400.39999389648</ele>
        <time>2021-09-09T04:54:45.000Z</time>
      </trkpt>
      <trkpt lat="45.19847" lon="5.72783">
        <ele>399.39999389648</ele>
        <time>2021-09-09T04:54:47.000Z</time>
      </trkpt>
      <trkpt lat="45.19848" lon="5.72782">
        <ele>398.20001220703</ele>
        <time>2021-09-09T04:54:49.000Z</time>
      </trkpt>
      <trkpt lat="45.19849" lon="5.72784">
        <ele>398</ele>
        <time>2021-09-09T04:54:50.000Z</time>
      </trkpt>
      <trkpt lat="45.19851" lon="5.72787">
        <ele>397.79998779297</ele>
        <time>2021-09-09T04:54:51.000Z</time>
      </trkpt>
      <trkpt lat="45.19852" lon="5.72789">
        <ele>397.79998779297</ele>
        <time>2021-09-09T04:54:52.000Z</time>
      </trkpt>
      <trkpt lat="45.19852" lon="5.7279">
        <ele>397.60000610352</ele>
        <time>2021-09-09T04:54:53.000Z</time>
      </trkpt>
      <trkpt lat="45.19848" lon="5.72788">
        <ele>397</ele>
        <time>2021-09-09T04:54:55.000Z</time>
      </trkpt>
      <trkpt lat="45.19846" lon="5.72786">
        <ele>396.60000610352</ele>
        <time>2021-09-09T04:54:56.000Z</time>
      </trkpt>
      <trkpt lat="45.19838" lon="5.72781">
        <ele>396</ele>
        <time>2021-09-09T04:54:59.000Z</time>
      </trkpt>
      <trkpt lat="45.19828" lon="5.72773">
        <ele>394.79998779297</ele>
        <time>2021-09-09T04:55:03.000Z</time>
      </trkpt>
      <trkpt lat="45.19814" lon="5.72765">
        <ele>393.60000610352</ele>
        <time>2021-09-09T04:55:08.000Z</time>
      </trkpt>
      <trkpt lat="45.19805" lon="5.72757">
        <ele>392.60000610352</ele>
        <time>2021-09-09T04:55:12.000Z</time>
      </trkpt>
      <trkpt lat="45.19799" lon="5.72753">
        <ele>392.20001220703</ele>
        <time>2021-09-09T04:55:14.000Z</time>
      </trkpt>
      <trkpt lat="45.19792" lon="5.72748">
        <ele>391.20001220703</ele>
        <time>2021-09-09T04:55:17.000Z</time>
      </trkpt>
      <trkpt lat="45.19786" lon="5.72748">
        <ele>390.39999389648</ele>
        <time>2021-09-09T04:55:20.000Z</time>
      </trkpt>
      <trkpt lat="45.19785" lon="5.7275">
        <ele>390.20001220703</ele>
        <time>2021-09-09T04:55:21.000Z</time>
      </trkpt>
      <trkpt lat="45.19788" lon="5.7275">
        <ele>389.79998779297</ele>
        <time>2021-09-09T04:55:23.000Z</time>
      </trkpt>
      <trkpt lat="45.1979" lon="5.7275">
        <ele>389.60000610352</ele>
        <time>2021-09-09T04:55:24.000Z</time>
      </trkpt>
      <trkpt lat="45.19796" lon="5.72751">
        <ele>389</ele>
        <time>2021-09-09T04:55:26.000Z</time>
      </trkpt>
      <trkpt lat="45.19806" lon="5.72758">
        <ele>387.79998779297</ele>
        <time>2021-09-09T04:55:29.000Z</time>
      </trkpt>
      <trkpt lat="45.19813" lon="5.72768">
        <ele>386.79998779297</ele>
        <time>2021-09-09T04:55:32.000Z</time>
      </trkpt>
      <trkpt lat="45.19818" lon="5.72776">
        <ele>385.79998779297</ele>
        <time>2021-09-09T04:55:35.000Z</time>
      </trkpt>
      <trkpt lat="45.19826" lon="5.72784">
        <ele>384.39999389648</ele>
        <time>2021-09-09T04:55:39.000Z</time>
      </trkpt>
      <trkpt lat="45.1983" lon="5.72788">
        <ele>383.79998779297</ele>
        <time>2021-09-09T04:55:41.000Z</time>
      </trkpt>
      <trkpt lat="45.19832" lon="5.72791">
        <ele>383.20001220703</ele>
        <time>2021-09-09T04:55:42.000Z</time>
      </trkpt>
      <trkpt lat="45.19842" lon="5.728">
        <ele>382</ele>
        <time>2021-09-09T04:55:46.000Z</time>
      </trkpt>
      <trkpt lat="45.19845" lon="5.72802">
        <ele>381.60000610352</ele>
        <time>2021-09-09T04:55:47.000Z</time>
      </trkpt>
      <trkpt lat="45.19846" lon="5.72805">
        <ele>381.20001220703</ele>
        <time>2021-09-09T04:55:49.000Z</time>
      </trkpt>
      <trkpt lat="45.19844" lon="5.72804">
        <ele>380.79998779297</ele>
        <time>2021-09-09T04:55:50.000Z</time>
      </trkpt>
      <trkpt lat="45.19838" lon="5.72806">
        <ele>379.60000610352</ele>
        <time>2021-09-09T04:55:53.000Z</time>
      </trkpt>
      <trkpt lat="45.19834" lon="5.72804">
        <ele>379.39999389648</ele>
        <time>2021-09-09T04:55:54.000Z</time>
      </trkpt>
      <trkpt lat="45.19822" lon="5.72798">
        <ele>378.20001220703</ele>
        <time>2021-09-09T04:55:58.000Z</time>
      </trkpt>
      <trkpt lat="45.19813" lon="5.72792">
        <ele>377.20001220703</ele>
        <time>2021-09-09T04:56:01.000Z</time>
      </trkpt>
      <trkpt lat="45.1981" lon="5.72791">
        <ele>377</ele>
        <time>2021-09-09T04:56:02.000Z</time>
      </trkpt>
      <trkpt lat="45.19801" lon="5.72785">
        <ele>375.79998779297</ele>
        <time>2021-09-09T04:56:06.000Z</time>
      </trkpt>
      <trkpt lat="45.19799" lon="5.72786">
        <ele>375</ele>
        <time>2021-09-09T04:56:09.000Z</time>
      </trkpt>
      <trkpt lat="45.198" lon="5.72787">
        <ele>374.79998779297</ele>
        <time>2021-09-09T04:56:10.000Z</time>
      </trkpt>
      <trkpt lat="45.19802" lon="5.72789">
        <ele>374.60000610352</ele>
        <time>2021-09-09T04:56:11.000Z</time>
      </trkpt>
      <trkpt lat="45.19811" lon="5.72796">
        <ele>373.39999389648</ele>
        <time>2021-09-09T04:56:15.000Z</time>
      </trkpt>
      <trkpt lat="45.19815" lon="5.728">
        <ele>372.79998779297</ele>
        <time>2021-09-09T04:56:17.000Z</time>
      </trkpt>
      <trkpt lat="45.19819" lon="5.72801">
        <ele>372.20001220703</ele>
        <time>2021-09-09T04:56:19.000Z</time>
      </trkpt>
      <trkpt lat="45.19824" lon="5.72808">
        <ele>371.20001220703</ele>
        <time>2021-09-09T04:56:22.000Z</time>
      </trkpt>
      <trkpt lat="45.19831" lon="5.72813">
        <ele>370</ele>
        <time>2021-09-09T04:56:25.000Z</time>
      </trkpt>
      <trkpt lat="45.19839" lon="5.7282">
        <ele>368.79998779297</ele>
        <time>2021-09-09T04:56:29.000Z</time>
      </trkpt>
      <trkpt lat="45.19842" lon="5.72822">
        <ele>368.60000610352</ele>
        <time>2021-09-09T04:56:30.000Z</time>
      </trkpt>
      <trkpt lat="45.19844" lon="5.72825">
        <ele>368</ele>
        <time>2021-09-09T04:56:32.000Z</time>
      </trkpt>
      <trkpt lat="45.19843" lon="5.72825">
        <ele>367.60000610352</ele>
        <time>2021-09-09T04:56:33.000Z</time>
      </trkpt>
      <trkpt lat="45.19842" lon="5.72825">
        <ele>367.39999389648</ele>
        <time>2021-09-09T04:56:34.000Z</time>
      </trkpt>
      <trkpt lat="45.19832" lon="5.72821">
        <ele>366.39999389648</ele>
        <time>2021-09-09T04:56:38.000Z</time>
      </trkpt>
      <trkpt lat="45.19829" lon="5.7282">
        <ele>366.20001220703</ele>
        <time>2021-09-09T04:56:39.000Z</time>
      </trkpt>
      <trkpt lat="45.19822" lon="5.72817">
        <ele>365.20001220703</ele>
        <time>2021-09-09T04:56:42.000Z</time>
      </trkpt>
      <trkpt lat="45.1982" lon="5.72819">
        <ele>364.39999389648</ele>
        <time>2021-09-09T04:56:44.000Z</time>
      </trkpt>
      <trkpt lat="45.1982" lon="5.7282">
        <ele>364</ele>
        <time>2021-09-09T04:56:45.000Z</time>
      </trkpt>
      <trkpt lat="45.19823" lon="5.72824">
        <ele>363.39999389648</ele>
        <time>2021-09-09T04:56:47.000Z</time>
      </trkpt>
      <trkpt lat="45.19828" lon="5.72827">
        <ele>362.79998779297</ele>
        <time>2021-09-09T04:56:49.000Z</time>
      </trkpt>
      <trkpt lat="45.19835" lon="5.72834">
        <ele>361.39999389648</ele>
        <time>2021-09-09T04:56:54.000Z</time>
      </trkpt>
      <trkpt lat="45.19828" lon="5.72835">
        <ele>360.39999389648</ele>
        <time>2021-09-09T04:56:57.000Z</time>
      </trkpt>
      <trkpt lat="45.19825" lon="5.72834">
        <ele>360</ele>
        <time>2021-09-09T04:56:58.000Z</time>
      </trkpt>
      <trkpt lat="45.19816" lon="5.72831">
        <ele>359.20001220703</ele>
        <time>2021-09-09T04:57:01.000Z</time>
      </trkpt>
      <trkpt lat="45.19805" lon="5.72826">
        <ele>358</ele>
        <time>2021-09-09T04:57:05.000Z</time>
      </trkpt>
      <trkpt lat="45.19797" lon="5.72822">
        <ele>356.79998779297</ele>
        <time>2021-09-09T04:57:08.000Z</time>
      </trkpt>
      <trkpt lat="45.19792" lon="5.72818">
        <ele>355.39999389648</ele>
        <time>2021-09-09T04:57:13.000Z</time>
      </trkpt>
      <trkpt lat="45.198" lon="5.72824">
        <ele>354.20001220703</ele>
        <time>2021-09-09T04:57:18.000Z</time>
      </trkpt>
      <trkpt lat="45.19812" lon="5.72834">
        <ele>353.20001220703</ele>
        <time>2021-09-09T04:57:23.000Z</time>
      </trkpt>
      <trkpt lat="45.19815" lon="5.72835">
        <ele>350.60000610352</ele>
        <time>2021-09-09T04:57:24.000Z</time>
      </trkpt>
      <trkpt lat="45.19818" lon="5.72838">
        <ele>350.60000610352</ele>
        <time>2021-09-09T04:57:26.000Z</time>
      </trkpt>
      <trkpt lat="45.1982" lon="5.72842">
        <ele>350.39999389648</ele>
        <time>2021-09-09T04:57:28.000Z</time>
      </trkpt>
      <trkpt lat="45.19819" lon="5.72843">
        <ele>350.39999389648</ele>
        <time>2021-09-09T04:57:29.000Z</time>
      </trkpt>
      <trkpt lat="45.19809" lon="5.72842">
        <ele>349.60000610352</ele>
        <time>2021-09-09T04:57:34.000Z</time>
      </trkpt>
      <trkpt lat="45.19806" lon="5.72841">
        <ele>349.39999389648</ele>
        <time>2021-09-09T04:57:35.000Z</time>
      </trkpt>
      <trkpt lat="45.19799" lon="5.7284">
        <ele>348.79998779297</ele>
        <time>2021-09-09T04:57:38.000Z</time>
      </trkpt>
      <trkpt lat="45.19793" lon="5.72839">
        <ele>348.39999389648</ele>
        <time>2021-09-09T04:57:40.000Z</time>
      </trkpt>
      <trkpt lat="45.1979" lon="5.72839">
        <ele>348</ele>
        <time>2021-09-09T04:57:41.000Z</time>
      </trkpt>
      <trkpt lat="45.19784" lon="5.72837">
        <ele>347</ele>
        <time>2021-09-09T04:57:43.000Z</time>
      </trkpt>
      <trkpt lat="45.19775" lon="5.7283">
        <ele>345.79998779297</ele>
        <time>2021-09-09T04:57:46.000Z</time>
      </trkpt>
      <trkpt lat="45.19771" lon="5.72826">
        <ele>345</ele>
        <time>2021-09-09T04:57:48.000Z</time>
      </trkpt>
      <trkpt lat="45.19766" lon="5.72824">
        <ele>344.39999389648</ele>
        <time>2021-09-09T04:57:50.000Z</time>
      </trkpt>
      <trkpt lat="45.19757" lon="5.72819">
        <ele>343.39999389648</ele>
        <time>2021-09-09T04:57:54.000Z</time>
      </trkpt>
      <trkpt lat="45.19754" lon="5.72818">
        <ele>343.20001220703</ele>
        <time>2021-09-09T04:57:55.000Z</time>
      </trkpt>
      <trkpt lat="45.1975" lon="5.72817">
        <ele>342</ele>
        <time>2021-09-09T04:57:58.000Z</time>
      </trkpt>
      <trkpt lat="45.19751" lon="5.72817">
        <ele>341.60000610352</ele>
        <time>2021-09-09T04:57:59.000Z</time>
      </trkpt>
      <trkpt lat="45.19755" lon="5.7282">
        <ele>341</ele>
        <time>2021-09-09T04:58:01.000Z</time>
      </trkpt>
      <trkpt lat="45.19757" lon="5.72821">
        <ele>340.79998779297</ele>
        <time>2021-09-09T04:58:02.000Z</time>
      </trkpt>
      <trkpt lat="45.19761" lon="5.72823">
        <ele>340.20001220703</ele>
        <time>2021-09-09T04:58:04.000Z</time>
      </trkpt>
      <trkpt lat="45.19767" lon="5.72828">
        <ele>339.39999389648</ele>
        <time>2021-09-09T04:58:07.000Z</time>
      </trkpt>
      <trkpt lat="45.19773" lon="5.72835">
        <ele>338</ele>
        <time>2021-09-09T04:58:11.000Z</time>
      </trkpt>
      <trkpt lat="45.19779" lon="5.7284">
        <ele>337</ele>
        <time>2021-09-09T04:58:13.000Z</time>
      </trkpt>
      <trkpt lat="45.19786" lon="5.72847">
        <ele>335.79998779297</ele>
        <time>2021-09-09T04:58:17.000Z</time>
      </trkpt>
      <trkpt lat="45.19791" lon="5.72853">
        <ele>335</ele>
        <time>2021-09-09T04:58:20.000Z</time>
      </trkpt>
      <trkpt lat="45.19793" lon="5.72855">
        <ele>334.39999389648</ele>
        <time>2021-09-09T04:58:21.000Z</time>
      </trkpt>
      <trkpt lat="45.198" lon="5.72863">
        <ele>333.39999389648</ele>
        <time>2021-09-09T04:58:25.000Z</time>
      </trkpt>
      <trkpt lat="45.19803" lon="5.7287">
        <ele>332.60000610352</ele>
        <time>2021-09-09T04:58:27.000Z</time>
      </trkpt>
      <trkpt lat="45.19802" lon="5.72874">
        <ele>332.39999389648</ele>
        <time>2021-09-09T04:58:28.000Z</time>
      </trkpt>
      <trkpt lat="45.19802" lon="5.72877">
        <ele>332.20001220703</ele>
        <time>2021-09-09T04:58:29.000Z</time>
      </trkpt>
      <trkpt lat="45.19801" lon="5.72882">
        <ele>331.60000610352</ele>
        <time>2021-09-09T04:58:31.000Z</time>
      </trkpt>
      <trkpt lat="45.198" lon="5.72884">
        <ele>331.20001220703</ele>
        <time>2021-09-09T04:58:32.000Z</time>
      </trkpt>
      <trkpt lat="45.19791" lon="5.72881">
        <ele>330.39999389648</ele>
        <time>2021-09-09T04:58:35.000Z</time>
      </trkpt>
      <trkpt lat="45.19789" lon="5.72881">
        <ele>330</ele>
        <time>2021-09-09T04:58:36.000Z</time>
      </trkpt>
      <trkpt lat="45.19782" lon="5.72878">
        <ele>329</ele>
        <time>2021-09-09T04:58:39.000Z</time>
      </trkpt>
      <trkpt lat="45.19779" lon="5.72877">
        <ele>328.79998779297</ele>
        <time>2021-09-09T04:58:40.000Z</time>
      </trkpt>
      <trkpt lat="45.19768" lon="5.72872">
        <ele>327.20001220703</ele>
        <time>2021-09-09T04:58:44.000Z</time>
      </trkpt>
      <trkpt lat="45.19766" lon="5.7287">
        <ele>326.79998779297</ele>
        <time>2021-09-09T04:58:45.000Z</time>
      </trkpt>
      <trkpt lat="45.19761" lon="5.72866">
        <ele>326.39999389648</ele>
        <time>2021-09-09T04:58:48.000Z</time>
      </trkpt>
      <trkpt lat="45.19759" lon="5.72865">
        <ele>325.79998779297</ele>
        <time>2021-09-09T04:58:49.000Z</time>
      </trkpt>
      <trkpt lat="45.19749" lon="5.72859">
        <ele>324.79998779297</ele>
        <time>2021-09-09T04:58:52.000Z</time>
      </trkpt>
      <trkpt lat="45.19743" lon="5.72853">
        <ele>323.79998779297</ele>
        <time>2021-09-09T04:58:56.000Z</time>
      </trkpt>
      <trkpt lat="45.19743" lon="5.72853">
        <ele>323.39999389648</ele>
        <time>2021-09-09T04:58:57.000Z</time>
      </trkpt>
      <trkpt lat="45.19746" lon="5.72855">
        <ele>322.60000610352</ele>
        <time>2021-09-09T04:58:59.000Z</time>
      </trkpt>
      <trkpt lat="45.19754" lon="5.7286">
        <ele>321.39999389648</ele>
        <time>2021-09-09T04:59:03.000Z</time>
      </trkpt>
      <trkpt lat="45.19755" lon="5.72862">
        <ele>321</ele>
        <time>2021-09-09T04:59:04.000Z</time>
      </trkpt>
      <trkpt lat="45.19758" lon="5.72867">
        <ele>320.20001220703</ele>
        <time>2021-09-09T04:59:06.000Z</time>
      </trkpt>
      <trkpt lat="45.19759" lon="5.72869">
        <ele>320</ele>
        <time>2021-09-09T04:59:07.000Z</time>
      </trkpt>
      <trkpt lat="45.19766" lon="5.72878">
        <ele>319</ele>
        <time>2021-09-09T04:59:10.000Z</time>
      </trkpt>
      <trkpt lat="45.1977" lon="5.72884">
        <ele>318.20001220703</ele>
        <time>2021-09-09T04:59:13.000Z</time>
      </trkpt>
      <trkpt lat="45.19773" lon="5.72888">
        <ele>317.60000610352</ele>
        <time>2021-09-09T04:59:14.000Z</time>
      </trkpt>
      <trkpt lat="45.19782" lon="5.72902">
        <ele>316.39999389648</ele>
        <time>2021-09-09T04:59:18.000Z</time>
      </trkpt>
      <trkpt lat="45.19786" lon="5.72911">
        <ele>315.20001220703</ele>
        <time>2021-09-09T04:59:21.000Z</time>
      </trkpt>
      <trkpt lat="45.19788" lon="5.72912">
        <ele>315</ele>
        <time>2021-09-09T04:59:22.000Z</time>
      </trkpt>
      <trkpt lat="45.19792" lon="5.72916">
        <ele>314.20001220703</ele>
        <time>2021-09-09T04:59:25.000Z</time>
      </trkpt>
      <trkpt lat="45.19792" lon="5.72917">
        <ele>313.60000610352</ele>
        <time>2021-09-09T04:59:26.000Z</time>
      </trkpt>
      <trkpt lat="45.19791" lon="5.72918">
        <ele>313.20001220703</ele>
        <time>2021-09-09T04:59:27.000Z</time>
      </trkpt>
      <trkpt lat="45.1979" lon="5.72918">
        <ele>313.20001220703</ele>
        <time>2021-09-09T04:59:28.000Z</time>
      </trkpt>
      <trkpt lat="45.19782" lon="5.72917">
        <ele>312.20001220703</ele>
        <time>2021-09-09T04:59:31.000Z</time>
      </trkpt>
      <trkpt lat="45.19779" lon="5.72917">
        <ele>311.79998779297</ele>
        <time>2021-09-09T04:59:32.000Z</time>
      </trkpt>
      <trkpt lat="45.19772" lon="5.72918">
        <ele>310.79998779297</ele>
        <time>2021-09-09T04:59:35.000Z</time>
      </trkpt>
      <trkpt lat="45.19767" lon="5.72919">
        <ele>310.20001220703</ele>
        <time>2021-09-09T04:59:37.000Z</time>
      </trkpt>
      <trkpt lat="45.1976" lon="5.72918">
        <ele>309.60000610352</ele>
        <time>2021-09-09T04:59:39.000Z</time>
      </trkpt>
      <trkpt lat="45.19752" lon="5.72915">
        <ele>308.39999389648</ele>
        <time>2021-09-09T04:59:42.000Z</time>
      </trkpt>
      <trkpt lat="45.19741" lon="5.72908">
        <ele>307.20001220703</ele>
        <time>2021-09-09T04:59:46.000Z</time>
      </trkpt>
      <trkpt lat="45.19739" lon="5.72907">
        <ele>306.79998779297</ele>
        <time>2021-09-09T04:59:47.000Z</time>
      </trkpt>
      <trkpt lat="45.19734" lon="5.72903">
        <ele>306</ele>
        <time>2021-09-09T04:59:49.000Z</time>
      </trkpt>
      <trkpt lat="45.19729" lon="5.729">
        <ele>305</ele>
        <time>2021-09-09T04:59:51.000Z</time>
      </trkpt>
      <trkpt lat="45.19724" lon="5.72898">
        <ele>304.60000610352</ele>
        <time>2021-09-09T04:59:53.000Z</time>
      </trkpt>
      <trkpt lat="45.19719" lon="5.72894">
        <ele>303.79998779297</ele>
        <time>2021-09-09T04:59:55.000Z</time>
      </trkpt>
      <trkpt lat="45.1971" lon="5.72887">
        <ele>302.79998779297</ele>
        <time>2021-09-09T04:59:58.000Z</time>
      </trkpt>
      <trkpt lat="45.197" lon="5.72882">
        <ele>301.60000610352</ele>
        <time>2021-09-09T05:00:02.000Z</time>
      </trkpt>
      <trkpt lat="45.19692" lon="5.72875">
        <ele>300.60000610352</ele>
        <time>2021-09-09T05:00:05.000Z</time>
      </trkpt>
      <trkpt lat="45.19687" lon="5.72867">
        <ele>299.39999389648</ele>
        <time>2021-09-09T05:00:09.000Z</time>
      </trkpt>
      <trkpt lat="45.19687" lon="5.72867">
        <ele>299.20001220703</ele>
        <time>2021-09-09T05:00:10.000Z</time>
      </trkpt>
      <trkpt lat="45.19693" lon="5.7287">
        <ele>298</ele>
        <time>2021-09-09T05:00:13.000Z</time>
      </trkpt>
      <trkpt lat="45.19695" lon="5.72873">
        <ele>297.79998779297</ele>
        <time>2021-09-09T05:00:14.000Z</time>
      </trkpt>
      <trkpt lat="45.19701" lon="5.72879">
        <ele>296.79998779297</ele>
        <time>2021-09-09T05:00:18.000Z</time>
      </trkpt>
      <trkpt lat="45.19703" lon="5.72881">
        <ele>296.39999389648</ele>
        <time>2021-09-09T05:00:19.000Z</time>
      </trkpt>
      <trkpt lat="45.19707" lon="5.72888">
        <ele>295.39999389648</ele>
        <time>2021-09-09T05:00:22.000Z</time>
      </trkpt>
      <trkpt lat="45.19712" lon="5.72894">
        <ele>294.60000610352</ele>
        <time>2021-09-09T05:00:24.000Z</time>
      </trkpt>
      <trkpt lat="45.19714" lon="5.72896">
        <ele>294.39999389648</ele>
        <time>2021-09-09T05:00:25.000Z</time>
      </trkpt>
      <trkpt lat="45.19719" lon="5.72905">
        <ele>293.20001220703</ele>
        <time>2021-09-09T05:00:28.000Z</time>
      </trkpt>
      <trkpt lat="45.19723" lon="5.72912">
        <ele>292.60000610352</ele>
        <time>2021-09-09T05:00:31.000Z</time>
      </trkpt>
      <trkpt lat="45.19725" lon="5.72916">
        <ele>292.20001220703</ele>
        <time>2021-09-09T05:00:33.000Z</time>
      </trkpt>
      <trkpt lat="45.1973" lon="5.72923">
        <ele>291</ele>
        <time>2021-09-09T05:00:36.000Z</time>
      </trkpt>
      <trkpt lat="45.19735" lon="5.7293">
        <ele>290</ele>
        <time>2021-09-09T05:00:39.000Z</time>
      </trkpt>
      <trkpt lat="45.1974" lon="5.72941">
        <ele>288.79998779297</ele>
        <time>2021-09-09T05:00:44.000Z</time>
      </trkpt>
      <trkpt lat="45.19747" lon="5.72952">
        <ele>287.39999389648</ele>
        <time>2021-09-09T05:00:47.000Z</time>
      </trkpt>
      <trkpt lat="45.19762" lon="5.72971">
        <ele>286.39999389648</ele>
        <time>2021-09-09T05:00:52.000Z</time>
      </trkpt>
      <trkpt lat="45.19771" lon="5.72981">
        <ele>285</ele>
        <time>2021-09-09T05:00:57.000Z</time>
      </trkpt>
      <trkpt lat="45.19772" lon="5.72982">
        <ele>284.60000610352</ele>
        <time>2021-09-09T05:00:58.000Z</time>
      </trkpt>
      <trkpt lat="45.1978" lon="5.72991">
        <ele>283.79998779297</ele>
        <time>2021-09-09T05:01:01.000Z</time>
      </trkpt>
      <trkpt lat="45.19784" lon="5.72994">
        <ele>283.20001220703</ele>
        <time>2021-09-09T05:01:03.000Z</time>
      </trkpt>
      <trkpt lat="45.19789" lon="5.72997">
        <ele>282.79998779297</ele>
        <time>2021-09-09T05:01:05.000Z</time>
      </trkpt>
      <trkpt lat="45.1979" lon="5.72999">
        <ele>282.39999389648</ele>
        <time>2021-09-09T05:01:06.000Z</time>
      </trkpt>
      <trkpt lat="45.19797" lon="5.73006">
        <ele>281.60000610352</ele>
        <time>2021-09-09T05:01:09.000Z</time>
      </trkpt>
      <trkpt lat="45.19799" lon="5.73008">
        <ele>281.20001220703</ele>
        <time>2021-09-09T05:01:10.000Z</time>
      </trkpt>
      <trkpt lat="45.198" lon="5.73011">
        <ele>280.79998779297</ele>
        <time>2021-09-09T05:01:11.000Z</time>
      </trkpt>
      <trkpt lat="45.198" lon="5.73013">
        <ele>280.60000610352</ele>
        <time>2021-09-09T05:01:12.000Z</time>
      </trkpt>
      <trkpt lat="45.19799" lon="5.73016">
        <ele>280.39999389648</ele>
        <time>2021-09-09T05:01:13.000Z</time>
      </trkpt>
      <trkpt lat="45.19798" lon="5.73019">
        <ele>280.39999389648</ele>
        <time>2021-09-09T05:01:14.000Z</time>
      </trkpt>
      <trkpt lat="45.19794" lon="5.73024">
        <ele>279.39999389648</ele>
        <time>2021-09-09T05:01:16.000Z</time>
      </trkpt>
      <trkpt lat="45.19787" lon="5.73025">
        <ele>278.60000610352</ele>
        <time>2021-09-09T05:01:19.000Z</time>
      </trkpt>
      <trkpt lat="45.19782" lon="5.73024">
        <ele>278.20001220703</ele>
        <time>2021-09-09T05:01:21.000Z</time>
      </trkpt>
      <trkpt lat="45.19774" lon="5.73023">
        <ele>277.20001220703</ele>
        <time>2021-09-09T05:01:24.000Z</time>
      </trkpt>
      <trkpt lat="45.19771" lon="5.73023">
        <ele>277</ele>
        <time>2021-09-09T05:01:25.000Z</time>
      </trkpt>
      <trkpt lat="45.19763" lon="5.73018">
        <ele>276.20001220703</ele>
        <time>2021-09-09T05:01:29.000Z</time>
      </trkpt>
      <trkpt lat="45.19762" lon="5.73017">
        <ele>275.79998779297</ele>
        <time>2021-09-09T05:01:30.000Z</time>
      </trkpt>
      <trkpt lat="45.19762" lon="5.73017">
        <ele>275.39999389648</ele>
        <time>2021-09-09T05:01:32.000Z</time>
      </trkpt>
      <trkpt lat="45.19765" lon="5.73017">
        <ele>274.60000610352</ele>
        <time>2021-09-09T05:01:34.000Z</time>
      </trkpt>
      <trkpt lat="45.19776" lon="5.7302">
        <ele>273.39999389648</ele>
        <time>2021-09-09T05:01:38.000Z</time>
      </trkpt>
      <trkpt lat="45.19785" lon="5.73025">
        <ele>272.20001220703</ele>
        <time>2021-09-09T05:01:43.000Z</time>
      </trkpt>
      <trkpt lat="45.19787" lon="5.73026">
        <ele>271.79998779297</ele>
        <time>2021-09-09T05:01:44.000Z</time>
      </trkpt>
      <trkpt lat="45.19793" lon="5.73031">
        <ele>271.20001220703</ele>
        <time>2021-09-09T05:01:47.000Z</time>
      </trkpt>
      <trkpt lat="45.19798" lon="5.73035">
        <ele>270.60000610352</ele>
        <time>2021-09-09T05:01:49.000Z</time>
      </trkpt>
      <trkpt lat="45.19798" lon="5.73037">
        <ele>270.39999389648</ele>
        <time>2021-09-09T05:01:50.000Z</time>
      </trkpt>
      <trkpt lat="45.19797" lon="5.73039">
        <ele>270.20001220703</ele>
        <time>2021-09-09T05:01:51.000Z</time>
      </trkpt>
      <trkpt lat="45.19795" lon="5.73039">
        <ele>270</ele>
        <time>2021-09-09T05:01:52.000Z</time>
      </trkpt>
      <trkpt lat="45.19793" lon="5.73038">
        <ele>269.79998779297</ele>
        <time>2021-09-09T05:01:53.000Z</time>
      </trkpt>
      <trkpt lat="45.19788" lon="5.73037">
        <ele>269</ele>
        <time>2021-09-09T05:01:55.000Z</time>
      </trkpt>
      <trkpt lat="45.1978" lon="5.73039">
        <ele>267.60000610352</ele>
        <time>2021-09-09T05:01:58.000Z</time>
      </trkpt>
      <trkpt lat="45.1977" lon="5.73042">
        <ele>266.39999389648</ele>
        <time>2021-09-09T05:02:02.000Z</time>
      </trkpt>
      <trkpt lat="45.19764" lon="5.73042">
        <ele>265.60000610352</ele>
        <time>2021-09-09T05:02:04.000Z</time>
      </trkpt>
      <trkpt lat="45.19762" lon="5.73042">
        <ele>265.20001220703</ele>
        <time>2021-09-09T05:02:05.000Z</time>
      </trkpt>
      <trkpt lat="45.19752" lon="5.73039">
        <ele>264.20001220703</ele>
        <time>2021-09-09T05:02:09.000Z</time>
      </trkpt>
      <trkpt lat="45.19752" lon="5.7304">
        <ele>263.79998779297</ele>
        <time>2021-09-09T05:02:10.000Z</time>
      </trkpt>
      <trkpt lat="45.19754" lon="5.73042">
        <ele>263.39999389648</ele>
        <time>2021-09-09T05:02:12.000Z</time>
      </trkpt>
      <trkpt lat="45.19755" lon="5.73043">
        <ele>263.20001220703</ele>
        <time>2021-09-09T05:02:13.000Z</time>
      </trkpt>
      <trkpt lat="45.19761" lon="5.73044">
        <ele>262.60000610352</ele>
        <time>2021-09-09T05:02:15.000Z</time>
      </trkpt>
      <trkpt lat="45.19764" lon="5.73045">
        <ele>262.20001220703</ele>
        <time>2021-09-09T05:02:16.000Z</time>
      </trkpt>
      <trkpt lat="45.19768" lon="5.73047">
        <ele>261.39999389648</ele>
        <time>2021-09-09T05:02:18.000Z</time>
      </trkpt>
      <trkpt lat="45.19777" lon="5.73051">
        <ele>260.39999389648</ele>
        <time>2021-09-09T05:02:22.000Z</time>
      </trkpt>
      <trkpt lat="45.19785" lon="5.73054">
        <ele>259.20001220703</ele>
        <time>2021-09-09T05:02:26.000Z</time>
      </trkpt>
      <trkpt lat="45.19793" lon="5.73058">
        <ele>258.39999389648</ele>
        <time>2021-09-09T05:02:29.000Z</time>
      </trkpt>
      <trkpt lat="45.19794" lon="5.7306">
        <ele>258.20001220703</ele>
        <time>2021-09-09T05:02:30.000Z</time>
      </trkpt>
      <trkpt lat="45.19792" lon="5.73064">
        <ele>257.60000610352</ele>
        <time>2021-09-09T05:02:32.000Z</time>
      </trkpt>
      <trkpt lat="45.19791" lon="5.73065">
        <ele>257.39999389648</ele>
        <time>2021-09-09T05:02:33.000Z</time>
      </trkpt>
      <trkpt lat="45.19789" lon="5.73065">
        <ele>256.79998779297</ele>
        <time>2021-09-09T05:02:34.000Z</time>
      </trkpt>
      <trkpt lat="45.19779" lon="5.73063">
        <ele>255.80000305176</ele>
        <time>2021-09-09T05:02:38.000Z</time>
      </trkpt>
      <trkpt lat="45.19775" lon="5.73061">
        <ele>254.80000305176</ele>
        <time>2021-09-09T05:02:40.000Z</time>
      </trkpt>
      <trkpt lat="45.19769" lon="5.73059">
        <ele>253.80000305176</ele>
        <time>2021-09-09T05:02:43.000Z</time>
      </trkpt>
      <trkpt lat="45.19757" lon="5.7306">
        <ele>252.80000305176</ele>
        <time>2021-09-09T05:02:47.000Z</time>
      </trkpt>
      <trkpt lat="45.19759" lon="5.73062">
        <ele>252</ele>
        <time>2021-09-09T05:02:50.000Z</time>
      </trkpt>
      <trkpt lat="45.1976" lon="5.73064">
        <ele>251.39999389648</ele>
        <time>2021-09-09T05:02:51.000Z</time>
      </trkpt>
      <trkpt lat="45.19766" lon="5.73068">
        <ele>250.39999389648</ele>
        <time>2021-09-09T05:02:55.000Z</time>
      </trkpt>
      <trkpt lat="45.19769" lon="5.7307">
        <ele>250</ele>
        <time>2021-09-09T05:02:56.000Z</time>
      </trkpt>
      <trkpt lat="45.19772" lon="5.73071">
        <ele>249.80000305176</ele>
        <time>2021-09-09T05:02:57.000Z</time>
      </trkpt>
      <trkpt lat="45.19776" lon="5.73073">
        <ele>249.19999694824</ele>
        <time>2021-09-09T05:02:59.000Z</time>
      </trkpt>
      <trkpt lat="45.19785" lon="5.73076">
        <ele>247.80000305176</ele>
        <time>2021-09-09T05:03:03.000Z</time>
      </trkpt>
      <trkpt lat="45.19789" lon="5.73079">
        <ele>247</ele>
        <time>2021-09-09T05:03:05.000Z</time>
      </trkpt>
      <trkpt lat="45.19793" lon="5.73083">
        <ele>246.60000610352</ele>
        <time>2021-09-09T05:03:07.000Z</time>
      </trkpt>
      <trkpt lat="45.19803" lon="5.73091">
        <ele>245.60000610352</ele>
        <time>2021-09-09T05:03:11.000Z</time>
      </trkpt>
      <trkpt lat="45.19804" lon="5.73093">
        <ele>245.39999389648</ele>
        <time>2021-09-09T05:03:12.000Z</time>
      </trkpt>
      <trkpt lat="45.19803" lon="5.73095">
        <ele>245.19999694824</ele>
        <time>2021-09-09T05:03:13.000Z</time>
      </trkpt>
      <trkpt lat="45.19794" lon="5.73098">
        <ele>244.39999389648</ele>
        <time>2021-09-09T05:03:16.000Z</time>
      </trkpt>
      <trkpt lat="45.19787" lon="5.73098">
        <ele>243.19999694824</ele>
        <time>2021-09-09T05:03:19.000Z</time>
      </trkpt>
      <trkpt lat="45.19783" lon="5.73098">
        <ele>243</ele>
        <time>2021-09-09T05:03:20.000Z</time>
      </trkpt>
      <trkpt lat="45.19778" lon="5.73099">
        <ele>242</ele>
        <time>2021-09-09T05:03:22.000Z</time>
      </trkpt>
      <trkpt lat="45.19765" lon="5.73098">
        <ele>240.80000305176</ele>
        <time>2021-09-09T05:03:27.000Z</time>
      </trkpt>
      <trkpt lat="45.1976" lon="5.73101">
        <ele>240.19999694824</ele>
        <time>2021-09-09T05:03:30.000Z</time>
      </trkpt>
      <trkpt lat="45.19761" lon="5.73101">
        <ele>239.80000305176</ele>
        <time>2021-09-09T05:03:32.000Z</time>
      </trkpt>
      <trkpt lat="45.19766" lon="5.73104">
        <ele>238.60000610352</ele>
        <time>2021-09-09T05:03:36.000Z</time>
      </trkpt>
      <trkpt lat="45.19772" lon="5.73109">
        <ele>237.39999389648</ele>
        <time>2021-09-09T05:03:40.000Z</time>
      </trkpt>
      <trkpt lat="45.19788" lon="5.73109">
        <ele>234.80000305176</ele>
        <time>2021-09-09T05:03:49.000Z</time>
      </trkpt>
      <trkpt lat="45.19802" lon="5.73123">
        <ele>234</ele>
        <time>2021-09-09T05:03:52.000Z</time>
      </trkpt>
      <trkpt lat="45.198" lon="5.73128">
        <ele>233.60000610352</ele>
        <time>2021-09-09T05:03:54.000Z</time>
      </trkpt>
      <trkpt lat="45.19792" lon="5.73134">
        <ele>232.80000305176</ele>
        <time>2021-09-09T05:03:57.000Z</time>
      </trkpt>
      <trkpt lat="45.19786" lon="5.73142">
        <ele>231.39999389648</ele>
        <time>2021-09-09T05:04:00.000Z</time>
      </trkpt>
      <trkpt lat="45.19785" lon="5.73145">
        <ele>231.19999694824</ele>
        <time>2021-09-09T05:04:01.000Z</time>
      </trkpt>
      <trkpt lat="45.19783" lon="5.73151">
        <ele>230.39999389648</ele>
        <time>2021-09-09T05:04:03.000Z</time>
      </trkpt>
      <trkpt lat="45.19779" lon="5.73159">
        <ele>229.39999389648</ele>
        <time>2021-09-09T05:04:06.000Z</time>
      </trkpt>
      <trkpt lat="45.1978" lon="5.73166">
        <ele>228.39999389648</ele>
        <time>2021-09-09T05:04:08.000Z</time>
      </trkpt>
      <trkpt lat="45.19779" lon="5.7317">
        <ele>228</ele>
        <time>2021-09-09T05:04:09.000Z</time>
      </trkpt>
      <trkpt lat="45.19779" lon="5.7318">
        <ele>227</ele>
        <time>2021-09-09T05:04:13.000Z</time>
      </trkpt>
      <trkpt lat="45.1978" lon="5.73183">
        <ele>226.60000610352</ele>
        <time>2021-09-09T05:04:14.000Z</time>
      </trkpt>
      <trkpt lat="45.19782" lon="5.73206">
        <ele>226.39999389648</ele>
        <time>2021-09-09T05:04:21.000Z</time>
      </trkpt>
      <trkpt lat="45.19776" lon="5.73229">
        <ele>226.60000610352</ele>
        <time>2021-09-09T05:04:27.000Z</time>
      </trkpt>
      <trkpt lat="45.19774" lon="5.73243">
        <ele>226.80000305176</ele>
        <time>2021-09-09T05:04:33.000Z</time>
      </trkpt>
      <trkpt lat="45.19771" lon="5.73257">
        <ele>227.19999694824</ele>
        <time>2021-09-09T05:04:38.000Z</time>
      </trkpt>
      <trkpt lat="45.19762" lon="5.73267">
        <ele>227.80000305176</ele>
        <time>2021-09-09T05:04:42.000Z</time>
      </trkpt>
      <trkpt lat="45.19759" lon="5.73274">
        <ele>228.19999694824</ele>
        <time>2021-09-09T05:04:44.000Z</time>
      </trkpt>
      <trkpt lat="45.19754" lon="5.73294">
        <ele>228.19999694824</ele>
        <time>2021-09-09T05:04:49.000Z</time>
      </trkpt>
      <trkpt lat="45.19751" lon="5.73302">
        <ele>228.19999694824</ele>
        <time>2021-09-09T05:04:51.000Z</time>
      </trkpt>
      <trkpt lat="45.19748" lon="5.73314">
        <ele>228.19999694824</ele>
        <time>2021-09-09T05:04:54.000Z</time>
      </trkpt>
      <trkpt lat="45.19746" lon="5.73322">
        <ele>228</ele>
        <time>2021-09-09T05:04:56.000Z</time>
      </trkpt>
      <trkpt lat="45.19743" lon="5.73334">
        <ele>228</ele>
        <time>2021-09-09T05:04:59.000Z</time>
      </trkpt>
      <trkpt lat="45.19741" lon="5.73339">
        <ele>228</ele>
        <time>2021-09-09T05:05:00.000Z</time>
      </trkpt>
      <trkpt lat="45.19734" lon="5.73361">
        <ele>227.60000610352</ele>
        <time>2021-09-09T05:05:06.000Z</time>
      </trkpt>
      <trkpt lat="45.19733" lon="5.73364">
        <ele>227.39999389648</ele>
        <time>2021-09-09T05:05:07.000Z</time>
      </trkpt>
      <trkpt lat="45.19734" lon="5.73366">
        <ele>227.39999389648</ele>
        <time>2021-09-09T05:05:08.000Z</time>
      </trkpt>
      <trkpt lat="45.19737" lon="5.73368">
        <ele>227.19999694824</ele>
        <time>2021-09-09T05:05:09.000Z</time>
      </trkpt>
      <trkpt lat="45.19751" lon="5.73369">
        <ele>226.60000610352</ele>
        <time>2021-09-09T05:05:14.000Z</time>
      </trkpt>
      <trkpt lat="45.19753" lon="5.73369">
        <ele>226.39999389648</ele>
        <time>2021-09-09T05:05:15.000Z</time>
      </trkpt>
      <trkpt lat="45.19765" lon="5.73371">
        <ele>225.39999389648</ele>
        <time>2021-09-09T05:05:19.000Z</time>
      </trkpt>
      <trkpt lat="45.19777" lon="5.73373">
        <ele>225.19999694824</ele>
        <time>2021-09-09T05:05:23.000Z</time>
      </trkpt>
      <trkpt lat="45.19796" lon="5.73377">
        <ele>225.19999694824</ele>
        <time>2021-09-09T05:05:29.000Z</time>
      </trkpt>
      <trkpt lat="45.19798" lon="5.73378">
        <ele>225.19999694824</ele>
        <time>2021-09-09T05:05:30.000Z</time>
      </trkpt>
      <trkpt lat="45.19815" lon="5.73382">
        <ele>225</ele>
        <time>2021-09-09T05:05:36.000Z</time>
      </trkpt>
      <trkpt lat="45.19833" lon="5.73386">
        <ele>224.80000305176</ele>
        <time>2021-09-09T05:05:42.000Z</time>
      </trkpt>
      <trkpt lat="45.19836" lon="5.73388">
        <ele>224.60000610352</ele>
        <time>2021-09-09T05:05:43.000Z</time>
      </trkpt>
      <trkpt lat="45.19848" lon="5.73392">
        <ele>225</ele>
        <time>2021-09-09T05:05:49.000Z</time>
      </trkpt>
      <trkpt lat="45.19856" lon="5.73396">
        <ele>224.80000305176</ele>
        <time>2021-09-09T05:05:53.000Z</time>
      </trkpt>
      <trkpt lat="45.19866" lon="5.73397">
        <ele>225</ele>
        <time>2021-09-09T05:05:58.000Z</time>
      </trkpt>
      <trkpt lat="45.19867" lon="5.73397">
        <ele>225.19999694824</ele>
        <time>2021-09-09T05:05:59.000Z</time>
      </trkpt>
      <trkpt lat="45.19871" lon="5.734">
        <ele>225.19999694824</ele>
        <time>2021-09-09T05:06:01.000Z</time>
      </trkpt>
      <trkpt lat="45.19891" lon="5.73408">
        <ele>224.80000305176</ele>
        <time>2021-09-09T05:06:08.000Z</time>
      </trkpt>
      <trkpt lat="45.19892" lon="5.73408">
        <ele>224.80000305176</ele>
        <time>2021-09-09T05:06:09.000Z</time>
      </trkpt>
      <trkpt lat="45.19894" lon="5.73408">
        <ele>224.80000305176</ele>
        <time>2021-09-09T05:06:10.000Z</time>
      </trkpt>
      <trkpt lat="45.19903" lon="5.7341">
        <ele>224.80000305176</ele>
        <time>2021-09-09T05:06:13.000Z</time>
      </trkpt>
      <trkpt lat="45.19918" lon="5.73413">
        <ele>224.80000305176</ele>
        <time>2021-09-09T05:06:18.000Z</time>
      </trkpt>
      <trkpt lat="45.19921" lon="5.73414">
        <ele>224.80000305176</ele>
        <time>2021-09-09T05:06:19.000Z</time>
      </trkpt>
      <trkpt lat="45.19937" lon="5.73416">
        <ele>225</ele>
        <time>2021-09-09T05:06:23.000Z</time>
      </trkpt>
      <trkpt lat="45.19941" lon="5.73417">
        <ele>225</ele>
        <time>2021-09-09T05:06:24.000Z</time>
      </trkpt>
      <trkpt lat="45.19951" lon="5.7342">
        <ele>224.80000305176</ele>
        <time>2021-09-09T05:06:27.000Z</time>
      </trkpt>
      <trkpt lat="45.19955" lon="5.73422">
        <ele>224.80000305176</ele>
        <time>2021-09-09T05:06:29.000Z</time>
      </trkpt>
      <trkpt lat="45.19966" lon="5.73425">
        <ele>225</ele>
        <time>2021-09-09T05:06:33.000Z</time>
      </trkpt>
      <trkpt lat="45.19969" lon="5.73426">
        <ele>224.80000305176</ele>
        <time>2021-09-09T05:06:34.000Z</time>
      </trkpt>
      <trkpt lat="45.19983" lon="5.7343">
        <ele>224.80000305176</ele>
        <time>2021-09-09T05:06:39.000Z</time>
      </trkpt>
      <trkpt lat="45.2" lon="5.73441">
        <ele>225</ele>
        <time>2021-09-09T05:06:45.000Z</time>
      </trkpt>
      <trkpt lat="45.20012" lon="5.73448">
        <ele>224.39999389648</ele>
        <time>2021-09-09T05:06:50.000Z</time>
      </trkpt>
      <trkpt lat="45.20015" lon="5.73449">
        <ele>224.19999694824</ele>
        <time>2021-09-09T05:06:51.000Z</time>
      </trkpt>
      <trkpt lat="45.20034" lon="5.73457">
        <ele>224</ele>
        <time>2021-09-09T05:06:56.000Z</time>
      </trkpt>
      <trkpt lat="45.20037" lon="5.7346">
        <ele>224</ele>
        <time>2021-09-09T05:06:57.000Z</time>
      </trkpt>
      <trkpt lat="45.20054" lon="5.73472">
        <ele>224.60000610352</ele>
        <time>2021-09-09T05:07:02.000Z</time>
      </trkpt>
      <trkpt lat="45.20056" lon="5.73474">
        <ele>224.80000305176</ele>
        <time>2021-09-09T05:07:03.000Z</time>
      </trkpt>
      <trkpt lat="45.20069" lon="5.73486">
        <ele>225.19999694824</ele>
        <time>2021-09-09T05:07:08.000Z</time>
      </trkpt>
      <trkpt lat="45.20075" lon="5.73491">
        <ele>225.19999694824</ele>
        <time>2021-09-09T05:07:10.000Z</time>
      </trkpt>
      <trkpt lat="45.20085" lon="5.73499">
        <ele>225.19999694824</ele>
        <time>2021-09-09T05:07:13.000Z</time>
      </trkpt>
      <trkpt lat="45.20101" lon="5.73517">
        <ele>225</ele>
        <time>2021-09-09T05:07:19.000Z</time>
      </trkpt>
      <trkpt lat="45.20111" lon="5.73534">
        <ele>225.19999694824</ele>
        <time>2021-09-09T05:07:24.000Z</time>
      </trkpt>
      <trkpt lat="45.20115" lon="5.73545">
        <ele>225</ele>
        <time>2021-09-09T05:07:28.000Z</time>
      </trkpt>
      <trkpt lat="45.20125" lon="5.73563">
        <ele>224.80000305176</ele>
        <time>2021-09-09T05:07:35.000Z</time>
      </trkpt>
      <trkpt lat="45.20139" lon="5.73583">
        <ele>224.80000305176</ele>
        <time>2021-09-09T05:07:41.000Z</time>
      </trkpt>
      <trkpt lat="45.20149" lon="5.73603">
        <ele>224.80000305176</ele>
        <time>2021-09-09T05:07:48.000Z</time>
      </trkpt>
      <trkpt lat="45.2016" lon="5.73628">
        <ele>224.80000305176</ele>
        <time>2021-09-09T05:07:54.000Z</time>
      </trkpt>
      <trkpt lat="45.20168" lon="5.73652">
        <ele>224.60000610352</ele>
        <time>2021-09-09T05:07:59.000Z</time>
      </trkpt>
      <trkpt lat="45.20172" lon="5.73668">
        <ele>224.80000305176</ele>
        <time>2021-09-09T05:08:03.000Z</time>
      </trkpt>
      <trkpt lat="45.20175" lon="5.73673">
        <ele>224.80000305176</ele>
        <time>2021-09-09T05:08:04.000Z</time>
      </trkpt>
      <trkpt lat="45.20175" lon="5.73681">
        <ele>225</ele>
        <time>2021-09-09T05:08:06.000Z</time>
      </trkpt>
      <trkpt lat="45.20175" lon="5.73697">
        <ele>225</ele>
        <time>2021-09-09T05:08:10.000Z</time>
      </trkpt>
      <trkpt lat="45.20178" lon="5.73723">
        <ele>224.80000305176</ele>
        <time>2021-09-09T05:08:16.000Z</time>
      </trkpt>
      <trkpt lat="45.20179" lon="5.73747">
        <ele>224.80000305176</ele>
        <time>2021-09-09T05:08:21.000Z</time>
      </trkpt>
      <trkpt lat="45.2018" lon="5.73773">
        <ele>224.80000305176</ele>
        <time>2021-09-09T05:08:26.000Z</time>
      </trkpt>
      <trkpt lat="45.2018" lon="5.73799">
        <ele>224.60000610352</ele>
        <time>2021-09-09T05:08:32.000Z</time>
      </trkpt>
      <trkpt lat="45.20181" lon="5.73803">
        <ele>224.60000610352</ele>
        <time>2021-09-09T05:08:33.000Z</time>
      </trkpt>
      <trkpt lat="45.20181" lon="5.73828">
        <ele>224.39999389648</ele>
        <time>2021-09-09T05:08:39.000Z</time>
      </trkpt>
      <trkpt lat="45.20181" lon="5.73831">
        <ele>224.39999389648</ele>
        <time>2021-09-09T05:08:40.000Z</time>
      </trkpt>
      <trkpt lat="45.20182" lon="5.73834">
        <ele>224.39999389648</ele>
        <time>2021-09-09T05:08:42.000Z</time>
      </trkpt>
      <trkpt lat="45.20182" lon="5.73845">
        <ele>223.39999389648</ele>
        <time>2021-09-09T05:08:47.000Z</time>
      </trkpt>
      <trkpt lat="45.20179" lon="5.73856">
        <ele>222.80000305176</ele>
        <time>2021-09-09T05:08:50.000Z</time>
      </trkpt>
      <trkpt lat="45.20177" lon="5.73867">
        <ele>222.80000305176</ele>
        <time>2021-09-09T05:08:53.000Z</time>
      </trkpt>
      <trkpt lat="45.20175" lon="5.73879">
        <ele>222.80000305176</ele>
        <time>2021-09-09T05:08:58.000Z</time>
      </trkpt>
      <trkpt lat="45.20166" lon="5.73897">
        <ele>223</ele>
        <time>2021-09-09T05:09:05.000Z</time>
      </trkpt>
      <trkpt lat="45.2016" lon="5.73906">
        <ele>223.19999694824</ele>
        <time>2021-09-09T05:09:08.000Z</time>
      </trkpt>
      <trkpt lat="45.20157" lon="5.7391">
        <ele>223</ele>
        <time>2021-09-09T05:09:09.000Z</time>
      </trkpt>
      <trkpt lat="45.2015" lon="5.73917">
        <ele>223</ele>
        <time>2021-09-09T05:09:11.000Z</time>
      </trkpt>
      <trkpt lat="45.20137" lon="5.73934">
        <ele>223</ele>
        <time>2021-09-09T05:09:17.000Z</time>
      </trkpt>
      <trkpt lat="45.20129" lon="5.73949">
        <ele>223</ele>
        <time>2021-09-09T05:09:23.000Z</time>
      </trkpt>
      <trkpt lat="45.20126" lon="5.73955">
        <ele>223</ele>
        <time>2021-09-09T05:09:26.000Z</time>
      </trkpt>
      <trkpt lat="45.20124" lon="5.73962">
        <ele>222.80000305176</ele>
        <time>2021-09-09T05:09:28.000Z</time>
      </trkpt>
      <trkpt lat="45.20122" lon="5.73965">
        <ele>222.80000305176</ele>
        <time>2021-09-09T05:09:29.000Z</time>
      </trkpt>
      <trkpt lat="45.20113" lon="5.73981">
        <ele>222.60000610352</ele>
        <time>2021-09-09T05:09:35.000Z</time>
      </trkpt>
      <trkpt lat="45.20108" lon="5.73986">
        <ele>222.19999694824</ele>
        <time>2021-09-09T05:09:37.000Z</time>
      </trkpt>
      <trkpt lat="45.20099" lon="5.73991">
        <ele>222.19999694824</ele>
        <time>2021-09-09T05:09:40.000Z</time>
      </trkpt>
      <trkpt lat="45.20091" lon="5.74001">
        <ele>222</ele>
        <time>2021-09-09T05:09:44.000Z</time>
      </trkpt>
      <trkpt lat="45.20088" lon="5.74003">
        <ele>222</ele>
        <time>2021-09-09T05:09:45.000Z</time>
      </trkpt>
      <trkpt lat="45.20073" lon="5.7402">
        <ele>222.19999694824</ele>
        <time>2021-09-09T05:09:51.000Z</time>
      </trkpt>
      <trkpt lat="45.2006" lon="5.74042">
        <ele>222.39999389648</ele>
        <time>2021-09-09T05:09:57.000Z</time>
      </trkpt>
      <trkpt lat="45.20048" lon="5.74058">
        <ele>222.39999389648</ele>
        <time>2021-09-09T05:10:03.000Z</time>
      </trkpt>
      <trkpt lat="45.20048" lon="5.7406">
        <ele>222.80000305176</ele>
        <time>2021-09-09T05:10:06.000Z</time>
      </trkpt>
      <trkpt lat="45.2005" lon="5.7406">
        <ele>222.80000305176</ele>
        <time>2021-09-09T05:10:07.000Z</time>
      </trkpt>
      <trkpt lat="45.20044" lon="5.74064">
        <ele>223</ele>
        <time>2021-09-09T05:10:12.000Z</time>
      </trkpt>
      <trkpt lat="45.20039" lon="5.74068">
        <ele>222.80000305176</ele>
        <time>2021-09-09T05:10:15.000Z</time>
      </trkpt>
      <trkpt lat="45.20036" lon="5.74072">
        <ele>222.60000610352</ele>
        <time>2021-09-09T05:10:17.000Z</time>
      </trkpt>
      <trkpt lat="45.20023" lon="5.74089">
        <ele>223.60000610352</ele>
        <time>2021-09-09T05:10:23.000Z</time>
      </trkpt>
      <trkpt lat="45.2002" lon="5.74093">
        <ele>223.60000610352</ele>
        <time>2021-09-09T05:10:24.000Z</time>
      </trkpt>
      <trkpt lat="45.20004" lon="5.7411">
        <ele>224.39999389648</ele>
        <time>2021-09-09T05:10:28.000Z</time>
      </trkpt>
      <trkpt lat="45.2" lon="5.74113">
        <ele>224.60000610352</ele>
        <time>2021-09-09T05:10:29.000Z</time>
      </trkpt>
      <trkpt lat="45.19994" lon="5.74118">
        <ele>225.19999694824</ele>
        <time>2021-09-09T05:10:31.000Z</time>
      </trkpt>
      <trkpt lat="45.19991" lon="5.74121">
        <ele>225.19999694824</ele>
        <time>2021-09-09T05:10:32.000Z</time>
      </trkpt>
      <trkpt lat="45.19978" lon="5.74135">
        <ele>225.39999389648</ele>
        <time>2021-09-09T05:10:36.000Z</time>
      </trkpt>
      <trkpt lat="45.1996" lon="5.74152">
        <ele>225.19999694824</ele>
        <time>2021-09-09T05:10:41.000Z</time>
      </trkpt>
      <trkpt lat="45.19943" lon="5.74168">
        <ele>225</ele>
        <time>2021-09-09T05:10:47.000Z</time>
      </trkpt>
      <trkpt lat="45.19937" lon="5.74174">
        <ele>225.19999694824</ele>
        <time>2021-09-09T05:10:49.000Z</time>
      </trkpt>
      <trkpt lat="45.19934" lon="5.74176">
        <ele>225.19999694824</ele>
        <time>2021-09-09T05:10:50.000Z</time>
      </trkpt>
      <trkpt lat="45.19924" lon="5.74185">
        <ele>225.19999694824</ele>
        <time>2021-09-09T05:10:54.000Z</time>
      </trkpt>
      <trkpt lat="45.19907" lon="5.74197">
        <ele>225.19999694824</ele>
        <time>2021-09-09T05:10:59.000Z</time>
      </trkpt>
      <trkpt lat="45.199" lon="5.74202">
        <ele>225.19999694824</ele>
        <time>2021-09-09T05:11:01.000Z</time>
      </trkpt>
      <trkpt lat="45.19894" lon="5.74206">
        <ele>225.19999694824</ele>
        <time>2021-09-09T05:11:03.000Z</time>
      </trkpt>
      <trkpt lat="45.19887" lon="5.74209">
        <ele>225</ele>
        <time>2021-09-09T05:11:05.000Z</time>
      </trkpt>
      <trkpt lat="45.19873" lon="5.74214">
        <ele>224.80000305176</ele>
        <time>2021-09-09T05:11:09.000Z</time>
      </trkpt>
      <trkpt lat="45.19864" lon="5.74219">
        <ele>224.80000305176</ele>
        <time>2021-09-09T05:11:12.000Z</time>
      </trkpt>
      <trkpt lat="45.19854" lon="5.74223">
        <ele>225</ele>
        <time>2021-09-09T05:11:15.000Z</time>
      </trkpt>
      <trkpt lat="45.19835" lon="5.74231">
        <ele>225</ele>
        <time>2021-09-09T05:11:21.000Z</time>
      </trkpt>
      <trkpt lat="45.19816" lon="5.74238">
        <ele>225</ele>
        <time>2021-09-09T05:11:27.000Z</time>
      </trkpt>
      <trkpt lat="45.19796" lon="5.74246">
        <ele>225.19999694824</ele>
        <time>2021-09-09T05:11:33.000Z</time>
      </trkpt>
      <trkpt lat="45.19793" lon="5.74247">
        <ele>225.19999694824</ele>
        <time>2021-09-09T05:11:34.000Z</time>
      </trkpt>
      <trkpt lat="45.19774" lon="5.7425">
        <ele>225</ele>
        <time>2021-09-09T05:11:40.000Z</time>
      </trkpt>
      <trkpt lat="45.19771" lon="5.7425">
        <ele>225</ele>
        <time>2021-09-09T05:11:41.000Z</time>
      </trkpt>
      <trkpt lat="45.1975" lon="5.74253">
        <ele>225.19999694824</ele>
        <time>2021-09-09T05:11:47.000Z</time>
      </trkpt>
      <trkpt lat="45.1974" lon="5.74256">
        <ele>225.19999694824</ele>
        <time>2021-09-09T05:11:50.000Z</time>
      </trkpt>
      <trkpt lat="45.19729" lon="5.74256">
        <ele>225.19999694824</ele>
        <time>2021-09-09T05:11:53.000Z</time>
      </trkpt>
      <trkpt lat="45.19728" lon="5.74255">
        <ele>224.60000610352</ele>
        <time>2021-09-09T05:11:54.000Z</time>
      </trkpt>
      <trkpt lat="45.19723" lon="5.74242">
        <ele>223.60000610352</ele>
        <time>2021-09-09T05:11:59.000Z</time>
      </trkpt>
      <trkpt lat="45.19722" lon="5.74238">
        <ele>223.60000610352</ele>
        <time>2021-09-09T05:12:00.000Z</time>
      </trkpt>
      <trkpt lat="45.19722" lon="5.74219">
        <ele>223.60000610352</ele>
        <time>2021-09-09T05:12:04.000Z</time>
      </trkpt>
      <trkpt lat="45.19719" lon="5.74207">
        <ele>223.60000610352</ele>
        <time>2021-09-09T05:12:06.000Z</time>
      </trkpt>
      <trkpt lat="45.19716" lon="5.74195">
        <ele>223.39999389648</ele>
        <time>2021-09-09T05:12:09.000Z</time>
      </trkpt>
      <trkpt lat="45.19715" lon="5.7419">
        <ele>223.39999389648</ele>
        <time>2021-09-09T05:12:10.000Z</time>
      </trkpt>
      <trkpt lat="45.19712" lon="5.74181">
        <ele>223.19999694824</ele>
        <time>2021-09-09T05:12:13.000Z</time>
      </trkpt>
      <trkpt lat="45.19711" lon="5.74174">
        <ele>223.39999389648</ele>
        <time>2021-09-09T05:12:15.000Z</time>
      </trkpt>
      <trkpt lat="45.1971" lon="5.74171">
        <ele>223.39999389648</ele>
        <time>2021-09-09T05:12:16.000Z</time>
      </trkpt>
      <trkpt lat="45.19707" lon="5.74158">
        <ele>223.39999389648</ele>
        <time>2021-09-09T05:12:19.000Z</time>
      </trkpt>
      <trkpt lat="45.19702" lon="5.7413">
        <ele>223.39999389648</ele>
        <time>2021-09-09T05:12:25.000Z</time>
      </trkpt>
      <trkpt lat="45.197" lon="5.7412">
        <ele>223.39999389648</ele>
        <time>2021-09-09T05:12:27.000Z</time>
      </trkpt>
      <trkpt lat="45.19696" lon="5.74095">
        <ele>223.19999694824</ele>
        <time>2021-09-09T05:12:32.000Z</time>
      </trkpt>
      <trkpt lat="45.19695" lon="5.74083">
        <ele>223.19999694824</ele>
        <time>2021-09-09T05:12:35.000Z</time>
      </trkpt>
      <trkpt lat="45.19694" lon="5.74074">
        <ele>223.39999389648</ele>
        <time>2021-09-09T05:12:37.000Z</time>
      </trkpt>
      <trkpt lat="45.1969" lon="5.74054">
        <ele>223.19999694824</ele>
        <time>2021-09-09T05:12:42.000Z</time>
      </trkpt>
      <trkpt lat="45.19689" lon="5.74048">
        <ele>223.19999694824</ele>
        <time>2021-09-09T05:12:44.000Z</time>
      </trkpt>
      <trkpt lat="45.19687" lon="5.74025">
        <ele>223.39999389648</ele>
        <time>2021-09-09T05:12:50.000Z</time>
      </trkpt>
      <trkpt lat="45.19682" lon="5.74015">
        <ele>223.60000610352</ele>
        <time>2021-09-09T05:12:53.000Z</time>
      </trkpt>
      <trkpt lat="45.19675" lon="5.74012">
        <ele>223.60000610352</ele>
        <time>2021-09-09T05:12:56.000Z</time>
      </trkpt>
      <trkpt lat="45.19655" lon="5.74009">
        <ele>223.19999694824</ele>
        <time>2021-09-09T05:13:03.000Z</time>
      </trkpt>
      <trkpt lat="45.19634" lon="5.74006">
        <ele>223.39999389648</ele>
        <time>2021-09-09T05:13:08.000Z</time>
      </trkpt>
      <trkpt lat="45.19627" lon="5.74005">
        <ele>223.39999389648</ele>
        <time>2021-09-09T05:13:10.000Z</time>
      </trkpt>
      <trkpt lat="45.19616" lon="5.74002">
        <ele>223.19999694824</ele>
        <time>2021-09-09T05:13:14.000Z</time>
      </trkpt>
      <trkpt lat="45.19615" lon="5.73999">
        <ele>223.19999694824</ele>
        <time>2021-09-09T05:13:15.000Z</time>
      </trkpt>
      <trkpt lat="45.1962" lon="5.73978">
        <ele>222.80000305176</ele>
        <time>2021-09-09T05:13:20.000Z</time>
      </trkpt>
      <trkpt lat="45.19629" lon="5.73976">
        <ele>223</ele>
        <time>2021-09-09T05:13:24.000Z</time>
      </trkpt>
      <trkpt lat="45.19636" lon="5.73978">
        <ele>223.19999694824</ele>
        <time>2021-09-09T05:13:28.000Z</time>
      </trkpt>
      <trkpt lat="45.19638" lon="5.73974">
        <ele>223.19999694824</ele>
        <time>2021-09-09T05:13:30.000Z</time>
      </trkpt>
      <trkpt lat="45.19639" lon="5.7397">
        <ele>223.39999389648</ele>
        <time>2021-09-09T05:13:32.000Z</time>
      </trkpt>
      <trkpt lat="45.1964" lon="5.73967">
        <ele>223.39999389648</ele>
        <time>2021-09-09T05:13:33.000Z</time>
      </trkpt>
      <trkpt lat="45.1964" lon="5.73965">
        <ele>223.39999389648</ele>
        <time>2021-09-09T05:13:34.000Z</time>
      </trkpt>
    </trkseg>
  </trk>
</gpx>